Wetterdaten: Donnerstag, 10.08.2017
Datum Zeit Temp. A. Temp. A. max Feuchte A. Luftdruck Regen Wind Richtung Richtung Sonnenschein ET UV Solar Taupunkt Windchill Windböen
10.08.2017 00:00 15,8 °C 15,8 °C 95 % 1014,0 hPa 0,0 mm 0,7 km/h (0 Bft) S-SW 205 ° 0 min 0,000 mm 0,0 UV-I 0 W/m² 15,0 °C 15,8 °C 1,6 km/h (1 Bft)
10.08.2017 00:01 15,8 °C 15,8 °C 95 % 1013,9 hPa 0,0 mm 0,9 km/h (0 Bft) S-SW 205 ° 0 min 0,000 mm 0,0 UV-I 0 W/m² 15,0 °C 15,8 °C 3,2 km/h (1 Bft)
10.08.2017 00:02 15,8 °C 15,8 °C 95 % 1013,9 hPa 0,0 mm 1,0 km/h (0 Bft) S-SW 205 ° 0 min 0,000 mm 0,0 UV-I 0 W/m² 15,0 °C 15,8 °C 3,2 km/h (1 Bft)
10.08.2017 00:03 15,8 °C 15,8 °C 95 % 1013,8 hPa 0,0 mm 0,0 km/h (0 Bft) S-SW 205 ° 0 min 0,000 mm 0,0 UV-I 0 W/m² 15,0 °C 15,8 °C 0,0 km/h (0 Bft)
10.08.2017 00:04 15,8 °C 15,8 °C 95 % 1013,8 hPa 0,0 mm 0,1 km/h (0 Bft) S-SW 205 ° 0 min 0,000 mm 0,0 UV-I 0 W/m² 15,0 °C 15,8 °C 1,6 km/h (1 Bft)
10.08.2017 00:05 15,8 °C 15,8 °C 95 % 1013,8 hPa 0,0 mm 0,1 km/h (0 Bft) S-SW 205 ° 0 min 0,000 mm 0,0 UV-I 0 W/m² 15,0 °C 15,8 °C 1,6 km/h (1 Bft)
10.08.2017 00:06 15,8 °C 15,9 °C 95 % 1013,7 hPa 0,0 mm 0,7 km/h (0 Bft) S-SW 205 ° 0 min 0,000 mm 0,0 UV-I 0 W/m² 15,0 °C 15,8 °C 3,2 km/h (1 Bft)
10.08.2017 00:07 15,9 °C 15,9 °C 95 % 1013,8 hPa 0,0 mm 2,8 km/h (1 Bft) S-SW 205 ° 0 min 0,000 mm 0,0 UV-I 0 W/m² 15,1 °C 15,9 °C 4,8 km/h (1 Bft)
10.08.2017 00:08 15,9 °C 15,9 °C 95 % 1013,8 hPa 0,0 mm 3,9 km/h (1 Bft) S-SW 200 ° 0 min 0,000 mm 0,0 UV-I 0 W/m² 15,1 °C 15,9 °C 4,8 km/h (1 Bft)
10.08.2017 00:09 15,9 °C 15,9 °C 95 % 1013,9 hPa 0,0 mm 1,7 km/h (1 Bft) S-SW 202 ° 0 min 0,000 mm 0,0 UV-I 0 W/m² 15,1 °C 15,9 °C 4,8 km/h (1 Bft)
10.08.2017 00:10 15,9 °C 15,9 °C 95 % 1013,9 hPa 0,0 mm 1,2 km/h (1 Bft) S-SW 202 ° 0 min 0,000 mm 0,0 UV-I 0 W/m² 15,1 °C 15,9 °C 3,2 km/h (1 Bft)
10.08.2017 00:11 15,9 °C 15,9 °C 95 % 1013,9 hPa 0,0 mm 2,0 km/h (1 Bft) S-SW 202 ° 0 min 0,000 mm 0,0 UV-I 0 W/m² 15,1 °C 15,9 °C 3,2 km/h (1 Bft)
10.08.2017 00:12 15,9 °C 15,9 °C 95 % 1013,8 hPa 0,0 mm 3,0 km/h (1 Bft) S 174 ° 0 min 0,000 mm 0,0 UV-I 0 W/m² 15,1 °C 15,9 °C 4,8 km/h (1 Bft)
10.08.2017 00:13 15,8 °C 15,9 °C 95 % 1013,7 hPa 0,0 mm 3,4 km/h (1 Bft) S 174 ° 0 min 0,000 mm 0,0 UV-I 0 W/m² 15,0 °C 15,8 °C 4,8 km/h (1 Bft)
10.08.2017 00:14 15,8 °C 15,8 °C 95 % 1013,7 hPa 0,0 mm 2,3 km/h (1 Bft) S 174 ° 0 min 0,000 mm 0,0 UV-I 0 W/m² 15,0 °C 15,8 °C 3,2 km/h (1 Bft)
10.08.2017 00:15 15,8 °C 15,8 °C 95 % 1013,7 hPa 0,0 mm 0,9 km/h (0 Bft) S 174 ° 0 min 0,000 mm 0,0 UV-I 0 W/m² 15,0 °C 15,8 °C 1,6 km/h (1 Bft)
10.08.2017 00:16 15,8 °C 15,8 °C 95 % 1013,7 hPa 0,0 mm 0,1 km/h (0 Bft) S 174 ° 0 min 0,000 mm 0,0 UV-I 0 W/m² 15,0 °C 15,8 °C 1,6 km/h (1 Bft)
10.08.2017 00:17 15,8 °C 15,8 °C 95 % 1013,7 hPa 0,0 mm 0,3 km/h (0 Bft) S 174 ° 0 min 0,000 mm 0,0 UV-I 0 W/m² 15,0 °C 15,8 °C 3,2 km/h (1 Bft)
10.08.2017 00:18 15,7 °C 15,8 °C 95 % 1013,6 hPa 0,0 mm 2,6 km/h (1 Bft) S 174 ° 0 min 0,000 mm 0,0 UV-I 0 W/m² 14,9 °C 15,7 °C 3,2 km/h (1 Bft)
10.08.2017 00:19 15,7 °C 15,7 °C 95 % 1013,6 hPa 0,0 mm 1,7 km/h (1 Bft) S 174 ° 0 min 0,000 mm 0,0 UV-I 0 W/m² 14,9 °C 15,7 °C 3,2 km/h (1 Bft)
10.08.2017 00:20 15,7 °C 15,7 °C 95 % 1013,6 hPa 0,0 mm 2,0 km/h (1 Bft) S-SW 202 ° 0 min 0,000 mm 0,0 UV-I 0 W/m² 14,9 °C 15,7 °C 3,2 km/h (1 Bft)
10.08.2017 00:21 15,7 °C 15,7 °C 95 % 1013,6 hPa 0,0 mm 0,8 km/h (0 Bft) S-SW 202 ° 0 min 0,000 mm 0,0 UV-I 0 W/m² 14,9 °C 15,7 °C 1,6 km/h (1 Bft)
10.08.2017 00:22 15,7 °C 15,7 °C 95 % 1013,6 hPa 0,0 mm 0,0 km/h (0 Bft) S-SW 202 ° 0 min 0,000 mm 0,0 UV-I 0 W/m² 14,9 °C 15,7 °C 0,0 km/h (0 Bft)
10.08.2017 00:23 15,6 °C 15,7 °C 95 % 1013,6 hPa 0,0 mm 1,2 km/h (1 Bft) S-SW 202 ° 0 min 0,000 mm 0,0 UV-I 0 W/m² 14,8 °C 15,6 °C 4,8 km/h (1 Bft)
10.08.2017 00:24 15,6 °C 15,7 °C 95 % 1013,6 hPa 0,0 mm 2,7 km/h (1 Bft) S-SW 202 ° 0 min 0,000 mm 0,0 UV-I 0 W/m² 14,8 °C 15,6 °C 4,8 km/h (1 Bft)
10.08.2017 00:25 15,7 °C 15,7 °C 95 % 1013,6 hPa 0,0 mm 4,1 km/h (1 Bft) S-SW 199 ° 0 min 0,000 mm 0,0 UV-I 0 W/m² 14,9 °C 15,7 °C 6,4 km/h (2 Bft)
10.08.2017 00:26 15,7 °C 15,7 °C 95 % 1013,7 hPa 0,0 mm 4,5 km/h (1 Bft) S-SW 194 ° 0 min 0,000 mm 0,0 UV-I 0 W/m² 14,9 °C 15,7 °C 6,4 km/h (2 Bft)
10.08.2017 00:27 15,7 °C 15,7 °C 95 % 1013,7 hPa 0,0 mm 1,1 km/h (1 Bft) S-SW 194 ° 0 min 0,000 mm 0,0 UV-I 0 W/m² 14,9 °C 15,7 °C 3,2 km/h (1 Bft)
10.08.2017 00:28 15,7 °C 15,7 °C 95 % 1013,7 hPa 0,0 mm 0,0 km/h (0 Bft) S-SW 194 ° 0 min 0,000 mm 0,0 UV-I 0 W/m² 14,9 °C 15,7 °C 0,0 km/h (0 Bft)
10.08.2017 00:29 15,7 °C 15,7 °C 95 % 1013,7 hPa 0,0 mm 0,0 km/h (0 Bft) S-SW 194 ° 0 min 0,000 mm 0,0 UV-I 0 W/m² 14,9 °C 15,7 °C 0,0 km/h (0 Bft)
10.08.2017 00:30 15,6 °C 15,7 °C 94 % 1013,8 hPa 0,0 mm 0,0 km/h (0 Bft) S-SW 194 ° 0 min 0,000 mm 0,0 UV-I 0 W/m² 14,6 °C 15,6 °C 0,0 km/h (0 Bft)
10.08.2017 00:31 15,6 °C 15,7 °C 95 % 1013,8 hPa 0,0 mm 0,0 km/h (0 Bft) S-SW 194 ° 0 min 0,000 mm 0,0 UV-I 0 W/m² 14,8 °C 15,6 °C 0,0 km/h (0 Bft)
10.08.2017 00:32 15,6 °C 15,7 °C 94 % 1013,8 hPa 0,0 mm 0,0 km/h (0 Bft) S-SW 194 ° 0 min 0,000 mm 0,0 UV-I 0 W/m² 14,6 °C 15,6 °C 0,0 km/h (0 Bft)
10.08.2017 00:33 15,6 °C 15,6 °C 94 % 1013,8 hPa 0,0 mm 0,0 km/h (0 Bft) S-SW 194 ° 0 min 0,000 mm 0,0 UV-I 0 W/m² 14,6 °C 15,6 °C 0,0 km/h (0 Bft)
10.08.2017 00:34 15,6 °C 15,6 °C 94 % 1013,8 hPa 0,0 mm 1,9 km/h (1 Bft) S-SW 194 ° 0 min 0,000 mm 0,0 UV-I 0 W/m² 14,6 °C 15,6 °C 4,8 km/h (1 Bft)
10.08.2017 00:35 15,6 °C 15,6 °C 94 % 1013,8 hPa 0,0 mm 1,9 km/h (1 Bft) S-SW 194 ° 0 min 0,000 mm 0,0 UV-I 0 W/m² 14,6 °C 15,6 °C 4,8 km/h (1 Bft)
10.08.2017 00:36 15,6 °C 15,6 °C 94 % 1013,8 hPa 0,0 mm 0,1 km/h (0 Bft) S-SW 194 ° 0 min 0,000 mm 0,0 UV-I 0 W/m² 14,6 °C 15,6 °C 1,6 km/h (1 Bft)
10.08.2017 00:37 15,6 °C 15,6 °C 95 % 1013,7 hPa 0,0 mm 0,1 km/h (0 Bft) S-SW 194 ° 0 min 0,000 mm 0,0 UV-I 0 W/m² 14,8 °C 15,6 °C 1,6 km/h (1 Bft)
10.08.2017 00:38 15,6 °C 15,7 °C 95 % 1013,7 hPa 0,0 mm 0,0 km/h (0 Bft) S-SW 194 ° 0 min 0,000 mm 0,0 UV-I 0 W/m² 14,8 °C 15,6 °C 0,0 km/h (0 Bft)
10.08.2017 00:39 15,6 °C 15,7 °C 95 % 1013,6 hPa 0,0 mm 0,1 km/h (0 Bft) S-SW 194 ° 0 min 0,000 mm 0,0 UV-I 0 W/m² 14,8 °C 15,6 °C 1,6 km/h (1 Bft)
10.08.2017 00:40 15,7 °C 15,7 °C 94 % 1013,6 hPa 0,0 mm 1,5 km/h (1 Bft) SW 217 ° 0 min 0,000 mm 0,0 UV-I 0 W/m² 14,7 °C 15,7 °C 1,6 km/h (1 Bft)
10.08.2017 00:41 15,6 °C 15,7 °C 94 % 1013,6 hPa 0,0 mm 4,0 km/h (1 Bft) W-SW 250 ° 0 min 0,000 mm 0,0 UV-I 0 W/m² 14,6 °C 15,6 °C 6,4 km/h (2 Bft)
10.08.2017 00:42 15,6 °C 15,6 °C 94 % 1013,6 hPa 0,0 mm 3,2 km/h (1 Bft) W 275 ° 0 min 0,000 mm 0,0 UV-I 0 W/m² 14,6 °C 15,6 °C 6,4 km/h (2 Bft)
10.08.2017 00:43 15,6 °C 15,6 °C 94 % 1013,5 hPa 0,0 mm 4,9 km/h (1 Bft) W 265 ° 0 min 0,000 mm 0,0 UV-I 0 W/m² 14,6 °C 15,6 °C 9,7 km/h (2 Bft)
10.08.2017 00:44 15,6 °C 15,6 °C 94 % 1013,6 hPa 0,0 mm 0,4 km/h (0 Bft) W 265 ° 0 min 0,000 mm 0,0 UV-I 0 W/m² 14,6 °C 15,6 °C 3,2 km/h (1 Bft)
10.08.2017 00:45 15,6 °C 15,6 °C 94 % 1013,6 hPa 0,0 mm 4,1 km/h (1 Bft) W 261 ° 0 min 0,000 mm 0,0 UV-I 0 W/m² 14,6 °C 15,6 °C 9,7 km/h (2 Bft)
10.08.2017 00:46 15,5 °C 15,6 °C 94 % 1013,6 hPa 0,0 mm 1,6 km/h (1 Bft) W 261 ° 0 min 0,000 mm 0,0 UV-I 0 W/m² 14,5 °C 15,5 °C 3,2 km/h (1 Bft)
10.08.2017 00:47 15,5 °C 15,6 °C 94 % 1013,5 hPa 0,0 mm 3,1 km/h (1 Bft) W 272 ° 0 min 0,000 mm 0,0 UV-I 0 W/m² 14,5 °C 15,5 °C 4,8 km/h (1 Bft)
10.08.2017 00:48 15,5 °C 15,5 °C 94 % 1013,4 hPa 0,0 mm 2,8 km/h (1 Bft) W 270 ° 0 min 0,000 mm 0,0 UV-I 0 W/m² 14,5 °C 15,5 °C 3,2 km/h (1 Bft)
10.08.2017 00:49 15,4 °C 15,5 °C 94 % 1013,3 hPa 0,0 mm 0,1 km/h (0 Bft) W 270 ° 0 min 0,000 mm 0,0 UV-I 0 W/m² 14,4 °C 15,4 °C 1,6 km/h (1 Bft)
10.08.2017 00:50 15,4 °C 15,4 °C 94 % 1013,4 hPa 0,0 mm 2,9 km/h (1 Bft) W 265 ° 0 min 0,000 mm 0,0 UV-I 0 W/m² 14,4 °C 15,4 °C 4,8 km/h (1 Bft)
10.08.2017 00:51 15,4 °C 15,4 °C 94 % 1013,4 hPa 0,0 mm 3,0 km/h (1 Bft) W-SW 246 ° 0 min 0,000 mm 0,0 UV-I 0 W/m² 14,4 °C 15,4 °C 4,8 km/h (1 Bft)
10.08.2017 00:52 15,3 °C 15,4 °C 94 % 1013,4 hPa 0,0 mm 3,2 km/h (1 Bft) W-SW 244 ° 0 min 0,000 mm 0,0 UV-I 0 W/m² 14,3 °C 15,3 °C 4,8 km/h (1 Bft)
10.08.2017 00:53 15,3 °C 15,3 °C 94 % 1013,5 hPa 0,0 mm 2,0 km/h (1 Bft) W-SW 244 ° 0 min 0,000 mm 0,0 UV-I 0 W/m² 14,3 °C 15,3 °C 3,2 km/h (1 Bft)
10.08.2017 00:54 15,3 °C 15,4 °C 94 % 1013,5 hPa 0,0 mm 0,8 km/h (0 Bft) W-SW 244 ° 0 min 0,000 mm 0,0 UV-I 0 W/m² 14,3 °C 15,3 °C 1,6 km/h (1 Bft)
10.08.2017 00:55 15,3 °C 15,3 °C 95 % 1013,4 hPa 0,0 mm 0,0 km/h (0 Bft) W-SW 244 ° 0 min 0,000 mm 0,0 UV-I 0 W/m² 14,5 °C 15,3 °C 0,0 km/h (0 Bft)
10.08.2017 00:56 15,3 °C 15,3 °C 95 % 1013,3 hPa 0,0 mm 0,1 km/h (0 Bft) W-SW 244 ° 0 min 0,000 mm 0,0 UV-I 0 W/m² 14,5 °C 15,3 °C 1,6 km/h (1 Bft)
10.08.2017 00:57 15,3 °C 15,4 °C 95 % 1013,3 hPa 0,0 mm 0,0 km/h (0 Bft) W-SW 244 ° 0 min 0,000 mm 0,0 UV-I 0 W/m² 14,5 °C 15,3 °C 0,0 km/h (0 Bft)
10.08.2017 00:58 15,4 °C 15,4 °C 95 % 1013,4 hPa 0,0 mm 0,0 km/h (0 Bft) W-SW 244 ° 0 min 0,000 mm 0,0 UV-I 0 W/m² 14,6 °C 15,4 °C 0,0 km/h (0 Bft)
10.08.2017 00:59 15,4 °C 15,4 °C 95 % 1013,5 hPa 0,0 mm 3,6 km/h (1 Bft) S-SW 193 ° 0 min 0,000 mm 0,0 UV-I 0 W/m² 14,6 °C 15,4 °C 6,4 km/h (2 Bft)
10.08.2017 01:00 15,4 °C 15,4 °C 95 % 1013,5 hPa 0,0 mm 3,5 km/h (1 Bft) S-SW 201 ° 0 min 0,000 mm 0,0 UV-I 0 W/m² 14,6 °C 15,4 °C 8,0 km/h (2 Bft)
10.08.2017 01:01 15,4 °C 15,4 °C 95 % 1013,7 hPa 0,0 mm 1,5 km/h (1 Bft) S-SW 201 ° 0 min 0,000 mm 0,0 UV-I 0 W/m² 14,6 °C 15,4 °C 4,8 km/h (1 Bft)
10.08.2017 01:02 15,3 °C 15,4 °C 95 % 1013,7 hPa 0,0 mm 1,8 km/h (1 Bft) SW 222 ° 0 min 0,000 mm 0,0 UV-I 0 W/m² 14,5 °C 15,3 °C 4,8 km/h (1 Bft)
10.08.2017 01:03 15,4 °C 15,4 °C 95 % 1013,7 hPa 0,0 mm 4,3 km/h (1 Bft) SW 215 ° 0 min 0,000 mm 0,0 UV-I 0 W/m² 14,6 °C 15,4 °C 8,0 km/h (2 Bft)
10.08.2017 01:04 15,4 °C 15,4 °C 95 % 1013,7 hPa 0,0 mm 6,2 km/h (2 Bft) S 183 ° 0 min 0,000 mm 0,0 UV-I 0 W/m² 14,6 °C 15,4 °C 12,9 km/h (3 Bft)
10.08.2017 01:05 15,4 °C 15,4 °C 95 % 1013,6 hPa 0,0 mm 1,7 km/h (1 Bft) S 183 ° 0 min 0,000 mm 0,0 UV-I 0 W/m² 14,6 °C 15,4 °C 3,2 km/h (1 Bft)
10.08.2017 01:06 15,4 °C 15,4 °C 95 % 1013,6 hPa 0,0 mm 4,7 km/h (1 Bft) SW 215 ° 0 min 0,000 mm 0,0 UV-I 0 W/m² 14,6 °C 15,4 °C 8,0 km/h (2 Bft)
10.08.2017 01:07 15,4 °C 15,4 °C 95 % 1013,6 hPa 0,0 mm 3,1 km/h (1 Bft) SW 222 ° 0 min 0,000 mm 0,0 UV-I 0 W/m² 14,6 °C 15,4 °C 4,8 km/h (1 Bft)
10.08.2017 01:08 15,4 °C 15,4 °C 95 % 1013,6 hPa 0,0 mm 1,5 km/h (1 Bft) SW 222 ° 0 min 0,000 mm 0,0 UV-I 0 W/m² 14,6 °C 15,4 °C 3,2 km/h (1 Bft)
10.08.2017 01:09 15,4 °C 15,4 °C 95 % 1013,6 hPa 0,0 mm 0,7 km/h (0 Bft) SW 223 ° 0 min 0,000 mm 0,0 UV-I 0 W/m² 14,6 °C 15,4 °C 1,6 km/h (1 Bft)
10.08.2017 01:10 15,4 °C 15,4 °C 95 % 1013,7 hPa 0,0 mm 0,3 km/h (0 Bft) SW 223 ° 0 min 0,000 mm 0,0 UV-I 0 W/m² 14,6 °C 15,4 °C 1,6 km/h (1 Bft)
10.08.2017 01:11 15,4 °C 15,4 °C 95 % 1013,7 hPa 0,0 mm 3,3 km/h (1 Bft) W 262 ° 0 min 0,000 mm 0,0 UV-I 0 W/m² 14,6 °C 15,4 °C 6,4 km/h (2 Bft)
10.08.2017 01:12 15,4 °C 15,4 °C 95 % 1013,7 hPa 0,0 mm 3,9 km/h (1 Bft) W 262 ° 0 min 0,000 mm 0,0 UV-I 0 W/m² 14,6 °C 15,4 °C 6,4 km/h (2 Bft)
10.08.2017 01:13 15,3 °C 15,4 °C 94 % 1013,7 hPa 0,0 mm 2,0 km/h (1 Bft) W 262 ° 0 min 0,000 mm 0,0 UV-I 0 W/m² 14,3 °C 15,3 °C 3,2 km/h (1 Bft)
10.08.2017 01:14 15,3 °C 15,3 °C 94 % 1013,7 hPa 0,0 mm 3,8 km/h (1 Bft) W 269 ° 0 min 0,000 mm 0,0 UV-I 0 W/m² 14,3 °C 15,3 °C 6,4 km/h (2 Bft)
10.08.2017 01:15 15,3 °C 15,3 °C 95 % 1013,7 hPa 0,0 mm 3,6 km/h (1 Bft) W-SW 240 ° 0 min 0,000 mm 0,0 UV-I 0 W/m² 14,5 °C 15,3 °C 8,0 km/h (2 Bft)
10.08.2017 01:16 15,2 °C 15,3 °C 95 % 1013,7 hPa 0,0 mm 5,2 km/h (1 Bft) W 275 ° 0 min 0,000 mm 0,0 UV-I 0 W/m² 14,4 °C 15,2 °C 9,7 km/h (2 Bft)
10.08.2017 01:17 15,2 °C 15,2 °C 94 % 1013,7 hPa 0,0 mm 1,3 km/h (1 Bft) W 275 ° 0 min 0,000 mm 0,0 UV-I 0 W/m² 14,2 °C 15,2 °C 3,2 km/h (1 Bft)
10.08.2017 01:18 15,2 °C 15,2 °C 94 % 1013,7 hPa 0,0 mm 1,3 km/h (1 Bft) W-SW 238 ° 0 min 0,000 mm 0,0 UV-I 0 W/m² 14,2 °C 15,2 °C 3,2 km/h (1 Bft)
10.08.2017 01:19 15,2 °C 15,2 °C 95 % 1013,7 hPa 0,0 mm 0,0 km/h (0 Bft) W-SW 238 ° 0 min 0,000 mm 0,0 UV-I 0 W/m² 14,4 °C 15,2 °C 0,0 km/h (0 Bft)
10.08.2017 01:20 15,2 °C 15,2 °C 95 % 1013,8 hPa 0,0 mm 0,2 km/h (0 Bft) W-SW 238 ° 0 min 0,000 mm 0,0 UV-I 0 W/m² 14,4 °C 15,2 °C 1,6 km/h (1 Bft)
10.08.2017 01:21 15,2 °C 15,2 °C 95 % 1013,8 hPa 0,0 mm 2,2 km/h (1 Bft) W-SW 252 ° 0 min 0,000 mm 0,0 UV-I 0 W/m² 14,4 °C 15,2 °C 4,8 km/h (1 Bft)
10.08.2017 01:22 15,2 °C 15,2 °C 95 % 1013,8 hPa 0,0 mm 5,7 km/h (1 Bft) W-NW 286 ° 0 min 0,000 mm 0,0 UV-I 0 W/m² 14,4 °C 15,2 °C 11,3 km/h (2 Bft)
10.08.2017 01:23 15,3 °C 15,3 °C 95 % 1013,8 hPa 0,0 mm 4,2 km/h (1 Bft) W 269 ° 0 min 0,000 mm 0,0 UV-I 0 W/m² 14,5 °C 15,3 °C 6,4 km/h (2 Bft)
10.08.2017 01:24 15,3 °C 15,3 °C 95 % 1013,8 hPa 0,0 mm 0,9 km/h (0 Bft) W 269 ° 0 min 0,000 mm 0,0 UV-I 0 W/m² 14,5 °C 15,3 °C 3,2 km/h (1 Bft)
10.08.2017 01:25 15,3 °C 15,3 °C 95 % 1013,8 hPa 0,0 mm 1,1 km/h (1 Bft) W 269 ° 0 min 0,000 mm 0,0 UV-I 0 W/m² 14,5 °C 15,3 °C 4,8 km/h (1 Bft)
10.08.2017 01:26 15,4 °C 15,4 °C 95 % 1013,9 hPa 0,0 mm 4,1 km/h (1 Bft) W-SW 256 ° 0 min 0,000 mm 0,0 UV-I 0 W/m² 14,6 °C 15,4 °C 6,4 km/h (2 Bft)
10.08.2017 01:27 15,4 °C 15,4 °C 95 % 1013,8 hPa 0,0 mm 6,6 km/h (2 Bft) W 271 ° 0 min 0,000 mm 0,0 UV-I 0 W/m² 14,6 °C 15,4 °C 11,3 km/h (2 Bft)
10.08.2017 01:28 15,4 °C 15,4 °C 95 % 1013,7 hPa 0,0 mm 2,1 km/h (1 Bft) W 271 ° 0 min 0,000 mm 0,0 UV-I 0 W/m² 14,6 °C 15,4 °C 4,8 km/h (1 Bft)
10.08.2017 01:29 15,4 °C 15,4 °C 95 % 1013,7 hPa 0,0 mm 5,5 km/h (1 Bft) W 260 ° 0 min 0,000 mm 0,0 UV-I 0 W/m² 14,6 °C 15,4 °C 9,7 km/h (2 Bft)
10.08.2017 01:30 15,5 °C 15,5 °C 95 % 1013,7 hPa 0,0 mm 8,4 km/h (2 Bft) W-SW 238 ° 0 min 0,000 mm 0,0 UV-I 0 W/m² 14,7 °C 15,5 °C 11,3 km/h (2 Bft)
10.08.2017 01:31 15,5 °C 15,5 °C 95 % 1013,7 hPa 0,0 mm 3,0 km/h (1 Bft) W-SW 253 ° 0 min 0,000 mm 0,0 UV-I 0 W/m² 14,7 °C 15,5 °C 8,0 km/h (2 Bft)
10.08.2017 01:32 15,6 °C 15,6 °C 95 % 1013,8 hPa 0,0 mm 4,9 km/h (1 Bft) W 261 ° 0 min 0,000 mm 0,0 UV-I 0 W/m² 14,8 °C 15,6 °C 9,7 km/h (2 Bft)
10.08.2017 01:33 15,6 °C 15,6 °C 95 % 1013,8 hPa 0,0 mm 1,7 km/h (1 Bft) W 261 ° 0 min 0,000 mm 0,0 UV-I 0 W/m² 14,8 °C 15,6 °C 3,2 km/h (1 Bft)
10.08.2017 01:34 15,6 °C 15,6 °C 95 % 1013,8 hPa 0,0 mm 4,9 km/h (1 Bft) W 264 ° 0 min 0,000 mm 0,0 UV-I 0 W/m² 14,8 °C 15,6 °C 6,4 km/h (2 Bft)
10.08.2017 01:35 15,6 °C 15,6 °C 95 % 1013,8 hPa 0,0 mm 4,1 km/h (1 Bft) W-SW 238 ° 0 min 0,000 mm 0,0 UV-I 0 W/m² 14,8 °C 15,6 °C 4,8 km/h (1 Bft)
10.08.2017 01:36 15,6 °C 15,6 °C 95 % 1013,8 hPa 0,0 mm 2,0 km/h (1 Bft) W-SW 238 ° 0 min 0,000 mm 0,0 UV-I 0 W/m² 14,8 °C 15,6 °C 3,2 km/h (1 Bft)
10.08.2017 01:37 15,7 °C 15,7 °C 95 % 1013,8 hPa 0,0 mm 0,3 km/h (0 Bft) SW 225 ° 0 min 0,000 mm 0,0 UV-I 0 W/m² 14,9 °C 15,7 °C 1,6 km/h (1 Bft)
10.08.2017 01:38 15,6 °C 15,7 °C 95 % 1013,8 hPa 0,0 mm 1,2 km/h (1 Bft) W-SW 244 ° 0 min 0,000 mm 0,0 UV-I 0 W/m² 14,8 °C 15,6 °C 3,2 km/h (1 Bft)
10.08.2017 01:39 15,6 °C 15,6 °C 95 % 1013,9 hPa 0,0 mm 1,7 km/h (1 Bft) W-SW 244 ° 0 min 0,000 mm 0,0 UV-I 0 W/m² 14,8 °C 15,6 °C 4,8 km/h (1 Bft)
10.08.2017 01:40 15,6 °C 15,6 °C 95 % 1013,9 hPa 0,0 mm 0,3 km/h (0 Bft) W-SW 244 ° 0 min 0,000 mm 0,0 UV-I 0 W/m² 14,8 °C 15,6 °C 1,6 km/h (1 Bft)
10.08.2017 01:41 15,6 °C 15,7 °C 95 % 1013,8 hPa 0,0 mm 0,4 km/h (0 Bft) W-SW 244 ° 0 min 0,000 mm 0,0 UV-I 0 W/m² 14,8 °C 15,6 °C 1,6 km/h (1 Bft)
10.08.2017 01:42 15,7 °C 15,7 °C 95 % 1013,9 hPa 0,0 mm 0,0 km/h (0 Bft) W-SW 244 ° 0 min 0,000 mm 0,0 UV-I 0 W/m² 14,9 °C 15,7 °C 0,0 km/h (0 Bft)
10.08.2017 01:43 15,7 °C 15,7 °C 95 % 1013,9 hPa 0,0 mm 0,7 km/h (0 Bft) W 275 ° 0 min 0,000 mm 0,0 UV-I 0 W/m² 14,9 °C 15,7 °C 4,8 km/h (1 Bft)
10.08.2017 01:44 15,7 °C 15,7 °C 95 % 1013,9 hPa 0,0 mm 3,0 km/h (1 Bft) W-NW 292 ° 0 min 0,000 mm 0,0 UV-I 0 W/m² 14,9 °C 15,7 °C 4,8 km/h (1 Bft)
10.08.2017 01:45 15,7 °C 15,7 °C 95 % 1014,0 hPa 0,0 mm 2,2 km/h (1 Bft) W-NW 292 ° 0 min 0,000 mm 0,0 UV-I 0 W/m² 14,9 °C 15,7 °C 4,8 km/h (1 Bft)
10.08.2017 01:46 15,7 °C 15,7 °C 95 % 1014,0 hPa 0,0 mm 2,9 km/h (1 Bft) W-NW 293 ° 0 min 0,000 mm 0,0 UV-I 0 W/m² 14,9 °C 15,7 °C 6,4 km/h (2 Bft)
10.08.2017 01:47 15,7 °C 15,7 °C 95 % 1013,9 hPa 0,0 mm 3,5 km/h (1 Bft) W 270 ° 0 min 0,000 mm 0,0 UV-I 0 W/m² 14,9 °C 15,7 °C 6,4 km/h (2 Bft)
10.08.2017 01:48 15,7 °C 15,7 °C 95 % 1014,0 hPa 0,0 mm 4,7 km/h (1 Bft) W-NW 282 ° 0 min 0,000 mm 0,0 UV-I 0 W/m² 14,9 °C 15,7 °C 6,4 km/h (2 Bft)
10.08.2017 01:49 15,7 °C 15,7 °C 95 % 1014,0 hPa 0,0 mm 3,3 km/h (1 Bft) W 271 ° 0 min 0,000 mm 0,0 UV-I 0 W/m² 14,9 °C 15,7 °C 6,4 km/h (2 Bft)
10.08.2017 01:50 15,7 °C 15,7 °C 95 % 1014,0 hPa 0,0 mm 6,7 km/h (2 Bft) W 270 ° 0 min 0,000 mm 0,0 UV-I 0 W/m² 14,9 °C 15,7 °C 12,9 km/h (3 Bft)
10.08.2017 01:51 15,7 °C 15,8 °C 95 % 1014,0 hPa 0,0 mm 5,0 km/h (1 Bft) W 267 ° 0 min 0,000 mm 0,0 UV-I 0 W/m² 14,9 °C 15,7 °C 9,7 km/h (2 Bft)
10.08.2017 01:52 15,8 °C 15,8 °C 95 % 1014,0 hPa 0,0 mm 8,8 km/h (2 Bft) W 275 ° 0 min 0,000 mm 0,0 UV-I 0 W/m² 15,0 °C 15,8 °C 14,5 km/h (3 Bft)
10.08.2017 01:53 15,8 °C 15,8 °C 95 % 1014,0 hPa 0,0 mm 6,8 km/h (2 Bft) W-SW 240 ° 0 min 0,000 mm 0,0 UV-I 0 W/m² 15,0 °C 15,8 °C 9,7 km/h (2 Bft)
10.08.2017 01:54 15,8 °C 15,8 °C 95 % 1014,0 hPa 0,0 mm 6,2 km/h (2 Bft) W-NW 284 ° 0 min 0,000 mm 0,0 UV-I 0 W/m² 15,0 °C 15,8 °C 9,7 km/h (2 Bft)
10.08.2017 01:55 15,8 °C 15,8 °C 95 % 1014,0 hPa 0,0 mm 6,5 km/h (2 Bft) W 278 ° 0 min 0,000 mm 0,0 UV-I 0 W/m² 15,0 °C 15,8 °C 12,9 km/h (3 Bft)
10.08.2017 01:56 15,8 °C 15,8 °C 95 % 1014,0 hPa 0,0 mm 10,8 km/h (2 Bft) W 274 ° 0 min 0,000 mm 0,0 UV-I 0 W/m² 15,0 °C 15,8 °C 16,1 km/h (3 Bft)
10.08.2017 01:57 15,8 °C 15,8 °C 95 % 1014,0 hPa 0,0 mm 9,5 km/h (2 Bft) W 273 ° 0 min 0,000 mm 0,0 UV-I 0 W/m² 15,0 °C 15,8 °C 14,5 km/h (3 Bft)
10.08.2017 01:58 15,9 °C 15,9 °C 95 % 1014,0 hPa 0,0 mm 6,2 km/h (2 Bft) W 271 ° 0 min 0,000 mm 0,0 UV-I 0 W/m² 15,1 °C 15,9 °C 11,3 km/h (2 Bft)
10.08.2017 01:59 15,9 °C 15,9 °C 95 % 1014,1 hPa 0,0 mm 10,3 km/h (2 Bft) W-SW 252 ° 0 min 0,000 mm 0,0 UV-I 0 W/m² 15,1 °C 15,9 °C 12,9 km/h (3 Bft)
10.08.2017 02:00 15,9 °C 15,9 °C 95 % 1014,1 hPa 0,0 mm 9,3 km/h (2 Bft) W 269 ° 0 min 0,000 mm 0,0 UV-I 0 W/m² 15,1 °C 15,9 °C 12,9 km/h (3 Bft)
10.08.2017 02:01 15,9 °C 15,9 °C 95 % 1014,1 hPa 0,0 mm 5,4 km/h (1 Bft) W 268 ° 0 min 0,000 mm 0,0 UV-I 0 W/m² 15,1 °C 15,9 °C 8,0 km/h (2 Bft)
10.08.2017 02:02 15,9 °C 15,9 °C 95 % 1014,2 hPa 0,0 mm 9,4 km/h (2 Bft) W 274 ° 0 min 0,000 mm 0,0 UV-I 0 W/m² 15,1 °C 15,9 °C 14,5 km/h (3 Bft)
10.08.2017 02:03 15,9 °C 15,9 °C 94 % 1014,2 hPa 0,0 mm 6,5 km/h (2 Bft) W-NW 283 ° 0 min 0,000 mm 0,0 UV-I 0 W/m² 14,9 °C 15,9 °C 11,3 km/h (2 Bft)
10.08.2017 02:04 15,9 °C 15,9 °C 94 % 1014,2 hPa 0,0 mm 9,2 km/h (2 Bft) W-NW 296 ° 0 min 0,000 mm 0,0 UV-I 0 W/m² 14,9 °C 15,9 °C 16,1 km/h (3 Bft)
10.08.2017 02:05 15,9 °C 15,9 °C 94 % 1014,2 hPa 0,0 mm 6,1 km/h (2 Bft) W 273 ° 0 min 0,000 mm 0,0 UV-I 0 W/m² 14,9 °C 15,9 °C 11,3 km/h (2 Bft)
10.08.2017 02:06 15,9 °C 16,0 °C 94 % 1014,2 hPa 0,0 mm 6,4 km/h (2 Bft) W-NW 295 ° 0 min 0,000 mm 0,0 UV-I 0 W/m² 14,9 °C 15,9 °C 9,7 km/h (2 Bft)
10.08.2017 02:07 16,0 °C 16,0 °C 94 % 1014,3 hPa 0,0 mm 10,7 km/h (2 Bft) W-SW 252 ° 0 min 0,000 mm 0,0 UV-I 0 W/m² 15,0 °C 16,0 °C 17,7 km/h (3 Bft)
10.08.2017 02:08 16,0 °C 16,0 °C 94 % 1014,3 hPa 0,0 mm 9,2 km/h (2 Bft) NW 311 ° 0 min 0,000 mm 0,0 UV-I 0 W/m² 15,0 °C 16,0 °C 14,5 km/h (3 Bft)
10.08.2017 02:09 16,0 °C 16,0 °C 94 % 1014,3 hPa 0,0 mm 8,3 km/h (2 Bft) W 276 ° 0 min 0,000 mm 0,0 UV-I 0 W/m² 15,0 °C 16,0 °C 14,5 km/h (3 Bft)
10.08.2017 02:10 16,0 °C 16,1 °C 94 % 1014,3 hPa 0,0 mm 7,4 km/h (2 Bft) W-SW 246 ° 0 min 0,000 mm 0,0 UV-I 0 W/m² 15,0 °C 16,0 °C 12,9 km/h (3 Bft)
10.08.2017 02:11 16,0 °C 16,1 °C 94 % 1014,3 hPa 0,0 mm 14,1 km/h (3 Bft) W 263 ° 0 min 0,000 mm 0,0 UV-I 0 W/m² 15,0 °C 16,0 °C 19,3 km/h (3 Bft)
10.08.2017 02:12 16,1 °C 16,1 °C 94 % 1014,4 hPa 0,0 mm 9,0 km/h (2 Bft) W 269 ° 0 min 0,000 mm 0,0 UV-I 0 W/m² 15,1 °C 16,1 °C 16,1 km/h (3 Bft)
10.08.2017 02:13 16,1 °C 16,1 °C 94 % 1014,4 hPa 0,0 mm 6,3 km/h (2 Bft) NW 309 ° 0 min 0,000 mm 0,0 UV-I 0 W/m² 15,1 °C 16,1 °C 11,3 km/h (2 Bft)
10.08.2017 02:14 16,0 °C 16,1 °C 94 % 1014,4 hPa 0,0 mm 7,9 km/h (2 Bft) W-NW 284 ° 0 min 0,000 mm 0,0 UV-I 0 W/m² 15,0 °C 16,0 °C 12,9 km/h (3 Bft)
10.08.2017 02:15 16,0 °C 16,1 °C 94 % 1014,4 hPa 0,0 mm 6,3 km/h (2 Bft) W-NW 286 ° 0 min 0,000 mm 0,0 UV-I 0 W/m² 15,0 °C 16,0 °C 12,9 km/h (3 Bft)
10.08.2017 02:16 16,0 °C 16,1 °C 94 % 1014,4 hPa 0,0 mm 10,4 km/h (2 Bft) W 263 ° 0 min 0,000 mm 0,0 UV-I 0 W/m² 15,0 °C 16,0 °C 16,1 km/h (3 Bft)
10.08.2017 02:17 15,9 °C 16,0 °C 94 % 1014,4 hPa 0,0 mm 12,3 km/h (3 Bft) W 271 ° 0 min 0,000 mm 0,0 UV-I 0 W/m² 14,9 °C 15,9 °C 20,9 km/h (4 Bft)
10.08.2017 02:18 16,0 °C 16,0 °C 94 % 1014,4 hPa 0,0 mm 11,9 km/h (2 Bft) W-SW 249 ° 0 min 0,000 mm 0,0 UV-I 0 W/m² 15,0 °C 16,0 °C 17,7 km/h (3 Bft)
10.08.2017 02:19 15,9 °C 16,0 °C 93 % 1014,4 hPa 0,0 mm 13,7 km/h (3 Bft) W 268 ° 0 min 0,000 mm 0,0 UV-I 0 W/m² 14,8 °C 15,9 °C 19,3 km/h (3 Bft)
10.08.2017 02:20 16,0 °C 16,0 °C 93 % 1014,4 hPa 0,0 mm 9,5 km/h (2 Bft) W 273 ° 0 min 0,000 mm 0,0 UV-I 0 W/m² 14,9 °C 16,0 °C 14,5 km/h (3 Bft)
10.08.2017 02:21 15,9 °C 16,0 °C 93 % 1014,4 hPa 0,0 mm 12,8 km/h (3 Bft) W 260 ° 0 min 0,000 mm 0,0 UV-I 0 W/m² 14,8 °C 15,9 °C 19,3 km/h (3 Bft)
10.08.2017 02:22 15,9 °C 16,0 °C 93 % 1014,4 hPa 0,0 mm 11,6 km/h (2 Bft) W-NW 284 ° 0 min 0,000 mm 0,0 UV-I 0 W/m² 14,8 °C 15,9 °C 17,7 km/h (3 Bft)
10.08.2017 02:23 15,9 °C 16,0 °C 93 % 1014,4 hPa 0,0 mm 8,0 km/h (2 Bft) W 267 ° 0 min 0,000 mm 0,0 UV-I 0 W/m² 14,8 °C 15,9 °C 12,9 km/h (3 Bft)
10.08.2017 02:24 16,0 °C 16,0 °C 93 % 1014,5 hPa 0,0 mm 5,4 km/h (1 Bft) W 263 ° 0 min 0,000 mm 0,0 UV-I 0 W/m² 14,9 °C 16,0 °C 8,0 km/h (2 Bft)
10.08.2017 02:25 15,9 °C 16,0 °C 93 % 1014,5 hPa 0,0 mm 4,9 km/h (1 Bft) W 278 ° 0 min 0,000 mm 0,0 UV-I 0 W/m² 14,8 °C 15,9 °C 9,7 km/h (2 Bft)
10.08.2017 02:26 15,9 °C 15,9 °C 93 % 1014,6 hPa 0,0 mm 10,1 km/h (2 Bft) W-NW 292 ° 0 min 0,000 mm 0,0 UV-I 0 W/m² 14,8 °C 15,9 °C 16,1 km/h (3 Bft)
10.08.2017 02:27 15,9 °C 15,9 °C 93 % 1014,5 hPa 0,0 mm 14,6 km/h (3 Bft) W-SW 252 ° 0 min 0,000 mm 0,0 UV-I 0 W/m² 14,8 °C 15,9 °C 19,3 km/h (3 Bft)
10.08.2017 02:28 15,9 °C 15,9 °C 93 % 1014,5 hPa 0,0 mm 14,0 km/h (3 Bft) W 274 ° 0 min 0,000 mm 0,0 UV-I 0 W/m² 14,8 °C 15,9 °C 22,5 km/h (4 Bft)
10.08.2017 02:29 15,9 °C 15,9 °C 93 % 1014,5 hPa 0,0 mm 10,8 km/h (2 Bft) W-NW 298 ° 0 min 0,000 mm 0,0 UV-I 0 W/m² 14,8 °C 15,9 °C 14,5 km/h (3 Bft)
10.08.2017 02:30 15,8 °C 15,9 °C 93 % 1014,6 hPa 0,0 mm 10,3 km/h (2 Bft) W 266 ° 0 min 0,000 mm 0,0 UV-I 0 W/m² 14,7 °C 15,8 °C 16,1 km/h (3 Bft)
10.08.2017 02:31 15,8 °C 15,8 °C 93 % 1014,6 hPa 0,0 mm 12,5 km/h (3 Bft) SW 223 ° 0 min 0,000 mm 0,0 UV-I 0 W/m² 14,7 °C 15,8 °C 24,1 km/h (4 Bft)
10.08.2017 02:32 15,8 °C 15,8 °C 93 % 1014,7 hPa 0,0 mm 8,7 km/h (2 Bft) W-SW 239 ° 0 min 0,000 mm 0,0 UV-I 0 W/m² 14,7 °C 15,8 °C 14,5 km/h (3 Bft)
10.08.2017 02:33 15,8 °C 15,8 °C 93 % 1014,6 hPa 0,0 mm 4,6 km/h (1 Bft) W-NW 288 ° 0 min 0,000 mm 0,0 UV-I 0 W/m² 14,7 °C 15,8 °C 8,0 km/h (2 Bft)
10.08.2017 02:34 15,8 °C 15,8 °C 93 % 1014,6 hPa 0,0 mm 8,7 km/h (2 Bft) W 273 ° 0 min 0,000 mm 0,0 UV-I 0 W/m² 14,7 °C 15,8 °C 12,9 km/h (3 Bft)
10.08.2017 02:35 15,8 °C 15,8 °C 93 % 1014,6 hPa 0,0 mm 7,9 km/h (2 Bft) W 273 ° 0 min 0,000 mm 0,0 UV-I 0 W/m² 14,7 °C 15,8 °C 12,9 km/h (3 Bft)
10.08.2017 02:36 15,8 °C 15,8 °C 93 % 1014,7 hPa 0,0 mm 10,1 km/h (2 Bft) W-NW 300 ° 0 min 0,000 mm 0,0 UV-I 0 W/m² 14,7 °C 15,8 °C 14,5 km/h (3 Bft)
10.08.2017 02:37 15,8 °C 15,8 °C 93 % 1014,7 hPa 0,0 mm 5,7 km/h (1 Bft) W 271 ° 0 min 0,000 mm 0,0 UV-I 0 W/m² 14,7 °C 15,8 °C 9,7 km/h (2 Bft)
10.08.2017 02:38 15,8 °C 15,8 °C 93 % 1014,7 hPa 0,0 mm 10,0 km/h (2 Bft) W 278 ° 0 min 0,000 mm 0,0 UV-I 0 W/m² 14,7 °C 15,8 °C 14,5 km/h (3 Bft)
10.08.2017 02:39 15,7 °C 15,8 °C 93 % 1014,7 hPa 0,0 mm 6,2 km/h (2 Bft) W-NW 289 ° 0 min 0,000 mm 0,0 UV-I 0 W/m² 14,6 °C 15,7 °C 11,3 km/h (2 Bft)
10.08.2017 02:40 15,7 °C 15,8 °C 93 % 1014,7 hPa 0,0 mm 12,4 km/h (3 Bft) W-NW 290 ° 0 min 0,000 mm 0,0 UV-I 0 W/m² 14,6 °C 15,7 °C 20,9 km/h (4 Bft)
10.08.2017 02:41 15,7 °C 15,7 °C 93 % 1014,7 hPa 0,0 mm 10,1 km/h (2 Bft) W 277 ° 0 min 0,000 mm 0,0 UV-I 0 W/m² 14,6 °C 15,7 °C 17,7 km/h (3 Bft)
10.08.2017 02:42 15,7 °C 15,7 °C 93 % 1014,7 hPa 0,0 mm 5,8 km/h (2 Bft) W-SW 239 ° 0 min 0,000 mm 0,0 UV-I 0 W/m² 14,6 °C 15,7 °C 9,7 km/h (2 Bft)
10.08.2017 02:43 15,7 °C 15,7 °C 93 % 1014,7 hPa 0,0 mm 5,7 km/h (1 Bft) W-SW 254 ° 0 min 0,000 mm 0,0 UV-I 0 W/m² 14,6 °C 15,7 °C 11,3 km/h (2 Bft)
10.08.2017 02:44 15,7 °C 15,7 °C 93 % 1014,7 hPa 0,0 mm 3,1 km/h (1 Bft) W-SW 254 ° 0 min 0,000 mm 0,0 UV-I 0 W/m² 14,6 °C 15,7 °C 4,8 km/h (1 Bft)
10.08.2017 02:45 15,7 °C 15,7 °C 93 % 1014,7 hPa 0,0 mm 0,6 km/h (0 Bft) W-SW 254 ° 0 min 0,000 mm 0,0 UV-I 0 W/m² 14,6 °C 15,7 °C 3,2 km/h (1 Bft)
10.08.2017 02:46 15,7 °C 15,7 °C 93 % 1014,7 hPa 0,0 mm 3,0 km/h (1 Bft) W 269 ° 0 min 0,000 mm 0,0 UV-I 0 W/m² 14,6 °C 15,7 °C 6,4 km/h (2 Bft)
10.08.2017 02:47 15,7 °C 15,7 °C 93 % 1014,7 hPa 0,0 mm 5,5 km/h (1 Bft) W-SW 253 ° 0 min 0,000 mm 0,0 UV-I 0 W/m² 14,6 °C 15,7 °C 11,3 km/h (2 Bft)
10.08.2017 02:48 15,7 °C 15,7 °C 93 % 1014,7 hPa 0,0 mm 8,0 km/h (2 Bft) W 268 ° 0 min 0,000 mm 0,0 UV-I 0 W/m² 14,6 °C 15,7 °C 12,9 km/h (3 Bft)
10.08.2017 02:49 15,7 °C 15,7 °C 93 % 1014,8 hPa 0,0 mm 3,9 km/h (1 Bft) W 269 ° 0 min 0,000 mm 0,0 UV-I 0 W/m² 14,6 °C 15,7 °C 6,4 km/h (2 Bft)
10.08.2017 02:50 15,7 °C 15,7 °C 93 % 1014,8 hPa 0,0 mm 4,8 km/h (1 Bft) W 263 ° 0 min 0,000 mm 0,0 UV-I 0 W/m² 14,6 °C 15,7 °C 6,4 km/h (2 Bft)
10.08.2017 02:51 15,6 °C 15,7 °C 93 % 1014,7 hPa 0,0 mm 6,0 km/h (2 Bft) W 270 ° 0 min 0,000 mm 0,0 UV-I 0 W/m² 14,5 °C 15,6 °C 9,7 km/h (2 Bft)
10.08.2017 02:52 15,6 °C 15,7 °C 93 % 1014,8 hPa 0,0 mm 4,8 km/h (1 Bft) W 264 ° 0 min 0,000 mm 0,0 UV-I 0 W/m² 14,5 °C 15,6 °C 9,7 km/h (2 Bft)
10.08.2017 02:53 15,6 °C 15,6 °C 93 % 1014,8 hPa 0,0 mm 6,2 km/h (2 Bft) W-NW 293 ° 0 min 0,000 mm 0,0 UV-I 0 W/m² 14,5 °C 15,6 °C 12,9 km/h (3 Bft)
10.08.2017 02:54 15,6 °C 15,6 °C 93 % 1014,8 hPa 0,0 mm 4,2 km/h (1 Bft) W-SW 251 ° 0 min 0,000 mm 0,0 UV-I 0 W/m² 14,5 °C 15,6 °C 6,4 km/h (2 Bft)
10.08.2017 02:55 15,6 °C 15,6 °C 93 % 1014,8 hPa 0,0 mm 4,3 km/h (1 Bft) SW 233 ° 0 min 0,000 mm 0,0 UV-I 0 W/m² 14,5 °C 15,6 °C 8,0 km/h (2 Bft)
10.08.2017 02:56 15,6 °C 15,6 °C 93 % 1014,9 hPa 0,0 mm 2,6 km/h (1 Bft) SW 222 ° 0 min 0,000 mm 0,0 UV-I 0 W/m² 14,5 °C 15,6 °C 8,0 km/h (2 Bft)
10.08.2017 02:57 15,6 °C 15,6 °C 93 % 1014,8 hPa 0,0 mm 5,9 km/h (2 Bft) W 273 ° 0 min 0,000 mm 0,0 UV-I 0 W/m² 14,5 °C 15,6 °C 9,7 km/h (2 Bft)
10.08.2017 02:58 15,5 °C 15,6 °C 93 % 1014,9 hPa 0,0 mm 4,7 km/h (1 Bft) W-SW 246 ° 0 min 0,000 mm 0,0 UV-I 0 W/m² 14,4 °C 15,5 °C 8,0 km/h (2 Bft)
10.08.2017 02:59 15,5 °C 15,6 °C 93 % 1014,9 hPa 0,0 mm 3,2 km/h (1 Bft) W-SW 258 ° 0 min 0,000 mm 0,0 UV-I 0 W/m² 14,4 °C 15,5 °C 6,4 km/h (2 Bft)
10.08.2017 03:00 15,5 °C 15,6 °C 93 % 1014,9 hPa 0,0 mm 7,8 km/h (2 Bft) S-SO 148 ° 0 min 0,000 mm 0,0 UV-I 0 W/m² 14,4 °C 15,5 °C 11,3 km/h (2 Bft)
10.08.2017 03:01 15,5 °C 15,6 °C 93 % 1014,9 hPa 0,0 mm 7,4 km/h (2 Bft) W-SW 251 ° 0 min 0,000 mm 0,0 UV-I 0 W/m² 14,4 °C 15,5 °C 14,5 km/h (3 Bft)
10.08.2017 03:02 15,5 °C 15,5 °C 93 % 1015,0 hPa 0,0 mm 10,4 km/h (2 Bft) W 263 ° 0 min 0,000 mm 0,0 UV-I 0 W/m² 14,4 °C 15,5 °C 16,1 km/h (3 Bft)
10.08.2017 03:03 15,5 °C 15,5 °C 93 % 1014,9 hPa 0,0 mm 7,7 km/h (2 Bft) W 260 ° 0 min 0,000 mm 0,0 UV-I 0 W/m² 14,4 °C 15,5 °C 11,3 km/h (2 Bft)
10.08.2017 03:04 15,4 °C 15,5 °C 93 % 1015,0 hPa 0,0 mm 4,4 km/h (1 Bft) W-SW 257 ° 0 min 0,000 mm 0,0 UV-I 0 W/m² 14,3 °C 15,4 °C 6,4 km/h (2 Bft)
10.08.2017 03:05 15,5 °C 15,5 °C 93 % 1015,0 hPa 0,0 mm 4,4 km/h (1 Bft) W 273 ° 0 min 0,000 mm 0,0 UV-I 0 W/m² 14,4 °C 15,5 °C 6,4 km/h (2 Bft)
10.08.2017 03:06 15,4 °C 15,5 °C 93 % 1015,0 hPa 0,0 mm 4,2 km/h (1 Bft) W-SW 256 ° 0 min 0,000 mm 0,0 UV-I 0 W/m² 14,3 °C 15,4 °C 6,4 km/h (2 Bft)
10.08.2017 03:07 15,4 °C 15,4 °C 93 % 1015,0 hPa 0,0 mm 5,1 km/h (1 Bft) W 259 ° 0 min 0,000 mm 0,0 UV-I 0 W/m² 14,3 °C 15,4 °C 9,7 km/h (2 Bft)
10.08.2017 03:08 15,4 °C 15,4 °C 93 % 1015,1 hPa 0,0 mm 6,1 km/h (2 Bft) W-SW 252 ° 0 min 0,000 mm 0,0 UV-I 0 W/m² 14,3 °C 15,4 °C 11,3 km/h (2 Bft)
10.08.2017 03:09 15,4 °C 15,4 °C 93 % 1015,1 hPa 0,0 mm 7,6 km/h (2 Bft) W 263 ° 0 min 0,000 mm 0,0 UV-I 0 W/m² 14,3 °C 15,4 °C 11,3 km/h (2 Bft)
10.08.2017 03:10 15,4 °C 15,4 °C 93 % 1015,1 hPa 0,0 mm 7,4 km/h (2 Bft) W-SW 249 ° 0 min 0,000 mm 0,0 UV-I 0 W/m² 14,3 °C 15,4 °C 11,3 km/h (2 Bft)
10.08.2017 03:11 15,4 °C 15,4 °C 93 % 1015,1 hPa 0,0 mm 5,0 km/h (1 Bft) W-SW 257 ° 0 min 0,000 mm 0,0 UV-I 0 W/m² 14,3 °C 15,4 °C 11,3 km/h (2 Bft)
10.08.2017 03:12 15,4 °C 15,4 °C 93 % 1015,1 hPa 0,0 mm 5,6 km/h (1 Bft) W 281 ° 0 min 0,000 mm 0,0 UV-I 0 W/m² 14,3 °C 15,4 °C 9,7 km/h (2 Bft)
10.08.2017 03:13 15,4 °C 15,4 °C 93 % 1015,0 hPa 0,0 mm 8,9 km/h (2 Bft) W 275 ° 0 min 0,000 mm 0,0 UV-I 0 W/m² 14,3 °C 15,4 °C 12,9 km/h (3 Bft)
10.08.2017 03:14 15,4 °C 15,4 °C 93 % 1015,0 hPa 0,0 mm 6,9 km/h (2 Bft) W 273 ° 0 min 0,000 mm 0,0 UV-I 0 W/m² 14,3 °C 15,4 °C 9,7 km/h (2 Bft)
10.08.2017 03:15 15,3 °C 15,4 °C 93 % 1015,0 hPa 0,0 mm 8,6 km/h (2 Bft) W-NW 286 ° 0 min 0,000 mm 0,0 UV-I 0 W/m² 14,2 °C 15,3 °C 14,5 km/h (3 Bft)
10.08.2017 03:16 15,3 °C 15,3 °C 93 % 1015,0 hPa 0,0 mm 7,2 km/h (2 Bft) W-SW 254 ° 0 min 0,000 mm 0,0 UV-I 0 W/m² 14,2 °C 15,3 °C 9,7 km/h (2 Bft)
10.08.2017 03:17 15,3 °C 15,3 °C 93 % 1015,1 hPa 0,0 mm 4,5 km/h (1 Bft) W 260 ° 0 min 0,000 mm 0,0 UV-I 0 W/m² 14,2 °C 15,3 °C 6,4 km/h (2 Bft)
10.08.2017 03:18 15,3 °C 15,3 °C 93 % 1015,1 hPa 0,0 mm 7,0 km/h (2 Bft) W 271 ° 0 min 0,000 mm 0,0 UV-I 0 W/m² 14,2 °C 15,3 °C 12,9 km/h (3 Bft)
10.08.2017 03:19 15,3 °C 15,3 °C 93 % 1015,0 hPa 0,0 mm 4,3 km/h (1 Bft) W-NW 300 ° 0 min 0,000 mm 0,0 UV-I 0 W/m² 14,2 °C 15,3 °C 6,4 km/h (2 Bft)
10.08.2017 03:20 15,3 °C 15,3 °C 93 % 1015,0 hPa 0,0 mm 8,3 km/h (2 Bft) W 273 ° 0 min 0,000 mm 0,0 UV-I 0 W/m² 14,2 °C 15,3 °C 14,5 km/h (3 Bft)
10.08.2017 03:21 15,3 °C 15,3 °C 93 % 1015,0 hPa 0,0 mm 8,5 km/h (2 Bft) W 263 ° 0 min 0,000 mm 0,0 UV-I 0 W/m² 14,2 °C 15,3 °C 16,1 km/h (3 Bft)
10.08.2017 03:22 15,2 °C 15,3 °C 93 % 1015,0 hPa 0,0 mm 8,4 km/h (2 Bft) W-SW 258 ° 0 min 0,000 mm 0,0 UV-I 0 W/m² 14,1 °C 15,2 °C 16,1 km/h (3 Bft)
10.08.2017 03:23 15,2 °C 15,3 °C 93 % 1015,0 hPa 0,0 mm 6,0 km/h (2 Bft) W 263 ° 0 min 0,000 mm 0,0 UV-I 0 W/m² 14,1 °C 15,2 °C 9,7 km/h (2 Bft)
10.08.2017 03:24 15,2 °C 15,2 °C 93 % 1015,0 hPa 0,0 mm 2,7 km/h (1 Bft) W 261 ° 0 min 0,000 mm 0,0 UV-I 0 W/m² 14,1 °C 15,2 °C 6,4 km/h (2 Bft)
10.08.2017 03:25 15,2 °C 15,2 °C 93 % 1015,0 hPa 0,0 mm 3,2 km/h (1 Bft) W 265 ° 0 min 0,000 mm 0,0 UV-I 0 W/m² 14,1 °C 15,2 °C 6,4 km/h (2 Bft)
10.08.2017 03:26 15,2 °C 15,2 °C 93 % 1015,0 hPa 0,0 mm 6,1 km/h (2 Bft) W 265 ° 0 min 0,000 mm 0,0 UV-I 0 W/m² 14,1 °C 15,2 °C 16,1 km/h (3 Bft)
10.08.2017 03:27 15,2 °C 15,2 °C 93 % 1015,0 hPa 0,0 mm 6,3 km/h (2 Bft) W 263 ° 0 min 0,000 mm 0,0 UV-I 0 W/m² 14,1 °C 15,2 °C 11,3 km/h (2 Bft)
10.08.2017 03:28 15,2 °C 15,2 °C 93 % 1015,0 hPa 0,0 mm 6,4 km/h (2 Bft) W 273 ° 0 min 0,000 mm 0,0 UV-I 0 W/m² 14,1 °C 15,2 °C 12,9 km/h (3 Bft)
10.08.2017 03:29 15,2 °C 15,2 °C 93 % 1015,0 hPa 0,0 mm 5,2 km/h (1 Bft) W-SW 252 ° 0 min 0,000 mm 0,0 UV-I 0 W/m² 14,1 °C 15,2 °C 11,3 km/h (2 Bft)
10.08.2017 03:30 15,2 °C 15,2 °C 92 % 1015,0 hPa 0,0 mm 6,1 km/h (2 Bft) SW 233 ° 0 min 0,000 mm 0,0 UV-I 0 W/m² 13,9 °C 15,2 °C 12,9 km/h (3 Bft)
10.08.2017 03:31 15,2 °C 15,2 °C 92 % 1015,0 hPa 0,0 mm 5,0 km/h (1 Bft) W 280 ° 0 min 0,000 mm 0,0 UV-I 0 W/m² 13,9 °C 15,2 °C 6,4 km/h (2 Bft)
10.08.2017 03:32 15,2 °C 15,2 °C 92 % 1015,0 hPa 0,0 mm 8,0 km/h (2 Bft) NW 305 ° 0 min 0,000 mm 0,0 UV-I 0 W/m² 13,9 °C 15,2 °C 11,3 km/h (2 Bft)
10.08.2017 03:33 15,2 °C 15,2 °C 92 % 1015,0 hPa 0,0 mm 5,0 km/h (1 Bft) W 269 ° 0 min 0,000 mm 0,0 UV-I 0 W/m² 13,9 °C 15,2 °C 8,0 km/h (2 Bft)
10.08.2017 03:34 15,1 °C 15,2 °C 92 % 1015,0 hPa 0,0 mm 7,2 km/h (2 Bft) W-SW 254 ° 0 min 0,000 mm 0,0 UV-I 0 W/m² 13,8 °C 15,1 °C 14,5 km/h (3 Bft)
10.08.2017 03:35 15,1 °C 15,2 °C 92 % 1014,9 hPa 0,0 mm 8,3 km/h (2 Bft) W 268 ° 0 min 0,000 mm 0,0 UV-I 0 W/m² 13,8 °C 15,1 °C 12,9 km/h (3 Bft)
10.08.2017 03:36 15,1 °C 15,1 °C 92 % 1015,0 hPa 0,0 mm 4,7 km/h (1 Bft) W 279 ° 0 min 0,000 mm 0,0 UV-I 0 W/m² 13,8 °C 15,1 °C 6,4 km/h (2 Bft)
10.08.2017 03:37 15,1 °C 15,1 °C 92 % 1014,9 hPa 0,0 mm 6,6 km/h (2 Bft) W 262 ° 0 min 0,000 mm 0,0 UV-I 0 W/m² 13,8 °C 15,1 °C 11,3 km/h (2 Bft)
10.08.2017 03:38 15,1 °C 15,1 °C 92 % 1015,0 hPa 0,0 mm 12,7 km/h (3 Bft) W-NW 286 ° 0 min 0,000 mm 0,0 UV-I 0 W/m² 13,8 °C 15,1 °C 17,7 km/h (3 Bft)
10.08.2017 03:39 15,1 °C 15,1 °C 92 % 1015,0 hPa 0,0 mm 4,9 km/h (1 Bft) S-SW 195 ° 0 min 0,000 mm 0,0 UV-I 0 W/m² 13,8 °C 15,1 °C 9,7 km/h (2 Bft)
10.08.2017 03:40 15,1 °C 15,1 °C 92 % 1015,0 hPa 0,0 mm 8,7 km/h (2 Bft) W 268 ° 0 min 0,000 mm 0,0 UV-I 0 W/m² 13,8 °C 15,1 °C 16,1 km/h (3 Bft)
10.08.2017 03:41 15,0 °C 15,1 °C 92 % 1015,0 hPa 0,0 mm 5,8 km/h (2 Bft) W 279 ° 0 min 0,000 mm 0,0 UV-I 0 W/m² 13,7 °C 15,0 °C 11,3 km/h (2 Bft)
10.08.2017 03:42 15,0 °C 15,0 °C 92 % 1015,0 hPa 0,0 mm 8,0 km/h (2 Bft) W 261 ° 0 min 0,000 mm 0,0 UV-I 0 W/m² 13,7 °C 15,0 °C 11,3 km/h (2 Bft)
10.08.2017 03:43 15,0 °C 15,0 °C 92 % 1015,0 hPa 0,0 mm 6,2 km/h (2 Bft) W 281 ° 0 min 0,000 mm 0,0 UV-I 0 W/m² 13,7 °C 15,0 °C 11,3 km/h (2 Bft)
10.08.2017 03:44 15,0 °C 15,0 °C 92 % 1015,0 hPa 0,0 mm 10,7 km/h (2 Bft) S 184 ° 0 min 0,000 mm 0,0 UV-I 0 W/m² 13,7 °C 15,0 °C 17,7 km/h (3 Bft)
10.08.2017 03:45 15,0 °C 15,0 °C 92 % 1015,0 hPa 0,0 mm 5,9 km/h (2 Bft) W-NW 284 ° 0 min 0,000 mm 0,0 UV-I 0 W/m² 13,7 °C 15,0 °C 8,0 km/h (2 Bft)
10.08.2017 03:46 15,0 °C 15,0 °C 92 % 1015,0 hPa 0,0 mm 7,5 km/h (2 Bft) SW 234 ° 0 min 0,000 mm 0,0 UV-I 0 W/m² 13,7 °C 15,0 °C 11,3 km/h (2 Bft)
10.08.2017 03:47 15,0 °C 15,0 °C 92 % 1015,0 hPa 0,0 mm 8,4 km/h (2 Bft) W 263 ° 0 min 0,000 mm 0,0 UV-I 0 W/m² 13,7 °C 15,0 °C 12,9 km/h (3 Bft)
10.08.2017 03:48 15,1 °C 15,1 °C 92 % 1015,0 hPa 0,0 mm 5,2 km/h (1 Bft) S-SW 200 ° 0 min 0,000 mm 0,0 UV-I 0 W/m² 13,8 °C 15,1 °C 9,7 km/h (2 Bft)
10.08.2017 03:49 15,1 °C 15,1 °C 92 % 1015,0 hPa 0,0 mm 6,4 km/h (2 Bft) SW 232 ° 0 min 0,000 mm 0,0 UV-I 0 W/m² 13,8 °C 15,1 °C 11,3 km/h (2 Bft)
10.08.2017 03:50 15,1 °C 15,1 °C 92 % 1015,0 hPa 0,0 mm 5,2 km/h (1 Bft) W-SW 257 ° 0 min 0,000 mm 0,0 UV-I 0 W/m² 13,8 °C 15,1 °C 6,4 km/h (2 Bft)
10.08.2017 03:51 15,1 °C 15,1 °C 92 % 1015,0 hPa 0,0 mm 5,3 km/h (1 Bft) W-SW 254 ° 0 min 0,000 mm 0,0 UV-I 0 W/m² 13,8 °C 15,1 °C 9,7 km/h (2 Bft)
10.08.2017 03:52 15,1 °C 15,1 °C 92 % 1015,0 hPa 0,0 mm 4,4 km/h (1 Bft) W 267 ° 0 min 0,000 mm 0,0 UV-I 0 W/m² 13,8 °C 15,1 °C 9,7 km/h (2 Bft)
10.08.2017 03:53 15,1 °C 15,1 °C 92 % 1015,0 hPa 0,0 mm 2,8 km/h (1 Bft) W-SW 247 ° 0 min 0,000 mm 0,0 UV-I 0 W/m² 13,8 °C 15,1 °C 9,7 km/h (2 Bft)
10.08.2017 03:54 15,1 °C 15,1 °C 92 % 1015,0 hPa 0,0 mm 0,2 km/h (0 Bft) W-SW 247 ° 0 min 0,000 mm 0,0 UV-I 0 W/m² 13,8 °C 15,1 °C 1,6 km/h (1 Bft)
10.08.2017 03:55 15,1 °C 15,1 °C 92 % 1015,1 hPa 0,0 mm 1,3 km/h (1 Bft) W-SW 255 ° 0 min 0,000 mm 0,0 UV-I 0 W/m² 13,8 °C 15,1 °C 3,2 km/h (1 Bft)
10.08.2017 03:56 15,1 °C 15,1 °C 92 % 1015,1 hPa 0,0 mm 3,2 km/h (1 Bft) W-SW 240 ° 0 min 0,000 mm 0,0 UV-I 0 W/m² 13,8 °C 15,1 °C 4,8 km/h (1 Bft)
10.08.2017 03:57 15,1 °C 15,1 °C 92 % 1015,2 hPa 0,0 mm 2,0 km/h (1 Bft) W-SW 242 ° 0 min 0,000 mm 0,0 UV-I 0 W/m² 13,8 °C 15,1 °C 3,2 km/h (1 Bft)
10.08.2017 03:58 15,1 °C 15,1 °C 92 % 1015,2 hPa 0,0 mm 3,0 km/h (1 Bft) W-NW 290 ° 0 min 0,000 mm 0,0 UV-I 0 W/m² 13,8 °C 15,1 °C 4,8 km/h (1 Bft)
10.08.2017 03:59 15,1 °C 15,1 °C 92 % 1015,2 hPa 0,0 mm 2,7 km/h (1 Bft) W-NW 285 ° 0 min 0,000 mm 0,0 UV-I 0 W/m² 13,8 °C 15,1 °C 4,8 km/h (1 Bft)
10.08.2017 04:00 15,1 °C 15,1 °C 92 % 1015,2 hPa 0,0 mm 1,9 km/h (1 Bft) N-NW 327 ° 0 min 0,000 mm 0,0 UV-I 0 W/m² 13,8 °C 15,1 °C 4,8 km/h (1 Bft)
10.08.2017 04:02 15,0 °C 15,1 °C 92 % 1015,2 hPa 0,0 mm 0,8 km/h (0 Bft) W-NW 298 ° 0 min 0,000 mm 0,0 UV-I 0 W/m² 13,7 °C 15,0 °C 4,8 km/h (1 Bft)
10.08.2017 04:03 15,1 °C 15,1 °C 92 % 1015,2 hPa 0,0 mm 0,6 km/h (0 Bft) W-NW 298 ° 0 min 0,000 mm 0,0 UV-I 0 W/m² 13,8 °C 15,1 °C 3,2 km/h (1 Bft)
10.08.2017 04:04 15,0 °C 15,1 °C 92 % 1015,2 hPa 0,0 mm 0,0 km/h (0 Bft) W-NW 298 ° 0 min 0,000 mm 0,0 UV-I 0 W/m² 13,7 °C 15,0 °C 0,0 km/h (0 Bft)
10.08.2017 04:05 15,0 °C 15,1 °C 92 % 1015,2 hPa 0,0 mm 1,7 km/h (1 Bft) W-NW 295 ° 0 min 0,000 mm 0,0 UV-I 0 W/m² 13,7 °C 15,0 °C 4,8 km/h (1 Bft)
10.08.2017 04:06 15,0 °C 15,1 °C 92 % 1015,2 hPa 0,0 mm 3,2 km/h (1 Bft) W-SW 254 ° 0 min 0,000 mm 0,0 UV-I 0 W/m² 13,7 °C 15,0 °C 6,4 km/h (2 Bft)
10.08.2017 04:07 15,1 °C 15,1 °C 92 % 1015,1 hPa 0,0 mm 1,5 km/h (1 Bft) W-NW 297 ° 0 min 0,000 mm 0,0 UV-I 0 W/m² 13,8 °C 15,1 °C 3,2 km/h (1 Bft)
10.08.2017 04:08 15,1 °C 15,1 °C 92 % 1015,1 hPa 0,0 mm 2,5 km/h (1 Bft) W-NW 292 ° 0 min 0,000 mm 0,0 UV-I 0 W/m² 13,8 °C 15,1 °C 4,8 km/h (1 Bft)
10.08.2017 04:09 15,0 °C 15,1 °C 92 % 1015,1 hPa 0,0 mm 3,4 km/h (1 Bft) W-SW 254 ° 0 min 0,000 mm 0,0 UV-I 0 W/m² 13,7 °C 15,0 °C 4,8 km/h (1 Bft)
10.08.2017 04:10 15,1 °C 15,1 °C 92 % 1015,1 hPa 0,0 mm 4,2 km/h (1 Bft) W 274 ° 0 min 0,000 mm 0,0 UV-I 0 W/m² 13,8 °C 15,1 °C 6,4 km/h (2 Bft)
10.08.2017 04:11 15,1 °C 15,1 °C 92 % 1015,2 hPa 0,0 mm 4,6 km/h (1 Bft) W-SW 242 ° 0 min 0,000 mm 0,0 UV-I 0 W/m² 13,8 °C 15,1 °C 8,0 km/h (2 Bft)
10.08.2017 04:12 15,1 °C 15,1 °C 92 % 1015,1 hPa 0,0 mm 5,6 km/h (1 Bft) W-SW 246 ° 0 min 0,000 mm 0,0 UV-I 0 W/m² 13,8 °C 15,1 °C 11,3 km/h (2 Bft)
10.08.2017 04:13 15,1 °C 15,1 °C 92 % 1015,1 hPa 0,0 mm 2,5 km/h (1 Bft) W-SW 246 ° 0 min 0,000 mm 0,0 UV-I 0 W/m² 13,8 °C 15,1 °C 8,0 km/h (2 Bft)
10.08.2017 04:14 15,0 °C 15,1 °C 92 % 1015,1 hPa 0,0 mm 4,6 km/h (1 Bft) W 279 ° 0 min 0,000 mm 0,0 UV-I 0 W/m² 13,7 °C 15,0 °C 6,4 km/h (2 Bft)
10.08.2017 04:15 15,0 °C 15,0 °C 92 % 1015,1 hPa 0,0 mm 3,4 km/h (1 Bft) W 270 ° 0 min 0,000 mm 0,0 UV-I 0 W/m² 13,7 °C 15,0 °C 6,4 km/h (2 Bft)
10.08.2017 04:16 15,1 °C 15,1 °C 92 % 1015,1 hPa 0,0 mm 5,4 km/h (1 Bft) NW 304 ° 0 min 0,000 mm 0,0 UV-I 0 W/m² 13,8 °C 15,1 °C 11,3 km/h (2 Bft)
10.08.2017 04:17 15,1 °C 15,1 °C 92 % 1015,1 hPa 0,0 mm 3,6 km/h (1 Bft) W 275 ° 0 min 0,000 mm 0,0 UV-I 0 W/m² 13,8 °C 15,1 °C 6,4 km/h (2 Bft)
10.08.2017 04:18 15,1 °C 15,1 °C 92 % 1015,1 hPa 0,0 mm 9,7 km/h (2 Bft) W 265 ° 0 min 0,000 mm 0,0 UV-I 0 W/m² 13,8 °C 15,1 °C 12,9 km/h (3 Bft)
10.08.2017 04:19 15,1 °C 15,1 °C 92 % 1015,1 hPa 0,0 mm 5,4 km/h (1 Bft) W-SW 244 ° 0 min 0,000 mm 0,0 UV-I 0 W/m² 13,8 °C 15,1 °C 8,0 km/h (2 Bft)
10.08.2017 04:20 15,1 °C 15,1 °C 92 % 1015,1 hPa 0,0 mm 7,7 km/h (2 Bft) W-SW 241 ° 0 min 0,000 mm 0,0 UV-I 0 W/m² 13,8 °C 15,1 °C 14,5 km/h (3 Bft)
10.08.2017 04:21 15,1 °C 15,1 °C 92 % 1015,1 hPa 0,0 mm 3,8 km/h (1 Bft) W 268 ° 0 min 0,000 mm 0,0 UV-I 0 W/m² 13,8 °C 15,1 °C 4,8 km/h (1 Bft)
10.08.2017 04:22 15,1 °C 15,1 °C 92 % 1015,1 hPa 0,0 mm 5,0 km/h (1 Bft) W 275 ° 0 min 0,000 mm 0,0 UV-I 0 W/m² 13,8 °C 15,1 °C 11,3 km/h (2 Bft)
10.08.2017 04:23 15,1 °C 15,1 °C 91 % 1015,1 hPa 0,0 mm 2,5 km/h (1 Bft) W-SW 237 ° 0 min 0,000 mm 0,0 UV-I 0 W/m² 13,6 °C 15,1 °C 4,8 km/h (1 Bft)
10.08.2017 04:24 15,1 °C 15,1 °C 92 % 1015,2 hPa 0,0 mm 2,5 km/h (1 Bft) W-SW 249 ° 0 min 0,000 mm 0,0 UV-I 0 W/m² 13,8 °C 15,1 °C 4,8 km/h (1 Bft)
10.08.2017 04:25 15,1 °C 15,1 °C 91 % 1015,2 hPa 0,0 mm 6,3 km/h (2 Bft) W 275 ° 0 min 0,000 mm 0,0 UV-I 0 W/m² 13,6 °C 15,1 °C 9,7 km/h (2 Bft)
10.08.2017 04:26 15,1 °C 15,1 °C 91 % 1015,2 hPa 0,0 mm 4,2 km/h (1 Bft) W 265 ° 0 min 0,000 mm 0,0 UV-I 0 W/m² 13,6 °C 15,1 °C 6,4 km/h (2 Bft)
10.08.2017 04:27 15,1 °C 15,1 °C 91 % 1015,2 hPa 0,0 mm 3,3 km/h (1 Bft) W 281 ° 0 min 0,000 mm 0,0 UV-I 0 W/m² 13,6 °C 15,1 °C 6,4 km/h (2 Bft)
10.08.2017 04:28 15,1 °C 15,1 °C 92 % 1015,2 hPa 0,0 mm 6,1 km/h (2 Bft) W 275 ° 0 min 0,000 mm 0,0 UV-I 0 W/m² 13,8 °C 15,1 °C 14,5 km/h (3 Bft)
10.08.2017 04:29 15,1 °C 15,1 °C 92 % 1015,1 hPa 0,0 mm 6,6 km/h (2 Bft) W-NW 292 ° 0 min 0,000 mm 0,0 UV-I 0 W/m² 13,8 °C 15,1 °C 11,3 km/h (2 Bft)
10.08.2017 04:30 15,0 °C 15,1 °C 92 % 1015,1 hPa 0,0 mm 3,4 km/h (1 Bft) W 281 ° 0 min 0,000 mm 0,0 UV-I 0 W/m² 13,7 °C 15,0 °C 6,4 km/h (2 Bft)
10.08.2017 04:31 15,0 °C 15,1 °C 91 % 1015,1 hPa 0,0 mm 5,9 km/h (2 Bft) W 259 ° 0 min 0,000 mm 0,0 UV-I 0 W/m² 13,5 °C 15,0 °C 9,7 km/h (2 Bft)
10.08.2017 04:32 15,1 °C 15,1 °C 91 % 1015,1 hPa 0,0 mm 3,0 km/h (1 Bft) W 269 ° 0 min 0,000 mm 0,0 UV-I 0 W/m² 13,6 °C 15,1 °C 6,4 km/h (2 Bft)
10.08.2017 04:33 15,1 °C 15,1 °C 91 % 1015,1 hPa 0,0 mm 2,1 km/h (1 Bft) W 269 ° 0 min 0,000 mm 0,0 UV-I 0 W/m² 13,6 °C 15,1 °C 3,2 km/h (1 Bft)
10.08.2017 04:34 15,1 °C 15,1 °C 91 % 1015,0 hPa 0,0 mm 2,7 km/h (1 Bft) NW 314 ° 0 min 0,000 mm 0,0 UV-I 0 W/m² 13,6 °C 15,1 °C 4,8 km/h (1 Bft)
10.08.2017 04:35 15,0 °C 15,1 °C 91 % 1015,0 hPa 0,0 mm 3,6 km/h (1 Bft) W 276 ° 0 min 0,000 mm 0,0 UV-I 0 W/m² 13,5 °C 15,0 °C 6,4 km/h (2 Bft)
10.08.2017 04:36 15,0 °C 15,1 °C 91 % 1015,0 hPa 0,0 mm 3,6 km/h (1 Bft) W 276 ° 0 min 0,000 mm 0,0 UV-I 0 W/m² 13,5 °C 15,0 °C 4,8 km/h (1 Bft)
10.08.2017 04:37 15,0 °C 15,0 °C 92 % 1015,1 hPa 0,0 mm 4,3 km/h (1 Bft) W 279 ° 0 min 0,000 mm 0,0 UV-I 0 W/m² 13,7 °C 15,0 °C 9,7 km/h (2 Bft)
10.08.2017 04:38 15,0 °C 15,0 °C 92 % 1015,1 hPa 0,0 mm 2,5 km/h (1 Bft) W 278 ° 0 min 0,000 mm 0,0 UV-I 0 W/m² 13,7 °C 15,0 °C 4,8 km/h (1 Bft)
10.08.2017 04:39 15,0 °C 15,0 °C 91 % 1015,1 hPa 0,0 mm 2,3 km/h (1 Bft) W 278 ° 0 min 0,000 mm 0,0 UV-I 0 W/m² 13,5 °C 15,0 °C 4,8 km/h (1 Bft)
10.08.2017 04:40 15,0 °C 15,0 °C 92 % 1015,1 hPa 0,0 mm 2,2 km/h (1 Bft) W-NW 290 ° 0 min 0,000 mm 0,0 UV-I 0 W/m² 13,7 °C 15,0 °C 8,0 km/h (2 Bft)
10.08.2017 04:41 14,9 °C 15,0 °C 91 % 1015,0 hPa 0,0 mm 4,5 km/h (1 Bft) W 271 ° 0 min 0,000 mm 0,0 UV-I 0 W/m² 13,4 °C 14,9 °C 9,7 km/h (2 Bft)
10.08.2017 04:42 15,0 °C 15,0 °C 91 % 1015,1 hPa 0,0 mm 2,2 km/h (1 Bft) W-SW 248 ° 0 min 0,000 mm 0,0 UV-I 0 W/m² 13,5 °C 15,0 °C 4,8 km/h (1 Bft)
10.08.2017 04:43 15,0 °C 15,0 °C 91 % 1015,0 hPa 0,0 mm 2,7 km/h (1 Bft) S 181 ° 0 min 0,000 mm 0,0 UV-I 0 W/m² 13,5 °C 15,0 °C 6,4 km/h (2 Bft)
10.08.2017 04:44 15,0 °C 15,0 °C 91 % 1015,1 hPa 0,0 mm 3,4 km/h (1 Bft) W 271 ° 0 min 0,000 mm 0,0 UV-I 0 W/m² 13,5 °C 15,0 °C 8,0 km/h (2 Bft)
10.08.2017 04:45 15,0 °C 15,0 °C 91 % 1015,1 hPa 0,0 mm 9,3 km/h (2 Bft) S-SW 212 ° 0 min 0,000 mm 0,0 UV-I 0 W/m² 13,5 °C 15,0 °C 14,5 km/h (3 Bft)
10.08.2017 04:46 15,0 °C 15,0 °C 91 % 1015,1 hPa 0,0 mm 4,3 km/h (1 Bft) W-SW 257 ° 0 min 0,000 mm 0,0 UV-I 0 W/m² 13,5 °C 15,0 °C 6,4 km/h (2 Bft)
10.08.2017 04:47 15,0 °C 15,0 °C 91 % 1015,1 hPa 0,0 mm 7,4 km/h (2 Bft) W-SW 258 ° 0 min 0,000 mm 0,0 UV-I 0 W/m² 13,5 °C 15,0 °C 12,9 km/h (3 Bft)
10.08.2017 04:48 15,0 °C 15,0 °C 91 % 1015,1 hPa 0,0 mm 5,1 km/h (1 Bft) W 278 ° 0 min 0,000 mm 0,0 UV-I 0 W/m² 13,5 °C 15,0 °C 11,3 km/h (2 Bft)
10.08.2017 04:49 15,0 °C 15,0 °C 91 % 1015,0 hPa 0,0 mm 0,8 km/h (0 Bft) W-SW 250 ° 0 min 0,000 mm 0,0 UV-I 0 W/m² 13,5 °C 15,0 °C 1,6 km/h (1 Bft)
10.08.2017 04:50 15,0 °C 15,0 °C 91 % 1015,0 hPa 0,0 mm 0,1 km/h (0 Bft) W-SW 250 ° 0 min 0,000 mm 0,0 UV-I 0 W/m² 13,5 °C 15,0 °C 1,6 km/h (1 Bft)
10.08.2017 04:51 15,0 °C 15,0 °C 91 % 1015,0 hPa 0,0 mm 5,3 km/h (1 Bft) W-SW 251 ° 0 min 0,000 mm 0,0 UV-I 0 W/m² 13,5 °C 15,0 °C 11,3 km/h (2 Bft)
10.08.2017 04:52 15,0 °C 15,0 °C 91 % 1015,0 hPa 0,0 mm 3,4 km/h (1 Bft) SW 216 ° 0 min 0,000 mm 0,0 UV-I 0 W/m² 13,5 °C 15,0 °C 6,4 km/h (2 Bft)
10.08.2017 04:53 15,0 °C 15,0 °C 91 % 1015,0 hPa 0,0 mm 3,7 km/h (1 Bft) W 276 ° 0 min 0,000 mm 0,0 UV-I 0 W/m² 13,5 °C 15,0 °C 6,4 km/h (2 Bft)
10.08.2017 04:54 15,0 °C 15,0 °C 90 % 1015,0 hPa 0,0 mm 3,2 km/h (1 Bft) W-SW 240 ° 0 min 0,000 mm 0,0 UV-I 0 W/m² 13,4 °C 15,0 °C 6,4 km/h (2 Bft)
10.08.2017 04:55 15,0 °C 15,0 °C 91 % 1015,0 hPa 0,0 mm 3,1 km/h (1 Bft) W 259 ° 0 min 0,000 mm 0,0 UV-I 0 W/m² 13,5 °C 15,0 °C 9,7 km/h (2 Bft)
10.08.2017 04:56 15,0 °C 15,0 °C 91 % 1015,0 hPa 0,0 mm 4,6 km/h (1 Bft) W-SW 248 ° 0 min 0,000 mm 0,0 UV-I 0 W/m² 13,5 °C 15,0 °C 8,0 km/h (2 Bft)
10.08.2017 04:57 15,0 °C 15,0 °C 91 % 1015,1 hPa 0,0 mm 2,3 km/h (1 Bft) W-SW 248 ° 0 min 0,000 mm 0,0 UV-I 0 W/m² 13,5 °C 15,0 °C 4,8 km/h (1 Bft)
10.08.2017 04:58 14,9 °C 15,0 °C 91 % 1015,0 hPa 0,0 mm 3,3 km/h (1 Bft) W-SW 248 ° 0 min 0,000 mm 0,0 UV-I 0 W/m² 13,4 °C 14,9 °C 9,7 km/h (2 Bft)
10.08.2017 04:59 15,0 °C 15,0 °C 90 % 1015,0 hPa 0,0 mm 5,0 km/h (1 Bft) W-SW 254 ° 0 min 0,000 mm 0,0 UV-I 0 W/m² 13,4 °C 15,0 °C 12,9 km/h (3 Bft)
10.08.2017 05:00 15,0 °C 15,0 °C 90 % 1015,1 hPa 0,0 mm 7,3 km/h (2 Bft) W-SW 251 ° 0 min 0,000 mm 0,0 UV-I 0 W/m² 13,4 °C 15,0 °C 11,3 km/h (2 Bft)
10.08.2017 05:01 15,0 °C 15,0 °C 91 % 1015,0 hPa 0,0 mm 3,8 km/h (1 Bft) W-SW 255 ° 0 min 0,000 mm 0,0 UV-I 0 W/m² 13,5 °C 15,0 °C 6,4 km/h (2 Bft)
10.08.2017 05:02 15,0 °C 15,0 °C 91 % 1015,1 hPa 0,0 mm 2,1 km/h (1 Bft) W-SW 255 ° 0 min 0,000 mm 0,0 UV-I 0 W/m² 13,5 °C 15,0 °C 4,8 km/h (1 Bft)
10.08.2017 05:03 15,0 °C 15,0 °C 90 % 1015,1 hPa 0,0 mm 1,9 km/h (1 Bft) W-SW 255 ° 0 min 0,000 mm 0,0 UV-I 0 W/m² 13,4 °C 15,0 °C 4,8 km/h (1 Bft)
10.08.2017 05:04 15,0 °C 15,0 °C 90 % 1015,1 hPa 0,0 mm 0,4 km/h (0 Bft) W-SW 255 ° 0 min 0,000 mm 0,0 UV-I 0 W/m² 13,4 °C 15,0 °C 1,6 km/h (1 Bft)
10.08.2017 05:05 15,0 °C 15,0 °C 90 % 1015,0 hPa 0,0 mm 2,3 km/h (1 Bft) W-SW 257 ° 0 min 0,000 mm 0,0 UV-I 0 W/m² 13,4 °C 15,0 °C 3,2 km/h (1 Bft)
10.08.2017 05:06 15,0 °C 15,0 °C 91 % 1015,0 hPa 0,0 mm 2,9 km/h (1 Bft) W 260 ° 0 min 0,000 mm 0,0 UV-I 0 W/m² 13,5 °C 15,0 °C 4,8 km/h (1 Bft)
10.08.2017 05:07 14,9 °C 15,0 °C 91 % 1015,0 hPa 0,0 mm 1,7 km/h (1 Bft) W 260 ° 0 min 0,000 mm 0,0 UV-I 0 W/m² 13,4 °C 14,9 °C 4,8 km/h (1 Bft)
10.08.2017 05:08 14,9 °C 15,0 °C 91 % 1015,0 hPa 0,0 mm 1,6 km/h (1 Bft) W 263 ° 0 min 0,000 mm 0,0 UV-I 0 W/m² 13,4 °C 14,9 °C 3,2 km/h (1 Bft)
10.08.2017 05:09 14,9 °C 14,9 °C 91 % 1015,1 hPa 0,0 mm 2,5 km/h (1 Bft) W 263 ° 0 min 0,000 mm 0,0 UV-I 0 W/m² 13,4 °C 14,9 °C 4,8 km/h (1 Bft)
10.08.2017 05:10 14,9 °C 14,9 °C 91 % 1015,0 hPa 0,0 mm 2,6 km/h (1 Bft) W 263 ° 0 min 0,000 mm 0,0 UV-I 0 W/m² 13,4 °C 14,9 °C 4,8 km/h (1 Bft)
10.08.2017 05:11 14,9 °C 14,9 °C 91 % 1015,1 hPa 0,0 mm 6,2 km/h (2 Bft) W-SW 250 ° 0 min 0,000 mm 0,0 UV-I 0 W/m² 13,4 °C 14,9 °C 11,3 km/h (2 Bft)
10.08.2017 05:12 14,9 °C 14,9 °C 91 % 1015,0 hPa 0,0 mm 3,7 km/h (1 Bft) W 270 ° 0 min 0,000 mm 0,0 UV-I 0 W/m² 13,4 °C 14,9 °C 6,4 km/h (2 Bft)
10.08.2017 05:13 14,9 °C 14,9 °C 91 % 1014,9 hPa 0,0 mm 5,7 km/h (1 Bft) W 274 ° 0 min 0,000 mm 0,0 UV-I 0 W/m² 13,4 °C 14,9 °C 9,7 km/h (2 Bft)
10.08.2017 05:14 14,9 °C 14,9 °C 90 % 1014,9 hPa 0,0 mm 4,7 km/h (1 Bft) SW 219 ° 0 min 0,000 mm 0,0 UV-I 0 W/m² 13,3 °C 14,9 °C 6,4 km/h (2 Bft)
10.08.2017 05:15 14,9 °C 14,9 °C 90 % 1014,9 hPa 0,0 mm 0,8 km/h (0 Bft) SW 219 ° 0 min 0,000 mm 0,0 UV-I 0 W/m² 13,3 °C 14,9 °C 3,2 km/h (1 Bft)
10.08.2017 05:16 14,9 °C 14,9 °C 91 % 1014,9 hPa 0,0 mm 4,8 km/h (1 Bft) W-SW 251 ° 0 min 0,000 mm 0,0 UV-I 0 W/m² 13,4 °C 14,9 °C 9,7 km/h (2 Bft)
10.08.2017 05:17 14,9 °C 14,9 °C 91 % 1014,9 hPa 0,0 mm 3,2 km/h (1 Bft) W 275 ° 0 min 0,000 mm 0,0 UV-I 0 W/m² 13,4 °C 14,9 °C 4,8 km/h (1 Bft)
10.08.2017 05:18 14,9 °C 14,9 °C 90 % 1014,9 hPa 0,0 mm 5,1 km/h (1 Bft) W 262 ° 0 min 0,000 mm 0,0 UV-I 0 W/m² 13,3 °C 14,9 °C 11,3 km/h (2 Bft)
10.08.2017 05:19 14,9 °C 14,9 °C 90 % 1014,9 hPa 0,0 mm 6,8 km/h (2 Bft) W-SW 253 ° 0 min 0,000 mm 0,0 UV-I 0 W/m² 13,3 °C 14,9 °C 11,3 km/h (2 Bft)
10.08.2017 05:20 14,8 °C 14,9 °C 90 % 1014,8 hPa 0,0 mm 10,0 km/h (2 Bft) W 275 ° 0 min 0,000 mm 0,0 UV-I 0 W/m² 13,2 °C 14,8 °C 12,9 km/h (3 Bft)
10.08.2017 05:21 14,8 °C 14,9 °C 91 % 1014,8 hPa 0,0 mm 6,8 km/h (2 Bft) W-SW 248 ° 0 min 0,000 mm 0,0 UV-I 0 W/m² 13,3 °C 14,8 °C 9,7 km/h (2 Bft)
10.08.2017 05:22 14,8 °C 14,8 °C 90 % 1014,8 hPa 0,0 mm 6,9 km/h (2 Bft) W-SW 256 ° 0 min 0,000 mm 0,0 UV-I 0 W/m² 13,2 °C 14,8 °C 11,3 km/h (2 Bft)
10.08.2017 05:23 14,8 °C 14,8 °C 90 % 1014,8 hPa 0,0 mm 5,6 km/h (1 Bft) W 269 ° 0 min 0,000 mm 0,0 UV-I 0 W/m² 13,2 °C 14,8 °C 9,7 km/h (2 Bft)
10.08.2017 05:24 14,8 °C 14,8 °C 91 % 1014,8 hPa 0,0 mm 5,9 km/h (2 Bft) W-SW 248 ° 0 min 0,000 mm 0,0 UV-I 0 W/m² 13,3 °C 14,8 °C 9,7 km/h (2 Bft)
10.08.2017 05:25 14,8 °C 14,8 °C 91 % 1014,8 hPa 0,0 mm 4,7 km/h (1 Bft) W 275 ° 0 min 0,000 mm 0,0 UV-I 0 W/m² 13,3 °C 14,8 °C 6,4 km/h (2 Bft)
10.08.2017 05:26 14,8 °C 14,8 °C 91 % 1014,8 hPa 0,0 mm 3,7 km/h (1 Bft) W 267 ° 0 min 0,000 mm 0,0 UV-I 0 W/m² 13,3 °C 14,8 °C 6,4 km/h (2 Bft)
10.08.2017 05:27 14,8 °C 14,8 °C 91 % 1014,8 hPa 0,0 mm 3,4 km/h (1 Bft) W 267 ° 0 min 0,000 mm 0,0 UV-I 0 W/m² 13,3 °C 14,8 °C 6,4 km/h (2 Bft)
10.08.2017 05:28 14,7 °C 14,8 °C 91 % 1014,8 hPa 0,0 mm 1,9 km/h (1 Bft) W 267 ° 0 min 0,000 mm 0,0 UV-I 0 W/m² 13,2 °C 14,7 °C 3,2 km/h (1 Bft)
10.08.2017 05:29 14,7 °C 14,7 °C 91 % 1014,8 hPa 0,0 mm 3,4 km/h (1 Bft) W-NW 292 ° 0 min 0,000 mm 0,0 UV-I 0 W/m² 13,2 °C 14,7 °C 6,4 km/h (2 Bft)
10.08.2017 05:30 14,7 °C 14,7 °C 91 % 1014,8 hPa 0,0 mm 4,7 km/h (1 Bft) W-NW 296 ° 0 min 0,000 mm 0,0 UV-I 0 W/m² 13,2 °C 14,7 °C 9,7 km/h (2 Bft)
10.08.2017 05:31 14,7 °C 14,7 °C 91 % 1014,8 hPa 0,0 mm 5,8 km/h (2 Bft) W 267 ° 0 min 0,000 mm 0,0 UV-I 0 W/m² 13,2 °C 14,7 °C 9,7 km/h (2 Bft)
10.08.2017 05:32 14,7 °C 14,7 °C 91 % 1014,8 hPa 0,0 mm 3,1 km/h (1 Bft) W-SW 257 ° 0 min 0,000 mm 0,0 UV-I 0 W/m² 13,2 °C 14,7 °C 6,4 km/h (2 Bft)
10.08.2017 05:33 14,7 °C 14,7 °C 91 % 1014,8 hPa 0,0 mm 3,2 km/h (1 Bft) W-SW 248 ° 0 min 0,000 mm 0,0 UV-I 0 W/m² 13,2 °C 14,7 °C 8,0 km/h (2 Bft)
10.08.2017 05:34 14,7 °C 14,7 °C 91 % 1014,8 hPa 0,0 mm 6,8 km/h (2 Bft) W 271 ° 0 min 0,000 mm 0,0 UV-I 0 W/m² 13,2 °C 14,7 °C 12,9 km/h (3 Bft)
10.08.2017 05:35 14,7 °C 14,7 °C 91 % 1014,8 hPa 0,0 mm 10,7 km/h (2 Bft) W-SW 238 ° 0 min 0,000 mm 0,0 UV-I 0 W/m² 13,2 °C 14,7 °C 14,5 km/h (3 Bft)
10.08.2017 05:36 14,7 °C 14,7 °C 91 % 1014,8 hPa 0,0 mm 8,0 km/h (2 Bft) W 271 ° 0 min 0,000 mm 0,0 UV-I 0 W/m² 13,2 °C 14,7 °C 11,3 km/h (2 Bft)
10.08.2017 05:37 14,7 °C 14,7 °C 91 % 1014,8 hPa 0,0 mm 7,1 km/h (2 Bft) W 259 ° 0 min 0,000 mm 0,0 UV-I 0 W/m² 13,2 °C 14,7 °C 11,3 km/h (2 Bft)
10.08.2017 05:38 14,7 °C 14,7 °C 91 % 1014,7 hPa 0,0 mm 2,0 km/h (1 Bft) W-SW 258 ° 0 min 0,000 mm 0,0 UV-I 0 W/m² 13,2 °C 14,7 °C 4,8 km/h (1 Bft)
10.08.2017 05:39 14,7 °C 14,7 °C 91 % 1014,8 hPa 0,0 mm 3,2 km/h (1 Bft) W 278 ° 0 min 0,000 mm 0,0 UV-I 0 W/m² 13,2 °C 14,7 °C 6,4 km/h (2 Bft)
10.08.2017 05:40 14,7 °C 14,7 °C 90 % 1014,8 hPa 0,0 mm 4,3 km/h (1 Bft) SW 236 ° 0 min 0,000 mm 0,0 UV-I 0 W/m² 13,1 °C 14,7 °C 9,7 km/h (2 Bft)
10.08.2017 05:41 14,7 °C 14,7 °C 90 % 1014,8 hPa 0,0 mm 4,0 km/h (1 Bft) W 259 ° 0 min 0,000 mm 0,0 UV-I 0 W/m² 13,1 °C 14,7 °C 6,4 km/h (2 Bft)
10.08.2017 05:42 14,7 °C 14,7 °C 90 % 1014,8 hPa 0,0 mm 5,0 km/h (1 Bft) W 267 ° 0 min 0,000 mm 0,0 UV-I 0 W/m² 13,1 °C 14,7 °C 11,3 km/h (2 Bft)
10.08.2017 05:43 14,7 °C 14,7 °C 91 % 1014,8 hPa 0,0 mm 5,6 km/h (1 Bft) SW 230 ° 0 min 0,000 mm 0,0 UV-I 0 W/m² 13,2 °C 14,7 °C 12,9 km/h (3 Bft)
10.08.2017 05:44 14,7 °C 14,7 °C 90 % 1014,8 hPa 0,0 mm 4,2 km/h (1 Bft) SW 230 ° 0 min 0,000 mm 0,0 UV-I 0 W/m² 13,1 °C 14,7 °C 9,7 km/h (2 Bft)
10.08.2017 05:45 14,7 °C 14,7 °C 90 % 1014,8 hPa 0,0 mm 4,8 km/h (1 Bft) W-SW 247 ° 0 min 0,000 mm 0,0 UV-I 0 W/m² 13,1 °C 14,7 °C 6,4 km/h (2 Bft)
10.08.2017 05:46 14,7 °C 14,7 °C 90 % 1014,8 hPa 0,0 mm 5,7 km/h (1 Bft) W-SW 243 ° 0 min 0,000 mm 0,0 UV-I 0 W/m² 13,1 °C 14,7 °C 8,0 km/h (2 Bft)
10.08.2017 05:47 14,7 °C 14,7 °C 90 % 1014,8 hPa 0,0 mm 6,2 km/h (2 Bft) W-SW 257 ° 0 min 0,000 mm 0,0 UV-I 0 W/m² 13,1 °C 14,7 °C 11,3 km/h (2 Bft)
10.08.2017 05:48 14,6 °C 14,7 °C 90 % 1014,8 hPa 0,0 mm 1,5 km/h (1 Bft) SW 220 ° 0 min 0,000 mm 0,0 UV-I 0 W/m² 13,0 °C 14,6 °C 3,2 km/h (1 Bft)
10.08.2017 05:49 14,6 °C 14,6 °C 90 % 1014,8 hPa 0,0 mm 7,1 km/h (2 Bft) S-SW 209 ° 0 min 0,000 mm 0,0 UV-I 0 W/m² 13,0 °C 14,6 °C 11,3 km/h (2 Bft)
10.08.2017 05:50 14,6 °C 14,6 °C 90 % 1014,8 hPa 0,0 mm 6,4 km/h (2 Bft) W 268 ° 0 min 0,000 mm 0,0 UV-I 0 W/m² 13,0 °C 14,6 °C 11,3 km/h (2 Bft)
10.08.2017 05:51 14,6 °C 14,6 °C 90 % 1014,8 hPa 0,0 mm 5,6 km/h (1 Bft) W-SW 238 ° 0 min 0,000 mm 0,0 UV-I 0 W/m² 13,0 °C 14,6 °C 9,7 km/h (2 Bft)
10.08.2017 05:52 14,6 °C 14,6 °C 91 % 1014,8 hPa 0,0 mm 5,2 km/h (1 Bft) W-SW 244 ° 0 min 0,000 mm 0,0 UV-I 0 W/m² 13,1 °C 14,6 °C 8,0 km/h (2 Bft)
10.08.2017 05:53 14,6 °C 14,6 °C 91 % 1014,8 hPa 0,0 mm 3,6 km/h (1 Bft) W-SW 253 ° 0 min 0,000 mm 0,0 UV-I 0 W/m² 13,1 °C 14,6 °C 4,8 km/h (1 Bft)
10.08.2017 05:54 14,6 °C 14,6 °C 91 % 1014,9 hPa 0,0 mm 2,2 km/h (1 Bft) SW 236 ° 0 min 0,000 mm 0,0 UV-I 0 W/m² 13,1 °C 14,6 °C 4,8 km/h (1 Bft)
10.08.2017 05:55 14,6 °C 14,6 °C 91 % 1014,9 hPa 0,0 mm 4,2 km/h (1 Bft) W 271 ° 0 min 0,000 mm 0,0 UV-I 0 W/m² 13,1 °C 14,6 °C 6,4 km/h (2 Bft)
10.08.2017 05:56 14,5 °C 14,6 °C 91 % 1014,9 hPa 0,0 mm 4,2 km/h (1 Bft) W-SW 252 ° 0 min 0,000 mm 0,0 UV-I 0 W/m² 13,0 °C 14,5 °C 6,4 km/h (2 Bft)
10.08.2017 05:57 14,6 °C 14,6 °C 91 % 1014,9 hPa 0,0 mm 4,1 km/h (1 Bft) W 267 ° 0 min 0,000 mm 0,0 UV-I 0 W/m² 13,1 °C 14,6 °C 6,4 km/h (2 Bft)
10.08.2017 05:58 14,5 °C 14,6 °C 91 % 1014,9 hPa 0,0 mm 3,2 km/h (1 Bft) W-SW 257 ° 0 min 0,000 mm 0,0 UV-I 0 W/m² 13,0 °C 14,5 °C 4,8 km/h (1 Bft)
10.08.2017 05:59 14,4 °C 14,5 °C 91 % 1014,9 hPa 0,0 mm 7,3 km/h (2 Bft) W 266 ° 0 min 0,000 mm 0,0 UV-I 0 W/m² 12,9 °C 14,4 °C 11,3 km/h (2 Bft)
10.08.2017 06:00 14,4 °C 14,5 °C 91 % 1014,8 hPa 0,0 mm 4,0 km/h (1 Bft) S-SW 200 ° 0 min 0,000 mm 0,0 UV-I 0 W/m² 12,9 °C 14,4 °C 6,4 km/h (2 Bft)
10.08.2017 06:01 14,4 °C 14,4 °C 91 % 1014,9 hPa 0,0 mm 3,4 km/h (1 Bft) W 273 ° 0 min 0,000 mm 0,0 UV-I 0 W/m² 12,9 °C 14,4 °C 6,4 km/h (2 Bft)
10.08.2017 06:02 14,4 °C 14,4 °C 91 % 1014,8 hPa 0,0 mm 5,8 km/h (2 Bft) SW 233 ° 0 min 0,000 mm 0,0 UV-I 0 W/m² 12,9 °C 14,4 °C 8,0 km/h (2 Bft)
10.08.2017 06:03 14,4 °C 14,4 °C 91 % 1014,8 hPa 0,0 mm 3,1 km/h (1 Bft) W-SW 242 ° 0 min 0,000 mm 0,0 UV-I 0 W/m² 12,9 °C 14,4 °C 4,8 km/h (1 Bft)
10.08.2017 06:04 14,4 °C 14,4 °C 91 % 1014,8 hPa 0,0 mm 2,4 km/h (1 Bft) W-SW 237 ° 0 min 0,000 mm 0,0 UV-I 0 W/m² 12,9 °C 14,4 °C 3,2 km/h (1 Bft)
10.08.2017 06:05 14,4 °C 14,4 °C 91 % 1014,8 hPa 0,0 mm 2,7 km/h (1 Bft) SW 229 ° 0 min 0,000 mm 0,0 UV-I 0 W/m² 12,9 °C 14,4 °C 6,4 km/h (2 Bft)
10.08.2017 06:06 14,4 °C 14,4 °C 91 % 1014,8 hPa 0,0 mm 4,0 km/h (1 Bft) W-SW 247 ° 0 min 0,000 mm 0,0 UV-I 0 W/m² 12,9 °C 14,4 °C 6,4 km/h (2 Bft)
10.08.2017 06:07 14,4 °C 14,4 °C 91 % 1014,9 hPa 0,0 mm 1,8 km/h (1 Bft) W 261 ° 0 min 0,000 mm 0,0 UV-I 0 W/m² 12,9 °C 14,4 °C 6,4 km/h (2 Bft)
10.08.2017 06:08 14,4 °C 14,4 °C 91 % 1014,9 hPa 0,0 mm 4,5 km/h (1 Bft) W 263 ° 0 min 0,000 mm 0,0 UV-I 0 W/m² 12,9 °C 14,4 °C 6,4 km/h (2 Bft)
10.08.2017 06:09 14,4 °C 14,4 °C 91 % 1014,9 hPa 0,0 mm 1,6 km/h (1 Bft) W-NW 303 ° 0 min 0,000 mm 0,0 UV-I 0 W/m² 12,9 °C 14,4 °C 4,8 km/h (1 Bft)
10.08.2017 06:10 14,4 °C 14,4 °C 91 % 1014,9 hPa 0,0 mm 2,7 km/h (1 Bft) W-NW 285 ° 0 min 0,000 mm 0,0 UV-I 0 W/m² 12,9 °C 14,4 °C 4,8 km/h (1 Bft)
10.08.2017 06:11 14,3 °C 14,4 °C 91 % 1014,8 hPa 0,0 mm 3,3 km/h (1 Bft) W-SW 238 ° 0 min 0,000 mm 0,0 UV-I 0 W/m² 12,8 °C 14,3 °C 4,8 km/h (1 Bft)
10.08.2017 06:12 14,3 °C 14,4 °C 91 % 1014,9 hPa 0,0 mm 5,1 km/h (1 Bft) W-SW 257 ° 0 min 0,000 mm 0,0 UV-I 0 W/m² 12,8 °C 14,3 °C 6,4 km/h (2 Bft)
10.08.2017 06:13 14,3 °C 14,3 °C 91 % 1014,9 hPa 0,0 mm 2,3 km/h (1 Bft) W 269 ° 0 min 0,000 mm 0,0 UV-I 0 W/m² 12,8 °C 14,3 °C 6,4 km/h (2 Bft)
10.08.2017 06:14 14,3 °C 14,3 °C 91 % 1014,8 hPa 0,0 mm 0,1 km/h (0 Bft) W 269 ° 0 min 0,000 mm 0,0 UV-I 0 W/m² 12,8 °C 14,3 °C 1,6 km/h (1 Bft)
10.08.2017 06:15 14,3 °C 14,3 °C 91 % 1014,8 hPa 0,0 mm 1,4 km/h (1 Bft) W-SW 242 ° 0 min 0,000 mm 0,0 UV-I 0 W/m² 12,8 °C 14,3 °C 4,8 km/h (1 Bft)
10.08.2017 06:16 14,3 °C 14,3 °C 91 % 1014,8 hPa 0,0 mm 5,6 km/h (1 Bft) W 259 ° 0 min 0,000 mm 0,0 UV-I 0 W/m² 12,8 °C 14,3 °C 9,7 km/h (2 Bft)
10.08.2017 06:17 14,3 °C 14,3 °C 92 % 1014,8 hPa 0,0 mm 3,2 km/h (1 Bft) W 261 ° 0 min 0,000 mm 0,0 UV-I 0 W/m² 13,0 °C 14,3 °C 4,8 km/h (1 Bft)
10.08.2017 06:18 14,3 °C 14,3 °C 92 % 1014,8 hPa 0,2 mm 9,8 km/h (2 Bft) W 268 ° 0 min 0,000 mm 0,0 UV-I 0 W/m² 13,0 °C 14,3 °C 14,5 km/h (3 Bft)
10.08.2017 06:19 14,3 °C 14,3 °C 92 % 1014,8 hPa 0,0 mm 6,3 km/h (2 Bft) W 275 ° 0 min 0,000 mm 0,0 UV-I 0 W/m² 13,0 °C 14,3 °C 9,7 km/h (2 Bft)
10.08.2017 06:20 14,3 °C 14,3 °C 92 % 1014,7 hPa 0,0 mm 4,1 km/h (1 Bft) W 279 ° 0 min 0,000 mm 0,0 UV-I 0 W/m² 13,0 °C 14,3 °C 8,0 km/h (2 Bft)
10.08.2017 06:21 14,2 °C 14,3 °C 92 % 1014,7 hPa 0,0 mm 3,2 km/h (1 Bft) W 268 ° 0 min 0,000 mm 0,0 UV-I 0 W/m² 12,9 °C 14,2 °C 6,4 km/h (2 Bft)
10.08.2017 06:22 14,3 °C 14,3 °C 92 % 1014,7 hPa 0,0 mm 8,5 km/h (2 Bft) W 266 ° 0 min 0,000 mm 0,0 UV-I 0 W/m² 13,0 °C 14,3 °C 12,9 km/h (3 Bft)
10.08.2017 06:23 14,2 °C 14,3 °C 92 % 1014,7 hPa 0,0 mm 5,8 km/h (2 Bft) W-NW 283 ° 0 min 0,000 mm 0,0 UV-I 0 W/m² 12,9 °C 14,2 °C 14,5 km/h (3 Bft)
10.08.2017 06:24 14,2 °C 14,2 °C 92 % 1014,8 hPa 0,0 mm 4,0 km/h (1 Bft) W 267 ° 0 min 0,000 mm 0,0 UV-I 0 W/m² 12,9 °C 14,2 °C 6,4 km/h (2 Bft)
10.08.2017 06:25 14,2 °C 14,2 °C 92 % 1014,8 hPa 0,0 mm 4,6 km/h (1 Bft) W 260 ° 0 min 0,000 mm 0,0 UV-I 0 W/m² 12,9 °C 14,2 °C 6,4 km/h (2 Bft)
10.08.2017 06:26 14,2 °C 14,2 °C 92 % 1014,8 hPa 0,0 mm 8,2 km/h (2 Bft) W 263 ° 0 min 0,000 mm 0,0 UV-I 0 W/m² 12,9 °C 14,2 °C 12,9 km/h (3 Bft)
10.08.2017 06:27 14,2 °C 14,2 °C 92 % 1014,8 hPa 0,0 mm 9,9 km/h (2 Bft) SW 231 ° 0 min 0,000 mm 0,0 UV-I 0 W/m² 12,9 °C 14,2 °C 14,5 km/h (3 Bft)
10.08.2017 06:28 14,2 °C 14,2 °C 92 % 1014,8 hPa 0,0 mm 3,7 km/h (1 Bft) W 270 ° 0 min 0,000 mm 0,0 UV-I 0 W/m² 12,9 °C 14,2 °C 11,3 km/h (2 Bft)
10.08.2017 06:29 14,2 °C 14,2 °C 92 % 1014,8 hPa 0,0 mm 10,5 km/h (2 Bft) W 273 ° 0 min 0,000 mm 0,0 UV-I 0 W/m² 12,9 °C 14,2 °C 12,9 km/h (3 Bft)
10.08.2017 06:30 14,2 °C 14,2 °C 92 % 1014,8 hPa 0,0 mm 4,3 km/h (1 Bft) W 273 ° 0 min 0,000 mm 0,0 UV-I 0 W/m² 12,9 °C 14,2 °C 9,7 km/h (2 Bft)
10.08.2017 06:31 14,2 °C 14,2 °C 92 % 1014,8 hPa 0,0 mm 4,8 km/h (1 Bft) W-SW 252 ° 0 min 0,000 mm 0,0 UV-I 0 W/m² 12,9 °C 14,2 °C 11,3 km/h (2 Bft)
10.08.2017 06:32 14,2 °C 14,2 °C 92 % 1014,8 hPa 0,0 mm 4,5 km/h (1 Bft) W 266 ° 0 min 0,000 mm 0,0 UV-I 0 W/m² 12,9 °C 14,2 °C 8,0 km/h (2 Bft)
10.08.2017 06:33 14,1 °C 14,2 °C 92 % 1014,8 hPa 0,0 mm 11,6 km/h (2 Bft) W-NW 293 ° 0 min 0,000 mm 0,0 UV-I 0 W/m² 12,8 °C 14,1 °C 14,5 km/h (3 Bft)
10.08.2017 06:34 14,2 °C 14,2 °C 92 % 1014,8 hPa 0,0 mm 6,4 km/h (2 Bft) SW 232 ° 0 min 0,000 mm 0,0 UV-I 0 W/m² 12,9 °C 14,2 °C 11,3 km/h (2 Bft)
10.08.2017 06:35 14,1 °C 14,2 °C 92 % 1014,9 hPa 0,0 mm 4,0 km/h (1 Bft) W 262 ° 0 min 0,000 mm 0,0 UV-I 0 W/m² 12,8 °C 14,1 °C 6,4 km/h (2 Bft)
10.08.2017 06:36 14,1 °C 14,2 °C 92 % 1014,8 hPa 0,0 mm 5,5 km/h (1 Bft) W 273 ° 0 min 0,000 mm 0,0 UV-I 0 W/m² 12,8 °C 14,1 °C 11,3 km/h (2 Bft)
10.08.2017 06:37 14,1 °C 14,2 °C 92 % 1014,8 hPa 0,0 mm 9,7 km/h (2 Bft) W-NW 288 ° 0 min 0,000 mm 0,0 UV-I 0 W/m² 12,8 °C 14,1 °C 14,5 km/h (3 Bft)
10.08.2017 06:38 14,1 °C 14,1 °C 92 % 1014,8 hPa 0,0 mm 8,7 km/h (2 Bft) W 261 ° 0 min 0,000 mm 0,0 UV-I 0 W/m² 12,8 °C 14,1 °C 12,9 km/h (3 Bft)
10.08.2017 06:39 14,1 °C 14,1 °C 93 % 1014,9 hPa 0,0 mm 8,4 km/h (2 Bft) W-SW 254 ° 0 min 0,000 mm 0,0 UV-I 0 W/m² 13,0 °C 14,1 °C 12,9 km/h (3 Bft)
10.08.2017 06:40 14,1 °C 14,1 °C 93 % 1014,9 hPa 0,0 mm 7,9 km/h (2 Bft) W 261 ° 0 min 0,000 mm 0,0 UV-I 0 W/m² 13,0 °C 14,1 °C 11,3 km/h (2 Bft)
10.08.2017 06:41 14,1 °C 14,1 °C 93 % 1014,9 hPa 0,0 mm 5,5 km/h (1 Bft) W-NW 282 ° 0 min 0,000 mm 0,0 UV-I 0 W/m² 13,0 °C 14,1 °C 9,7 km/h (2 Bft)
10.08.2017 06:42 14,1 °C 14,1 °C 93 % 1014,9 hPa 0,0 mm 4,9 km/h (1 Bft) W 262 ° 0 min 0,000 mm 0,0 UV-I 0 W/m² 13,0 °C 14,1 °C 9,7 km/h (2 Bft)
10.08.2017 06:43 14,1 °C 14,1 °C 93 % 1014,9 hPa 0,0 mm 5,6 km/h (1 Bft) W-NW 301 ° 0 min 0,000 mm 0,0 UV-I 0 W/m² 13,0 °C 14,1 °C 11,3 km/h (2 Bft)
10.08.2017 06:44 14,1 °C 14,1 °C 93 % 1014,9 hPa 0,0 mm 6,0 km/h (2 Bft) W-NW 283 ° 0 min 0,000 mm 0,0 UV-I 0 W/m² 13,0 °C 14,1 °C 9,7 km/h (2 Bft)
10.08.2017 06:45 14,1 °C 14,1 °C 93 % 1014,8 hPa 0,0 mm 4,0 km/h (1 Bft) W 272 ° 0 min 0,000 mm 0,0 UV-I 0 W/m² 13,0 °C 14,1 °C 6,4 km/h (2 Bft)
10.08.2017 06:46 14,1 °C 14,1 °C 93 % 1014,8 hPa 0,0 mm 5,5 km/h (1 Bft) W-NW 290 ° 0 min 0,000 mm 0,0 UV-I 5 W/m² 13,0 °C 14,1 °C 6,4 km/h (2 Bft)
10.08.2017 06:47 14,1 °C 14,1 °C 93 % 1014,8 hPa 0,0 mm 2,7 km/h (1 Bft) W-NW 290 ° 0 min 0,000 mm 0,0 UV-I 5 W/m² 13,0 °C 14,1 °C 4,8 km/h (1 Bft)
10.08.2017 06:48 14,0 °C 14,1 °C 93 % 1014,8 hPa 0,0 mm 3,1 km/h (1 Bft) W-NW 290 ° 0 min 0,000 mm 0,0 UV-I 5 W/m² 12,9 °C 14,0 °C 4,8 km/h (1 Bft)
10.08.2017 06:49 14,1 °C 14,1 °C 93 % 1014,8 hPa 0,0 mm 1,8 km/h (1 Bft) W-NW 290 ° 0 min 0,000 mm 0,0 UV-I 5 W/m² 13,0 °C 14,1 °C 3,2 km/h (1 Bft)
10.08.2017 06:50 14,0 °C 14,1 °C 93 % 1014,8 hPa 0,0 mm 0,2 km/h (0 Bft) W-NW 290 ° 0 min 0,000 mm 0,0 UV-I 5 W/m² 12,9 °C 14,0 °C 1,6 km/h (1 Bft)
10.08.2017 06:51 14,0 °C 14,1 °C 93 % 1014,8 hPa 0,0 mm 2,3 km/h (1 Bft) W-NW 290 ° 0 min 0,000 mm 0,0 UV-I 5 W/m² 12,9 °C 14,0 °C 4,8 km/h (1 Bft)
10.08.2017 06:52 14,0 °C 14,0 °C 93 % 1014,8 hPa 0,0 mm 3,4 km/h (1 Bft) W-NW 290 ° 0 min 0,000 mm 0,0 UV-I 5 W/m² 12,9 °C 14,0 °C 4,8 km/h (1 Bft)
10.08.2017 06:53 14,1 °C 14,1 °C 93 % 1014,8 hPa 0,0 mm 1,9 km/h (1 Bft) W-NW 290 ° 0 min 0,000 mm 0,0 UV-I 5 W/m² 13,0 °C 14,1 °C 3,2 km/h (1 Bft)
10.08.2017 06:54 14,0 °C 14,1 °C 94 % 1014,7 hPa 0,0 mm 1,1 km/h (1 Bft) W-NW 290 ° 0 min 0,000 mm 0,0 UV-I 5 W/m² 13,0 °C 14,0 °C 3,2 km/h (1 Bft)
10.08.2017 06:55 14,1 °C 14,1 °C 93 % 1014,8 hPa 0,0 mm 1,4 km/h (1 Bft) W-NW 290 ° 0 min 0,000 mm 0,0 UV-I 5 W/m² 13,0 °C 14,1 °C 1,6 km/h (1 Bft)
10.08.2017 06:56 14,0 °C 14,1 °C 94 % 1014,8 hPa 0,0 mm 1,7 km/h (1 Bft) W-NW 290 ° 0 min 0,000 mm 0,0 UV-I 7 W/m² 13,0 °C 14,0 °C 3,2 km/h (1 Bft)
10.08.2017 06:57 14,0 °C 14,1 °C 94 % 1014,8 hPa 0,0 mm 0,6 km/h (0 Bft) W-NW 290 ° 0 min 0,000 mm 0,0 UV-I 7 W/m² 13,0 °C 14,0 °C 1,6 km/h (1 Bft)
10.08.2017 06:58 14,0 °C 14,0 °C 94 % 1014,7 hPa 0,0 mm 0,6 km/h (0 Bft) W-NW 290 ° 0 min 0,000 mm 0,0 UV-I 7 W/m² 13,0 °C 14,0 °C 3,2 km/h (1 Bft)
10.08.2017 06:59 14,0 °C 14,0 °C 94 % 1014,8 hPa 0,0 mm 1,4 km/h (1 Bft) W-NW 290 ° 0 min 0,000 mm 0,0 UV-I 7 W/m² 13,0 °C 14,0 °C 3,2 km/h (1 Bft)
10.08.2017 07:00 14,0 °C 14,0 °C 94 % 1014,8 hPa 0,0 mm 0,5 km/h (0 Bft) W-NW 290 ° 0 min 0,000 mm 0,0 UV-I 7 W/m² 13,0 °C 14,0 °C 1,6 km/h (1 Bft)
10.08.2017 07:01 14,0 °C 14,0 °C 94 % 1014,8 hPa 0,0 mm 0,0 km/h (0 Bft) W-NW 290 ° 0 min 0,000 mm 0,0 UV-I 7 W/m² 13,0 °C 14,0 °C 0,0 km/h (0 Bft)
10.08.2017 07:02 13,9 °C 14,0 °C 94 % 1014,8 hPa 0,0 mm 1,7 km/h (1 Bft) W-NW 290 ° 0 min 0,000 mm 0,0 UV-I 7 W/m² 12,9 °C 13,9 °C 3,2 km/h (1 Bft)
10.08.2017 07:03 13,9 °C 13,9 °C 94 % 1014,8 hPa 0,0 mm 1,7 km/h (1 Bft) W-NW 290 ° 0 min 0,000 mm 0,0 UV-I 7 W/m² 12,9 °C 13,9 °C 3,2 km/h (1 Bft)
10.08.2017 07:04 13,9 °C 13,9 °C 94 % 1014,8 hPa 0,0 mm 1,5 km/h (1 Bft) W-NW 290 ° 0 min 0,000 mm 0,0 UV-I 9 W/m² 12,9 °C 13,9 °C 3,2 km/h (1 Bft)
10.08.2017 07:05 13,9 °C 13,9 °C 94 % 1014,8 hPa 0,0 mm 0,3 km/h (0 Bft) W-NW 290 ° 0 min 0,000 mm 0,0 UV-I 9 W/m² 12,9 °C 13,9 °C 1,6 km/h (1 Bft)
10.08.2017 07:06 13,9 °C 13,9 °C 94 % 1014,9 hPa 0,0 mm 0,0 km/h (0 Bft) W-NW 290 ° 0 min 0,000 mm 0,0 UV-I 11 W/m² 12,9 °C 13,9 °C 0,0 km/h (0 Bft)
10.08.2017 07:07 13,9 °C 13,9 °C 94 % 1014,9 hPa 0,0 mm 1,0 km/h (0 Bft) W-NW 290 ° 0 min 0,000 mm 0,0 UV-I 11 W/m² 12,9 °C 13,9 °C 3,2 km/h (1 Bft)
10.08.2017 07:08 13,9 °C 13,9 °C 94 % 1014,9 hPa 0,0 mm 1,9 km/h (1 Bft) W-NW 290 ° 0 min 0,000 mm 0,0 UV-I 12 W/m² 12,9 °C 13,9 °C 3,2 km/h (1 Bft)
10.08.2017 07:09 13,9 °C 13,9 °C 94 % 1014,9 hPa 0,0 mm 0,8 km/h (0 Bft) W-NW 290 ° 0 min 0,000 mm 0,0 UV-I 16 W/m² 12,9 °C 13,9 °C 1,6 km/h (1 Bft)
10.08.2017 07:10 13,9 °C 13,9 °C 94 % 1014,9 hPa 0,0 mm 0,0 km/h (0 Bft) W-NW 290 ° 0 min 0,000 mm 0,0 UV-I 18 W/m² 12,9 °C 13,9 °C 0,0 km/h (0 Bft)
10.08.2017 07:11 13,9 °C 13,9 °C 94 % 1014,9 hPa 0,0 mm 0,0 km/h (0 Bft) W-NW 290 ° 0 min 0,000 mm 0,0 UV-I 16 W/m² 12,9 °C 13,9 °C 0,0 km/h (0 Bft)
10.08.2017 07:12 13,9 °C 13,9 °C 94 % 1014,8 hPa 0,0 mm 0,4 km/h (0 Bft) W-NW 290 ° 0 min 0,000 mm 0,0 UV-I 18 W/m² 12,9 °C 13,9 °C 3,2 km/h (1 Bft)
10.08.2017 07:13 13,9 °C 13,9 °C 94 % 1014,8 hPa 0,0 mm 1,5 km/h (1 Bft) W-NW 290 ° 0 min 0,000 mm 0,0 UV-I 18 W/m² 12,9 °C 13,9 °C 3,2 km/h (1 Bft)
10.08.2017 07:14 13,9 °C 13,9 °C 94 % 1014,8 hPa 0,0 mm 0,0 km/h (0 Bft) W-NW 290 ° 0 min 0,000 mm 0,0 UV-I 19 W/m² 12,9 °C 13,9 °C 0,0 km/h (0 Bft)
10.08.2017 07:15 13,9 °C 13,9 °C 94 % 1014,8 hPa 0,0 mm 0,0 km/h (0 Bft) W-NW 290 ° 0 min 0,000 mm 0,0 UV-I 18 W/m² 12,9 °C 13,9 °C 0,0 km/h (0 Bft)
10.08.2017 07:16 13,9 °C 13,9 °C 94 % 1014,8 hPa 0,0 mm 0,0 km/h (0 Bft) W-NW 290 ° 0 min 0,000 mm 0,0 UV-I 19 W/m² 12,9 °C 13,9 °C 0,0 km/h (0 Bft)
10.08.2017 07:17 13,9 °C 13,9 °C 94 % 1014,8 hPa 0,0 mm 0,0 km/h (0 Bft) W-NW 290 ° 0 min 0,000 mm 0,0 UV-I 23 W/m² 12,9 °C 13,9 °C 0,0 km/h (0 Bft)
10.08.2017 07:18 13,9 °C 13,9 °C 94 % 1014,7 hPa 0,0 mm 0,0 km/h (0 Bft) W-NW 290 ° 0 min 0,000 mm 0,0 UV-I 26 W/m² 12,9 °C 13,9 °C 0,0 km/h (0 Bft)
10.08.2017 07:19 13,9 °C 13,9 °C 94 % 1014,7 hPa 0,0 mm 0,3 km/h (0 Bft) W-NW 290 ° 0 min 0,000 mm 0,0 UV-I 26 W/m² 12,9 °C 13,9 °C 1,6 km/h (1 Bft)
10.08.2017 07:20 14,0 °C 14,0 °C 94 % 1014,7 hPa 0,0 mm 1,5 km/h (1 Bft) W-NW 290 ° 0 min 0,000 mm 0,0 UV-I 26 W/m² 13,0 °C 14,0 °C 3,2 km/h (1 Bft)
10.08.2017 07:21 14,0 °C 14,1 °C 94 % 1014,6 hPa 0,0 mm 0,0 km/h (0 Bft) W-NW 290 ° 0 min 0,000 mm 0,0 UV-I 26 W/m² 13,0 °C 14,0 °C 0,0 km/h (0 Bft)
10.08.2017 07:22 14,1 °C 14,1 °C 94 % 1014,7 hPa 0,0 mm 2,8 km/h (1 Bft) W 274 ° 0 min 0,000 mm 0,0 UV-I 26 W/m² 13,1 °C 14,1 °C 6,4 km/h (2 Bft)
10.08.2017 07:23 14,1 °C 14,1 °C 94 % 1014,7 hPa 0,0 mm 4,8 km/h (1 Bft) W 261 ° 0 min 0,000 mm 0,0 UV-I 25 W/m² 13,1 °C 14,1 °C 8,0 km/h (2 Bft)
10.08.2017 07:24 14,1 °C 14,1 °C 94 % 1014,7 hPa 0,0 mm 1,9 km/h (1 Bft) W 261 ° 0 min 0,000 mm 0,0 UV-I 26 W/m² 13,1 °C 14,1 °C 3,2 km/h (1 Bft)
10.08.2017 07:25 14,0 °C 14,1 °C 94 % 1014,7 hPa 0,0 mm 1,6 km/h (1 Bft) W 261 ° 0 min 0,000 mm 0,0 UV-I 26 W/m² 13,0 °C 14,0 °C 3,2 km/h (1 Bft)
10.08.2017 07:26 14,0 °C 14,0 °C 94 % 1014,7 hPa 0,0 mm 0,0 km/h (0 Bft) W 261 ° 0 min 0,000 mm 0,0 UV-I 26 W/m² 13,0 °C 14,0 °C 0,0 km/h (0 Bft)
10.08.2017 07:27 14,0 °C 14,0 °C 94 % 1014,7 hPa 0,0 mm 0,0 km/h (0 Bft) W 261 ° 0 min 0,000 mm 0,0 UV-I 26 W/m² 13,0 °C 14,0 °C 0,0 km/h (0 Bft)
10.08.2017 07:28 14,0 °C 14,0 °C 94 % 1014,7 hPa 0,0 mm 3,1 km/h (1 Bft) W-SW 244 ° 0 min 0,000 mm 0,0 UV-I 26 W/m² 13,0 °C 14,0 °C 4,8 km/h (1 Bft)
10.08.2017 07:29 14,1 °C 14,1 °C 94 % 1014,6 hPa 0,0 mm 2,1 km/h (1 Bft) W 260 ° 0 min 0,000 mm 0,0 UV-I 28 W/m² 13,1 °C 14,1 °C 4,8 km/h (1 Bft)
10.08.2017 07:30 14,1 °C 14,1 °C 94 % 1014,7 hPa 0,0 mm 4,2 km/h (1 Bft) W 259 ° 0 min 0,000 mm 0,0 UV-I 30 W/m² 13,1 °C 14,1 °C 4,8 km/h (1 Bft)
10.08.2017 07:31 14,0 °C 14,1 °C 94 % 1014,6 hPa 0,0 mm 3,1 km/h (1 Bft) W 259 ° 0 min 0,000 mm 0,0 UV-I 32 W/m² 13,0 °C 14,0 °C 4,8 km/h (1 Bft)
10.08.2017 07:32 14,1 °C 14,1 °C 94 % 1014,7 hPa 0,0 mm 1,7 km/h (1 Bft) W 259 ° 0 min 0,000 mm 0,0 UV-I 35 W/m² 13,1 °C 14,1 °C 3,2 km/h (1 Bft)
10.08.2017 07:33 14,1 °C 14,1 °C 94 % 1014,6 hPa 0,0 mm 0,9 km/h (0 Bft) W 259 ° 0 min 0,000 mm 0,0 UV-I 37 W/m² 13,1 °C 14,1 °C 3,2 km/h (1 Bft)
10.08.2017 07:34 14,1 °C 14,1 °C 94 % 1014,7 hPa 0,0 mm 0,3 km/h (0 Bft) W 259 ° 0 min 0,000 mm 0,0 UV-I 39 W/m² 13,1 °C 14,1 °C 1,6 km/h (1 Bft)
10.08.2017 07:35 14,1 °C 14,1 °C 94 % 1014,7 hPa 0,0 mm 0,5 km/h (0 Bft) W 259 ° 0 min 0,000 mm 0,0 UV-I 39 W/m² 13,1 °C 14,1 °C 3,2 km/h (1 Bft)
10.08.2017 07:36 14,1 °C 14,1 °C 94 % 1014,7 hPa 0,0 mm 2,2 km/h (1 Bft) W 259 ° 0 min 0,000 mm 0,0 UV-I 39 W/m² 13,1 °C 14,1 °C 3,2 km/h (1 Bft)
10.08.2017 07:37 14,1 °C 14,1 °C 94 % 1014,7 hPa 0,0 mm 0,7 km/h (0 Bft) W 259 ° 0 min 0,000 mm 0,0 UV-I 39 W/m² 13,1 °C 14,1 °C 1,6 km/h (1 Bft)
10.08.2017 07:38 14,1 °C 14,1 °C 94 % 1014,6 hPa 0,0 mm 0,7 km/h (0 Bft) W 259 ° 0 min 0,000 mm 0,0 UV-I 39 W/m² 13,1 °C 14,1 °C 1,6 km/h (1 Bft)
10.08.2017 07:39 14,1 °C 14,1 °C 94 % 1014,6 hPa 0,0 mm 0,3 km/h (0 Bft) W 259 ° 0 min 0,000 mm 0,0 UV-I 39 W/m² 13,1 °C 14,1 °C 1,6 km/h (1 Bft)
10.08.2017 07:40 14,1 °C 14,2 °C 94 % 1014,7 hPa 0,0 mm 1,9 km/h (1 Bft) W 259 ° 0 min 0,000 mm 0,0 UV-I 39 W/m² 13,1 °C 14,1 °C 4,8 km/h (1 Bft)
10.08.2017 07:41 14,2 °C 14,2 °C 94 % 1014,7 hPa 0,0 mm 2,1 km/h (1 Bft) W-SW 256 ° 0 min 0,000 mm 0,0 UV-I 37 W/m² 13,2 °C 14,2 °C 3,2 km/h (1 Bft)
10.08.2017 07:42 14,2 °C 14,2 °C 94 % 1014,6 hPa 0,0 mm 1,8 km/h (1 Bft) W-SW 256 ° 0 min 0,000 mm 0,0 UV-I 39 W/m² 13,2 °C 14,2 °C 3,2 km/h (1 Bft)
10.08.2017 07:43 14,2 °C 14,2 °C 94 % 1014,6 hPa 0,0 mm 0,7 km/h (0 Bft) W-SW 256 ° 0 min 0,000 mm 0,0 UV-I 42 W/m² 13,2 °C 14,2 °C 1,6 km/h (1 Bft)
10.08.2017 07:44 14,2 °C 14,2 °C 94 % 1014,7 hPa 0,0 mm 3,7 km/h (1 Bft) W 275 ° 0 min 0,000 mm 0,0 UV-I 44 W/m² 13,2 °C 14,2 °C 6,4 km/h (2 Bft)
10.08.2017 07:45 14,2 °C 14,2 °C 94 % 1014,7 hPa 0,0 mm 3,2 km/h (1 Bft) W 275 ° 0 min 0,000 mm 0,0 UV-I 44 W/m² 13,2 °C 14,2 °C 4,8 km/h (1 Bft)
10.08.2017 07:46 14,2 °C 14,2 °C 93 % 1014,7 hPa 0,0 mm 4,2 km/h (1 Bft) W 274 ° 0 min 0,000 mm 0,0 UV-I 49 W/m² 13,1 °C 14,2 °C 4,8 km/h (1 Bft)
10.08.2017 07:47 14,2 °C 14,2 °C 94 % 1014,7 hPa 0,0 mm 3,4 km/h (1 Bft) W 274 ° 0 min 0,000 mm 0,0 UV-I 49 W/m² 13,2 °C 14,2 °C 4,8 km/h (1 Bft)
10.08.2017 07:48 14,3 °C 14,3 °C 94 % 1014,7 hPa 0,0 mm 3,1 km/h (1 Bft) W-SW 258 ° 0 min 0,000 mm 0,0 UV-I 47 W/m² 13,3 °C 14,3 °C 6,4 km/h (2 Bft)
10.08.2017 07:49 14,2 °C 14,3 °C 93 % 1014,7 hPa 0,0 mm 0,4 km/h (0 Bft) W-SW 258 ° 0 min 0,000 mm 0,0 UV-I 46 W/m² 13,1 °C 14,2 °C 1,6 km/h (1 Bft)
10.08.2017 07:50 14,2 °C 14,2 °C 93 % 1014,6 hPa 0,0 mm 1,5 km/h (1 Bft) W-SW 258 ° 0 min 0,000 mm 0,0 UV-I 46 W/m² 13,1 °C 14,2 °C 1,6 km/h (1 Bft)
10.08.2017 07:51 14,2 °C 14,3 °C 93 % 1014,7 hPa 0,0 mm 0,4 km/h (0 Bft) W-SW 258 ° 0 min 0,000 mm 0,0 UV-I 47 W/m² 13,1 °C 14,2 °C 1,6 km/h (1 Bft)
10.08.2017 07:52 14,3 °C 14,3 °C 94 % 1014,6 hPa 0,0 mm 1,1 km/h (1 Bft) W 275 ° 0 min 0,000 mm 0,0 UV-I 51 W/m² 13,3 °C 14,3 °C 4,8 km/h (1 Bft)
10.08.2017 07:53 14,3 °C 14,3 °C 93 % 1014,6 hPa 0,0 mm 3,6 km/h (1 Bft) W 260 ° 0 min 0,000 mm 0,0 UV-I 63 W/m² 13,2 °C 14,3 °C 4,8 km/h (1 Bft)
10.08.2017 07:54 14,3 °C 14,3 °C 94 % 1014,6 hPa 0,0 mm 3,7 km/h (1 Bft) W 263 ° 0 min 0,000 mm 0,0 UV-I 69 W/m² 13,3 °C 14,3 °C 4,8 km/h (1 Bft)
10.08.2017 07:55 14,3 °C 14,3 °C 93 % 1014,6 hPa 0,0 mm 2,5 km/h (1 Bft) W 263 ° 0 min 0,000 mm 0,0 UV-I 70 W/m² 13,2 °C 14,3 °C 4,8 km/h (1 Bft)
10.08.2017 07:56 14,4 °C 14,4 °C 94 % 1014,6 hPa 0,0 mm 3,7 km/h (1 Bft) W 267 ° 0 min 0,000 mm 0,0 UV-I 69 W/m² 13,4 °C 14,4 °C 6,4 km/h (2 Bft)
10.08.2017 07:57 14,4 °C 14,4 °C 93 % 1014,5 hPa 0,0 mm 1,5 km/h (1 Bft) W 267 ° 0 min 0,000 mm 0,0 UV-I 67 W/m² 13,3 °C 14,4 °C 3,2 km/h (1 Bft)
10.08.2017 07:58 14,4 °C 14,4 °C 94 % 1014,5 hPa 0,0 mm 3,3 km/h (1 Bft) W 267 ° 0 min 0,000 mm 0,0 UV-I 63 W/m² 13,4 °C 14,4 °C 4,8 km/h (1 Bft)
10.08.2017 07:59 14,4 °C 14,4 °C 93 % 1014,6 hPa 0,0 mm 1,7 km/h (1 Bft) W 267 ° 0 min 0,000 mm 0,0 UV-I 62 W/m² 13,3 °C 14,4 °C 3,2 km/h (1 Bft)
10.08.2017 08:00 14,4 °C 14,4 °C 93 % 1014,5 hPa 0,0 mm 3,0 km/h (1 Bft) W-SW 257 ° 0 min 0,025 mm 0,0 UV-I 62 W/m² 13,3 °C 14,4 °C 4,8 km/h (1 Bft)
10.08.2017 08:01 14,4 °C 14,4 °C 93 % 1014,5 hPa 0,0 mm 2,5 km/h (1 Bft) W-SW 258 ° 0 min 0,000 mm 0,0 UV-I 63 W/m² 13,3 °C 14,4 °C 3,2 km/h (1 Bft)
10.08.2017 08:02 14,4 °C 14,4 °C 93 % 1014,5 hPa 0,0 mm 2,6 km/h (1 Bft) W 259 ° 0 min 0,000 mm 0,0 UV-I 69 W/m² 13,3 °C 14,4 °C 3,2 km/h (1 Bft)
10.08.2017 08:03 14,5 °C 14,5 °C 94 % 1014,4 hPa 0,0 mm 1,9 km/h (1 Bft) W 259 ° 0 min 0,000 mm 0,0 UV-I 74 W/m² 13,5 °C 14,5 °C 4,8 km/h (1 Bft)
10.08.2017 08:04 14,4 °C 14,6 °C 93 % 1014,5 hPa 0,0 mm 1,4 km/h (1 Bft) W 259 ° 0 min 0,000 mm 0,0 UV-I 77 W/m² 13,3 °C 14,4 °C 3,2 km/h (1 Bft)
10.08.2017 08:05 14,5 °C 14,5 °C 93 % 1014,3 hPa 0,0 mm 0,9 km/h (0 Bft) W 259 ° 0 min 0,000 mm 0,0 UV-I 77 W/m² 13,4 °C 14,5 °C 3,2 km/h (1 Bft)
10.08.2017 08:06 14,5 °C 14,6 °C 93 % 1014,3 hPa 0,0 mm 1,6 km/h (1 Bft) W 259 ° 0 min 0,000 mm 0,0 UV-I 76 W/m² 13,4 °C 14,5 °C 4,8 km/h (1 Bft)
10.08.2017 08:07 14,5 °C 14,6 °C 93 % 1014,3 hPa 0,0 mm 0,7 km/h (0 Bft) W 263 ° 0 min 0,000 mm 0,0 UV-I 72 W/m² 13,4 °C 14,5 °C 1,6 km/h (1 Bft)
10.08.2017 08:08 14,6 °C 14,6 °C 93 % 1014,3 hPa 0,0 mm 2,7 km/h (1 Bft) W 270 ° 0 min 0,000 mm 0,0 UV-I 67 W/m² 13,5 °C 14,6 °C 4,8 km/h (1 Bft)
10.08.2017 08:09 14,6 °C 14,6 °C 93 % 1014,3 hPa 0,0 mm 4,0 km/h (1 Bft) W 269 ° 0 min 0,000 mm 0,0 UV-I 60 W/m² 13,5 °C 14,6 °C 6,4 km/h (2 Bft)
10.08.2017 08:10 14,6 °C 14,6 °C 93 % 1014,3 hPa 0,0 mm 2,4 km/h (1 Bft) W 270 ° 0 min 0,000 mm 0,0 UV-I 54 W/m² 13,5 °C 14,6 °C 3,2 km/h (1 Bft)
10.08.2017 08:11 14,6 °C 14,6 °C 93 % 1014,3 hPa 0,0 mm 2,7 km/h (1 Bft) W 270 ° 0 min 0,000 mm 0,0 UV-I 47 W/m² 13,5 °C 14,6 °C 4,8 km/h (1 Bft)
10.08.2017 08:12 14,6 °C 14,6 °C 93 % 1014,4 hPa 0,0 mm 3,7 km/h (1 Bft) W-SW 257 ° 0 min 0,000 mm 0,0 UV-I 46 W/m² 13,5 °C 14,6 °C 6,4 km/h (2 Bft)
10.08.2017 08:13 14,6 °C 14,6 °C 93 % 1014,4 hPa 0,0 mm 1,9 km/h (1 Bft) SW 234 ° 0 min 0,000 mm 0,0 UV-I 44 W/m² 13,5 °C 14,6 °C 3,2 km/h (1 Bft)
10.08.2017 08:14 14,6 °C 14,6 °C 93 % 1014,4 hPa 0,0 mm 0,3 km/h (0 Bft) SW 234 ° 0 min 0,000 mm 0,0 UV-I 42 W/m² 13,5 °C 14,6 °C 1,6 km/h (1 Bft)
10.08.2017 08:15 14,5 °C 14,6 °C 92 % 1014,4 hPa 0,0 mm 1,5 km/h (1 Bft) W-SW 239 ° 0 min 0,000 mm 0,0 UV-I 40 W/m² 13,2 °C 14,5 °C 3,2 km/h (1 Bft)
10.08.2017 08:16 14,5 °C 14,6 °C 92 % 1014,4 hPa 0,0 mm 0,3 km/h (0 Bft) W-SW 239 ° 0 min 0,000 mm 0,0 UV-I 40 W/m² 13,2 °C 14,5 °C 1,6 km/h (1 Bft)
10.08.2017 08:17 14,6 °C 14,6 °C 92 % 1014,4 hPa 0,0 mm 0,9 km/h (0 Bft) W-SW 239 ° 0 min 0,000 mm 0,0 UV-I 39 W/m² 13,3 °C 14,6 °C 3,2 km/h (1 Bft)
10.08.2017 08:18 14,5 °C 14,6 °C 92 % 1014,4 hPa 0,0 mm 3,0 km/h (1 Bft) SW 223 ° 0 min 0,000 mm 0,0 UV-I 35 W/m² 13,2 °C 14,5 °C 4,8 km/h (1 Bft)
10.08.2017 08:19 14,5 °C 14,6 °C 93 % 1014,5 hPa 0,0 mm 3,6 km/h (1 Bft) W-SW 245 ° 0 min 0,000 mm 0,0 UV-I 35 W/m² 13,4 °C 14,5 °C 6,4 km/h (2 Bft)
10.08.2017 08:20 14,5 °C 14,6 °C 93 % 1014,5 hPa 0,0 mm 3,6 km/h (1 Bft) W 261 ° 0 min 0,000 mm 0,0 UV-I 33 W/m² 13,4 °C 14,5 °C 6,4 km/h (2 Bft)
10.08.2017 08:21 14,5 °C 14,6 °C 93 % 1014,5 hPa 0,0 mm 3,4 km/h (1 Bft) W 261 ° 0 min 0,000 mm 0,0 UV-I 33 W/m² 13,4 °C 14,5 °C 4,8 km/h (1 Bft)
10.08.2017 08:22 14,6 °C 14,6 °C 93 % 1014,5 hPa 0,0 mm 2,1 km/h (1 Bft) W 261 ° 0 min 0,000 mm 0,0 UV-I 33 W/m² 13,5 °C 14,6 °C 3,2 km/h (1 Bft)
10.08.2017 08:23 14,5 °C 14,6 °C 92 % 1014,5 hPa 0,0 mm 0,7 km/h (0 Bft) S 188 ° 0 min 0,000 mm 0,0 UV-I 35 W/m² 13,2 °C 14,5 °C 3,2 km/h (1 Bft)
10.08.2017 08:24 14,5 °C 14,6 °C 92 % 1014,4 hPa 0,0 mm 3,4 km/h (1 Bft) W-SW 250 ° 0 min 0,000 mm 0,0 UV-I 35 W/m² 13,2 °C 14,5 °C 6,4 km/h (2 Bft)
10.08.2017 08:25 14,5 °C 14,5 °C 92 % 1014,5 hPa 0,0 mm 0,5 km/h (0 Bft) W-SW 250 ° 0 min 0,000 mm 0,0 UV-I 35 W/m² 13,2 °C 14,5 °C 3,2 km/h (1 Bft)
10.08.2017 08:26 14,5 °C 14,6 °C 92 % 1014,5 hPa 0,0 mm 1,6 km/h (1 Bft) W-SW 250 ° 0 min 0,000 mm 0,0 UV-I 35 W/m² 13,2 °C 14,5 °C 3,2 km/h (1 Bft)
10.08.2017 08:27 14,5 °C 14,5 °C 92 % 1014,5 hPa 0,0 mm 3,0 km/h (1 Bft) W-SW 250 ° 0 min 0,000 mm 0,0 UV-I 35 W/m² 13,2 °C 14,5 °C 4,8 km/h (1 Bft)
10.08.2017 08:28 14,5 °C 14,6 °C 92 % 1014,5 hPa 0,0 mm 1,2 km/h (1 Bft) W-SW 250 ° 0 min 0,000 mm 0,0 UV-I 35 W/m² 13,2 °C 14,5 °C 3,2 km/h (1 Bft)
10.08.2017 08:29 14,5 °C 14,5 °C 92 % 1014,5 hPa 0,0 mm 2,3 km/h (1 Bft) W-SW 250 ° 0 min 0,000 mm 0,0 UV-I 37 W/m² 13,2 °C 14,5 °C 3,2 km/h (1 Bft)
10.08.2017 08:30 14,6 °C 14,6 °C 92 % 1014,5 hPa 0,0 mm 2,0 km/h (1 Bft) W-SW 250 ° 0 min 0,000 mm 0,0 UV-I 37 W/m² 13,3 °C 14,6 °C 3,2 km/h (1 Bft)
10.08.2017 08:31 14,6 °C 14,6 °C 92 % 1014,6 hPa 0,0 mm 3,7 km/h (1 Bft) W 271 ° 0 min 0,000 mm 0,0 UV-I 37 W/m² 13,3 °C 14,6 °C 4,8 km/h (1 Bft)
10.08.2017 08:32 14,6 °C 14,6 °C 92 % 1014,6 hPa 0,0 mm 1,7 km/h (1 Bft) W 271 ° 0 min 0,000 mm 0,0 UV-I 35 W/m² 13,3 °C 14,6 °C 3,2 km/h (1 Bft)
10.08.2017 08:33 14,6 °C 14,6 °C 92 % 1014,6 hPa 0,0 mm 2,7 km/h (1 Bft) W 272 ° 0 min 0,000 mm 0,0 UV-I 33 W/m² 13,3 °C 14,6 °C 3,2 km/h (1 Bft)
10.08.2017 08:34 14,6 °C 14,6 °C 92 % 1014,6 hPa 0,0 mm 2,8 km/h (1 Bft) W 272 ° 0 min 0,000 mm 0,0 UV-I 35 W/m² 13,3 °C 14,6 °C 4,8 km/h (1 Bft)
10.08.2017 08:35 14,6 °C 14,6 °C 92 % 1014,6 hPa 0,0 mm 1,4 km/h (1 Bft) W 272 ° 0 min 0,000 mm 0,0 UV-I 37 W/m² 13,3 °C 14,6 °C 3,2 km/h (1 Bft)
10.08.2017 08:36 14,6 °C 14,6 °C 92 % 1014,7 hPa 0,0 mm 1,9 km/h (1 Bft) W 272 ° 0 min 0,000 mm 0,0 UV-I 39 W/m² 13,3 °C 14,6 °C 3,2 km/h (1 Bft)
10.08.2017 08:37 14,6 °C 14,6 °C 92 % 1014,7 hPa 0,0 mm 2,1 km/h (1 Bft) W 273 ° 0 min 0,000 mm 0,0 UV-I 40 W/m² 13,3 °C 14,6 °C 3,2 km/h (1 Bft)
10.08.2017 08:38 14,6 °C 14,6 °C 92 % 1014,7 hPa 0,0 mm 2,4 km/h (1 Bft) W 275 ° 0 min 0,000 mm 0,0 UV-I 42 W/m² 13,3 °C 14,6 °C 3,2 km/h (1 Bft)
10.08.2017 08:39 14,6 °C 14,6 °C 92 % 1014,7 hPa 0,0 mm 1,4 km/h (1 Bft) W 275 ° 0 min 0,000 mm 0,0 UV-I 44 W/m² 13,3 °C 14,6 °C 3,2 km/h (1 Bft)
10.08.2017 08:40 14,6 °C 14,6 °C 92 % 1014,7 hPa 0,0 mm 2,7 km/h (1 Bft) W 275 ° 0 min 0,000 mm 0,0 UV-I 47 W/m² 13,3 °C 14,6 °C 4,8 km/h (1 Bft)
10.08.2017 08:41 14,6 °C 14,6 °C 92 % 1014,7 hPa 0,0 mm 1,4 km/h (1 Bft) W 275 ° 0 min 0,000 mm 0,0 UV-I 49 W/m² 13,3 °C 14,6 °C 3,2 km/h (1 Bft)
10.08.2017 08:42 14,6 °C 14,6 °C 92 % 1014,6 hPa 0,0 mm 0,7 km/h (0 Bft) W 275 ° 0 min 0,000 mm 0,0 UV-I 53 W/m² 13,3 °C 14,6 °C 3,2 km/h (1 Bft)
10.08.2017 08:43 14,6 °C 14,6 °C 92 % 1014,6 hPa 0,0 mm 0,9 km/h (0 Bft) W-NW 285 ° 0 min 0,000 mm 0,0 UV-I 54 W/m² 13,3 °C 14,6 °C 4,8 km/h (1 Bft)
10.08.2017 08:44 14,6 °C 14,6 °C 92 % 1014,6 hPa 0,0 mm 3,5 km/h (1 Bft) W-NW 286 ° 0 min 0,000 mm 0,0 UV-I 54 W/m² 13,3 °C 14,6 °C 4,8 km/h (1 Bft)
10.08.2017 08:45 14,6 °C 14,6 °C 92 % 1014,6 hPa 0,0 mm 0,9 km/h (0 Bft) W-NW 286 ° 0 min 0,000 mm 0,0 UV-I 54 W/m² 13,3 °C 14,6 °C 3,2 km/h (1 Bft)
10.08.2017 08:46 14,6 °C 14,6 °C 92 % 1014,5 hPa 0,0 mm 2,6 km/h (1 Bft) W-NW 286 ° 0 min 0,000 mm 0,0 UV-I 54 W/m² 13,3 °C 14,6 °C 4,8 km/h (1 Bft)
10.08.2017 08:47 14,6 °C 14,7 °C 92 % 1014,6 hPa 0,0 mm 1,2 km/h (1 Bft) W-NW 286 ° 0 min 0,000 mm 0,0 UV-I 53 W/m² 13,3 °C 14,6 °C 3,2 km/h (1 Bft)
10.08.2017 08:48 14,7 °C 14,7 °C 92 % 1014,6 hPa 0,0 mm 1,0 km/h (0 Bft) W-NW 286 ° 0 min 0,000 mm 0,0 UV-I 53 W/m² 13,4 °C 14,7 °C 1,6 km/h (1 Bft)
10.08.2017 08:49 14,7 °C 14,7 °C 92 % 1014,6 hPa 0,0 mm 1,1 km/h (1 Bft) W-NW 286 ° 0 min 0,000 mm 0,0 UV-I 54 W/m² 13,4 °C 14,7 °C 3,2 km/h (1 Bft)
10.08.2017 08:50 14,7 °C 14,7 °C 92 % 1014,5 hPa 0,0 mm 1,6 km/h (1 Bft) W-NW 286 ° 0 min 0,000 mm 0,0 UV-I 54 W/m² 13,4 °C 14,7 °C 3,2 km/h (1 Bft)
10.08.2017 08:51 14,7 °C 14,7 °C 92 % 1014,5 hPa 0,0 mm 0,1 km/h (0 Bft) W-NW 286 ° 0 min 0,000 mm 0,0 UV-I 56 W/m² 13,4 °C 14,7 °C 1,6 km/h (1 Bft)
10.08.2017 08:52 14,7 °C 14,7 °C 93 % 1014,5 hPa 0,0 mm 0,0 km/h (0 Bft) W-NW 286 ° 0 min 0,000 mm 0,0 UV-I 58 W/m² 13,6 °C 14,7 °C 0,0 km/h (0 Bft)
10.08.2017 08:53 14,7 °C 14,7 °C 92 % 1014,5 hPa 0,0 mm 2,1 km/h (1 Bft) W-NW 295 ° 0 min 0,000 mm 0,0 UV-I 62 W/m² 13,4 °C 14,7 °C 3,2 km/h (1 Bft)
10.08.2017 08:54 14,6 °C 14,7 °C 92 % 1014,6 hPa 0,0 mm 2,6 km/h (1 Bft) W-NW 295 ° 0 min 0,000 mm 0,0 UV-I 63 W/m² 13,3 °C 14,6 °C 4,8 km/h (1 Bft)
10.08.2017 08:55 14,7 °C 14,7 °C 92 % 1014,5 hPa 0,0 mm 2,1 km/h (1 Bft) W-NW 295 ° 0 min 0,000 mm 0,0 UV-I 65 W/m² 13,4 °C 14,7 °C 3,2 km/h (1 Bft)
10.08.2017 08:56 14,7 °C 14,7 °C 92 % 1014,5 hPa 0,0 mm 1,6 km/h (1 Bft) W-NW 295 ° 0 min 0,000 mm 0,0 UV-I 67 W/m² 13,4 °C 14,7 °C 3,2 km/h (1 Bft)
10.08.2017 08:57 14,7 °C 14,7 °C 93 % 1014,5 hPa 0,0 mm 0,5 km/h (0 Bft) W-NW 295 ° 0 min 0,000 mm 0,5 UV-I 67 W/m² 13,6 °C 14,7 °C 1,6 km/h (1 Bft)
10.08.2017 08:58 14,7 °C 14,7 °C 93 % 1014,5 hPa 0,0 mm 1,9 km/h (1 Bft) W-NW 295 ° 0 min 0,000 mm 0,0 UV-I 65 W/m² 13,6 °C 14,7 °C 3,2 km/h (1 Bft)
10.08.2017 08:59 14,7 °C 14,7 °C 92 % 1014,5 hPa 0,0 mm 2,0 km/h (1 Bft) W-NW 296 ° 0 min 0,000 mm 0,0 UV-I 63 W/m² 13,4 °C 14,7 °C 3,2 km/h (1 Bft)
10.08.2017 09:00 14,7 °C 14,7 °C 92 % 1014,5 hPa 0,0 mm 0,1 km/h (0 Bft) W-NW 296 ° 0 min 0,000 mm 0,0 UV-I 60 W/m² 13,4 °C 14,7 °C 1,6 km/h (1 Bft)
10.08.2017 09:01 14,7 °C 14,7 °C 92 % 1014,5 hPa 0,0 mm 1,5 km/h (1 Bft) NW 312 ° 0 min 0,026 mm 0,0 UV-I 58 W/m² 13,4 °C 14,7 °C 3,2 km/h (1 Bft)
10.08.2017 09:02 14,7 °C 14,7 °C 93 % 1014,5 hPa 0,0 mm 2,7 km/h (1 Bft) NW 314 ° 0 min 0,000 mm 0,0 UV-I 56 W/m² 13,6 °C 14,7 °C 4,8 km/h (1 Bft)
10.08.2017 09:03 14,7 °C 14,7 °C 93 % 1014,5 hPa 0,0 mm 1,2 km/h (1 Bft) NW 314 ° 0 min 0,000 mm 0,0 UV-I 54 W/m² 13,6 °C 14,7 °C 3,2 km/h (1 Bft)
10.08.2017 09:04 14,7 °C 14,7 °C 93 % 1014,5 hPa 0,0 mm 0,5 km/h (0 Bft) NW 314 ° 0 min 0,000 mm 0,0 UV-I 54 W/m² 13,6 °C 14,7 °C 1,6 km/h (1 Bft)
10.08.2017 09:05 14,8 °C 14,8 °C 93 % 1014,5 hPa 0,0 mm 0,1 km/h (0 Bft) NW 314 ° 0 min 0,000 mm 0,0 UV-I 56 W/m² 13,7 °C 14,8 °C 1,6 km/h (1 Bft)
10.08.2017 09:06 14,7 °C 14,8 °C 92 % 1014,5 hPa 0,0 mm 1,9 km/h (1 Bft) NW 314 ° 0 min 0,000 mm 0,0 UV-I 58 W/m² 13,4 °C 14,7 °C 3,2 km/h (1 Bft)
10.08.2017 09:07 14,7 °C 14,7 °C 92 % 1014,4 hPa 0,0 mm 2,9 km/h (1 Bft) NW 314 ° 0 min 0,000 mm 0,0 UV-I 62 W/m² 13,4 °C 14,7 °C 4,8 km/h (1 Bft)
10.08.2017 09:08 14,8 °C 14,8 °C 93 % 1014,4 hPa 0,0 mm 1,5 km/h (1 Bft) NW 314 ° 0 min 0,000 mm 0,0 UV-I 63 W/m² 13,7 °C 14,8 °C 3,2 km/h (1 Bft)
10.08.2017 09:09 14,8 °C 14,8 °C 93 % 1014,5 hPa 0,0 mm 2,1 km/h (1 Bft) NW 314 ° 0 min 0,000 mm 0,5 UV-I 69 W/m² 13,7 °C 14,8 °C 3,2 km/h (1 Bft)
10.08.2017 09:10 14,8 °C 14,8 °C 93 % 1014,4 hPa 0,0 mm 3,3 km/h (1 Bft) NW 314 ° 0 min 0,000 mm 0,5 UV-I 70 W/m² 13,7 °C 14,8 °C 4,8 km/h (1 Bft)
10.08.2017 09:11 14,7 °C 14,8 °C 93 % 1014,4 hPa 0,0 mm 1,0 km/h (0 Bft) NW 313 ° 0 min 0,000 mm 0,5 UV-I 70 W/m² 13,6 °C 14,7 °C 1,6 km/h (1 Bft)
10.08.2017 09:12 14,7 °C 14,8 °C 92 % 1014,4 hPa 0,0 mm 0,9 km/h (0 Bft) NW 314 ° 0 min 0,000 mm 0,5 UV-I 70 W/m² 13,4 °C 14,7 °C 3,2 km/h (1 Bft)
10.08.2017 09:13 14,7 °C 14,7 °C 92 % 1014,4 hPa 0,0 mm 2,3 km/h (1 Bft) NW 314 ° 0 min 0,000 mm 0,6 UV-I 74 W/m² 13,4 °C 14,7 °C 3,2 km/h (1 Bft)
10.08.2017 09:14 14,7 °C 14,7 °C 92 % 1014,3 hPa 0,0 mm 1,8 km/h (1 Bft) NW 313 ° 0 min 0,000 mm 0,6 UV-I 83 W/m² 13,4 °C 14,7 °C 3,2 km/h (1 Bft)
10.08.2017 09:15 14,7 °C 14,8 °C 92 % 1014,4 hPa 0,0 mm 3,9 km/h (1 Bft) W-NW 300 ° 0 min 0,000 mm 0,6 UV-I 90 W/m² 13,4 °C 14,7 °C 6,4 km/h (2 Bft)
10.08.2017 09:16 14,8 °C 14,8 °C 92 % 1014,3 hPa 0,0 mm 5,0 km/h (1 Bft) W 276 ° 0 min 0,000 mm 0,7 UV-I 91 W/m² 13,5 °C 14,8 °C 9,7 km/h (2 Bft)
10.08.2017 09:17 14,7 °C 14,8 °C 92 % 1014,4 hPa 0,0 mm 5,0 km/h (1 Bft) W-NW 292 ° 0 min 0,000 mm 0,7 UV-I 90 W/m² 13,4 °C 14,7 °C 6,4 km/h (2 Bft)
10.08.2017 09:18 14,8 °C 14,8 °C 92 % 1014,4 hPa 0,0 mm 2,6 km/h (1 Bft) W-NW 292 ° 0 min 0,000 mm 0,7 UV-I 88 W/m² 13,5 °C 14,8 °C 4,8 km/h (1 Bft)
10.08.2017 09:19 14,8 °C 14,8 °C 91 % 1014,5 hPa 0,0 mm 1,5 km/h (1 Bft) W-NW 292 ° 0 min 0,000 mm 0,7 UV-I 93 W/m² 13,3 °C 14,8 °C 3,2 km/h (1 Bft)
10.08.2017 09:20 14,8 °C 14,8 °C 92 % 1014,5 hPa 0,0 mm 0,9 km/h (0 Bft) W-NW 292 ° 0 min 0,000 mm 0,7 UV-I 93 W/m² 13,5 °C 14,8 °C 3,2 km/h (1 Bft)
10.08.2017 09:21 14,8 °C 14,8 °C 92 % 1014,5 hPa 0,0 mm 1,4 km/h (1 Bft) W-NW 292 ° 0 min 0,000 mm 0,7 UV-I 93 W/m² 13,5 °C 14,8 °C 3,2 km/h (1 Bft)
10.08.2017 09:22 14,8 °C 14,8 °C 92 % 1014,5 hPa 0,0 mm 0,6 km/h (0 Bft) W-NW 292 ° 0 min 0,000 mm 0,7 UV-I 93 W/m² 13,5 °C 14,8 °C 1,6 km/h (1 Bft)
10.08.2017 09:23 14,8 °C 14,9 °C 92 % 1014,4 hPa 0,0 mm 2,7 km/h (1 Bft) W-NW 292 ° 0 min 0,000 mm 0,7 UV-I 95 W/m² 13,5 °C 14,8 °C 4,8 km/h (1 Bft)
10.08.2017 09:24 14,8 °C 14,9 °C 92 % 1014,4 hPa 0,0 mm 2,1 km/h (1 Bft) W-NW 292 ° 0 min 0,000 mm 0,7 UV-I 95 W/m² 13,5 °C 14,8 °C 3,2 km/h (1 Bft)
10.08.2017 09:25 14,8 °C 14,9 °C 92 % 1014,4 hPa 0,0 mm 3,0 km/h (1 Bft) W-NW 296 ° 0 min 0,000 mm 0,7 UV-I 97 W/m² 13,5 °C 14,8 °C 4,8 km/h (1 Bft)
10.08.2017 09:26 14,8 °C 14,9 °C 92 % 1014,5 hPa 0,0 mm 3,7 km/h (1 Bft) NW 313 ° 0 min 0,000 mm 0,7 UV-I 97 W/m² 13,5 °C 14,8 °C 4,8 km/h (1 Bft)
10.08.2017 09:27 14,8 °C 14,8 °C 92 % 1014,5 hPa 0,0 mm 3,0 km/h (1 Bft) W-NW 288 ° 0 min 0,000 mm 0,7 UV-I 97 W/m² 13,5 °C 14,8 °C 3,2 km/h (1 Bft)
10.08.2017 09:28 14,9 °C 14,9 °C 92 % 1014,5 hPa 0,0 mm 2,7 km/h (1 Bft) NW 315 ° 0 min 0,000 mm 0,7 UV-I 97 W/m² 13,6 °C 14,9 °C 3,2 km/h (1 Bft)
10.08.2017 09:29 14,9 °C 14,9 °C 92 % 1014,5 hPa 0,0 mm 2,2 km/h (1 Bft) NW 315 ° 0 min 0,000 mm 0,7 UV-I 97 W/m² 13,6 °C 14,9 °C 3,2 km/h (1 Bft)
10.08.2017 09:30 14,9 °C 14,9 °C 92 % 1014,5 hPa 0,0 mm 2,8 km/h (1 Bft) W-NW 294 ° 0 min 0,000 mm 0,7 UV-I 97 W/m² 13,6 °C 14,9 °C 6,4 km/h (2 Bft)
10.08.2017 09:31 14,9 °C 14,9 °C 92 % 1014,5 hPa 0,0 mm 5,6 km/h (1 Bft) W-NW 291 ° 0 min 0,000 mm 0,7 UV-I 97 W/m² 13,6 °C 14,9 °C 8,0 km/h (2 Bft)
10.08.2017 09:32 14,8 °C 14,9 °C 91 % 1014,6 hPa 0,0 mm 2,3 km/h (1 Bft) NW 325 ° 0 min 0,000 mm 0,7 UV-I 98 W/m² 13,3 °C 14,8 °C 4,8 km/h (1 Bft)
10.08.2017 09:33 14,8 °C 14,8 °C 91 % 1014,5 hPa 0,0 mm 5,5 km/h (1 Bft) N-NW 341 ° 0 min 0,000 mm 0,8 UV-I 100 W/m² 13,3 °C 14,8 °C 6,4 km/h (2 Bft)
10.08.2017 09:34 14,8 °C 14,8 °C 91 % 1014,5 hPa 0,0 mm 4,3 km/h (1 Bft) NW 319 ° 0 min 0,000 mm 0,8 UV-I 98 W/m² 13,3 °C 14,8 °C 6,4 km/h (2 Bft)
10.08.2017 09:35 14,8 °C 14,8 °C 91 % 1014,6 hPa 0,0 mm 3,8 km/h (1 Bft) NW 319 ° 0 min 0,000 mm 0,7 UV-I 97 W/m² 13,3 °C 14,8 °C 4,8 km/h (1 Bft)
10.08.2017 09:36 14,9 °C 14,9 °C 92 % 1014,6 hPa 0,0 mm 4,0 km/h (1 Bft) NW 320 ° 0 min 0,000 mm 0,7 UV-I 91 W/m² 13,6 °C 14,9 °C 4,8 km/h (1 Bft)
10.08.2017 09:37 14,8 °C 14,9 °C 92 % 1014,6 hPa 0,0 mm 2,7 km/h (1 Bft) NW 320 ° 0 min 0,000 mm 0,7 UV-I 90 W/m² 13,5 °C 14,8 °C 4,8 km/h (1 Bft)
10.08.2017 09:38 14,9 °C 14,9 °C 92 % 1014,6 hPa 0,0 mm 4,0 km/h (1 Bft) W-NW 290 ° 0 min 0,000 mm 0,7 UV-I 93 W/m² 13,6 °C 14,9 °C 4,8 km/h (1 Bft)
10.08.2017 09:39 14,8 °C 14,9 °C 91 % 1014,6 hPa 0,0 mm 2,1 km/h (1 Bft) W-NW 290 ° 0 min 0,000 mm 0,7 UV-I 91 W/m² 13,3 °C 14,8 °C 4,8 km/h (1 Bft)
10.08.2017 09:40 14,8 °C 14,8 °C 91 % 1014,6 hPa 0,0 mm 3,2 km/h (1 Bft) W-NW 290 ° 0 min 0,000 mm 0,7 UV-I 88 W/m² 13,3 °C 14,8 °C 4,8 km/h (1 Bft)
10.08.2017 09:41 14,8 °C 14,8 °C 91 % 1014,7 hPa 0,0 mm 3,1 km/h (1 Bft) NW 319 ° 0 min 0,000 mm 0,6 UV-I 84 W/m² 13,3 °C 14,8 °C 4,8 km/h (1 Bft)
10.08.2017 09:42 14,8 °C 14,8 °C 91 % 1014,7 hPa 0,0 mm 4,8 km/h (1 Bft) NW 317 ° 0 min 0,000 mm 0,6 UV-I 81 W/m² 13,3 °C 14,8 °C 6,4 km/h (2 Bft)
10.08.2017 09:43 14,9 °C 14,9 °C 91 % 1014,7 hPa 0,0 mm 2,7 km/h (1 Bft) NW 317 ° 0 min 0,000 mm 0,6 UV-I 77 W/m² 13,4 °C 14,9 °C 3,2 km/h (1 Bft)
10.08.2017 09:44 14,9 °C 14,9 °C 91 % 1014,7 hPa 0,0 mm 3,0 km/h (1 Bft) NW 317 ° 0 min 0,000 mm 0,6 UV-I 79 W/m² 13,4 °C 14,9 °C 3,2 km/h (1 Bft)
10.08.2017 09:45 14,9 °C 14,9 °C 91 % 1014,7 hPa 0,0 mm 1,9 km/h (1 Bft) NW 317 ° 0 min 0,000 mm 0,6 UV-I 83 W/m² 13,4 °C 14,9 °C 3,2 km/h (1 Bft)
10.08.2017 09:46 14,9 °C 14,9 °C 91 % 1014,7 hPa 0,0 mm 3,1 km/h (1 Bft) W-NW 291 ° 0 min 0,000 mm 0,7 UV-I 84 W/m² 13,4 °C 14,9 °C 4,8 km/h (1 Bft)
10.08.2017 09:47 14,9 °C 14,9 °C 91 % 1014,7 hPa 0,0 mm 1,7 km/h (1 Bft) W-NW 289 ° 0 min 0,000 mm 0,7 UV-I 88 W/m² 13,4 °C 14,9 °C 3,2 km/h (1 Bft)
10.08.2017 09:48 14,9 °C 14,9 °C 91 % 1014,7 hPa 0,0 mm 1,4 km/h (1 Bft) W-NW 289 ° 0 min 0,000 mm 0,7 UV-I 91 W/m² 13,4 °C 14,9 °C 3,2 km/h (1 Bft)
10.08.2017 09:49 14,9 °C 14,9 °C 91 % 1014,7 hPa 0,0 mm 0,3 km/h (0 Bft) W-NW 289 ° 0 min 0,000 mm 0,7 UV-I 91 W/m² 13,4 °C 14,9 °C 1,6 km/h (1 Bft)
10.08.2017 09:50 14,9 °C 14,9 °C 91 % 1014,8 hPa 0,0 mm 0,0 km/h (0 Bft) W-NW 289 ° 0 min 0,000 mm 0,7 UV-I 90 W/m² 13,4 °C 14,9 °C 0,0 km/h (0 Bft)
10.08.2017 09:51 14,9 °C 14,9 °C 91 % 1014,8 hPa 0,0 mm 0,7 km/h (0 Bft) W-NW 289 ° 0 min 0,000 mm 0,8 UV-I 97 W/m² 13,4 °C 14,9 °C 4,8 km/h (1 Bft)
10.08.2017 09:52 14,9 °C 14,9 °C 92 % 1014,8 hPa 0,0 mm 4,5 km/h (1 Bft) W 264 ° 0 min 0,000 mm 0,8 UV-I 95 W/m² 13,6 °C 14,9 °C 6,4 km/h (2 Bft)
10.08.2017 09:53 14,9 °C 14,9 °C 91 % 1014,7 hPa 0,0 mm 5,0 km/h (1 Bft) W 264 ° 0 min 0,000 mm 0,8 UV-I 98 W/m² 13,4 °C 14,9 °C 6,4 km/h (2 Bft)
10.08.2017 09:54 14,9 °C 14,9 °C 90 % 1014,7 hPa 0,0 mm 4,0 km/h (1 Bft) W 264 ° 0 min 0,000 mm 0,8 UV-I 95 W/m² 13,3 °C 14,9 °C 4,8 km/h (1 Bft)
10.08.2017 09:55 14,9 °C 14,9 °C 91 % 1014,7 hPa 0,0 mm 2,7 km/h (1 Bft) W 264 ° 0 min 0,000 mm 0,7 UV-I 90 W/m² 13,4 °C 14,9 °C 3,2 km/h (1 Bft)
10.08.2017 09:56 14,9 °C 14,9 °C 92 % 1014,8 hPa 0,0 mm 2,5 km/h (1 Bft) W 264 ° 0 min 0,000 mm 0,7 UV-I 83 W/m² 13,6 °C 14,9 °C 4,8 km/h (1 Bft)
10.08.2017 09:57 14,9 °C 14,9 °C 91 % 1014,8 hPa 0,0 mm 1,7 km/h (1 Bft) W 264 ° 0 min 0,000 mm 0,6 UV-I 77 W/m² 13,4 °C 14,9 °C 3,2 km/h (1 Bft)
10.08.2017 09:58 14,9 °C 14,9 °C 91 % 1014,7 hPa 0,0 mm 2,1 km/h (1 Bft) W 264 ° 0 min 0,000 mm 0,7 UV-I 81 W/m² 13,4 °C 14,9 °C 3,2 km/h (1 Bft)
10.08.2017 09:59 14,9 °C 14,9 °C 90 % 1014,7 hPa 0,0 mm 1,0 km/h (0 Bft) W 264 ° 0 min 0,000 mm 0,7 UV-I 81 W/m² 13,3 °C 14,9 °C 1,6 km/h (1 Bft)
10.08.2017 10:00 14,9 °C 14,9 °C 90 % 1014,8 hPa 0,0 mm 1,8 km/h (1 Bft) W 264 ° 0 min 0,000 mm 0,7 UV-I 83 W/m² 13,3 °C 14,9 °C 3,2 km/h (1 Bft)
10.08.2017 10:01 14,9 °C 14,9 °C 91 % 1014,8 hPa 0,0 mm 1,8 km/h (1 Bft) W 264 ° 0 min 0,051 mm 0,7 UV-I 86 W/m² 13,4 °C 14,9 °C 3,2 km/h (1 Bft)
10.08.2017 10:02 14,9 °C 14,9 °C 91 % 1014,8 hPa 0,0 mm 4,8 km/h (1 Bft) W-NW 298 ° 0 min 0,000 mm 0,8 UV-I 98 W/m² 13,4 °C 14,9 °C 6,4 km/h (2 Bft)
10.08.2017 10:03 14,9 °C 14,9 °C 91 % 1014,8 hPa 0,0 mm 3,0 km/h (1 Bft) W-NW 297 ° 0 min 0,000 mm 0,8 UV-I 104 W/m² 13,4 °C 14,9 °C 4,8 km/h (1 Bft)
10.08.2017 10:04 14,9 °C 14,9 °C 91 % 1014,8 hPa 0,0 mm 2,1 km/h (1 Bft) W-NW 297 ° 0 min 0,000 mm 0,8 UV-I 104 W/m² 13,4 °C 14,9 °C 3,2 km/h (1 Bft)
10.08.2017 10:05 14,9 °C 14,9 °C 90 % 1014,8 hPa 0,0 mm 2,4 km/h (1 Bft) W-NW 298 ° 0 min 0,000 mm 0,8 UV-I 98 W/m² 13,3 °C 14,9 °C 4,8 km/h (1 Bft)
10.08.2017 10:06 14,9 °C 14,9 °C 91 % 1014,8 hPa 0,0 mm 2,2 km/h (1 Bft) W-NW 297 ° 0 min 0,000 mm 0,8 UV-I 95 W/m² 13,4 °C 14,9 °C 3,2 km/h (1 Bft)
10.08.2017 10:07 14,9 °C 14,9 °C 91 % 1014,8 hPa 0,0 mm 3,2 km/h (1 Bft) NW 316 ° 0 min 0,000 mm 0,8 UV-I 91 W/m² 13,4 °C 14,9 °C 4,8 km/h (1 Bft)
10.08.2017 10:08 14,9 °C 15,0 °C 91 % 1014,8 hPa 0,0 mm 2,4 km/h (1 Bft) NW 306 ° 0 min 0,000 mm 0,7 UV-I 88 W/m² 13,4 °C 14,9 °C 4,8 km/h (1 Bft)
10.08.2017 10:09 15,0 °C 15,0 °C 91 % 1014,8 hPa 0,0 mm 2,0 km/h (1 Bft) NW 306 ° 0 min 0,000 mm 0,8 UV-I 90 W/m² 13,5 °C 15,0 °C 4,8 km/h (1 Bft)
10.08.2017 10:10 15,0 °C 15,0 °C 91 % 1014,8 hPa 0,0 mm 3,4 km/h (1 Bft) W-NW 296 ° 0 min 0,000 mm 0,8 UV-I 84 W/m² 13,5 °C 15,0 °C 4,8 km/h (1 Bft)
10.08.2017 10:11 15,0 °C 15,0 °C 91 % 1014,9 hPa 0,0 mm 4,0 km/h (1 Bft) W-NW 296 ° 0 min 0,000 mm 0,8 UV-I 84 W/m² 13,5 °C 15,0 °C 6,4 km/h (2 Bft)
10.08.2017 10:12 15,0 °C 15,0 °C 91 % 1014,9 hPa 0,0 mm 3,8 km/h (1 Bft) W-NW 296 ° 0 min 0,000 mm 0,8 UV-I 91 W/m² 13,5 °C 15,0 °C 4,8 km/h (1 Bft)
10.08.2017 10:13 15,0 °C 15,0 °C 90 % 1014,9 hPa 0,0 mm 3,2 km/h (1 Bft) NW 325 ° 0 min 0,000 mm 0,8 UV-I 97 W/m² 13,4 °C 15,0 °C 4,8 km/h (1 Bft)
10.08.2017 10:14 14,9 °C 15,0 °C 90 % 1014,8 hPa 0,0 mm 1,3 km/h (1 Bft) NW 325 ° 0 min 0,000 mm 0,8 UV-I 90 W/m² 13,3 °C 14,9 °C 1,6 km/h (1 Bft)
10.08.2017 10:15 14,9 °C 15,0 °C 90 % 1014,8 hPa 0,0 mm 2,4 km/h (1 Bft) NW 325 ° 0 min 0,000 mm 0,8 UV-I 90 W/m² 13,3 °C 14,9 °C 3,2 km/h (1 Bft)
10.08.2017 10:16 14,9 °C 14,9 °C 90 % 1014,8 hPa 0,0 mm 3,4 km/h (1 Bft) NW 314 ° 0 min 0,000 mm 0,8 UV-I 95 W/m² 13,3 °C 14,9 °C 4,8 km/h (1 Bft)
10.08.2017 10:17 14,9 °C 14,9 °C 90 % 1014,8 hPa 0,0 mm 3,2 km/h (1 Bft) W-NW 294 ° 0 min 0,000 mm 0,8 UV-I 100 W/m² 13,3 °C 14,9 °C 6,4 km/h (2 Bft)
10.08.2017 10:18 14,9 °C 14,9 °C 90 % 1014,8 hPa 0,0 mm 3,3 km/h (1 Bft) W 280 ° 0 min 0,000 mm 0,8 UV-I 102 W/m² 13,3 °C 14,9 °C 4,8 km/h (1 Bft)
10.08.2017 10:19 14,9 °C 14,9 °C 90 % 1014,8 hPa 0,0 mm 3,1 km/h (1 Bft) W 276 ° 0 min 0,000 mm 0,8 UV-I 88 W/m² 13,3 °C 14,9 °C 4,8 km/h (1 Bft)
10.08.2017 10:20 14,9 °C 14,9 °C 90 % 1014,8 hPa 0,0 mm 5,2 km/h (1 Bft) W 260 ° 0 min 0,000 mm 0,7 UV-I 83 W/m² 13,3 °C 14,9 °C 6,4 km/h (2 Bft)
10.08.2017 10:21 14,9 °C 14,9 °C 90 % 1014,8 hPa 0,0 mm 2,5 km/h (1 Bft) W 260 ° 0 min 0,000 mm 0,7 UV-I 83 W/m² 13,3 °C 14,9 °C 4,8 km/h (1 Bft)
10.08.2017 10:22 14,9 °C 14,9 °C 90 % 1014,8 hPa 0,0 mm 1,9 km/h (1 Bft) W 260 ° 0 min 0,000 mm 0,7 UV-I 88 W/m² 13,3 °C 14,9 °C 3,2 km/h (1 Bft)
10.08.2017 10:23 14,9 °C 14,9 °C 90 % 1014,8 hPa 0,0 mm 2,8 km/h (1 Bft) W 262 ° 0 min 0,000 mm 0,7 UV-I 91 W/m² 13,3 °C 14,9 °C 4,8 km/h (1 Bft)
10.08.2017 10:24 14,9 °C 14,9 °C 91 % 1014,8 hPa 0,0 mm 3,6 km/h (1 Bft) N-NW 329 ° 0 min 0,000 mm 0,8 UV-I 93 W/m² 13,4 °C 14,9 °C 4,8 km/h (1 Bft)
10.08.2017 10:25 14,9 °C 14,9 °C 91 % 1014,8 hPa 0,0 mm 2,9 km/h (1 Bft) NW 323 ° 0 min 0,000 mm 0,7 UV-I 84 W/m² 13,4 °C 14,9 °C 6,4 km/h (2 Bft)
10.08.2017 10:26 14,9 °C 14,9 °C 91 % 1014,8 hPa 0,0 mm 1,9 km/h (1 Bft) NW 323 ° 0 min 0,000 mm 0,6 UV-I 76 W/m² 13,4 °C 14,9 °C 3,2 km/h (1 Bft)
10.08.2017 10:27 15,0 °C 15,0 °C 91 % 1014,8 hPa 0,0 mm 2,0 km/h (1 Bft) NW 323 ° 0 min 0,000 mm 0,6 UV-I 70 W/m² 13,5 °C 15,0 °C 3,2 km/h (1 Bft)
10.08.2017 10:28 15,0 °C 15,0 °C 91 % 1014,8 hPa 0,0 mm 2,3 km/h (1 Bft) NW 306 ° 0 min 0,000 mm 0,6 UV-I 69 W/m² 13,5 °C 15,0 °C 3,2 km/h (1 Bft)
10.08.2017 10:29 14,9 °C 15,0 °C 91 % 1014,8 hPa 0,0 mm 4,0 km/h (1 Bft) W-NW 291 ° 0 min 0,000 mm 0,5 UV-I 65 W/m² 13,4 °C 14,9 °C 6,4 km/h (2 Bft)
10.08.2017 10:30 14,9 °C 15,0 °C 91 % 1014,8 hPa 0,0 mm 4,8 km/h (1 Bft) W-NW 292 ° 0 min 0,000 mm 0,5 UV-I 62 W/m² 13,4 °C 14,9 °C 6,4 km/h (2 Bft)
10.08.2017 10:31 14,9 °C 15,0 °C 91 % 1014,8 hPa 0,0 mm 4,3 km/h (1 Bft) W-NW 291 ° 0 min 0,000 mm 0,5 UV-I 65 W/m² 13,4 °C 14,9 °C 6,4 km/h (2 Bft)
10.08.2017 10:32 14,9 °C 14,9 °C 91 % 1014,8 hPa 0,0 mm 4,1 km/h (1 Bft) W-NW 300 ° 0 min 0,000 mm 0,6 UV-I 67 W/m² 13,4 °C 14,9 °C 6,4 km/h (2 Bft)
10.08.2017 10:33 14,9 °C 14,9 °C 90 % 1014,7 hPa 0,0 mm 1,9 km/h (1 Bft) W-NW 300 ° 0 min 0,000 mm 0,6 UV-I 69 W/m² 13,3 °C 14,9 °C 3,2 km/h (1 Bft)
10.08.2017 10:34 14,9 °C 14,9 °C 90 % 1014,7 hPa 0,0 mm 1,6 km/h (1 Bft) W-NW 300 ° 0 min 0,000 mm 0,6 UV-I 72 W/m² 13,3 °C 14,9 °C 3,2 km/h (1 Bft)
10.08.2017 10:35 14,9 °C 14,9 °C 90 % 1014,7 hPa 0,0 mm 2,9 km/h (1 Bft) W-NW 300 ° 0 min 0,000 mm 0,6 UV-I 74 W/m² 13,3 °C 14,9 °C 4,8 km/h (1 Bft)
10.08.2017 10:36 14,8 °C 14,9 °C 91 % 1014,8 hPa 0,0 mm 1,9 km/h (1 Bft) W-NW 300 ° 0 min 0,000 mm 0,6 UV-I 74 W/m² 13,3 °C 14,8 °C 3,2 km/h (1 Bft)
10.08.2017 10:37 14,8 °C 14,9 °C 91 % 1014,7 hPa 0,0 mm 4,0 km/h (1 Bft) W-NW 286 ° 0 min 0,000 mm 0,7 UV-I 79 W/m² 13,3 °C 14,8 °C 9,7 km/h (2 Bft)
10.08.2017 10:38 14,8 °C 14,9 °C 91 % 1014,7 hPa 0,0 mm 3,5 km/h (1 Bft) W-NW 286 ° 0 min 0,000 mm 0,7 UV-I 81 W/m² 13,3 °C 14,8 °C 6,4 km/h (2 Bft)
10.08.2017 10:39 14,8 °C 14,9 °C 90 % 1014,8 hPa 0,0 mm 2,8 km/h (1 Bft) W-NW 288 ° 0 min 0,000 mm 0,7 UV-I 81 W/m² 13,2 °C 14,8 °C 4,8 km/h (1 Bft)
10.08.2017 10:40 14,8 °C 14,8 °C 90 % 1014,8 hPa 0,0 mm 4,2 km/h (1 Bft) W 266 ° 0 min 0,000 mm 0,7 UV-I 81 W/m² 13,2 °C 14,8 °C 6,4 km/h (2 Bft)
10.08.2017 10:41 14,8 °C 14,8 °C 90 % 1014,9 hPa 0,0 mm 4,9 km/h (1 Bft) W-NW 290 ° 0 min 0,000 mm 0,8 UV-I 84 W/m² 13,2 °C 14,8 °C 6,4 km/h (2 Bft)
10.08.2017 10:42 14,9 °C 14,9 °C 91 % 1014,8 hPa 0,0 mm 2,5 km/h (1 Bft) W-NW 290 ° 0 min 0,000 mm 0,8 UV-I 88 W/m² 13,4 °C 14,9 °C 4,8 km/h (1 Bft)
10.08.2017 10:43 14,8 °C 14,9 °C 91 % 1014,9 hPa 0,0 mm 3,3 km/h (1 Bft) W-NW 290 ° 0 min 0,000 mm 0,8 UV-I 88 W/m² 13,3 °C 14,8 °C 4,8 km/h (1 Bft)
10.08.2017 10:44 14,8 °C 14,8 °C 91 % 1014,9 hPa 0,0 mm 3,2 km/h (1 Bft) W-NW 290 ° 0 min 0,000 mm 0,7 UV-I 83 W/m² 13,3 °C 14,8 °C 4,8 km/h (1 Bft)
10.08.2017 10:45 14,9 °C 14,9 °C 91 % 1014,9 hPa 0,0 mm 1,3 km/h (1 Bft) W-NW 290 ° 0 min 0,000 mm 0,7 UV-I 79 W/m² 13,4 °C 14,9 °C 4,8 km/h (1 Bft)
10.08.2017 10:46 14,9 °C 14,9 °C 91 % 1014,9 hPa 0,0 mm 2,1 km/h (1 Bft) W-NW 290 ° 0 min 0,000 mm 0,6 UV-I 76 W/m² 13,4 °C 14,9 °C 3,2 km/h (1 Bft)
10.08.2017 10:47 14,9 °C 14,9 °C 91 % 1014,9 hPa 0,0 mm 1,6 km/h (1 Bft) W-NW 290 ° 0 min 0,000 mm 0,6 UV-I 74 W/m² 13,4 °C 14,9 °C 3,2 km/h (1 Bft)
10.08.2017 10:48 14,9 °C 14,9 °C 91 % 1015,0 hPa 0,0 mm 1,1 km/h (1 Bft) W 264 ° 0 min 0,000 mm 0,6 UV-I 69 W/m² 13,4 °C 14,9 °C 4,8 km/h (1 Bft)
10.08.2017 10:49 14,9 °C 14,9 °C 91 % 1015,0 hPa 0,0 mm 2,7 km/h (1 Bft) W 279 ° 0 min 0,000 mm 0,6 UV-I 65 W/m² 13,4 °C 14,9 °C 3,2 km/h (1 Bft)
10.08.2017 10:50 14,9 °C 14,9 °C 91 % 1015,0 hPa 0,0 mm 3,8 km/h (1 Bft) NW 315 ° 0 min 0,000 mm 0,5 UV-I 63 W/m² 13,4 °C 14,9 °C 6,4 km/h (2 Bft)
10.08.2017 10:51 14,9 °C 14,9 °C 91 % 1014,9 hPa 0,0 mm 3,5 km/h (1 Bft) W 273 ° 0 min 0,000 mm 0,5 UV-I 62 W/m² 13,4 °C 14,9 °C 4,8 km/h (1 Bft)
10.08.2017 10:52 14,9 °C 14,9 °C 91 % 1014,9 hPa 0,0 mm 4,6 km/h (1 Bft) W-NW 299 ° 0 min 0,000 mm 0,5 UV-I 60 W/m² 13,4 °C 14,9 °C 6,4 km/h (2 Bft)
10.08.2017 10:53 14,9 °C 14,9 °C 91 % 1015,0 hPa 0,0 mm 4,2 km/h (1 Bft) W-NW 286 ° 0 min 0,000 mm 0,5 UV-I 58 W/m² 13,4 °C 14,9 °C 6,4 km/h (2 Bft)
10.08.2017 10:54 14,9 °C 14,9 °C 91 % 1014,9 hPa 0,0 mm 4,6 km/h (1 Bft) W 263 ° 0 min 0,000 mm 0,0 UV-I 53 W/m² 13,4 °C 14,9 °C 6,4 km/h (2 Bft)
10.08.2017 10:55 14,8 °C 14,9 °C 91 % 1015,0 hPa 0,0 mm 5,0 km/h (1 Bft) W-NW 287 ° 0 min 0,000 mm 0,0 UV-I 53 W/m² 13,3 °C 14,8 °C 6,4 km/h (2 Bft)
10.08.2017 10:56 14,8 °C 14,9 °C 90 % 1014,9 hPa 0,0 mm 4,6 km/h (1 Bft) W-NW 292 ° 0 min 0,000 mm 0,0 UV-I 53 W/m² 13,2 °C 14,8 °C 6,4 km/h (2 Bft)
10.08.2017 10:57 14,8 °C 14,8 °C 90 % 1015,0 hPa 0,0 mm 5,5 km/h (1 Bft) W-SW 253 ° 0 min 0,000 mm 0,0 UV-I 53 W/m² 13,2 °C 14,8 °C 9,7 km/h (2 Bft)
10.08.2017 10:58 14,8 °C 14,8 °C 90 % 1015,0 hPa 0,0 mm 6,1 km/h (2 Bft) W-NW 296 ° 0 min 0,000 mm 0,0 UV-I 53 W/m² 13,2 °C 14,8 °C 8,0 km/h (2 Bft)
10.08.2017 10:59 14,8 °C 14,8 °C 90 % 1014,9 hPa 0,0 mm 5,0 km/h (1 Bft) W-NW 299 ° 0 min 0,000 mm 0,0 UV-I 54 W/m² 13,2 °C 14,8 °C 6,4 km/h (2 Bft)
10.08.2017 11:00 14,7 °C 14,8 °C 91 % 1014,9 hPa 0,0 mm 5,4 km/h (1 Bft) W-NW 292 ° 0 min 0,050 mm 0,0 UV-I 56 W/m² 13,2 °C 14,7 °C 9,7 km/h (2 Bft)
10.08.2017 11:01 14,7 °C 14,7 °C 91 % 1014,9 hPa 0,0 mm 3,4 km/h (1 Bft) W-NW 296 ° 0 min 0,000 mm 0,5 UV-I 58 W/m² 13,2 °C 14,7 °C 4,8 km/h (1 Bft)
10.08.2017 11:02 14,7 °C 14,7 °C 91 % 1014,9 hPa 0,0 mm 3,4 km/h (1 Bft) W-NW 296 ° 0 min 0,000 mm 0,5 UV-I 58 W/m² 13,2 °C 14,7 °C 6,4 km/h (2 Bft)
10.08.2017 11:03 14,7 °C 14,7 °C 91 % 1014,8 hPa 0,0 mm 1,0 km/h (0 Bft) W-NW 296 ° 0 min 0,000 mm 0,5 UV-I 60 W/m² 13,2 °C 14,7 °C 3,2 km/h (1 Bft)
10.08.2017 11:04 14,7 °C 14,7 °C 91 % 1014,8 hPa 0,0 mm 3,9 km/h (1 Bft) N-NW 329 ° 0 min 0,000 mm 0,5 UV-I 60 W/m² 13,2 °C 14,7 °C 8,0 km/h (2 Bft)
10.08.2017 11:05 14,7 °C 14,7 °C 91 % 1014,8 hPa 0,0 mm 3,2 km/h (1 Bft) N-NW 329 ° 0 min 0,000 mm 0,5 UV-I 62 W/m² 13,2 °C 14,7 °C 6,4 km/h (2 Bft)
10.08.2017 11:06 14,7 °C 14,7 °C 92 % 1014,8 hPa 0,0 mm 3,1 km/h (1 Bft) N-NW 329 ° 0 min 0,000 mm 0,5 UV-I 62 W/m² 13,4 °C 14,7 °C 6,4 km/h (2 Bft)
10.08.2017 11:07 14,7 °C 14,7 °C 92 % 1014,9 hPa 0,0 mm 2,1 km/h (1 Bft) N-NW 329 ° 0 min 0,000 mm 0,5 UV-I 60 W/m² 13,4 °C 14,7 °C 4,8 km/h (1 Bft)
10.08.2017 11:08 14,7 °C 14,7 °C 92 % 1014,9 hPa 0,0 mm 4,4 km/h (1 Bft) W 261 ° 0 min 0,000 mm 0,5 UV-I 60 W/m² 13,4 °C 14,7 °C 6,4 km/h (2 Bft)
10.08.2017 11:09 14,7 °C 14,7 °C 92 % 1014,9 hPa 0,0 mm 3,9 km/h (1 Bft) W-SW 256 ° 0 min 0,000 mm 0,5 UV-I 60 W/m² 13,4 °C 14,7 °C 6,4 km/h (2 Bft)
10.08.2017 11:10 14,6 °C 14,7 °C 92 % 1014,9 hPa 0,0 mm 5,2 km/h (1 Bft) W 269 ° 0 min 0,000 mm 0,5 UV-I 60 W/m² 13,3 °C 14,6 °C 6,4 km/h (2 Bft)
10.08.2017 11:11 14,6 °C 14,6 °C 92 % 1014,9 hPa 0,0 mm 4,3 km/h (1 Bft) W 269 ° 0 min 0,000 mm 0,5 UV-I 62 W/m² 13,3 °C 14,6 °C 6,4 km/h (2 Bft)
10.08.2017 11:12 14,5 °C 14,6 °C 92 % 1014,8 hPa 0,0 mm 2,5 km/h (1 Bft) W 275 ° 0 min 0,000 mm 0,5 UV-I 62 W/m² 13,2 °C 14,5 °C 3,2 km/h (1 Bft)
10.08.2017 11:13 14,5 °C 14,5 °C 92 % 1014,9 hPa 0,0 mm 1,8 km/h (1 Bft) W 271 ° 0 min 0,000 mm 0,5 UV-I 62 W/m² 13,2 °C 14,5 °C 4,8 km/h (1 Bft)
10.08.2017 11:14 14,5 °C 14,5 °C 93 % 1014,9 hPa 0,0 mm 3,2 km/h (1 Bft) W-SW 258 ° 0 min 0,000 mm 0,6 UV-I 63 W/m² 13,4 °C 14,5 °C 4,8 km/h (1 Bft)
10.08.2017 11:15 14,4 °C 14,5 °C 93 % 1014,9 hPa 0,0 mm 2,7 km/h (1 Bft) W 260 ° 0 min 0,000 mm 0,6 UV-I 65 W/m² 13,3 °C 14,4 °C 4,8 km/h (1 Bft)
10.08.2017 11:16 14,4 °C 14,4 °C 93 % 1014,9 hPa 0,0 mm 1,1 km/h (1 Bft) W 260 ° 0 min 0,000 mm 0,6 UV-I 65 W/m² 13,3 °C 14,4 °C 3,2 km/h (1 Bft)
10.08.2017 11:17 14,4 °C 14,4 °C 93 % 1014,8 hPa 0,0 mm 0,5 km/h (0 Bft) W 260 ° 0 min 0,000 mm 0,6 UV-I 63 W/m² 13,3 °C 14,4 °C 1,6 km/h (1 Bft)
10.08.2017 11:18 14,4 °C 14,4 °C 93 % 1014,8 hPa 0,0 mm 2,0 km/h (1 Bft) W 260 ° 0 min 0,000 mm 0,6 UV-I 62 W/m² 13,3 °C 14,4 °C 3,2 km/h (1 Bft)
10.08.2017 11:19 14,4 °C 14,4 °C 93 % 1014,9 hPa 0,0 mm 2,0 km/h (1 Bft) W 260 ° 0 min 0,000 mm 0,5 UV-I 62 W/m² 13,3 °C 14,4 °C 3,2 km/h (1 Bft)
10.08.2017 11:20 14,4 °C 14,4 °C 93 % 1014,9 hPa 0,0 mm 2,1 km/h (1 Bft) W 260 ° 0 min 0,000 mm 0,5 UV-I 58 W/m² 13,3 °C 14,4 °C 4,8 km/h (1 Bft)
10.08.2017 11:21 14,4 °C 14,4 °C 93 % 1014,9 hPa 0,0 mm 3,5 km/h (1 Bft) W 260 ° 0 min 0,000 mm 0,5 UV-I 56 W/m² 13,3 °C 14,4 °C 4,8 km/h (1 Bft)
10.08.2017 11:22 14,4 °C 14,4 °C 93 % 1014,9 hPa 0,0 mm 3,2 km/h (1 Bft) W 260 ° 0 min 0,000 mm 0,5 UV-I 56 W/m² 13,3 °C 14,4 °C 4,8 km/h (1 Bft)
10.08.2017 11:23 14,4 °C 14,4 °C 93 % 1014,9 hPa 0,0 mm 0,9 km/h (0 Bft) W 260 ° 0 min 0,000 mm 0,5 UV-I 56 W/m² 13,3 °C 14,4 °C 3,2 km/h (1 Bft)
10.08.2017 11:24 14,4 °C 14,4 °C 93 % 1014,9 hPa 0,0 mm 2,7 km/h (1 Bft) W 260 ° 0 min 0,000 mm 0,5 UV-I 62 W/m² 13,3 °C 14,4 °C 3,2 km/h (1 Bft)
10.08.2017 11:25 14,4 °C 14,4 °C 93 % 1014,8 hPa 0,0 mm 3,4 km/h (1 Bft) W 260 ° 0 min 0,000 mm 0,6 UV-I 63 W/m² 13,3 °C 14,4 °C 4,8 km/h (1 Bft)
10.08.2017 11:26 14,3 °C 14,4 °C 93 % 1014,9 hPa 0,0 mm 1,7 km/h (1 Bft) W 260 ° 0 min 0,000 mm 0,6 UV-I 65 W/m² 13,2 °C 14,3 °C 3,2 km/h (1 Bft)
10.08.2017 11:27 14,3 °C 14,3 °C 93 % 1014,8 hPa 0,0 mm 1,6 km/h (1 Bft) W 260 ° 0 min 0,000 mm 0,6 UV-I 67 W/m² 13,2 °C 14,3 °C 3,2 km/h (1 Bft)
10.08.2017 11:28 14,4 °C 14,4 °C 94 % 1014,9 hPa 0,0 mm 2,5 km/h (1 Bft) W 260 ° 0 min 0,000 mm 0,6 UV-I 69 W/m² 13,4 °C 14,4 °C 4,8 km/h (1 Bft)
10.08.2017 11:29 14,4 °C 14,4 °C 94 % 1014,8 hPa 0,0 mm 1,5 km/h (1 Bft) W 260 ° 0 min 0,000 mm 0,6 UV-I 70 W/m² 13,4 °C 14,4 °C 3,2 km/h (1 Bft)
10.08.2017 11:30 14,4 °C 14,4 °C 94 % 1014,8 hPa 0,0 mm 0,1 km/h (0 Bft) W 260 ° 0 min 0,000 mm 0,7 UV-I 79 W/m² 13,4 °C 14,4 °C 1,6 km/h (1 Bft)
10.08.2017 11:31 14,4 °C 14,4 °C 94 % 1014,8 hPa 0,0 mm 0,0 km/h (0 Bft) W 260 ° 0 min 0,000 mm 0,7 UV-I 83 W/m² 13,4 °C 14,4 °C 0,0 km/h (0 Bft)
10.08.2017 11:32 14,4 °C 14,4 °C 93 % 1014,7 hPa 0,0 mm 0,3 km/h (0 Bft) W 260 ° 0 min 0,000 mm 0,8 UV-I 84 W/m² 13,3 °C 14,4 °C 1,6 km/h (1 Bft)
10.08.2017 11:33 14,4 °C 14,4 °C 93 % 1014,8 hPa 0,0 mm 0,0 km/h (0 Bft) W 260 ° 0 min 0,000 mm 0,8 UV-I 86 W/m² 13,3 °C 14,4 °C 0,0 km/h (0 Bft)
10.08.2017 11:34 14,5 °C 14,5 °C 94 % 1014,7 hPa 0,0 mm 3,0 km/h (1 Bft) W-NW 296 ° 0 min 0,000 mm 0,8 UV-I 88 W/m² 13,5 °C 14,5 °C 4,8 km/h (1 Bft)
10.08.2017 11:35 14,5 °C 14,5 °C 93 % 1014,7 hPa 0,0 mm 4,4 km/h (1 Bft) W-NW 296 ° 0 min 0,000 mm 0,8 UV-I 90 W/m² 13,4 °C 14,5 °C 6,4 km/h (2 Bft)
10.08.2017 11:36 14,5 °C 14,5 °C 93 % 1014,6 hPa 0,0 mm 1,0 km/h (0 Bft) W-NW 296 ° 0 min 0,000 mm 0,8 UV-I 90 W/m² 13,4 °C 14,5 °C 3,2 km/h (1 Bft)
10.08.2017 11:37 14,5 °C 14,6 °C 93 % 1014,6 hPa 0,0 mm 3,4 km/h (1 Bft) W-NW 296 ° 0 min 0,000 mm 0,8 UV-I 88 W/m² 13,4 °C 14,5 °C 4,8 km/h (1 Bft)
10.08.2017 11:38 14,6 °C 14,6 °C 93 % 1014,6 hPa 0,0 mm 3,0 km/h (1 Bft) NW 306 ° 0 min 0,000 mm 0,8 UV-I 84 W/m² 13,5 °C 14,6 °C 4,8 km/h (1 Bft)
10.08.2017 11:39 14,5 °C 14,6 °C 93 % 1014,6 hPa 0,0 mm 3,8 km/h (1 Bft) NW 306 ° 0 min 0,000 mm 0,8 UV-I 84 W/m² 13,4 °C 14,5 °C 6,4 km/h (2 Bft)
10.08.2017 11:40 14,5 °C 14,6 °C 93 % 1014,6 hPa 0,0 mm 3,8 km/h (1 Bft) NW 306 ° 0 min 0,000 mm 0,8 UV-I 86 W/m² 13,4 °C 14,5 °C 4,8 km/h (1 Bft)
10.08.2017 11:41 14,6 °C 14,6 °C 93 % 1014,5 hPa 0,0 mm 3,1 km/h (1 Bft) W-NW 282 ° 0 min 0,000 mm 0,8 UV-I 90 W/m² 13,5 °C 14,6 °C 6,4 km/h (2 Bft)
10.08.2017 11:42 14,5 °C 14,6 °C 93 % 1014,6 hPa 0,0 mm 3,9 km/h (1 Bft) NW 316 ° 0 min 0,000 mm 0,8 UV-I 93 W/m² 13,4 °C 14,5 °C 6,4 km/h (2 Bft)
10.08.2017 11:43 14,5 °C 14,6 °C 93 % 1014,5 hPa 0,0 mm 3,4 km/h (1 Bft) NW 316 ° 0 min 0,000 mm 0,8 UV-I 93 W/m² 13,4 °C 14,5 °C 4,8 km/h (1 Bft)
10.08.2017 11:44 14,6 °C 14,6 °C 93 % 1014,6 hPa 0,0 mm 1,5 km/h (1 Bft) NW 316 ° 0 min 0,000 mm 0,8 UV-I 86 W/m² 13,5 °C 14,6 °C 3,2 km/h (1 Bft)
10.08.2017 11:45 14,6 °C 14,6 °C 94 % 1014,6 hPa 0,0 mm 2,9 km/h (1 Bft) NW 316 ° 0 min 0,000 mm 0,7 UV-I 76 W/m² 13,6 °C 14,6 °C 4,8 km/h (1 Bft)
10.08.2017 11:46 14,6 °C 14,6 °C 94 % 1014,6 hPa 0,0 mm 2,1 km/h (1 Bft) NW 316 ° 0 min 0,000 mm 0,7 UV-I 70 W/m² 13,6 °C 14,6 °C 4,8 km/h (1 Bft)
10.08.2017 11:47 14,6 °C 14,6 °C 94 % 1014,6 hPa 0,0 mm 1,2 km/h (1 Bft) NW 316 ° 0 min 0,000 mm 0,7 UV-I 72 W/m² 13,6 °C 14,6 °C 3,2 km/h (1 Bft)
10.08.2017 11:48 14,6 °C 14,6 °C 94 % 1014,6 hPa 0,0 mm 1,1 km/h (1 Bft) NW 316 ° 0 min 0,000 mm 0,7 UV-I 74 W/m² 13,6 °C 14,6 °C 1,6 km/h (1 Bft)
10.08.2017 11:49 14,6 °C 14,6 °C 94 % 1014,6 hPa 0,0 mm 1,9 km/h (1 Bft) NW 316 ° 0 min 0,000 mm 0,7 UV-I 77 W/m² 13,6 °C 14,6 °C 3,2 km/h (1 Bft)
10.08.2017 11:50 14,6 °C 14,6 °C 94 % 1014,6 hPa 0,0 mm 3,1 km/h (1 Bft) W-NW 292 ° 0 min 0,000 mm 0,7 UV-I 81 W/m² 13,6 °C 14,6 °C 4,8 km/h (1 Bft)
10.08.2017 11:51 14,6 °C 14,7 °C 94 % 1014,6 hPa 0,0 mm 2,0 km/h (1 Bft) W-NW 292 ° 0 min 0,000 mm 0,7 UV-I 83 W/m² 13,6 °C 14,6 °C 3,2 km/h (1 Bft)
10.08.2017 11:52 14,6 °C 14,7 °C 93 % 1014,6 hPa 0,0 mm 1,5 km/h (1 Bft) W-NW 292 ° 0 min 0,000 mm 0,7 UV-I 81 W/m² 13,5 °C 14,6 °C 3,2 km/h (1 Bft)
10.08.2017 11:53 14,6 °C 14,6 °C 93 % 1014,5 hPa 0,0 mm 2,6 km/h (1 Bft) W-NW 292 ° 0 min 0,000 mm 0,7 UV-I 79 W/m² 13,5 °C 14,6 °C 4,8 km/h (1 Bft)
10.08.2017 11:54 14,6 °C 14,6 °C 94 % 1014,6 hPa 0,0 mm 2,7 km/h (1 Bft) W-NW 292 ° 0 min 0,000 mm 0,7 UV-I 77 W/m² 13,6 °C 14,6 °C 3,2 km/h (1 Bft)
10.08.2017 11:55 14,6 °C 14,6 °C 94 % 1014,5 hPa 0,0 mm 2,1 km/h (1 Bft) W-NW 289 ° 0 min 0,000 mm 0,7 UV-I 77 W/m² 13,6 °C 14,6 °C 3,2 km/h (1 Bft)
10.08.2017 11:56 14,6 °C 14,6 °C 94 % 1014,5 hPa 0,0 mm 1,2 km/h (1 Bft) W-NW 289 ° 0 min 0,000 mm 0,7 UV-I 79 W/m² 13,6 °C 14,6 °C 1,6 km/h (1 Bft)
10.08.2017 11:57 14,6 °C 14,6 °C 93 % 1014,5 hPa 0,0 mm 0,1 km/h (0 Bft) W-NW 289 ° 0 min 0,000 mm 0,8 UV-I 84 W/m² 13,5 °C 14,6 °C 1,6 km/h (1 Bft)
10.08.2017 11:58 14,6 °C 14,6 °C 93 % 1014,5 hPa 0,0 mm 0,6 km/h (0 Bft) W-NW 289 ° 0 min 0,000 mm 0,9 UV-I 93 W/m² 13,5 °C 14,6 °C 3,2 km/h (1 Bft)
10.08.2017 11:59 14,5 °C 14,6 °C 93 % 1014,4 hPa 0,0 mm 0,8 km/h (0 Bft) W-NW 289 ° 0 min 0,000 mm 0,9 UV-I 100 W/m² 13,4 °C 14,5 °C 3,2 km/h (1 Bft)
10.08.2017 12:00 14,5 °C 14,6 °C 93 % 1014,5 hPa 0,0 mm 1,9 km/h (1 Bft) W-NW 289 ° 0 min 0,051 mm 0,9 UV-I 98 W/m² 13,4 °C 14,5 °C 3,2 km/h (1 Bft)
10.08.2017 12:01 14,5 °C 14,5 °C 93 % 1014,4 hPa 0,0 mm 0,3 km/h (0 Bft) W-NW 289 ° 0 min 0,000 mm 1,0 UV-I 102 W/m² 13,4 °C 14,5 °C 1,6 km/h (1 Bft)
10.08.2017 12:02 14,5 °C 14,5 °C 93 % 1014,4 hPa 0,0 mm 0,3 km/h (0 Bft) W-NW 289 ° 0 min 0,000 mm 0,9 UV-I 100 W/m² 13,4 °C 14,5 °C 1,6 km/h (1 Bft)
10.08.2017 12:03 14,6 °C 14,6 °C 94 % 1014,4 hPa 0,0 mm 2,1 km/h (1 Bft) W-NW 289 ° 0 min 0,000 mm 0,9 UV-I 93 W/m² 13,6 °C 14,6 °C 3,2 km/h (1 Bft)
10.08.2017 12:04 14,6 °C 14,6 °C 94 % 1014,4 hPa 0,0 mm 1,6 km/h (1 Bft) W-NW 289 ° 0 min 0,000 mm 0,8 UV-I 88 W/m² 13,6 °C 14,6 °C 3,2 km/h (1 Bft)
10.08.2017 12:05 14,6 °C 14,6 °C 94 % 1014,3 hPa 0,0 mm 0,7 km/h (0 Bft) W-NW 289 ° 0 min 0,000 mm 0,8 UV-I 77 W/m² 13,6 °C 14,6 °C 3,2 km/h (1 Bft)
10.08.2017 12:06 14,5 °C 14,6 °C 93 % 1014,3 hPa 0,0 mm 0,1 km/h (0 Bft) W-NW 289 ° 0 min 0,000 mm 0,7 UV-I 76 W/m² 13,4 °C 14,5 °C 1,6 km/h (1 Bft)
10.08.2017 12:07 14,5 °C 14,6 °C 93 % 1014,3 hPa 0,0 mm 0,7 km/h (0 Bft) W-NW 289 ° 0 min 0,000 mm 0,7 UV-I 74 W/m² 13,4 °C 14,5 °C 3,2 km/h (1 Bft)
10.08.2017 12:08 14,5 °C 14,5 °C 93 % 1014,3 hPa 0,0 mm 0,0 km/h (0 Bft) W-NW 289 ° 0 min 0,000 mm 0,7 UV-I 72 W/m² 13,4 °C 14,5 °C 0,0 km/h (0 Bft)
10.08.2017 12:09 14,5 °C 14,5 °C 93 % 1014,3 hPa 0,0 mm 0,0 km/h (0 Bft) W-NW 289 ° 0 min 0,000 mm 0,7 UV-I 74 W/m² 13,4 °C 14,5 °C 0,0 km/h (0 Bft)
10.08.2017 12:10 14,5 °C 14,5 °C 93 % 1014,3 hPa 0,0 mm 0,1 km/h (0 Bft) W-NW 289 ° 0 min 0,000 mm 0,8 UV-I 81 W/m² 13,4 °C 14,5 °C 1,6 km/h (1 Bft)
10.08.2017 12:11 14,4 °C 14,5 °C 93 % 1014,2 hPa 0,0 mm 2,5 km/h (1 Bft) W-NW 289 ° 0 min 0,000 mm 0,9 UV-I 90 W/m² 13,3 °C 14,4 °C 3,2 km/h (1 Bft)
10.08.2017 12:12 14,6 °C 14,6 °C 93 % 1014,2 hPa 0,0 mm 1,9 km/h (1 Bft) W-NW 289 ° 0 min 0,000 mm 1,0 UV-I 97 W/m² 13,5 °C 14,6 °C 3,2 km/h (1 Bft)
10.08.2017 12:13 14,6 °C 14,6 °C 94 % 1014,2 hPa 0,0 mm 1,5 km/h (1 Bft) W-NW 289 ° 0 min 0,000 mm 1,1 UV-I 105 W/m² 13,6 °C 14,6 °C 3,2 km/h (1 Bft)
10.08.2017 12:14 14,6 °C 14,6 °C 93 % 1014,2 hPa 0,0 mm 1,2 km/h (1 Bft) W-NW 289 ° 0 min 0,000 mm 1,1 UV-I 113 W/m² 13,5 °C 14,6 °C 4,8 km/h (1 Bft)
10.08.2017 12:15 14,6 °C 14,6 °C 93 % 1014,2 hPa 0,0 mm 5,2 km/h (1 Bft) W 265 ° 0 min 0,000 mm 1,1 UV-I 109 W/m² 13,5 °C 14,6 °C 6,4 km/h (2 Bft)
10.08.2017 12:16 14,6 °C 14,6 °C 93 % 1014,3 hPa 0,0 mm 2,7 km/h (1 Bft) W 265 ° 0 min 0,000 mm 1,1 UV-I 111 W/m² 13,5 °C 14,6 °C 4,8 km/h (1 Bft)
10.08.2017 12:17 14,6 °C 14,6 °C 93 % 1014,3 hPa 0,0 mm 3,2 km/h (1 Bft) W 272 ° 0 min 0,000 mm 1,1 UV-I 114 W/m² 13,5 °C 14,6 °C 4,8 km/h (1 Bft)
10.08.2017 12:18 14,6 °C 14,6 °C 93 % 1014,3 hPa 0,0 mm 3,0 km/h (1 Bft) W 281 ° 0 min 0,000 mm 1,1 UV-I 114 W/m² 13,5 °C 14,6 °C 4,8 km/h (1 Bft)
10.08.2017 12:19 14,6 °C 14,6 °C 93 % 1014,3 hPa 0,0 mm 2,8 km/h (1 Bft) W 281 ° 0 min 0,000 mm 1,0 UV-I 111 W/m² 13,5 °C 14,6 °C 4,8 km/h (1 Bft)
10.08.2017 12:20 14,7 °C 14,7 °C 93 % 1014,4 hPa 0,0 mm 0,6 km/h (0 Bft) W 281 ° 0 min 0,000 mm 0,9 UV-I 100 W/m² 13,6 °C 14,7 °C 1,6 km/h (1 Bft)
10.08.2017 12:21 14,7 °C 14,7 °C 93 % 1014,3 hPa 0,0 mm 2,6 km/h (1 Bft) W-NW 298 ° 0 min 0,000 mm 0,8 UV-I 91 W/m² 13,6 °C 14,7 °C 4,8 km/h (1 Bft)
10.08.2017 12:22 14,7 °C 14,7 °C 93 % 1014,4 hPa 0,0 mm 1,7 km/h (1 Bft) W-NW 298 ° 0 min 0,000 mm 0,9 UV-I 93 W/m² 13,6 °C 14,7 °C 3,2 km/h (1 Bft)
10.08.2017 12:23 14,7 °C 14,7 °C 93 % 1014,4 hPa 0,0 mm 4,0 km/h (1 Bft) W-NW 298 ° 0 min 0,000 mm 0,9 UV-I 90 W/m² 13,6 °C 14,7 °C 4,8 km/h (1 Bft)
10.08.2017 12:24 14,7 °C 14,7 °C 93 % 1014,4 hPa 0,0 mm 1,5 km/h (1 Bft) W-NW 298 ° 0 min 0,000 mm 0,8 UV-I 88 W/m² 13,6 °C 14,7 °C 4,8 km/h (1 Bft)
10.08.2017 12:25 14,7 °C 14,7 °C 93 % 1014,4 hPa 0,0 mm 0,0 km/h (0 Bft) W-NW 298 ° 0 min 0,000 mm 0,8 UV-I 84 W/m² 13,6 °C 14,7 °C 0,0 km/h (0 Bft)
10.08.2017 12:26 14,7 °C 14,7 °C 93 % 1014,4 hPa 0,0 mm 2,6 km/h (1 Bft) W-NW 298 ° 0 min 0,000 mm 0,7 UV-I 84 W/m² 13,6 °C 14,7 °C 3,2 km/h (1 Bft)
10.08.2017 12:27 14,7 °C 14,7 °C 93 % 1014,4 hPa 0,0 mm 2,7 km/h (1 Bft) W-NW 298 ° 0 min 0,000 mm 0,7 UV-I 74 W/m² 13,6 °C 14,7 °C 3,2 km/h (1 Bft)
10.08.2017 12:28 14,6 °C 14,7 °C 93 % 1014,4 hPa 0,0 mm 2,9 km/h (1 Bft) W-NW 298 ° 0 min 0,000 mm 0,7 UV-I 72 W/m² 13,5 °C 14,6 °C 4,8 km/h (1 Bft)
10.08.2017 12:29 14,6 °C 14,7 °C 93 % 1014,4 hPa 0,0 mm 3,5 km/h (1 Bft) W-NW 302 ° 0 min 0,000 mm 0,7 UV-I 76 W/m² 13,5 °C 14,6 °C 4,8 km/h (1 Bft)
10.08.2017 12:30 14,6 °C 14,6 °C 93 % 1014,4 hPa 0,0 mm 1,8 km/h (1 Bft) W-NW 302 ° 0 min 0,000 mm 0,8 UV-I 83 W/m² 13,5 °C 14,6 °C 3,2 km/h (1 Bft)
10.08.2017 12:31 14,6 °C 14,6 °C 93 % 1014,4 hPa 0,0 mm 1,5 km/h (1 Bft) W-NW 302 ° 0 min 0,000 mm 0,9 UV-I 90 W/m² 13,5 °C 14,6 °C 3,2 km/h (1 Bft)
10.08.2017 12:32 14,6 °C 14,6 °C 93 % 1014,4 hPa 0,0 mm 1,5 km/h (1 Bft) W-NW 302 ° 0 min 0,000 mm 0,9 UV-I 97 W/m² 13,5 °C 14,6 °C 3,2 km/h (1 Bft)
10.08.2017 12:33 14,6 °C 14,6 °C 94 % 1014,4 hPa 0,0 mm 0,9 km/h (0 Bft) W-NW 302 ° 0 min 0,000 mm 0,9 UV-I 98 W/m² 13,6 °C 14,6 °C 1,6 km/h (1 Bft)
10.08.2017 12:34 14,5 °C 14,6 °C 94 % 1014,4 hPa 0,0 mm 3,8 km/h (1 Bft) W 271 ° 0 min 0,000 mm 0,9 UV-I 102 W/m² 13,5 °C 14,5 °C 4,8 km/h (1 Bft)
10.08.2017 12:35 14,5 °C 14,5 °C 94 % 1014,4 hPa 0,0 mm 3,7 km/h (1 Bft) W 271 ° 0 min 0,000 mm 0,9 UV-I 102 W/m² 13,5 °C 14,5 °C 4,8 km/h (1 Bft)
10.08.2017 12:36 14,4 °C 14,5 °C 94 % 1014,4 hPa 0,0 mm 1,9 km/h (1 Bft) W 271 ° 0 min 0,000 mm 0,9 UV-I 102 W/m² 13,4 °C 14,4 °C 4,8 km/h (1 Bft)
10.08.2017 12:37 14,4 °C 14,5 °C 94 % 1014,4 hPa 0,0 mm 3,9 km/h (1 Bft) W 271 ° 0 min 0,000 mm 0,9 UV-I 100 W/m² 13,4 °C 14,4 °C 4,8 km/h (1 Bft)
10.08.2017 12:38 14,4 °C 14,4 °C 93 % 1014,4 hPa 0,0 mm 1,7 km/h (1 Bft) W 271 ° 0 min 0,000 mm 0,9 UV-I 100 W/m² 13,3 °C 14,4 °C 3,2 km/h (1 Bft)
10.08.2017 12:39 14,4 °C 14,4 °C 93 % 1014,4 hPa 0,0 mm 0,0 km/h (0 Bft) W 271 ° 0 min 0,000 mm 0,9 UV-I 100 W/m² 13,3 °C 14,4 °C 0,0 km/h (0 Bft)
10.08.2017 12:40 14,4 °C 14,4 °C 94 % 1014,4 hPa 0,0 mm 1,2 km/h (1 Bft) W 271 ° 0 min 0,000 mm 0,9 UV-I 98 W/m² 13,4 °C 14,4 °C 3,2 km/h (1 Bft)
10.08.2017 12:41 14,4 °C 14,4 °C 94 % 1014,5 hPa 0,0 mm 3,2 km/h (1 Bft) W 271 ° 0 min 0,000 mm 0,9 UV-I 98 W/m² 13,4 °C 14,4 °C 4,8 km/h (1 Bft)
10.08.2017 12:42 14,4 °C 14,4 °C 94 % 1014,5 hPa 0,0 mm 1,6 km/h (1 Bft) W 271 ° 0 min 0,000 mm 0,9 UV-I 97 W/m² 13,4 °C 14,4 °C 3,2 km/h (1 Bft)
10.08.2017 12:43 14,4 °C 14,4 °C 94 % 1014,5 hPa 0,0 mm 3,4 km/h (1 Bft) W 271 ° 0 min 0,000 mm 0,9 UV-I 95 W/m² 13,4 °C 14,4 °C 4,8 km/h (1 Bft)
10.08.2017 12:44 14,4 °C 14,4 °C 94 % 1014,5 hPa 0,0 mm 3,9 km/h (1 Bft) W 271 ° 0 min 0,000 mm 0,9 UV-I 93 W/m² 13,4 °C 14,4 °C 6,4 km/h (2 Bft)
10.08.2017 12:45 14,4 °C 14,4 °C 94 % 1014,6 hPa 0,0 mm 2,8 km/h (1 Bft) W 271 ° 0 min 0,000 mm 0,8 UV-I 90 W/m² 13,4 °C 14,4 °C 4,8 km/h (1 Bft)
10.08.2017 12:46 14,3 °C 14,4 °C 93 % 1014,6 hPa 0,0 mm 4,2 km/h (1 Bft) W 264 ° 0 min 0,000 mm 0,8 UV-I 79 W/m² 13,2 °C 14,3 °C 4,8 km/h (1 Bft)
10.08.2017 12:47 14,4 °C 14,4 °C 94 % 1014,6 hPa 0,0 mm 1,9 km/h (1 Bft) W 264 ° 0 min 0,000 mm 0,7 UV-I 74 W/m² 13,4 °C 14,4 °C 4,8 km/h (1 Bft)
10.08.2017 12:48 14,3 °C 14,4 °C 94 % 1014,6 hPa 0,0 mm 2,5 km/h (1 Bft) W 264 ° 0 min 0,000 mm 0,7 UV-I 74 W/m² 13,3 °C 14,3 °C 4,8 km/h (1 Bft)
10.08.2017 12:49 14,4 °C 14,4 °C 94 % 1014,7 hPa 0,0 mm 1,4 km/h (1 Bft) W 264 ° 0 min 0,000 mm 0,7 UV-I 72 W/m² 13,4 °C 14,4 °C 3,2 km/h (1 Bft)
10.08.2017 12:50 14,4 °C 14,4 °C 94 % 1014,7 hPa 0,0 mm 0,9 km/h (0 Bft) W 264 ° 0 min 0,000 mm 0,7 UV-I 72 W/m² 13,4 °C 14,4 °C 1,6 km/h (1 Bft)
10.08.2017 12:51 14,4 °C 14,4 °C 94 % 1014,7 hPa 0,0 mm 1,0 km/h (0 Bft) W 264 ° 0 min 0,000 mm 0,7 UV-I 74 W/m² 13,4 °C 14,4 °C 4,8 km/h (1 Bft)
10.08.2017 12:52 14,3 °C 14,4 °C 94 % 1014,7 hPa 0,0 mm 6,6 km/h (2 Bft) W 261 ° 0 min 0,000 mm 0,7 UV-I 70 W/m² 13,3 °C 14,3 °C 9,7 km/h (2 Bft)
10.08.2017 12:53 14,3 °C 14,3 °C 94 % 1014,7 hPa 0,0 mm 7,4 km/h (2 Bft) W-NW 286 ° 0 min 0,000 mm 0,7 UV-I 70 W/m² 13,3 °C 14,3 °C 9,7 km/h (2 Bft)
10.08.2017 12:54 14,3 °C 14,3 °C 94 % 1014,6 hPa 0,0 mm 5,8 km/h (2 Bft) W-NW 289 ° 0 min 0,000 mm 0,7 UV-I 69 W/m² 13,3 °C 14,3 °C 8,0 km/h (2 Bft)
10.08.2017 12:55 14,3 °C 14,3 °C 94 % 1014,6 hPa 0,0 mm 6,2 km/h (2 Bft) NW 305 ° 0 min 0,000 mm 0,7 UV-I 69 W/m² 13,3 °C 14,3 °C 11,3 km/h (2 Bft)
10.08.2017 12:56 14,3 °C 14,3 °C 94 % 1014,7 hPa 0,0 mm 7,3 km/h (2 Bft) W 274 ° 0 min 0,000 mm 0,6 UV-I 67 W/m² 13,3 °C 14,3 °C 11,3 km/h (2 Bft)
10.08.2017 12:57 14,3 °C 14,3 °C 94 % 1014,7 hPa 0,0 mm 4,2 km/h (1 Bft) W-NW 293 ° 0 min 0,000 mm 0,6 UV-I 65 W/m² 13,3 °C 14,3 °C 6,4 km/h (2 Bft)
10.08.2017 12:58 14,3 °C 14,3 °C 93 % 1014,7 hPa 0,0 mm 5,5 km/h (1 Bft) W 261 ° 0 min 0,000 mm 0,6 UV-I 63 W/m² 13,2 °C 14,3 °C 6,4 km/h (2 Bft)
10.08.2017 12:59 14,2 °C 14,3 °C 93 % 1014,8 hPa 0,0 mm 5,0 km/h (1 Bft) W-NW 285 ° 0 min 0,000 mm 0,6 UV-I 67 W/m² 13,1 °C 14,2 °C 6,4 km/h (2 Bft)
10.08.2017 13:00 14,2 °C 14,2 °C 93 % 1014,8 hPa 0,0 mm 5,0 km/h (1 Bft) W-NW 284 ° 0 min 0,000 mm 0,7 UV-I 70 W/m² 13,1 °C 14,2 °C 6,4 km/h (2 Bft)
10.08.2017 13:01 14,1 °C 14,2 °C 94 % 1014,8 hPa 0,0 mm 3,8 km/h (1 Bft) W-NW 289 ° 0 min 0,051 mm 0,7 UV-I 74 W/m² 13,1 °C 14,1 °C 4,8 km/h (1 Bft)
10.08.2017 13:02 14,1 °C 14,1 °C 94 % 1014,8 hPa 0,0 mm 2,8 km/h (1 Bft) W-NW 289 ° 0 min 0,000 mm 0,8 UV-I 77 W/m² 13,1 °C 14,1 °C 4,8 km/h (1 Bft)
10.08.2017 13:03 14,1 °C 14,1 °C 94 % 1014,8 hPa 0,0 mm 2,2 km/h (1 Bft) W-NW 288 ° 0 min 0,000 mm 0,8 UV-I 93 W/m² 13,1 °C 14,1 °C 4,8 km/h (1 Bft)
10.08.2017 13:04 14,1 °C 14,1 °C 94 % 1014,7 hPa 0,0 mm 1,8 km/h (1 Bft) W-NW 289 ° 0 min 0,000 mm 1,0 UV-I 98 W/m² 13,1 °C 14,1 °C 3,2 km/h (1 Bft)
10.08.2017 13:05 14,1 °C 14,1 °C 94 % 1014,7 hPa 0,0 mm 2,7 km/h (1 Bft) W-NW 289 ° 0 min 0,000 mm 1,0 UV-I 105 W/m² 13,1 °C 14,1 °C 4,8 km/h (1 Bft)
10.08.2017 13:06 14,1 °C 14,1 °C 94 % 1014,7 hPa 0,0 mm 1,7 km/h (1 Bft) W-NW 284 ° 0 min 0,000 mm 1,1 UV-I 113 W/m² 13,1 °C 14,1 °C 4,8 km/h (1 Bft)
10.08.2017 13:07 14,1 °C 14,1 °C 94 % 1014,6 hPa 0,0 mm 4,4 km/h (1 Bft) W 275 ° 0 min 0,000 mm 1,1 UV-I 118 W/m² 13,1 °C 14,1 °C 6,4 km/h (2 Bft)
10.08.2017 13:08 14,1 °C 14,1 °C 94 % 1014,6 hPa 0,0 mm 4,8 km/h (1 Bft) W 263 ° 0 min 0,000 mm 1,2 UV-I 123 W/m² 13,1 °C 14,1 °C 6,4 km/h (2 Bft)
10.08.2017 13:09 14,1 °C 14,1 °C 94 % 1014,6 hPa 0,0 mm 6,8 km/h (2 Bft) W 275 ° 0 min 0,000 mm 1,2 UV-I 134 W/m² 13,1 °C 14,1 °C 9,7 km/h (2 Bft)
10.08.2017 13:10 14,1 °C 14,1 °C 94 % 1014,6 hPa 0,0 mm 3,6 km/h (1 Bft) W 276 ° 0 min 0,000 mm 1,3 UV-I 137 W/m² 13,1 °C 14,1 °C 4,8 km/h (1 Bft)
10.08.2017 13:11 14,1 °C 14,2 °C 94 % 1014,5 hPa 0,0 mm 2,7 km/h (1 Bft) W 275 ° 0 min 0,000 mm 1,3 UV-I 144 W/m² 13,1 °C 14,1 °C 4,8 km/h (1 Bft)
10.08.2017 13:12 14,1 °C 14,1 °C 94 % 1014,5 hPa 0,0 mm 4,7 km/h (1 Bft) W 259 ° 0 min 0,000 mm 1,4 UV-I 151 W/m² 13,1 °C 14,1 °C 6,4 km/h (2 Bft)
10.08.2017 13:13 14,1 °C 14,1 °C 94 % 1014,4 hPa 0,0 mm 5,4 km/h (1 Bft) W-NW 284 ° 0 min 0,000 mm 1,5 UV-I 151 W/m² 13,1 °C 14,1 °C 9,7 km/h (2 Bft)
10.08.2017 13:14 14,1 °C 14,1 °C 94 % 1014,3 hPa 0,0 mm 5,0 km/h (1 Bft) W-NW 283 ° 0 min 0,000 mm 1,5 UV-I 162 W/m² 13,1 °C 14,1 °C 6,4 km/h (2 Bft)
10.08.2017 13:15 14,2 °C 14,2 °C 94 % 1014,4 hPa 0,0 mm 5,2 km/h (1 Bft) W 281 ° 0 min 0,000 mm 1,5 UV-I 163 W/m² 13,2 °C 14,2 °C 6,4 km/h (2 Bft)
10.08.2017 13:16 14,2 °C 14,2 °C 94 % 1014,4 hPa 0,0 mm 3,5 km/h (1 Bft) W 281 ° 0 min 0,000 mm 1,5 UV-I 163 W/m² 13,2 °C 14,2 °C 4,8 km/h (1 Bft)
10.08.2017 13:17 14,2 °C 14,2 °C 94 % 1014,4 hPa 0,0 mm 4,6 km/h (1 Bft) W-NW 303 ° 0 min 0,000 mm 1,5 UV-I 162 W/m² 13,2 °C 14,2 °C 6,4 km/h (2 Bft)
10.08.2017 13:18 14,3 °C 14,3 °C 94 % 1014,4 hPa 0,0 mm 3,4 km/h (1 Bft) W-NW 292 ° 0 min 0,000 mm 1,5 UV-I 162 W/m² 13,3 °C 14,3 °C 4,8 km/h (1 Bft)
10.08.2017 13:19 14,3 °C 14,3 °C 95 % 1014,4 hPa 0,0 mm 1,6 km/h (1 Bft) W-NW 292 ° 0 min 0,000 mm 1,5 UV-I 163 W/m² 13,5 °C 14,3 °C 3,2 km/h (1 Bft)
10.08.2017 13:20 14,3 °C 14,3 °C 94 % 1014,4 hPa 0,0 mm 2,5 km/h (1 Bft) W-NW 296 ° 0 min 0,000 mm 1,5 UV-I 162 W/m² 13,3 °C 14,3 °C 4,8 km/h (1 Bft)
10.08.2017 13:21 14,3 °C 14,3 °C 94 % 1014,4 hPa 0,2 mm 4,6 km/h (1 Bft) W-NW 292 ° 0 min 0,000 mm 1,4 UV-I 142 W/m² 13,3 °C 14,3 °C 6,4 km/h (2 Bft)
10.08.2017 13:22 14,3 °C 14,3 °C 94 % 1014,5 hPa 0,0 mm 2,9 km/h (1 Bft) W-NW 293 ° 0 min 0,000 mm 1,1 UV-I 127 W/m² 13,3 °C 14,3 °C 4,8 km/h (1 Bft)
10.08.2017 13:23 14,3 °C 14,3 °C 94 % 1014,5 hPa 0,0 mm 1,3 km/h (1 Bft) W-NW 293 ° 0 min 0,000 mm 0,9 UV-I 105 W/m² 13,3 °C 14,3 °C 3,2 km/h (1 Bft)
10.08.2017 13:24 14,3 °C 14,4 °C 94 % 1014,5 hPa 0,0 mm 3,0 km/h (1 Bft) W-NW 293 ° 0 min 0,000 mm 0,7 UV-I 83 W/m² 13,3 °C 14,3 °C 4,8 km/h (1 Bft)
10.08.2017 13:25 14,4 °C 14,4 °C 94 % 1014,6 hPa 0,0 mm 3,9 km/h (1 Bft) NW 313 ° 0 min 0,000 mm 0,6 UV-I 70 W/m² 13,4 °C 14,4 °C 6,4 km/h (2 Bft)
10.08.2017 13:26 14,4 °C 14,4 °C 94 % 1014,6 hPa 0,0 mm 5,3 km/h (1 Bft) NW 314 ° 0 min 0,000 mm 0,6 UV-I 65 W/m² 13,4 °C 14,4 °C 6,4 km/h (2 Bft)
10.08.2017 13:27 14,4 °C 14,4 °C 94 % 1014,6 hPa 0,0 mm 4,8 km/h (1 Bft) NW 314 ° 0 min 0,000 mm 0,5 UV-I 53 W/m² 13,4 °C 14,4 °C 6,4 km/h (2 Bft)
10.08.2017 13:28 14,3 °C 14,4 °C 94 % 1014,6 hPa 0,0 mm 1,5 km/h (1 Bft) N-NW 328 ° 0 min 0,000 mm 0,0 UV-I 46 W/m² 13,3 °C 14,3 °C 4,8 km/h (1 Bft)
10.08.2017 13:29 14,3 °C 14,3 °C 94 % 1014,7 hPa 0,0 mm 1,3 km/h (1 Bft) N-NW 328 ° 0 min 0,000 mm 0,0 UV-I 42 W/m² 13,3 °C 14,3 °C 1,6 km/h (1 Bft)
10.08.2017 13:30 14,3 °C 14,3 °C 94 % 1014,7 hPa 0,0 mm 1,0 km/h (0 Bft) N-NW 328 ° 0 min 0,000 mm 0,0 UV-I 44 W/m² 13,3 °C 14,3 °C 3,2 km/h (1 Bft)
10.08.2017 13:31 14,2 °C 14,3 °C 94 % 1014,7 hPa 0,0 mm 4,6 km/h (1 Bft) W 275 ° 0 min 0,000 mm 0,0 UV-I 51 W/m² 13,2 °C 14,2 °C 6,4 km/h (2 Bft)
10.08.2017 13:32 14,2 °C 14,2 °C 94 % 1014,7 hPa 0,0 mm 4,5 km/h (1 Bft) N-NW 331 ° 0 min 0,000 mm 0,5 UV-I 56 W/m² 13,2 °C 14,2 °C 6,4 km/h (2 Bft)
10.08.2017 13:33 14,2 °C 14,2 °C 94 % 1014,7 hPa 0,0 mm 1,3 km/h (1 Bft) N-NW 331 ° 0 min 0,000 mm 0,5 UV-I 53 W/m² 13,2 °C 14,2 °C 3,2 km/h (1 Bft)
10.08.2017 13:34 14,1 °C 14,2 °C 94 % 1014,7 hPa 0,2 mm 3,4 km/h (1 Bft) N 360 ° 0 min 0,000 mm 0,0 UV-I 53 W/m² 13,1 °C 14,1 °C 4,8 km/h (1 Bft)
10.08.2017 13:35 14,1 °C 14,1 °C 94 % 1014,7 hPa 0,0 mm 4,2 km/h (1 Bft) N 360 ° 0 min 0,000 mm 0,0 UV-I 53 W/m² 13,1 °C 14,1 °C 6,4 km/h (2 Bft)
10.08.2017 13:36 14,0 °C 14,1 °C 94 % 1014,7 hPa 0,0 mm 0,7 km/h (0 Bft) N 360 ° 0 min 0,000 mm 0,0 UV-I 53 W/m² 13,0 °C 14,0 °C 3,2 km/h (1 Bft)
10.08.2017 13:37 14,1 °C 14,1 °C 94 % 1014,8 hPa 0,0 mm 1,2 km/h (1 Bft) N 360 ° 0 min 0,000 mm 0,5 UV-I 56 W/m² 13,1 °C 14,1 °C 3,2 km/h (1 Bft)
10.08.2017 13:38 14,1 °C 14,1 °C 94 % 1014,7 hPa 0,0 mm 1,8 km/h (1 Bft) N 360 ° 0 min 0,000 mm 0,5 UV-I 60 W/m² 13,1 °C 14,1 °C 3,2 km/h (1 Bft)
10.08.2017 13:39 14,1 °C 14,1 °C 94 % 1014,6 hPa 0,0 mm 1,5 km/h (1 Bft) N 360 ° 0 min 0,000 mm 0,5 UV-I 69 W/m² 13,1 °C 14,1 °C 3,2 km/h (1 Bft)
10.08.2017 13:40 14,0 °C 14,1 °C 94 % 1014,7 hPa 0,0 mm 1,7 km/h (1 Bft) W-SW 253 ° 0 min 0,000 mm 0,8 UV-I 83 W/m² 13,0 °C 14,0 °C 3,2 km/h (1 Bft)
10.08.2017 13:41 14,1 °C 14,1 °C 94 % 1014,7 hPa 0,0 mm 3,1 km/h (1 Bft) W 281 ° 0 min 0,000 mm 0,9 UV-I 93 W/m² 13,1 °C 14,1 °C 4,8 km/h (1 Bft)
10.08.2017 13:42 14,0 °C 14,1 °C 94 % 1014,6 hPa 0,2 mm 3,5 km/h (1 Bft) W-NW 298 ° 0 min 0,000 mm 1,0 UV-I 104 W/m² 13,0 °C 14,0 °C 6,4 km/h (2 Bft)
10.08.2017 13:43 14,0 °C 14,0 °C 94 % 1014,6 hPa 0,0 mm 3,5 km/h (1 Bft) W-NW 283 ° 0 min 0,000 mm 1,0 UV-I 111 W/m² 13,0 °C 14,0 °C 4,8 km/h (1 Bft)
10.08.2017 13:44 14,0 °C 14,0 °C 94 % 1014,6 hPa 0,0 mm 4,9 km/h (1 Bft) W-NW 288 ° 0 min 0,000 mm 1,0 UV-I 113 W/m² 13,0 °C 14,0 °C 6,4 km/h (2 Bft)
10.08.2017 13:45 14,0 °C 14,0 °C 94 % 1014,6 hPa 0,0 mm 3,0 km/h (1 Bft) W-NW 301 ° 0 min 0,000 mm 1,1 UV-I 116 W/m² 13,0 °C 14,0 °C 6,4 km/h (2 Bft)
10.08.2017 13:46 14,0 °C 14,0 °C 94 % 1014,6 hPa 0,0 mm 1,5 km/h (1 Bft) NW 317 ° 0 min 0,000 mm 1,2 UV-I 121 W/m² 13,0 °C 14,0 °C 3,2 km/h (1 Bft)
10.08.2017 13:47 13,9 °C 14,0 °C 94 % 1014,7 hPa 0,0 mm 4,4 km/h (1 Bft) W 278 ° 0 min 0,000 mm 1,2 UV-I 125 W/m² 12,9 °C 13,9 °C 8,0 km/h (2 Bft)
10.08.2017 13:48 14,0 °C 14,0 °C 94 % 1014,7 hPa 0,0 mm 3,8 km/h (1 Bft) W-NW 292 ° 0 min 0,000 mm 1,2 UV-I 128 W/m² 13,0 °C 14,0 °C 6,4 km/h (2 Bft)
10.08.2017 13:49 14,0 °C 14,0 °C 94 % 1014,7 hPa 0,0 mm 4,7 km/h (1 Bft) W-NW 298 ° 0 min 0,000 mm 1,2 UV-I 130 W/m² 13,0 °C 14,0 °C 6,4 km/h (2 Bft)
10.08.2017 13:50 14,0 °C 14,0 °C 95 % 1014,7 hPa 0,0 mm 3,3 km/h (1 Bft) W-NW 285 ° 0 min 0,000 mm 1,2 UV-I 132 W/m² 13,2 °C 14,0 °C 4,8 km/h (1 Bft)
10.08.2017 13:51 14,0 °C 14,0 °C 94 % 1014,7 hPa 0,0 mm 3,4 km/h (1 Bft) NW 307 ° 0 min 0,000 mm 1,2 UV-I 123 W/m² 13,0 °C 14,0 °C 4,8 km/h (1 Bft)
10.08.2017 13:52 14,0 °C 14,0 °C 94 % 1014,8 hPa 0,0 mm 4,4 km/h (1 Bft) W-NW 297 ° 0 min 0,000 mm 1,1 UV-I 111 W/m² 13,0 °C 14,0 °C 6,4 km/h (2 Bft)
10.08.2017 13:53 14,1 °C 14,1 °C 95 % 1014,8 hPa 0,0 mm 4,6 km/h (1 Bft) NW 312 ° 0 min 0,000 mm 1,0 UV-I 111 W/m² 13,3 °C 14,1 °C 6,4 km/h (2 Bft)
10.08.2017 13:54 14,1 °C 14,1 °C 95 % 1014,8 hPa 0,0 mm 2,5 km/h (1 Bft) NW 304 ° 0 min 0,000 mm 1,0 UV-I 98 W/m² 13,3 °C 14,1 °C 3,2 km/h (1 Bft)
10.08.2017 13:55 14,1 °C 14,1 °C 95 % 1014,8 hPa 0,0 mm 2,7 km/h (1 Bft) NW 304 ° 0 min 0,000 mm 1,0 UV-I 105 W/m² 13,3 °C 14,1 °C 4,8 km/h (1 Bft)
10.08.2017 13:56 14,1 °C 14,1 °C 95 % 1014,8 hPa 0,0 mm 1,1 km/h (1 Bft) NW 310 ° 0 min 0,000 mm 1,0 UV-I 107 W/m² 13,3 °C 14,1 °C 4,8 km/h (1 Bft)
10.08.2017 13:57 14,2 °C 14,2 °C 95 % 1014,8 hPa 0,0 mm 2,9 km/h (1 Bft) NW 309 ° 0 min 0,000 mm 0,9 UV-I 97 W/m² 13,4 °C 14,2 °C 4,8 km/h (1 Bft)
10.08.2017 13:58 14,1 °C 14,2 °C 95 % 1014,8 hPa 0,0 mm 1,9 km/h (1 Bft) NW 309 ° 0 min 0,000 mm 0,8 UV-I 91 W/m² 13,3 °C 14,1 °C 4,8 km/h (1 Bft)
10.08.2017 13:59 14,2 °C 14,2 °C 95 % 1014,8 hPa 0,0 mm 3,6 km/h (1 Bft) N-NW 332 ° 0 min 0,000 mm 0,9 UV-I 95 W/m² 13,4 °C 14,2 °C 6,4 km/h (2 Bft)
10.08.2017 14:00 14,2 °C 14,2 °C 95 % 1014,8 hPa 0,0 mm 4,6 km/h (1 Bft) W 277 ° 0 min 0,000 mm 0,8 UV-I 90 W/m² 13,4 °C 14,2 °C 6,4 km/h (2 Bft)
10.08.2017 14:01 14,3 °C 14,3 °C 95 % 1014,7 hPa 0,0 mm 3,7 km/h (1 Bft) W-NW 293 ° 0 min 0,051 mm 0,7 UV-I 83 W/m² 13,5 °C 14,3 °C 6,4 km/h (2 Bft)
10.08.2017 14:02 14,3 °C 14,3 °C 95 % 1014,7 hPa 0,2 mm 4,8 km/h (1 Bft) NO 49 ° 0 min 0,000 mm 0,8 UV-I 84 W/m² 13,5 °C 14,3 °C 6,4 km/h (2 Bft)
10.08.2017 14:03 14,2 °C 14,3 °C 95 % 1014,8 hPa 0,0 mm 4,1 km/h (1 Bft) N 355 ° 0 min 0,000 mm 0,9 UV-I 84 W/m² 13,4 °C 14,2 °C 6,4 km/h (2 Bft)
10.08.2017 14:04 14,2 °C 14,2 °C 95 % 1014,7 hPa 0,0 mm 1,7 km/h (1 Bft) N-NW 335 ° 0 min 0,000 mm 0,9 UV-I 83 W/m² 13,4 °C 14,2 °C 3,2 km/h (1 Bft)
10.08.2017 14:05 14,2 °C 14,2 °C 95 % 1014,8 hPa 0,0 mm 2,3 km/h (1 Bft) W-NW 294 ° 0 min 0,000 mm 0,9 UV-I 81 W/m² 13,4 °C 14,2 °C 6,4 km/h (2 Bft)
10.08.2017 14:06 14,1 °C 14,2 °C 94 % 1014,8 hPa 0,0 mm 6,4 km/h (2 Bft) W-NW 294 ° 0 min 0,000 mm 0,9 UV-I 84 W/m² 13,1 °C 14,1 °C 8,0 km/h (2 Bft)
10.08.2017 14:07 14,1 °C 14,1 °C 94 % 1014,8 hPa 0,0 mm 4,0 km/h (1 Bft) W-NW 287 ° 0 min 0,000 mm 0,9 UV-I 102 W/m² 13,1 °C 14,1 °C 6,4 km/h (2 Bft)
10.08.2017 14:08 14,1 °C 14,1 °C 94 % 1014,9 hPa 0,0 mm 2,3 km/h (1 Bft) NW 312 ° 0 min 0,000 mm 0,9 UV-I 102 W/m² 13,1 °C 14,1 °C 4,8 km/h (1 Bft)
10.08.2017 14:09 14,0 °C 14,1 °C 94 % 1014,9 hPa 0,0 mm 2,1 km/h (1 Bft) NW 317 ° 0 min 0,000 mm 0,9 UV-I 98 W/m² 13,0 °C 14,0 °C 4,8 km/h (1 Bft)
10.08.2017 14:10 13,9 °C 14,0 °C 94 % 1015,0 hPa 0,0 mm 1,5 km/h (1 Bft) NW 306 ° 0 min 0,000 mm 0,9 UV-I 98 W/m² 12,9 °C 13,9 °C 3,2 km/h (1 Bft)
10.08.2017 14:11 13,9 °C 13,9 °C 94 % 1015,0 hPa 0,0 mm 5,2 km/h (1 Bft) NW 323 ° 0 min 0,000 mm 0,8 UV-I 93 W/m² 12,9 °C 13,9 °C 8,0 km/h (2 Bft)
10.08.2017 14:12 13,9 °C 13,9 °C 94 % 1015,0 hPa 0,0 mm 2,7 km/h (1 Bft) N-NW 341 ° 0 min 0,000 mm 0,8 UV-I 93 W/m² 12,9 °C 13,9 °C 6,4 km/h (2 Bft)
10.08.2017 14:13 13,9 °C 13,9 °C 94 % 1015,0 hPa 0,0 mm 3,0 km/h (1 Bft) NW 316 ° 0 min 0,000 mm 0,9 UV-I 95 W/m² 12,9 °C 13,9 °C 4,8 km/h (1 Bft)
10.08.2017 14:14 13,9 °C 13,9 °C 94 % 1015,1 hPa 0,0 mm 3,1 km/h (1 Bft) NW 313 ° 0 min 0,000 mm 0,9 UV-I 95 W/m² 12,9 °C 13,9 °C 3,2 km/h (1 Bft)
10.08.2017 14:15 13,9 °C 13,9 °C 94 % 1015,1 hPa 0,0 mm 2,5 km/h (1 Bft) W 279 ° 0 min 0,000 mm 0,8 UV-I 90 W/m² 12,9 °C 13,9 °C 4,8 km/h (1 Bft)
10.08.2017 14:16 13,9 °C 13,9 °C 95 % 1015,1 hPa 0,0 mm 4,1 km/h (1 Bft) W-NW 302 ° 0 min 0,000 mm 0,8 UV-I 84 W/m² 13,1 °C 13,9 °C 6,4 km/h (2 Bft)
10.08.2017 14:17 14,0 °C 14,0 °C 95 % 1015,1 hPa 0,0 mm 3,5 km/h (1 Bft) W-NW 301 ° 0 min 0,000 mm 0,8 UV-I 84 W/m² 13,2 °C 14,0 °C 4,8 km/h (1 Bft)
10.08.2017 14:18 14,1 °C 14,1 °C 95 % 1015,1 hPa 0,2 mm 3,7 km/h (1 Bft) W 273 ° 0 min 0,000 mm 0,8 UV-I 86 W/m² 13,3 °C 14,1 °C 6,4 km/h (2 Bft)
10.08.2017 14:19 14,1 °C 14,1 °C 95 % 1015,0 hPa 0,0 mm 4,3 km/h (1 Bft) W-NW 284 ° 0 min 0,000 mm 0,8 UV-I 91 W/m² 13,3 °C 14,1 °C 6,4 km/h (2 Bft)
10.08.2017 14:20 14,1 °C 14,1 °C 95 % 1014,9 hPa 0,0 mm 4,4 km/h (1 Bft) W-NW 290 ° 0 min 0,000 mm 0,9 UV-I 105 W/m² 13,3 °C 14,1 °C 6,4 km/h (2 Bft)
10.08.2017 14:21 14,1 °C 14,1 °C 95 % 1014,9 hPa 0,0 mm 2,8 km/h (1 Bft) W-NW 297 ° 0 min 0,000 mm 1,0 UV-I 113 W/m² 13,3 °C 14,1 °C 4,8 km/h (1 Bft)
10.08.2017 14:22 14,1 °C 14,1 °C 95 % 1015,0 hPa 0,0 mm 2,1 km/h (1 Bft) W-NW 297 ° 0 min 0,000 mm 1,0 UV-I 104 W/m² 13,3 °C 14,1 °C 3,2 km/h (1 Bft)
10.08.2017 14:23 14,0 °C 14,1 °C 94 % 1015,0 hPa 0,0 mm 3,2 km/h (1 Bft) W-NW 298 ° 0 min 0,000 mm 1,0 UV-I 104 W/m² 13,0 °C 14,0 °C 4,8 km/h (1 Bft)
10.08.2017 14:24 14,1 °C 14,1 °C 95 % 1014,9 hPa 0,0 mm 8,1 km/h (2 Bft) W 273 ° 0 min 0,000 mm 1,1 UV-I 109 W/m² 13,3 °C 14,1 °C 12,9 km/h (3 Bft)
10.08.2017 14:25 14,0 °C 14,1 °C 95 % 1014,9 hPa 0,0 mm 10,8 km/h (2 Bft) W-NW 292 ° 0 min 0,000 mm 1,1 UV-I 127 W/m² 13,2 °C 14,0 °C 14,5 km/h (3 Bft)
10.08.2017 14:26 14,0 °C 14,0 °C 94 % 1014,9 hPa 0,2 mm 8,2 km/h (2 Bft) W 281 ° 0 min 0,000 mm 1,3 UV-I 144 W/m² 13,0 °C 14,0 °C 12,9 km/h (3 Bft)
10.08.2017 14:27 13,9 °C 14,0 °C 94 % 1014,9 hPa 0,0 mm 11,7 km/h (2 Bft) NW 311 ° 0 min 0,000 mm 1,3 UV-I 153 W/m² 12,9 °C 13,9 °C 16,1 km/h (3 Bft)
10.08.2017 14:28 13,9 °C 13,9 °C 94 % 1014,9 hPa 0,0 mm 6,4 km/h (2 Bft) NW 308 ° 0 min 0,000 mm 1,3 UV-I 146 W/m² 12,9 °C 13,9 °C 9,7 km/h (2 Bft)
10.08.2017 14:29 13,9 °C 13,9 °C 94 % 1014,9 hPa 0,0 mm 6,8 km/h (2 Bft) W 267 ° 0 min 0,000 mm 1,2 UV-I 135 W/m² 12,9 °C 13,9 °C 14,5 km/h (3 Bft)
10.08.2017 14:30 13,9 °C 13,9 °C 94 % 1014,9 hPa 0,0 mm 9,2 km/h (2 Bft) W 263 ° 0 min 0,000 mm 0,9 UV-I 109 W/m² 12,9 °C 13,9 °C 12,9 km/h (3 Bft)
10.08.2017 14:31 13,8 °C 13,9 °C 94 % 1014,9 hPa 0,0 mm 6,0 km/h (2 Bft) W 268 ° 0 min 0,000 mm 0,8 UV-I 88 W/m² 12,9 °C 13,8 °C 11,3 km/h (2 Bft)
10.08.2017 14:32 13,8 °C 13,8 °C 94 % 1014,9 hPa 0,0 mm 4,4 km/h (1 Bft) W-SW 240 ° 0 min 0,000 mm 0,9 UV-I 100 W/m² 12,9 °C 13,8 °C 6,4 km/h (2 Bft)
10.08.2017 14:33 13,8 °C 13,8 °C 94 % 1014,9 hPa 0,0 mm 17,9 km/h (3 Bft) W 268 ° 0 min 0,000 mm 0,9 UV-I 109 W/m² 12,9 °C 13,8 °C 22,5 km/h (4 Bft)
10.08.2017 14:34 13,8 °C 13,8 °C 94 % 1014,9 hPa 0,0 mm 9,9 km/h (2 Bft) W 259 ° 0 min 0,000 mm 1,0 UV-I 118 W/m² 12,9 °C 13,8 °C 14,5 km/h (3 Bft)
10.08.2017 14:35 13,7 °C 13,8 °C 94 % 1014,9 hPa 0,0 mm 6,6 km/h (2 Bft) W-SW 251 ° 0 min 0,000 mm 1,1 UV-I 132 W/m² 12,8 °C 13,7 °C 11,3 km/h (2 Bft)
10.08.2017 14:36 13,7 °C 13,7 °C 94 % 1014,9 hPa 0,0 mm 14,1 km/h (3 Bft) W 265 ° 0 min 0,000 mm 1,2 UV-I 137 W/m² 12,8 °C 13,7 °C 19,3 km/h (3 Bft)
10.08.2017 14:37 13,7 °C 13,7 °C 94 % 1015,0 hPa 0,0 mm 10,6 km/h (2 Bft) W 278 ° 0 min 0,000 mm 1,3 UV-I 148 W/m² 12,8 °C 13,7 °C 14,5 km/h (3 Bft)
10.08.2017 14:38 13,7 °C 13,7 °C 94 % 1015,0 hPa 0,0 mm 5,6 km/h (1 Bft) W 271 ° 0 min 0,000 mm 1,1 UV-I 135 W/m² 12,8 °C 13,7 °C 16,1 km/h (3 Bft)
10.08.2017 14:39 13,7 °C 13,7 °C 94 % 1015,1 hPa 0,0 mm 11,5 km/h (2 Bft) W-SW 254 ° 0 min 0,000 mm 1,0 UV-I 123 W/m² 12,8 °C 13,7 °C 19,3 km/h (3 Bft)
10.08.2017 14:40 13,7 °C 13,7 °C 94 % 1015,2 hPa 0,0 mm 13,3 km/h (3 Bft) W 266 ° 0 min 0,000 mm 0,9 UV-I 116 W/m² 12,8 °C 13,7 °C 17,7 km/h (3 Bft)
10.08.2017 14:41 13,6 °C 13,7 °C 94 % 1015,2 hPa 0,0 mm 12,5 km/h (3 Bft) W-NW 288 ° 0 min 0,000 mm 0,9 UV-I 107 W/m² 12,7 °C 13,6 °C 19,3 km/h (3 Bft)
10.08.2017 14:42 13,6 °C 13,7 °C 94 % 1015,2 hPa 0,0 mm 7,0 km/h (2 Bft) W-SW 242 ° 0 min 0,000 mm 0,9 UV-I 100 W/m² 12,7 °C 13,6 °C 12,9 km/h (3 Bft)
10.08.2017 14:43 13,6 °C 13,6 °C 94 % 1015,3 hPa 0,0 mm 15,6 km/h (3 Bft) S-SW 208 ° 0 min 0,000 mm 0,9 UV-I 109 W/m² 12,7 °C 13,6 °C 22,5 km/h (4 Bft)
10.08.2017 14:44 13,5 °C 13,6 °C 94 % 1015,3 hPa 0,0 mm 7,5 km/h (2 Bft) W-NW 291 ° 0 min 0,000 mm 0,9 UV-I 107 W/m² 12,6 °C 13,5 °C 16,1 km/h (3 Bft)
10.08.2017 14:45 13,4 °C 13,5 °C 94 % 1015,3 hPa 0,0 mm 13,8 km/h (3 Bft) W-NW 300 ° 0 min 0,000 mm 0,9 UV-I 104 W/m² 12,5 °C 13,4 °C 19,3 km/h (3 Bft)
10.08.2017 14:46 13,4 °C 13,4 °C 94 % 1015,2 hPa 0,0 mm 9,9 km/h (2 Bft) W 268 ° 0 min 0,000 mm 1,0 UV-I 109 W/m² 12,5 °C 13,4 °C 22,5 km/h (4 Bft)
10.08.2017 14:47 13,4 °C 13,4 °C 94 % 1015,3 hPa 0,0 mm 14,3 km/h (3 Bft) W 265 ° 0 min 0,000 mm 1,1 UV-I 127 W/m² 12,5 °C 13,4 °C 17,7 km/h (3 Bft)
10.08.2017 14:48 13,4 °C 13,4 °C 94 % 1015,4 hPa 0,2 mm 8,7 km/h (2 Bft) W-NW 294 ° 0 min 0,000 mm 1,3 UV-I 144 W/m² 12,5 °C 13,4 °C 17,7 km/h (3 Bft)
10.08.2017 14:49 13,3 °C 13,4 °C 94 % 1015,4 hPa 0,0 mm 12,7 km/h (3 Bft) W 273 ° 0 min 0,000 mm 1,3 UV-I 146 W/m² 12,4 °C 13,3 °C 19,3 km/h (3 Bft)
10.08.2017 14:50 13,3 °C 13,3 °C 94 % 1015,5 hPa 0,0 mm 17,6 km/h (3 Bft) W 273 ° 0 min 0,000 mm 1,3 UV-I 142 W/m² 12,4 °C 13,3 °C 27,4 km/h (4 Bft)
10.08.2017 14:51 13,3 °C 13,3 °C 93 % 1015,4 hPa 0,0 mm 13,8 km/h (3 Bft) NW 304 ° 0 min 0,000 mm 1,2 UV-I 144 W/m² 12,2 °C 13,3 °C 25,7 km/h (4 Bft)
10.08.2017 14:52 13,2 °C 13,3 °C 94 % 1015,5 hPa 0,0 mm 10,2 km/h (2 Bft) W 271 ° 0 min 0,000 mm 1,2 UV-I 141 W/m² 12,3 °C 13,2 °C 17,7 km/h (3 Bft)
10.08.2017 14:53 13,2 °C 13,3 °C 93 % 1015,4 hPa 0,0 mm 15,3 km/h (3 Bft) W 261 ° 0 min 0,000 mm 1,3 UV-I 149 W/m² 12,1 °C 13,2 °C 22,5 km/h (4 Bft)
10.08.2017 14:54 13,2 °C 13,2 °C 93 % 1015,4 hPa 0,0 mm 11,6 km/h (2 Bft) W-NW 284 ° 0 min 0,000 mm 1,4 UV-I 172 W/m² 12,1 °C 13,2 °C 19,3 km/h (3 Bft)
10.08.2017 14:55 13,1 °C 13,2 °C 93 % 1015,5 hPa 0,0 mm 18,6 km/h (3 Bft) W-SW 257 ° 0 min 0,000 mm 1,5 UV-I 195 W/m² 12,0 °C 13,1 °C 29,0 km/h (5 Bft)
10.08.2017 14:56 13,0 °C 13,1 °C 93 % 1015,3 hPa 0,0 mm 21,2 km/h (4 Bft) W 261 ° 0 min 0,000 mm 1,7 UV-I 200 W/m² 11,9 °C 13,0 °C 29,0 km/h (5 Bft)
10.08.2017 14:57 12,9 °C 13,1 °C 93 % 1015,3 hPa 0,0 mm 12,8 km/h (3 Bft) W 273 ° 0 min 0,000 mm 1,7 UV-I 192 W/m² 11,8 °C 12,9 °C 24,1 km/h (4 Bft)
10.08.2017 14:58 12,9 °C 12,9 °C 93 % 1015,3 hPa 0,0 mm 15,8 km/h (3 Bft) W 265 ° 0 min 0,000 mm 1,7 UV-I 185 W/m² 11,8 °C 12,9 °C 24,1 km/h (4 Bft)
10.08.2017 14:59 12,9 °C 12,9 °C 94 % 1015,2 hPa 0,0 mm 17,1 km/h (3 Bft) SW 225 ° 0 min 0,000 mm 1,6 UV-I 185 W/m² 12,0 °C 12,9 °C 30,6 km/h (5 Bft)
10.08.2017 15:00 12,9 °C 12,9 °C 93 % 1015,3 hPa 0,0 mm 14,8 km/h (3 Bft) W-NW 292 ° 0 min 0,000 mm 1,6 UV-I 186 W/m² 11,8 °C 12,9 °C 22,5 km/h (4 Bft)
10.08.2017 15:01 12,9 °C 12,9 °C 93 % 1015,2 hPa 0,0 mm 14,2 km/h (3 Bft) W 269 ° 0 min 0,076 mm 1,7 UV-I 200 W/m² 11,8 °C 12,9 °C 20,9 km/h (4 Bft)
10.08.2017 15:02 12,9 °C 12,9 °C 93 % 1015,3 hPa 0,0 mm 18,8 km/h (3 Bft) W-NW 296 ° 0 min 0,000 mm 1,8 UV-I 213 W/m² 11,8 °C 12,9 °C 29,0 km/h (5 Bft)
10.08.2017 15:03 12,9 °C 12,9 °C 93 % 1015,3 hPa 0,0 mm 17,3 km/h (3 Bft) W-NW 288 ° 0 min 0,000 mm 1,7 UV-I 211 W/m² 11,8 °C 12,9 °C 27,4 km/h (4 Bft)
10.08.2017 15:04 12,9 °C 12,9 °C 93 % 1015,4 hPa 0,0 mm 11,0 km/h (2 Bft) NW 305 ° 0 min 0,000 mm 1,5 UV-I 190 W/m² 11,8 °C 12,9 °C 19,3 km/h (3 Bft)
10.08.2017 15:05 12,9 °C 12,9 °C 93 % 1015,4 hPa 0,0 mm 13,9 km/h (3 Bft) W-SW 258 ° 0 min 0,000 mm 1,4 UV-I 167 W/m² 11,8 °C 12,9 °C 20,9 km/h (4 Bft)
10.08.2017 15:06 12,8 °C 12,9 °C 93 % 1015,4 hPa 0,0 mm 18,3 km/h (3 Bft) W 273 ° 0 min 0,000 mm 1,3 UV-I 158 W/m² 11,7 °C 12,8 °C 22,5 km/h (4 Bft)
10.08.2017 15:07 12,8 °C 12,9 °C 93 % 1015,4 hPa 0,0 mm 8,3 km/h (2 Bft) W-SW 255 ° 0 min 0,000 mm 1,5 UV-I 172 W/m² 11,7 °C 12,8 °C 16,1 km/h (3 Bft)
10.08.2017 15:08 12,8 °C 12,9 °C 93 % 1015,5 hPa 0,0 mm 7,4 km/h (2 Bft) W 280 ° 0 min 0,000 mm 1,5 UV-I 179 W/m² 11,7 °C 12,8 °C 11,3 km/h (2 Bft)
10.08.2017 15:09 12,9 °C 12,9 °C 94 % 1015,5 hPa 0,0 mm 10,6 km/h (2 Bft) W 272 ° 0 min 0,000 mm 1,4 UV-I 169 W/m² 12,0 °C 12,9 °C 16,1 km/h (3 Bft)
10.08.2017 15:10 12,8 °C 12,9 °C 93 % 1015,5 hPa 0,0 mm 13,5 km/h (3 Bft) W-NW 290 ° 0 min 0,000 mm 1,3 UV-I 160 W/m² 11,7 °C 12,8 °C 20,9 km/h (4 Bft)
10.08.2017 15:11 12,8 °C 12,8 °C 93 % 1015,5 hPa 0,0 mm 12,5 km/h (3 Bft) NW 311 ° 0 min 0,000 mm 1,3 UV-I 155 W/m² 11,7 °C 12,8 °C 19,3 km/h (3 Bft)
10.08.2017 15:12 12,8 °C 12,8 °C 94 % 1015,5 hPa 0,0 mm 9,7 km/h (2 Bft) W 278 ° 0 min 0,000 mm 1,3 UV-I 144 W/m² 11,9 °C 12,8 °C 16,1 km/h (3 Bft)
10.08.2017 15:13 12,8 °C 12,8 °C 94 % 1015,5 hPa 0,0 mm 10,9 km/h (2 Bft) W 270 ° 0 min 0,000 mm 1,3 UV-I 149 W/m² 11,9 °C 12,8 °C 19,3 km/h (3 Bft)
10.08.2017 15:14 12,8 °C 12,8 °C 94 % 1015,5 hPa 0,0 mm 10,4 km/h (2 Bft) W 269 ° 0 min 0,000 mm 1,3 UV-I 148 W/m² 11,9 °C 12,8 °C 16,1 km/h (3 Bft)
10.08.2017 15:15 12,7 °C 12,8 °C 94 % 1015,5 hPa 0,0 mm 8,6 km/h (2 Bft) SW 215 ° 0 min 0,000 mm 1,3 UV-I 153 W/m² 11,8 °C 12,7 °C 12,9 km/h (3 Bft)
10.08.2017 15:16 12,7 °C 12,7 °C 93 % 1015,5 hPa 0,0 mm 15,1 km/h (3 Bft) W 265 ° 0 min 0,000 mm 1,3 UV-I 146 W/m² 11,6 °C 12,7 °C 20,9 km/h (4 Bft)
10.08.2017 15:17 12,6 °C 12,7 °C 93 % 1015,6 hPa 0,0 mm 17,1 km/h (3 Bft) W-SW 250 ° 0 min 0,000 mm 1,2 UV-I 137 W/m² 11,5 °C 12,6 °C 22,5 km/h (4 Bft)
10.08.2017 15:18 12,5 °C 12,6 °C 93 % 1015,5 hPa 0,0 mm 12,9 km/h (3 Bft) SW 232 ° 0 min 0,000 mm 1,1 UV-I 118 W/m² 11,4 °C 12,5 °C 17,7 km/h (3 Bft)
10.08.2017 15:19 12,4 °C 12,5 °C 93 % 1015,5 hPa 0,0 mm 11,3 km/h (2 Bft) W 280 ° 0 min 0,000 mm 1,0 UV-I 114 W/m² 11,3 °C 12,4 °C 17,7 km/h (3 Bft)
10.08.2017 15:20 12,4 °C 12,4 °C 93 % 1015,5 hPa 0,0 mm 12,0 km/h (2 Bft) W 267 ° 0 min 0,000 mm 1,0 UV-I 113 W/m² 11,3 °C 12,4 °C 20,9 km/h (4 Bft)
10.08.2017 15:21 12,4 °C 12,4 °C 93 % 1015,5 hPa 0,0 mm 10,2 km/h (2 Bft) SW 230 ° 0 min 0,000 mm 1,1 UV-I 114 W/m² 11,3 °C 12,4 °C 17,7 km/h (3 Bft)
10.08.2017 15:22 12,4 °C 12,4 °C 94 % 1015,5 hPa 0,0 mm 10,8 km/h (2 Bft) W-NW 288 ° 0 min 0,000 mm 1,1 UV-I 121 W/m² 11,5 °C 12,4 °C 22,5 km/h (4 Bft)
10.08.2017 15:23 12,3 °C 12,4 °C 93 % 1015,5 hPa 0,0 mm 15,9 km/h (3 Bft) W-SW 248 ° 0 min 0,000 mm 1,1 UV-I 121 W/m² 11,2 °C 12,3 °C 24,1 km/h (4 Bft)
10.08.2017 15:24 12,2 °C 12,3 °C 93 % 1015,5 hPa 0,0 mm 13,6 km/h (3 Bft) W 270 ° 0 min 0,000 mm 1,1 UV-I 123 W/m² 11,1 °C 12,2 °C 19,3 km/h (3 Bft)
10.08.2017 15:25 12,2 °C 12,2 °C 94 % 1015,5 hPa 0,0 mm 13,8 km/h (3 Bft) SW 232 ° 0 min 0,000 mm 1,1 UV-I 123 W/m² 11,3 °C 12,2 °C 30,6 km/h (5 Bft)
10.08.2017 15:26 12,2 °C 12,2 °C 93 % 1015,4 hPa 0,0 mm 18,1 km/h (3 Bft) SW 219 ° 0 min 0,000 mm 1,1 UV-I 121 W/m² 11,1 °C 12,2 °C 27,4 km/h (4 Bft)
10.08.2017 15:27 12,1 °C 12,2 °C 93 % 1015,3 hPa 0,0 mm 15,3 km/h (3 Bft) W 273 ° 0 min 0,000 mm 1,1 UV-I 118 W/m² 11,0 °C 12,1 °C 17,7 km/h (3 Bft)
10.08.2017 15:28 12,1 °C 12,1 °C 93 % 1015,3 hPa 0,0 mm 11,9 km/h (2 Bft) W-NW 303 ° 0 min 0,000 mm 1,0 UV-I 118 W/m² 11,0 °C 12,1 °C 19,3 km/h (3 Bft)
10.08.2017 15:29 12,1 °C 12,1 °C 93 % 1015,3 hPa 0,0 mm 16,4 km/h (3 Bft) W 281 ° 0 min 0,000 mm 1,0 UV-I 116 W/m² 11,0 °C 12,1 °C 30,6 km/h (5 Bft)
10.08.2017 15:30 11,9 °C 12,1 °C 93 % 1015,3 hPa 0,0 mm 13,7 km/h (3 Bft) W-SW 253 ° 0 min 0,000 mm 1,0 UV-I 118 W/m² 10,8 °C 11,9 °C 24,1 km/h (4 Bft)
10.08.2017 15:31 11,9 °C 11,9 °C 93 % 1015,3 hPa 0,0 mm 15,0 km/h (3 Bft) W 263 ° 0 min 0,000 mm 1,1 UV-I 118 W/m² 10,8 °C 11,9 °C 25,7 km/h (4 Bft)
10.08.2017 15:32 11,9 °C 11,9 °C 93 % 1015,3 hPa 0,0 mm 12,1 km/h (2 Bft) W 268 ° 0 min 0,000 mm 1,1 UV-I 121 W/m² 10,8 °C 11,9 °C 20,9 km/h (4 Bft)
10.08.2017 15:33 11,8 °C 11,9 °C 93 % 1015,2 hPa 0,0 mm 10,3 km/h (2 Bft) W-SW 257 ° 0 min 0,000 mm 1,1 UV-I 120 W/m² 10,7 °C 11,8 °C 19,3 km/h (3 Bft)
10.08.2017 15:34 11,8 °C 11,8 °C 93 % 1015,2 hPa 0,0 mm 13,9 km/h (3 Bft) NW 310 ° 0 min 0,000 mm 1,0 UV-I 114 W/m² 10,7 °C 11,8 °C 24,1 km/h (4 Bft)
10.08.2017 15:35 11,8 °C 11,8 °C 93 % 1015,2 hPa 0,0 mm 11,9 km/h (2 Bft) NW 316 ° 0 min 0,000 mm 1,0 UV-I 105 W/m² 10,7 °C 11,8 °C 20,9 km/h (4 Bft)
10.08.2017 15:36 11,8 °C 11,8 °C 93 % 1015,2 hPa 0,0 mm 9,5 km/h (2 Bft) SW 232 ° 0 min 0,000 mm 0,9 UV-I 102 W/m² 10,7 °C 11,8 °C 19,3 km/h (3 Bft)
10.08.2017 15:37 11,8 °C 11,8 °C 93 % 1015,2 hPa 0,0 mm 13,2 km/h (3 Bft) W-SW 241 ° 0 min 0,000 mm 0,9 UV-I 98 W/m² 10,7 °C 11,8 °C 16,1 km/h (3 Bft)
10.08.2017 15:38 11,8 °C 11,8 °C 94 % 1015,2 hPa 0,0 mm 15,0 km/h (3 Bft) W 281 ° 0 min 0,000 mm 0,9 UV-I 95 W/m² 10,9 °C 11,8 °C 20,9 km/h (4 Bft)
10.08.2017 15:39 11,7 °C 11,8 °C 93 % 1015,3 hPa 0,0 mm 9,1 km/h (2 Bft) W-NW 291 ° 0 min 0,000 mm 0,8 UV-I 88 W/m² 10,6 °C 11,7 °C 12,9 km/h (3 Bft)
10.08.2017 15:40 11,7 °C 11,8 °C 93 % 1015,4 hPa 0,0 mm 9,5 km/h (2 Bft) W 277 ° 0 min 0,000 mm 0,7 UV-I 77 W/m² 10,6 °C 11,7 °C 16,1 km/h (3 Bft)
10.08.2017 15:41 11,7 °C 11,8 °C 93 % 1015,4 hPa 0,0 mm 13,9 km/h (3 Bft) W-NW 301 ° 0 min 0,000 mm 0,7 UV-I 69 W/m² 10,6 °C 11,7 °C 20,9 km/h (4 Bft)
10.08.2017 15:42 11,7 °C 11,7 °C 93 % 1015,4 hPa 0,0 mm 10,7 km/h (2 Bft) SW 236 ° 0 min 0,000 mm 0,7 UV-I 72 W/m² 10,6 °C 11,7 °C 19,3 km/h (3 Bft)
10.08.2017 15:43 11,7 °C 11,7 °C 93 % 1015,4 hPa 0,0 mm 10,6 km/h (2 Bft) W 273 ° 0 min 0,000 mm 0,7 UV-I 77 W/m² 10,6 °C 11,7 °C 20,9 km/h (4 Bft)
10.08.2017 15:44 11,7 °C 11,7 °C 93 % 1015,3 hPa 0,0 mm 15,7 km/h (3 Bft) W-SW 239 ° 0 min 0,000 mm 0,8 UV-I 86 W/m² 10,6 °C 11,7 °C 24,1 km/h (4 Bft)
10.08.2017 15:45 11,6 °C 11,7 °C 93 % 1015,3 hPa 0,0 mm 14,4 km/h (3 Bft) W-SW 246 ° 0 min 0,000 mm 0,8 UV-I 86 W/m² 10,5 °C 11,6 °C 22,5 km/h (4 Bft)
10.08.2017 15:46 11,6 °C 11,6 °C 93 % 1015,4 hPa 0,0 mm 7,2 km/h (2 Bft) NW 309 ° 0 min 0,000 mm 0,7 UV-I 81 W/m² 10,5 °C 11,6 °C 12,9 km/h (3 Bft)
10.08.2017 15:47 11,6 °C 11,6 °C 93 % 1015,5 hPa 0,0 mm 6,6 km/h (2 Bft) W 280 ° 0 min 0,000 mm 0,7 UV-I 69 W/m² 10,5 °C 11,6 °C 14,5 km/h (3 Bft)
10.08.2017 15:48 11,5 °C 11,6 °C 93 % 1015,5 hPa 0,0 mm 11,4 km/h (2 Bft) W 278 ° 0 min 0,000 mm 0,6 UV-I 65 W/m² 10,4 °C 11,5 °C 19,3 km/h (3 Bft)
10.08.2017 15:49 11,5 °C 11,5 °C 94 % 1015,6 hPa 0,0 mm 13,5 km/h (3 Bft) W-SW 252 ° 0 min 0,000 mm 0,6 UV-I 63 W/m² 10,6 °C 11,5 °C 17,7 km/h (3 Bft)
10.08.2017 15:50 11,5 °C 11,5 °C 93 % 1015,6 hPa 0,0 mm 14,6 km/h (3 Bft) W 279 ° 0 min 0,000 mm 0,6 UV-I 67 W/m² 10,4 °C 11,5 °C 17,7 km/h (3 Bft)
10.08.2017 15:51 11,4 °C 11,5 °C 93 % 1015,6 hPa 0,0 mm 11,3 km/h (2 Bft) W-NW 291 ° 0 min 0,000 mm 0,6 UV-I 70 W/m² 10,3 °C 11,4 °C 19,3 km/h (3 Bft)
10.08.2017 15:52 11,4 °C 11,4 °C 93 % 1015,6 hPa 0,0 mm 8,8 km/h (2 Bft) N-NW 331 ° 0 min 0,000 mm 0,6 UV-I 72 W/m² 10,3 °C 11,4 °C 14,5 km/h (3 Bft)
10.08.2017 15:53 11,4 °C 11,4 °C 93 % 1015,6 hPa 0,0 mm 6,7 km/h (2 Bft) W 269 ° 0 min 0,000 mm 0,7 UV-I 72 W/m² 10,3 °C 11,4 °C 16,1 km/h (3 Bft)
10.08.2017 15:54 11,4 °C 11,4 °C 93 % 1015,6 hPa 0,0 mm 10,8 km/h (2 Bft) SW 228 ° 0 min 0,000 mm 0,6 UV-I 69 W/m² 10,3 °C 11,4 °C 19,3 km/h (3 Bft)
10.08.2017 15:55 11,3 °C 11,4 °C 93 % 1015,6 hPa 0,0 mm 12,6 km/h (3 Bft) W 276 ° 0 min 0,000 mm 0,6 UV-I 65 W/m² 10,2 °C 11,3 °C 22,5 km/h (4 Bft)
10.08.2017 15:56 11,3 °C 11,4 °C 93 % 1015,6 hPa 0,0 mm 8,0 km/h (2 Bft) W-SW 244 ° 0 min 0,000 mm 0,6 UV-I 65 W/m² 10,2 °C 11,3 °C 12,9 km/h (3 Bft)
10.08.2017 15:57 11,3 °C 11,3 °C 93 % 1015,7 hPa 0,0 mm 8,3 km/h (2 Bft) W-SW 242 ° 0 min 0,000 mm 0,5 UV-I 60 W/m² 10,2 °C 11,3 °C 16,1 km/h (3 Bft)
10.08.2017 15:58 11,3 °C 11,3 °C 93 % 1015,7 hPa 0,0 mm 11,3 km/h (2 Bft) W-SW 252 ° 0 min 0,000 mm 0,5 UV-I 62 W/m² 10,2 °C 11,3 °C 16,1 km/h (3 Bft)
10.08.2017 15:59 11,3 °C 11,3 °C 93 % 1015,7 hPa 0,0 mm 16,1 km/h (3 Bft) W-NW 292 ° 0 min 0,000 mm 0,6 UV-I 69 W/m² 10,2 °C 11,3 °C 25,7 km/h (4 Bft)
10.08.2017 16:00 11,2 °C 11,3 °C 93 % 1015,7 hPa 0,0 mm 14,9 km/h (3 Bft) W-NW 294 ° 0 min 0,000 mm 0,6 UV-I 65 W/m² 10,1 °C 11,2 °C 22,5 km/h (4 Bft)
10.08.2017 16:01 11,2 °C 11,2 °C 93 % 1015,7 hPa 0,0 mm 8,5 km/h (2 Bft) W-NW 298 ° 0 min 0,051 mm 0,6 UV-I 69 W/m² 10,1 °C 11,2 °C 14,5 km/h (3 Bft)
10.08.2017 16:02 11,2 °C 11,2 °C 94 % 1015,7 hPa 0,0 mm 12,8 km/h (3 Bft) W 270 ° 0 min 0,000 mm 0,6 UV-I 72 W/m² 10,3 °C 11,2 °C 19,3 km/h (3 Bft)
10.08.2017 16:03 11,2 °C 11,2 °C 93 % 1015,7 hPa 0,0 mm 13,6 km/h (3 Bft) W 266 ° 0 min 0,000 mm 0,6 UV-I 72 W/m² 10,1 °C 11,2 °C 17,7 km/h (3 Bft)
10.08.2017 16:04 11,2 °C 11,2 °C 93 % 1015,6 hPa 0,0 mm 11,5 km/h (2 Bft) W-SW 248 ° 0 min 0,000 mm 0,8 UV-I 91 W/m² 10,1 °C 11,2 °C 14,5 km/h (3 Bft)
10.08.2017 16:05 11,2 °C 11,2 °C 93 % 1015,6 hPa 0,0 mm 13,9 km/h (3 Bft) W-NW 301 ° 0 min 0,000 mm 0,9 UV-I 107 W/m² 10,1 °C 11,2 °C 22,5 km/h (4 Bft)
10.08.2017 16:06 11,1 °C 11,2 °C 94 % 1015,7 hPa 0,0 mm 8,5 km/h (2 Bft) NW 323 ° 0 min 0,000 mm 0,9 UV-I 104 W/m² 10,2 °C 11,1 °C 16,1 km/h (3 Bft)
10.08.2017 16:07 11,2 °C 11,2 °C 93 % 1015,7 hPa 0,0 mm 13,3 km/h (3 Bft) W 260 ° 0 min 0,000 mm 0,9 UV-I 102 W/m² 10,1 °C 11,2 °C 29,0 km/h (5 Bft)
10.08.2017 16:08 11,1 °C 11,2 °C 93 % 1015,6 hPa 0,0 mm 19,2 km/h (3 Bft) W-NW 296 ° 0 min 0,000 mm 0,8 UV-I 97 W/m² 10,0 °C 11,1 °C 27,4 km/h (4 Bft)
10.08.2017 16:09 11,1 °C 11,1 °C 93 % 1015,6 hPa 0,0 mm 16,5 km/h (3 Bft) S-SW 196 ° 0 min 0,000 mm 0,7 UV-I 90 W/m² 10,0 °C 11,1 °C 29,0 km/h (5 Bft)
10.08.2017 16:10 11,1 °C 11,1 °C 93 % 1015,6 hPa 0,0 mm 15,2 km/h (3 Bft) NW 308 ° 0 min 0,000 mm 0,8 UV-I 97 W/m² 10,0 °C 11,1 °C 22,5 km/h (4 Bft)
10.08.2017 16:11 11,0 °C 11,1 °C 93 % 1015,7 hPa 0,0 mm 14,4 km/h (3 Bft) W-NW 298 ° 0 min 0,000 mm 0,9 UV-I 105 W/m² 9,9 °C 11,0 °C 22,5 km/h (4 Bft)
10.08.2017 16:12 10,9 °C 11,0 °C 93 % 1015,7 hPa 0,0 mm 7,6 km/h (2 Bft) W 276 ° 0 min 0,000 mm 0,9 UV-I 105 W/m² 9,8 °C 10,9 °C 12,9 km/h (3 Bft)
10.08.2017 16:13 10,9 °C 10,9 °C 93 % 1015,7 hPa 0,0 mm 8,0 km/h (2 Bft) N-NW 337 ° 0 min 0,000 mm 0,9 UV-I 107 W/m² 9,8 °C 10,9 °C 11,3 km/h (2 Bft)
10.08.2017 16:14 10,9 °C 10,9 °C 93 % 1015,6 hPa 0,0 mm 14,0 km/h (3 Bft) W-NW 300 ° 0 min 0,000 mm 0,9 UV-I 97 W/m² 9,8 °C 10,9 °C 24,1 km/h (4 Bft)
10.08.2017 16:15 10,9 °C 10,9 °C 93 % 1015,7 hPa 0,0 mm 17,6 km/h (3 Bft) W 262 ° 0 min 0,000 mm 0,9 UV-I 91 W/m² 9,8 °C 10,9 °C 25,7 km/h (4 Bft)
10.08.2017 16:16 10,9 °C 10,9 °C 93 % 1015,6 hPa 0,0 mm 11,5 km/h (2 Bft) NW 306 ° 0 min 0,000 mm 0,8 UV-I 77 W/m² 9,8 °C 10,9 °C 19,3 km/h (3 Bft)
10.08.2017 16:17 10,9 °C 10,9 °C 93 % 1015,7 hPa 0,0 mm 11,4 km/h (2 Bft) W-NW 284 ° 0 min 0,000 mm 0,7 UV-I 62 W/m² 9,8 °C 10,9 °C 16,1 km/h (3 Bft)
10.08.2017 16:18 10,8 °C 10,9 °C 93 % 1015,8 hPa 0,0 mm 13,3 km/h (3 Bft) W-NW 287 ° 0 min 0,000 mm 0,0 UV-I 54 W/m² 9,7 °C 10,8 °C 22,5 km/h (4 Bft)
10.08.2017 16:19 10,8 °C 10,8 °C 93 % 1015,8 hPa 0,0 mm 7,6 km/h (2 Bft) S-SW 193 ° 0 min 0,000 mm 0,6 UV-I 65 W/m² 9,7 °C 10,8 °C 14,5 km/h (3 Bft)
10.08.2017 16:20 10,7 °C 10,8 °C 93 % 1015,9 hPa 0,0 mm 10,4 km/h (2 Bft) W-SW 252 ° 0 min 0,000 mm 0,6 UV-I 70 W/m² 9,6 °C 10,7 °C 19,3 km/h (3 Bft)
10.08.2017 16:21 10,7 °C 10,7 °C 93 % 1016,1 hPa 0,0 mm 9,3 km/h (2 Bft) W 275 ° 0 min 0,000 mm 0,6 UV-I 72 W/m² 9,6 °C 10,7 °C 19,3 km/h (3 Bft)
10.08.2017 16:22 10,7 °C 10,7 °C 93 % 1016,1 hPa 0,0 mm 14,4 km/h (3 Bft) W-SW 250 ° 0 min 0,000 mm 0,6 UV-I 62 W/m² 9,6 °C 10,7 °C 22,5 km/h (4 Bft)
10.08.2017 16:23 10,7 °C 10,7 °C 93 % 1016,3 hPa 0,0 mm 6,9 km/h (2 Bft) W 270 ° 0 min 0,000 mm 0,5 UV-I 56 W/m² 9,6 °C 10,7 °C 14,5 km/h (3 Bft)
10.08.2017 16:24 10,7 °C 10,7 °C 93 % 1016,4 hPa 0,0 mm 2,7 km/h (1 Bft) NW 309 ° 0 min 0,000 mm 0,0 UV-I 54 W/m² 9,6 °C 10,7 °C 6,4 km/h (2 Bft)
10.08.2017 16:25 10,6 °C 10,7 °C 93 % 1016,5 hPa 0,0 mm 2,8 km/h (1 Bft) NW 325 ° 0 min 0,000 mm 0,0 UV-I 46 W/m² 9,5 °C 10,6 °C 4,8 km/h (1 Bft)
10.08.2017 16:26 10,6 °C 10,6 °C 93 % 1016,6 hPa 0,0 mm 9,7 km/h (2 Bft) W-SW 257 ° 0 min 0,000 mm 0,0 UV-I 47 W/m² 9,5 °C 10,6 °C 16,1 km/h (3 Bft)
10.08.2017 16:27 10,6 °C 10,6 °C 93 % 1016,7 hPa 0,0 mm 9,4 km/h (2 Bft) W-SW 242 ° 0 min 0,000 mm 0,0 UV-I 44 W/m² 9,5 °C 10,6 °C 20,9 km/h (4 Bft)
10.08.2017 16:28 10,6 °C 10,6 °C 93 % 1016,8 hPa 0,0 mm 10,5 km/h (2 Bft) S 188 ° 0 min 0,000 mm 0,0 UV-I 35 W/m² 9,5 °C 10,6 °C 17,7 km/h (3 Bft)
10.08.2017 16:29 10,5 °C 10,6 °C 93 % 1016,8 hPa 0,0 mm 4,0 km/h (1 Bft) W 261 ° 0 min 0,000 mm 0,0 UV-I 35 W/m² 9,4 °C 10,5 °C 9,7 km/h (2 Bft)
10.08.2017 16:30 10,5 °C 10,5 °C 93 % 1016,9 hPa 0,0 mm 11,7 km/h (2 Bft) W 275 ° 0 min 0,000 mm 0,0 UV-I 37 W/m² 9,4 °C 10,5 °C 19,3 km/h (3 Bft)
10.08.2017 16:31 10,5 °C 10,6 °C 93 % 1016,9 hPa 0,0 mm 12,7 km/h (3 Bft) W 263 ° 0 min 0,000 mm 0,0 UV-I 39 W/m² 9,4 °C 10,5 °C 17,7 km/h (3 Bft)
10.08.2017 16:32 10,4 °C 10,5 °C 93 % 1016,9 hPa 0,0 mm 9,8 km/h (2 Bft) W-NW 300 ° 0 min 0,000 mm 0,0 UV-I 37 W/m² 9,3 °C 10,4 °C 14,5 km/h (3 Bft)
10.08.2017 16:33 10,4 °C 10,5 °C 93 % 1017,0 hPa 0,0 mm 8,0 km/h (2 Bft) W 277 ° 0 min 0,000 mm 0,0 UV-I 35 W/m² 9,3 °C 10,4 °C 12,9 km/h (3 Bft)
10.08.2017 16:34 10,4 °C 10,4 °C 93 % 1017,1 hPa 0,0 mm 13,7 km/h (3 Bft) W 272 ° 0 min 0,000 mm 0,0 UV-I 28 W/m² 9,3 °C 10,4 °C 17,7 km/h (3 Bft)
10.08.2017 16:35 10,4 °C 10,4 °C 93 % 1017,2 hPa 0,0 mm 5,4 km/h (1 Bft) W-SW 244 ° 0 min 0,000 mm 0,0 UV-I 25 W/m² 9,3 °C 10,4 °C 12,9 km/h (3 Bft)
10.08.2017 16:36 10,4 °C 10,4 °C 93 % 1017,1 hPa 0,0 mm 4,9 km/h (1 Bft) SW 232 ° 0 min 0,000 mm 0,0 UV-I 28 W/m² 9,3 °C 10,4 °C 6,4 km/h (2 Bft)
10.08.2017 16:37 10,4 °C 10,4 °C 93 % 1017,2 hPa 0,0 mm 3,7 km/h (1 Bft) S 180 ° 0 min 0,000 mm 0,0 UV-I 28 W/m² 9,3 °C 10,4 °C 8,0 km/h (2 Bft)
10.08.2017 16:38 10,4 °C 10,4 °C 93 % 1017,1 hPa 0,0 mm 3,7 km/h (1 Bft) W 276 ° 0 min 0,000 mm 0,0 UV-I 26 W/m² 9,3 °C 10,4 °C 6,4 km/h (2 Bft)
10.08.2017 16:39 10,4 °C 10,4 °C 93 % 1017,1 hPa 0,0 mm 3,0 km/h (1 Bft) W 263 ° 0 min 0,000 mm 0,0 UV-I 28 W/m² 9,3 °C 10,4 °C 9,7 km/h (2 Bft)
10.08.2017 16:40 10,4 °C 10,4 °C 93 % 1017,0 hPa 0,0 mm 4,4 km/h (1 Bft) SW 225 ° 0 min 0,000 mm 0,0 UV-I 26 W/m² 9,3 °C 10,4 °C 9,7 km/h (2 Bft)
10.08.2017 16:41 10,4 °C 10,4 °C 93 % 1017,0 hPa 0,0 mm 1,6 km/h (1 Bft) S-SO 150 ° 0 min 0,000 mm 0,0 UV-I 21 W/m² 9,3 °C 10,4 °C 4,8 km/h (1 Bft)
10.08.2017 16:42 10,4 °C 10,4 °C 93 % 1017,1 hPa 0,0 mm 6,5 km/h (2 Bft) W 261 ° 0 min 0,000 mm 0,0 UV-I 19 W/m² 9,3 °C 10,4 °C 16,1 km/h (3 Bft)
10.08.2017 16:43 10,3 °C 10,4 °C 93 % 1017,1 hPa 0,0 mm 9,4 km/h (2 Bft) SW 221 ° 0 min 0,000 mm 0,0 UV-I 18 W/m² 9,2 °C 10,3 °C 17,7 km/h (3 Bft)
10.08.2017 16:44 10,3 °C 10,4 °C 93 % 1017,1 hPa 0,0 mm 4,4 km/h (1 Bft) W-SW 241 ° 0 min 0,000 mm 0,0 UV-I 14 W/m² 9,2 °C 10,3 °C 6,4 km/h (2 Bft)
10.08.2017 16:45 10,3 °C 10,3 °C 93 % 1017,0 hPa 0,0 mm 3,8 km/h (1 Bft) W-SW 249 ° 0 min 0,000 mm 0,0 UV-I 12 W/m² 9,2 °C 10,3 °C 9,7 km/h (2 Bft)
10.08.2017 16:46 10,3 °C 10,3 °C 93 % 1017,0 hPa 0,0 mm 5,2 km/h (1 Bft) W-SW 243 ° 0 min 0,000 mm 0,0 UV-I 14 W/m² 9,2 °C 10,3 °C 11,3 km/h (2 Bft)
10.08.2017 16:47 10,3 °C 10,3 °C 94 % 1017,0 hPa 0,0 mm 7,4 km/h (2 Bft) S 185 ° 0 min 0,000 mm 0,0 UV-I 14 W/m² 9,4 °C 10,3 °C 11,3 km/h (2 Bft)
10.08.2017 16:48 10,3 °C 10,3 °C 94 % 1017,0 hPa 0,0 mm 6,9 km/h (2 Bft) S-SW 192 ° 0 min 0,000 mm 0,0 UV-I 16 W/m² 9,4 °C 10,3 °C 12,9 km/h (3 Bft)
10.08.2017 16:49 10,3 °C 10,3 °C 94 % 1017,0 hPa 0,0 mm 9,9 km/h (2 Bft) W-NW 287 ° 0 min 0,000 mm 0,0 UV-I 16 W/m² 9,4 °C 10,3 °C 16,1 km/h (3 Bft)
10.08.2017 16:50 10,3 °C 10,4 °C 94 % 1017,0 hPa 0,0 mm 10,8 km/h (2 Bft) W 280 ° 0 min 0,000 mm 0,0 UV-I 16 W/m² 9,4 °C 10,3 °C 17,7 km/h (3 Bft)
10.08.2017 16:51 10,3 °C 10,3 °C 94 % 1017,0 hPa 0,0 mm 11,7 km/h (2 Bft) S 190 ° 0 min 0,000 mm 0,0 UV-I 16 W/m² 9,4 °C 10,3 °C 17,7 km/h (3 Bft)
10.08.2017 16:52 10,3 °C 10,3 °C 94 % 1017,0 hPa 0,0 mm 8,1 km/h (2 Bft) W 281 ° 0 min 0,000 mm 0,0 UV-I 11 W/m² 9,4 °C 10,3 °C 16,1 km/h (3 Bft)
10.08.2017 16:53 10,3 °C 10,3 °C 94 % 1017,1 hPa 0,0 mm 11,1 km/h (2 Bft) W-SW 244 ° 0 min 0,000 mm 0,0 UV-I 12 W/m² 9,4 °C 10,3 °C 14,5 km/h (3 Bft)
10.08.2017 16:54 10,3 °C 10,3 °C 94 % 1017,2 hPa 0,0 mm 10,5 km/h (2 Bft) W-SW 252 ° 0 min 0,000 mm 0,0 UV-I 12 W/m² 9,4 °C 10,3 °C 14,5 km/h (3 Bft)
10.08.2017 16:55 10,3 °C 10,3 °C 93 % 1017,1 hPa 0,0 mm 12,3 km/h (3 Bft) S-SW 211 ° 0 min 0,000 mm 0,0 UV-I 12 W/m² 9,2 °C 10,3 °C 17,7 km/h (3 Bft)
10.08.2017 16:56 10,2 °C 10,3 °C 93 % 1017,2 hPa 0,0 mm 9,5 km/h (2 Bft) W-SW 241 ° 0 min 0,000 mm 0,0 UV-I 12 W/m² 9,1 °C 10,2 °C 22,5 km/h (4 Bft)
10.08.2017 16:57 10,2 °C 10,3 °C 94 % 1017,2 hPa 0,0 mm 20,0 km/h (4 Bft) W 263 ° 0 min 0,000 mm 0,0 UV-I 11 W/m² 9,3 °C 10,2 °C 25,7 km/h (4 Bft)
10.08.2017 16:58 10,2 °C 10,2 °C 94 % 1017,2 hPa 0,0 mm 14,8 km/h (3 Bft) W-SW 254 ° 0 min 0,000 mm 0,0 UV-I 12 W/m² 9,3 °C 10,2 °C 25,7 km/h (4 Bft)
10.08.2017 16:59 10,2 °C 10,2 °C 93 % 1017,2 hPa 0,0 mm 16,8 km/h (3 Bft) S-SW 199 ° 0 min 0,000 mm 0,0 UV-I 14 W/m² 9,1 °C 10,2 °C 25,7 km/h (4 Bft)
10.08.2017 17:00 10,1 °C 10,2 °C 93 % 1017,2 hPa 0,2 mm 12,1 km/h (2 Bft) W-NW 285 ° 0 min 0,000 mm 0,0 UV-I 16 W/m² 9,0 °C 10,1 °C 16,1 km/h (3 Bft)
10.08.2017 17:01 10,1 °C 10,1 °C 93 % 1017,2 hPa 0,0 mm 16,1 km/h (3 Bft) W-NW 290 ° 0 min 0,025 mm 0,0 UV-I 14 W/m² 9,0 °C 10,1 °C 22,5 km/h (4 Bft)
10.08.2017 17:02 10,1 °C 10,1 °C 93 % 1017,1 hPa 0,0 mm 15,9 km/h (3 Bft) W-NW 298 ° 0 min 0,000 mm 0,0 UV-I 12 W/m² 9,0 °C 10,1 °C 27,4 km/h (4 Bft)
10.08.2017 17:03 10,0 °C 10,1 °C 93 % 1017,1 hPa 0,0 mm 8,2 km/h (2 Bft) W 269 ° 0 min 0,000 mm 0,0 UV-I 14 W/m² 8,9 °C 9,0 °C 12,9 km/h (3 Bft)
10.08.2017 17:04 10,0 °C 10,0 °C 93 % 1017,3 hPa 0,0 mm 14,7 km/h (3 Bft) W 275 ° 0 min 0,000 mm 0,0 UV-I 12 W/m² 8,9 °C 8,0 °C 17,7 km/h (3 Bft)
10.08.2017 17:05 10,0 °C 10,0 °C 93 % 1017,3 hPa 0,0 mm 12,2 km/h (2 Bft) W 276 ° 0 min 0,000 mm 0,0 UV-I 12 W/m² 8,9 °C 8,3 °C 22,5 km/h (4 Bft)
10.08.2017 17:06 9,9 °C 10,0 °C 93 % 1017,3 hPa 0,0 mm 12,5 km/h (3 Bft) W 264 ° 0 min 0,000 mm 0,0 UV-I 12 W/m² 8,8 °C 8,1 °C 17,7 km/h (3 Bft)
10.08.2017 17:07 9,9 °C 9,9 °C 93 % 1017,3 hPa 0,0 mm 9,5 km/h (2 Bft) W 266 ° 0 min 0,000 mm 0,0 UV-I 12 W/m² 8,8 °C 8,6 °C 16,1 km/h (3 Bft)
10.08.2017 17:08 9,9 °C 9,9 °C 93 % 1017,5 hPa 0,0 mm 11,1 km/h (2 Bft) W 264 ° 0 min 0,000 mm 0,0 UV-I 12 W/m² 8,8 °C 8,3 °C 16,1 km/h (3 Bft)
10.08.2017 17:09 9,8 °C 9,9 °C 93 % 1017,5 hPa 0,0 mm 15,0 km/h (3 Bft) W-SW 244 ° 0 min 0,000 mm 0,0 UV-I 11 W/m² 8,7 °C 7,7 °C 19,3 km/h (3 Bft)
10.08.2017 17:10 9,8 °C 9,8 °C 94 % 1017,4 hPa 0,2 mm 7,4 km/h (2 Bft) W 263 ° 0 min 0,000 mm 0,0 UV-I 11 W/m² 8,9 °C 8,9 °C 11,3 km/h (2 Bft)
10.08.2017 17:11 9,8 °C 9,8 °C 93 % 1017,5 hPa 0,0 mm 14,2 km/h (3 Bft) W 267 ° 0 min 0,000 mm 0,0 UV-I 11 W/m² 8,7 °C 7,8 °C 25,7 km/h (4 Bft)
10.08.2017 17:12 9,8 °C 9,8 °C 93 % 1017,5 hPa 0,0 mm 19,6 km/h (3 Bft) W-NW 286 ° 0 min 0,000 mm 0,0 UV-I 11 W/m² 8,7 °C 7,2 °C 33,8 km/h (5 Bft)
10.08.2017 17:13 9,7 °C 9,8 °C 93 % 1017,4 hPa 0,0 mm 13,6 km/h (3 Bft) W 280 ° 0 min 0,000 mm 0,0 UV-I 11 W/m² 8,6 °C 7,7 °C 25,7 km/h (4 Bft)
10.08.2017 17:14 9,7 °C 9,7 °C 93 % 1017,5 hPa 0,0 mm 18,0 km/h (3 Bft) NW 315 ° 0 min 0,000 mm 0,0 UV-I 11 W/m² 8,6 °C 7,2 °C 24,1 km/h (4 Bft)
10.08.2017 17:15 9,7 °C 9,7 °C 93 % 1017,5 hPa 0,0 mm 9,9 km/h (2 Bft) W 275 ° 0 min 0,000 mm 0,0 UV-I 11 W/m² 8,6 °C 8,3 °C 14,5 km/h (3 Bft)
10.08.2017 17:16 9,6 °C 9,7 °C 93 % 1017,5 hPa 0,0 mm 7,6 km/h (2 Bft) W-NW 285 ° 0 min 0,000 mm 0,0 UV-I 11 W/m² 8,5 °C 8,6 °C 14,5 km/h (3 Bft)
10.08.2017 17:17 9,6 °C 9,6 °C 93 % 1017,5 hPa 0,2 mm 13,6 km/h (3 Bft) W 276 ° 0 min 0,000 mm 0,0 UV-I 11 W/m² 8,5 °C 7,6 °C 25,7 km/h (4 Bft)
10.08.2017 17:18 9,6 °C 9,6 °C 93 % 1017,5 hPa 0,0 mm 13,7 km/h (3 Bft) NW 304 ° 0 min 0,000 mm 0,0 UV-I 11 W/m² 8,5 °C 7,6 °C 20,9 km/h (4 Bft)
10.08.2017 17:19 9,6 °C 9,6 °C 93 % 1017,5 hPa 0,0 mm 12,0 km/h (2 Bft) W-SW 251 ° 0 min 0,000 mm 0,0 UV-I 11 W/m² 8,5 °C 7,8 °C 14,5 km/h (3 Bft)
10.08.2017 17:20 9,6 °C 9,6 °C 94 % 1017,5 hPa 0,0 mm 15,0 km/h (3 Bft) W 260 ° 0 min 0,000 mm 0,0 UV-I 9 W/m² 8,7 °C 7,4 °C 27,4 km/h (4 Bft)
10.08.2017 17:21 9,6 °C 9,6 °C 93 % 1017,5 hPa 0,0 mm 10,1 km/h (2 Bft) W 268 ° 0 min 0,000 mm 0,0 UV-I 9 W/m² 8,5 °C 8,1 °C 17,7 km/h (3 Bft)
10.08.2017 17:22 9,6 °C 9,6 °C 94 % 1017,5 hPa 0,2 mm 13,5 km/h (3 Bft) W 276 ° 0 min 0,000 mm 0,0 UV-I 11 W/m² 8,7 °C 7,6 °C 24,1 km/h (4 Bft)
10.08.2017 17:23 9,5 °C 9,6 °C 94 % 1017,5 hPa 0,0 mm 15,5 km/h (3 Bft) W-SW 257 ° 0 min 0,000 mm 0,0 UV-I 11 W/m² 8,6 °C 7,2 °C 27,4 km/h (4 Bft)
10.08.2017 17:24 9,4 °C 9,5 °C 94 % 1017,4 hPa 0,0 mm 13,1 km/h (3 Bft) W 270 ° 0 min 0,000 mm 0,0 UV-I 11 W/m² 8,5 °C 7,4 °C 17,7 km/h (3 Bft)
10.08.2017 17:25 9,4 °C 9,5 °C 94 % 1017,3 hPa 0,2 mm 13,5 km/h (3 Bft) W-NW 293 ° 0 min 0,000 mm 0,0 UV-I 11 W/m² 8,5 °C 7,4 °C 24,1 km/h (4 Bft)
10.08.2017 17:26 9,4 °C 9,4 °C 94 % 1017,3 hPa 0,0 mm 15,1 km/h (3 Bft) W 271 ° 0 min 0,000 mm 0,0 UV-I 11 W/m² 8,5 °C 7,2 °C 20,9 km/h (4 Bft)
10.08.2017 17:27 9,4 °C 9,4 °C 94 % 1017,3 hPa 0,2 mm 11,7 km/h (2 Bft) W 273 ° 0 min 0,000 mm 0,0 UV-I 9 W/m² 8,5 °C 7,6 °C 19,3 km/h (3 Bft)
10.08.2017 17:28 9,4 °C 9,4 °C 94 % 1017,3 hPa 0,0 mm 10,9 km/h (2 Bft) W-SW 239 ° 0 min 0,000 mm 0,0 UV-I 9 W/m² 8,5 °C 7,8 °C 14,5 km/h (3 Bft)
10.08.2017 17:29 9,4 °C 9,4 °C 94 % 1017,3 hPa 0,2 mm 12,3 km/h (3 Bft) W 259 ° 0 min 0,000 mm 0,0 UV-I 9 W/m² 8,5 °C 7,5 °C 19,3 km/h (3 Bft)
10.08.2017 17:30 9,4 °C 9,4 °C 94 % 1017,5 hPa 0,2 mm 5,4 km/h (1 Bft) W 268 ° 0 min 0,000 mm 0,0 UV-I 9 W/m² 8,5 °C 9,0 °C 12,9 km/h (3 Bft)
10.08.2017 17:31 9,4 °C 9,4 °C 94 % 1017,5 hPa 0,2 mm 5,4 km/h (1 Bft) W 259 ° 0 min 0,000 mm 0,0 UV-I 7 W/m² 8,5 °C 9,0 °C 11,3 km/h (2 Bft)
10.08.2017 17:32 9,4 °C 9,4 °C 94 % 1017,5 hPa 0,0 mm 10,1 km/h (2 Bft) W 273 ° 0 min 0,000 mm 0,0 UV-I 7 W/m² 8,5 °C 7,9 °C 14,5 km/h (3 Bft)
10.08.2017 17:33 9,4 °C 9,4 °C 94 % 1017,5 hPa 0,2 mm 13,8 km/h (3 Bft) W 263 ° 0 min 0,000 mm 0,0 UV-I 9 W/m² 8,5 °C 7,3 °C 22,5 km/h (4 Bft)
10.08.2017 17:34 9,4 °C 9,4 °C 94 % 1017,4 hPa 0,2 mm 10,4 km/h (2 Bft) W-SW 242 ° 0 min 0,000 mm 0,0 UV-I 9 W/m² 8,5 °C 7,8 °C 14,5 km/h (3 Bft)
10.08.2017 17:35 9,4 °C 9,4 °C 94 % 1017,4 hPa 0,0 mm 6,4 km/h (2 Bft) W 273 ° 0 min 0,000 mm 0,0 UV-I 9 W/m² 8,5 °C 8,7 °C 9,7 km/h (2 Bft)
10.08.2017 17:36 9,3 °C 9,4 °C 94 % 1017,4 hPa 0,2 mm 5,7 km/h (1 Bft) W 278 ° 0 min 0,000 mm 0,0 UV-I 7 W/m² 8,4 °C 8,8 °C 11,3 km/h (2 Bft)
10.08.2017 17:37 9,4 °C 9,4 °C 94 % 1017,5 hPa 0,2 mm 6,5 km/h (2 Bft) W-SW 251 ° 0 min 0,000 mm 0,0 UV-I 9 W/m² 8,5 °C 8,7 °C 11,3 km/h (2 Bft)
10.08.2017 17:38 9,4 °C 9,4 °C 94 % 1017,5 hPa 0,2 mm 7,2 km/h (2 Bft) SW 223 ° 0 min 0,000 mm 0,0 UV-I 9 W/m² 8,5 °C 8,5 °C 12,9 km/h (3 Bft)
10.08.2017 17:39 9,4 °C 9,4 °C 94 % 1017,5 hPa 0,2 mm 6,5 km/h (2 Bft) W 261 ° 0 min 0,000 mm 0,0 UV-I 9 W/m² 8,5 °C 8,7 °C 14,5 km/h (3 Bft)
10.08.2017 17:40 9,4 °C 9,4 °C 94 % 1017,5 hPa 0,0 mm 8,0 km/h (2 Bft) W-SW 250 ° 0 min 0,000 mm 0,0 UV-I 9 W/m² 8,5 °C 8,3 °C 14,5 km/h (3 Bft)
10.08.2017 17:41 9,4 °C 9,4 °C 94 % 1017,4 hPa 0,2 mm 13,2 km/h (3 Bft) W-SW 248 ° 0 min 0,000 mm 0,0 UV-I 9 W/m² 8,5 °C 7,4 °C 17,7 km/h (3 Bft)
10.08.2017 17:42 9,3 °C 9,4 °C 94 % 1017,4 hPa 0,2 mm 6,1 km/h (2 Bft) W-NW 295 ° 0 min 0,000 mm 0,0 UV-I 9 W/m² 8,4 °C 8,6 °C 12,9 km/h (3 Bft)
10.08.2017 17:43 9,3 °C 9,4 °C 94 % 1017,3 hPa 0,0 mm 7,0 km/h (2 Bft) W-NW 284 ° 0 min 0,000 mm 0,0 UV-I 9 W/m² 8,4 °C 8,4 °C 16,1 km/h (3 Bft)
10.08.2017 17:44 9,3 °C 9,3 °C 94 % 1017,2 hPa 0,0 mm 13,5 km/h (3 Bft) W-SW 248 ° 0 min 0,000 mm 0,0 UV-I 11 W/m² 8,4 °C 7,2 °C 20,9 km/h (4 Bft)
10.08.2017 17:45 9,3 °C 9,3 °C 94 % 1017,1 hPa 0,2 mm 9,0 km/h (2 Bft) W 269 ° 0 min 0,000 mm 0,0 UV-I 11 W/m² 8,4 °C 8,0 °C 14,5 km/h (3 Bft)
10.08.2017 17:46 9,3 °C 9,3 °C 94 % 1017,1 hPa 0,2 mm 9,9 km/h (2 Bft) W-SW 258 ° 0 min 0,000 mm 0,0 UV-I 11 W/m² 8,4 °C 7,8 °C 17,7 km/h (3 Bft)
10.08.2017 17:47 9,3 °C 9,3 °C 94 % 1017,2 hPa 0,0 mm 13,9 km/h (3 Bft) W 263 ° 0 min 0,000 mm 0,0 UV-I 12 W/m² 8,4 °C 7,2 °C 19,3 km/h (3 Bft)
10.08.2017 17:48 9,3 °C 9,3 °C 94 % 1017,2 hPa 0,2 mm 7,7 km/h (2 Bft) W 271 ° 0 min 0,000 mm 0,0 UV-I 12 W/m² 8,4 °C 8,3 °C 11,3 km/h (2 Bft)
10.08.2017 17:49 9,3 °C 9,3 °C 94 % 1017,3 hPa 0,0 mm 9,3 km/h (2 Bft) W-NW 283 ° 0 min 0,000 mm 0,0 UV-I 12 W/m² 8,4 °C 7,9 °C 14,5 km/h (3 Bft)
10.08.2017 17:50 9,3 °C 9,3 °C 94 % 1017,4 hPa 0,2 mm 5,4 km/h (1 Bft) SW 230 ° 0 min 0,000 mm 0,0 UV-I 14 W/m² 8,4 °C 8,8 °C 8,0 km/h (2 Bft)
10.08.2017 17:51 9,3 °C 9,3 °C 94 % 1017,5 hPa 0,2 mm 11,6 km/h (2 Bft) W-SW 254 ° 0 min 0,000 mm 0,0 UV-I 14 W/m² 8,4 °C 7,5 °C 20,9 km/h (4 Bft)
10.08.2017 17:52 9,3 °C 9,3 °C 94 % 1017,5 hPa 0,0 mm 7,7 km/h (2 Bft) W 272 ° 0 min 0,000 mm 0,0 UV-I 16 W/m² 8,4 °C 8,3 °C 14,5 km/h (3 Bft)
10.08.2017 17:53 9,3 °C 9,3 °C 94 % 1017,6 hPa 0,2 mm 7,5 km/h (2 Bft) W 271 ° 0 min 0,000 mm 0,0 UV-I 18 W/m² 8,4 °C 8,3 °C 11,3 km/h (2 Bft)
10.08.2017 17:54 9,3 °C 9,3 °C 94 % 1017,5 hPa 0,0 mm 5,0 km/h (1 Bft) SW 229 ° 0 min 0,000 mm 0,0 UV-I 18 W/m² 8,4 °C 9,0 °C 9,7 km/h (2 Bft)
10.08.2017 17:55 9,3 °C 9,3 °C 94 % 1017,6 hPa 0,2 mm 6,0 km/h (2 Bft) W 275 ° 0 min 0,000 mm 0,0 UV-I 16 W/m² 8,4 °C 8,7 °C 11,3 km/h (2 Bft)
10.08.2017 17:56 9,3 °C 9,3 °C 94 % 1017,6 hPa 0,2 mm 5,8 km/h (2 Bft) W-SW 254 ° 0 min 0,000 mm 0,0 UV-I 14 W/m² 8,4 °C 8,7 °C 11,3 km/h (2 Bft)
10.08.2017 17:57 9,3 °C 9,3 °C 94 % 1017,6 hPa 0,0 mm 2,9 km/h (1 Bft) W-SW 253 ° 0 min 0,000 mm 0,0 UV-I 14 W/m² 8,4 °C 9,3 °C 4,8 km/h (1 Bft)
10.08.2017 17:58 9,3 °C 9,3 °C 94 % 1017,7 hPa 0,0 mm 7,3 km/h (2 Bft) S-SW 213 ° 0 min 0,000 mm 0,0 UV-I 14 W/m² 8,4 °C 8,3 °C 12,9 km/h (3 Bft)
10.08.2017 17:59 9,3 °C 9,3 °C 94 % 1017,7 hPa 0,2 mm 12,7 km/h (3 Bft) W-SW 255 ° 0 min 0,000 mm 0,0 UV-I 14 W/m² 8,4 °C 7,4 °C 20,9 km/h (4 Bft)
10.08.2017 18:00 9,3 °C 9,3 °C 94 % 1017,6 hPa 0,0 mm 4,9 km/h (1 Bft) W-SW 257 ° 0 min 0,000 mm 0,0 UV-I 14 W/m² 8,4 °C 9,0 °C 11,3 km/h (2 Bft)
10.08.2017 18:01 9,3 °C 9,3 °C 94 % 1017,6 hPa 0,2 mm 7,3 km/h (2 Bft) W 281 ° 0 min 0,000 mm 0,0 UV-I 14 W/m² 8,4 °C 8,3 °C 16,1 km/h (3 Bft)
10.08.2017 18:02 9,3 °C 9,3 °C 94 % 1017,6 hPa 0,0 mm 7,4 km/h (2 Bft) W 259 ° 0 min 0,000 mm 0,0 UV-I 14 W/m² 8,4 °C 8,3 °C 12,9 km/h (3 Bft)
10.08.2017 18:03 9,3 °C 9,3 °C 94 % 1017,6 hPa 0,2 mm 5,4 km/h (1 Bft) W-SW 250 ° 0 min 0,000 mm 0,0 UV-I 14 W/m² 8,4 °C 8,8 °C 11,3 km/h (2 Bft)
10.08.2017 18:04 9,3 °C 9,3 °C 94 % 1017,6 hPa 0,0 mm 7,0 km/h (2 Bft) W 273 ° 0 min 0,000 mm 0,0 UV-I 14 W/m² 8,4 °C 8,4 °C 9,7 km/h (2 Bft)
10.08.2017 18:05 9,3 °C 9,3 °C 94 % 1017,5 hPa 0,0 mm 6,8 km/h (2 Bft) W 271 ° 0 min 0,000 mm 0,0 UV-I 14 W/m² 8,4 °C 8,5 °C 9,7 km/h (2 Bft)
10.08.2017 18:06 9,3 °C 9,3 °C 94 % 1017,5 hPa 0,2 mm 8,0 km/h (2 Bft) W 263 ° 0 min 0,000 mm 0,0 UV-I 14 W/m² 8,4 °C 8,2 °C 14,5 km/h (3 Bft)
10.08.2017 18:07 9,3 °C 9,3 °C 94 % 1017,5 hPa 0,0 mm 6,3 km/h (2 Bft) S-SW 203 ° 0 min 0,000 mm 0,0 UV-I 14 W/m² 8,4 °C 8,6 °C 9,7 km/h (2 Bft)
10.08.2017 18:08 9,3 °C 9,3 °C 94 % 1017,6 hPa 0,2 mm 3,2 km/h (1 Bft) SW 236 ° 0 min 0,000 mm 0,0 UV-I 12 W/m² 8,4 °C 9,3 °C 8,0 km/h (2 Bft)
10.08.2017 18:09 9,3 °C 9,3 °C 94 % 1017,6 hPa 0,0 mm 4,1 km/h (1 Bft) W-SW 256 ° 0 min 0,000 mm 0,0 UV-I 12 W/m² 8,4 °C 9,3 °C 4,8 km/h (1 Bft)
10.08.2017 18:10 9,3 °C 9,3 °C 94 % 1017,7 hPa 0,0 mm 3,9 km/h (1 Bft) W 269 ° 0 min 0,000 mm 0,0 UV-I 12 W/m² 8,4 °C 9,3 °C 9,7 km/h (2 Bft)
10.08.2017 18:11 9,3 °C 9,3 °C 94 % 1017,7 hPa 0,2 mm 4,9 km/h (1 Bft) W-SW 246 ° 0 min 0,000 mm 0,0 UV-I 12 W/m² 8,4 °C 9,0 °C 9,7 km/h (2 Bft)
10.08.2017 18:12 9,3 °C 9,3 °C 94 % 1017,7 hPa 0,0 mm 7,8 km/h (2 Bft) W-SW 246 ° 0 min 0,000 mm 0,0 UV-I 12 W/m² 8,4 °C 8,2 °C 12,9 km/h (3 Bft)
10.08.2017 18:13 9,2 °C 9,3 °C 94 % 1017,8 hPa 0,0 mm 6,5 km/h (2 Bft) SW 217 ° 0 min 0,000 mm 0,0 UV-I 12 W/m² 8,3 °C 8,4 °C 9,7 km/h (2 Bft)
10.08.2017 18:14 9,3 °C 9,3 °C 94 % 1017,8 hPa 0,2 mm 5,0 km/h (1 Bft) W 259 ° 0 min 0,000 mm 0,0 UV-I 12 W/m² 8,4 °C 9,0 °C 9,7 km/h (2 Bft)
10.08.2017 18:15 9,3 °C 9,3 °C 94 % 1017,7 hPa 0,0 mm 6,1 km/h (2 Bft) W-SW 255 ° 0 min 0,000 mm 0,0 UV-I 14 W/m² 8,4 °C 8,6 °C 8,0 km/h (2 Bft)
10.08.2017 18:16 9,3 °C 9,3 °C 94 % 1017,8 hPa 0,0 mm 4,8 km/h (1 Bft) W 267 ° 0 min 0,000 mm 0,0 UV-I 14 W/m² 8,4 °C 9,0 °C 6,4 km/h (2 Bft)
10.08.2017 18:17 9,3 °C 9,3 °C 94 % 1017,7 hPa 0,0 mm 4,4 km/h (1 Bft) W 269 ° 0 min 0,000 mm 0,0 UV-I 14 W/m² 8,4 °C 9,3 °C 9,7 km/h (2 Bft)
10.08.2017 18:18 9,3 °C 9,3 °C 94 % 1017,7 hPa 0,0 mm 6,2 km/h (2 Bft) S-SW 202 ° 0 min 0,000 mm 0,0 UV-I 14 W/m² 8,4 °C 8,6 °C 11,3 km/h (2 Bft)
10.08.2017 18:19 9,2 °C 9,3 °C 94 % 1017,7 hPa 0,2 mm 5,3 km/h (1 Bft) W-SW 257 ° 0 min 0,000 mm 0,0 UV-I 16 W/m² 8,3 °C 8,8 °C 11,3 km/h (2 Bft)
10.08.2017 18:20 9,3 °C 9,3 °C 94 % 1017,7 hPa 0,0 mm 8,1 km/h (2 Bft) W-NW 286 ° 0 min 0,000 mm 0,0 UV-I 16 W/m² 8,4 °C 8,2 °C 12,9 km/h (3 Bft)
10.08.2017 18:21 9,3 °C 9,3 °C 94 % 1017,6 hPa 0,0 mm 4,6 km/h (1 Bft) W 278 ° 0 min 0,000 mm 0,0 UV-I 16 W/m² 8,4 °C 9,1 °C 6,4 km/h (2 Bft)
10.08.2017 18:22 9,3 °C 9,3 °C 94 % 1017,6 hPa 0,0 mm 4,6 km/h (1 Bft) W-NW 284 ° 0 min 0,000 mm 0,0 UV-I 16 W/m² 8,4 °C 9,1 °C 16,1 km/h (3 Bft)
10.08.2017 18:23 9,3 °C 9,3 °C 94 % 1017,6 hPa 0,0 mm 10,3 km/h (2 Bft) SW 234 ° 0 min 0,000 mm 0,0 UV-I 14 W/m² 8,4 °C 7,7 °C 14,5 km/h (3 Bft)
10.08.2017 18:24 9,3 °C 9,3 °C 94 % 1017,6 hPa 0,2 mm 8,7 km/h (2 Bft) W 268 ° 0 min 0,000 mm 0,0 UV-I 14 W/m² 8,4 °C 8,0 °C 12,9 km/h (3 Bft)
10.08.2017 18:25 9,3 °C 9,3 °C 94 % 1017,6 hPa 0,0 mm 5,4 km/h (1 Bft) W-SW 244 ° 0 min 0,000 mm 0,0 UV-I 14 W/m² 8,4 °C 8,8 °C 11,3 km/h (2 Bft)
10.08.2017 18:26 9,3 °C 9,3 °C 94 % 1017,6 hPa 0,0 mm 13,3 km/h (3 Bft) W 271 ° 0 min 0,000 mm 0,0 UV-I 12 W/m² 8,4 °C 7,3 °C 22,5 km/h (4 Bft)
10.08.2017 18:27 9,3 °C 9,3 °C 94 % 1017,6 hPa 0,0 mm 5,7 km/h (1 Bft) W-NW 288 ° 0 min 0,000 mm 0,0 UV-I 12 W/m² 8,4 °C 8,8 °C 11,3 km/h (2 Bft)
10.08.2017 18:28 9,3 °C 9,3 °C 94 % 1017,5 hPa 0,0 mm 5,7 km/h (1 Bft) SW 234 ° 0 min 0,000 mm 0,0 UV-I 12 W/m² 8,4 °C 8,8 °C 9,7 km/h (2 Bft)
10.08.2017 18:29 9,3 °C 9,3 °C 94 % 1017,5 hPa 0,0 mm 6,1 km/h (2 Bft) W-SW 243 ° 0 min 0,000 mm 0,0 UV-I 11 W/m² 8,4 °C 8,6 °C 9,7 km/h (2 Bft)
10.08.2017 18:30 9,3 °C 9,3 °C 94 % 1017,5 hPa 0,2 mm 4,8 km/h (1 Bft) W 260 ° 0 min 0,000 mm 0,0 UV-I 11 W/m² 8,4 °C 9,0 °C 6,4 km/h (2 Bft)
10.08.2017 18:31 9,3 °C 9,3 °C 94 % 1017,5 hPa 0,0 mm 6,6 km/h (2 Bft) SW 235 ° 0 min 0,000 mm 0,0 UV-I 9 W/m² 8,4 °C 8,5 °C 9,7 km/h (2 Bft)
10.08.2017 18:32 9,3 °C 9,3 °C 95 % 1017,6 hPa 0,0 mm 3,5 km/h (1 Bft) W-SW 238 ° 0 min 0,000 mm 0,0 UV-I 9 W/m² 8,5 °C 9,3 °C 6,4 km/h (2 Bft)
10.08.2017 18:33 9,3 °C 9,3 °C 95 % 1017,5 hPa 0,0 mm 3,7 km/h (1 Bft) W 259 ° 0 min 0,000 mm 0,0 UV-I 9 W/m² 8,5 °C 9,3 °C 6,4 km/h (2 Bft)
10.08.2017 18:34 9,3 °C 9,3 °C 95 % 1017,5 hPa 0,0 mm 6,2 km/h (2 Bft) S-SW 213 ° 0 min 0,000 mm 0,0 UV-I 9 W/m² 8,5 °C 8,6 °C 9,7 km/h (2 Bft)
10.08.2017 18:35 9,3 °C 9,3 °C 95 % 1017,5 hPa 0,0 mm 5,2 km/h (1 Bft) SW 227 ° 0 min 0,000 mm 0,0 UV-I 7 W/m² 8,5 °C 8,9 °C 6,4 km/h (2 Bft)
10.08.2017 18:36 9,3 °C 9,3 °C 95 % 1017,5 hPa 0,2 mm 6,2 km/h (2 Bft) W-SW 255 ° 0 min 0,000 mm 0,0 UV-I 7 W/m² 8,5 °C 8,6 °C 9,7 km/h (2 Bft)
10.08.2017 18:37 9,3 °C 9,3 °C 95 % 1017,5 hPa 0,0 mm 4,7 km/h (1 Bft) W 267 ° 0 min 0,000 mm 0,0 UV-I 7 W/m² 8,5 °C 9,1 °C 6,4 km/h (2 Bft)
10.08.2017 18:38 9,3 °C 9,3 °C 95 % 1017,5 hPa 0,0 mm 4,0 km/h (1 Bft) W-SW 254 ° 0 min 0,000 mm 0,0 UV-I 7 W/m² 8,5 °C 9,3 °C 6,4 km/h (2 Bft)
10.08.2017 18:39 9,3 °C 9,3 °C 95 % 1017,5 hPa 0,2 mm 2,7 km/h (1 Bft) W-SW 258 ° 0 min 0,000 mm 0,0 UV-I 7 W/m² 8,5 °C 9,3 °C 4,8 km/h (1 Bft)
10.08.2017 18:40 9,3 °C 9,3 °C 95 % 1017,5 hPa 0,0 mm 3,1 km/h (1 Bft) W-SW 246 ° 0 min 0,000 mm 0,0 UV-I 7 W/m² 8,5 °C 9,3 °C 8,0 km/h (2 Bft)
10.08.2017 18:41 9,3 °C 9,3 °C 95 % 1017,5 hPa 0,0 mm 4,3 km/h (1 Bft) S-SO 167 ° 0 min 0,000 mm 0,0 UV-I 7 W/m² 8,5 °C 9,3 °C 8,0 km/h (2 Bft)
10.08.2017 18:42 9,3 °C 9,3 °C 95 % 1017,4 hPa 0,0 mm 3,7 km/h (1 Bft) W 259 ° 0 min 0,000 mm 0,0 UV-I 7 W/m² 8,5 °C 9,3 °C 6,4 km/h (2 Bft)
10.08.2017 18:43 9,3 °C 9,3 °C 94 % 1017,4 hPa 0,2 mm 4,3 km/h (1 Bft) SW 226 ° 0 min 0,000 mm 0,0 UV-I 7 W/m² 8,4 °C 9,3 °C 6,4 km/h (2 Bft)
10.08.2017 18:44 9,3 °C 9,3 °C 95 % 1017,3 hPa 0,0 mm 3,1 km/h (1 Bft) W 263 ° 0 min 0,000 mm 0,0 UV-I 7 W/m² 8,5 °C 9,3 °C 6,4 km/h (2 Bft)
10.08.2017 18:45 9,3 °C 9,3 °C 94 % 1017,3 hPa 0,0 mm 5,0 km/h (1 Bft) W 265 ° 0 min 0,000 mm 0,0 UV-I 7 W/m² 8,4 °C 9,0 °C 6,4 km/h (2 Bft)
10.08.2017 18:46 9,3 °C 9,3 °C 95 % 1017,2 hPa 0,0 mm 3,2 km/h (1 Bft) W 267 ° 0 min 0,000 mm 0,0 UV-I 7 W/m² 8,5 °C 9,3 °C 8,0 km/h (2 Bft)
10.08.2017 18:47 9,3 °C 9,3 °C 95 % 1017,3 hPa 0,2 mm 3,6 km/h (1 Bft) W 264 ° 0 min 0,000 mm 0,0 UV-I 9 W/m² 8,5 °C 9,3 °C 4,8 km/h (1 Bft)
10.08.2017 18:48 9,3 °C 9,3 °C 95 % 1017,4 hPa 0,0 mm 3,9 km/h (1 Bft) W-SW 253 ° 0 min 0,000 mm 0,0 UV-I 9 W/m² 8,5 °C 9,3 °C 6,4 km/h (2 Bft)
10.08.2017 18:49 9,3 °C 9,3 °C 94 % 1017,5 hPa 0,0 mm 3,5 km/h (1 Bft) S-SW 207 ° 0 min 0,000 mm 0,0 UV-I 9 W/m² 8,4 °C 9,3 °C 6,4 km/h (2 Bft)
10.08.2017 18:50 9,3 °C 9,3 °C 94 % 1017,6 hPa 0,2 mm 3,5 km/h (1 Bft) W-SW 242 ° 0 min 0,000 mm 0,0 UV-I 9 W/m² 8,4 °C 9,3 °C 6,4 km/h (2 Bft)
10.08.2017 18:51 9,3 °C 9,3 °C 94 % 1017,7 hPa 0,0 mm 1,4 km/h (1 Bft) W-SW 242 ° 0 min 0,000 mm 0,0 UV-I 9 W/m² 8,4 °C 9,3 °C 3,2 km/h (1 Bft)
10.08.2017 18:52 9,3 °C 9,3 °C 95 % 1017,7 hPa 0,2 mm 8,4 km/h (2 Bft) W 277 ° 0 min 0,000 mm 0,0 UV-I 9 W/m² 8,5 °C 8,1 °C 12,9 km/h (3 Bft)
10.08.2017 18:53 9,3 °C 9,3 °C 95 % 1017,7 hPa 0,0 mm 6,1 km/h (2 Bft) W 277 ° 0 min 0,000 mm 0,0 UV-I 9 W/m² 8,5 °C 8,6 °C 11,3 km/h (2 Bft)
10.08.2017 18:54 9,3 °C 9,3 °C 95 % 1017,7 hPa 0,0 mm 6,8 km/h (2 Bft) W-NW 282 ° 0 min 0,000 mm 0,0 UV-I 11 W/m² 8,5 °C 8,5 °C 14,5 km/h (3 Bft)
10.08.2017 18:55 9,3 °C 9,3 °C 95 % 1017,6 hPa 0,2 mm 5,0 km/h (1 Bft) W 269 ° 0 min 0,000 mm 0,0 UV-I 14 W/m² 8,5 °C 9,0 °C 8,0 km/h (2 Bft)
10.08.2017 18:56 9,3 °C 9,3 °C 95 % 1017,5 hPa 0,0 mm 6,4 km/h (2 Bft) W-SW 257 ° 0 min 0,000 mm 0,0 UV-I 16 W/m² 8,5 °C 8,6 °C 11,3 km/h (2 Bft)
10.08.2017 18:57 9,3 °C 9,3 °C 95 % 1017,5 hPa 0,2 mm 4,7 km/h (1 Bft) W-SW 242 ° 0 min 0,000 mm 0,0 UV-I 16 W/m² 8,5 °C 9,1 °C 9,7 km/h (2 Bft)
10.08.2017 18:58 9,3 °C 9,3 °C 95 % 1017,4 hPa 0,0 mm 3,7 km/h (1 Bft) W-SW 248 ° 0 min 0,000 mm 0,0 UV-I 16 W/m² 8,5 °C 9,3 °C 4,8 km/h (1 Bft)
10.08.2017 18:59 9,3 °C 9,3 °C 94 % 1017,4 hPa 0,2 mm 6,2 km/h (2 Bft) W 259 ° 0 min 0,000 mm 0,0 UV-I 16 W/m² 8,4 °C 8,6 °C 9,7 km/h (2 Bft)
10.08.2017 19:00 9,3 °C 9,3 °C 94 % 1017,4 hPa 0,0 mm 3,2 km/h (1 Bft) W 259 ° 0 min 0,000 mm 0,0 UV-I 14 W/m² 8,4 °C 9,3 °C 9,7 km/h (2 Bft)
10.08.2017 19:01 9,3 °C 9,3 °C 94 % 1017,4 hPa 0,2 mm 5,2 km/h (1 Bft) SW 234 ° 0 min 0,000 mm 0,0 UV-I 14 W/m² 8,4 °C 8,9 °C 9,7 km/h (2 Bft)
10.08.2017 19:02 9,3 °C 9,3 °C 95 % 1017,4 hPa 0,0 mm 2,5 km/h (1 Bft) W-SW 250 ° 0 min 0,000 mm 0,0 UV-I 14 W/m² 8,5 °C 9,3 °C 6,4 km/h (2 Bft)
10.08.2017 19:03 9,3 °C 9,3 °C 95 % 1017,5 hPa 0,0 mm 3,6 km/h (1 Bft) W 263 ° 0 min 0,000 mm 0,0 UV-I 12 W/m² 8,5 °C 9,3 °C 6,4 km/h (2 Bft)
10.08.2017 19:04 9,3 °C 9,3 °C 95 % 1017,5 hPa 0,2 mm 4,4 km/h (1 Bft) W-SW 240 ° 0 min 0,000 mm 0,0 UV-I 12 W/m² 8,5 °C 9,3 °C 6,4 km/h (2 Bft)
10.08.2017 19:05 9,3 °C 9,3 °C 94 % 1017,5 hPa 0,0 mm 4,4 km/h (1 Bft) W-SW 244 ° 0 min 0,000 mm 0,0 UV-I 11 W/m² 8,4 °C 9,3 °C 8,0 km/h (2 Bft)
10.08.2017 19:06 9,3 °C 9,3 °C 95 % 1017,5 hPa 0,0 mm 4,8 km/h (1 Bft) W 272 ° 0 min 0,000 mm 0,0 UV-I 11 W/m² 8,5 °C 9,0 °C 9,7 km/h (2 Bft)
10.08.2017 19:07 9,3 °C 9,3 °C 95 % 1017,4 hPa 0,2 mm 4,2 km/h (1 Bft) W-SW 244 ° 0 min 0,000 mm 0,0 UV-I 9 W/m² 8,5 °C 9,3 °C 6,4 km/h (2 Bft)
10.08.2017 19:08 9,3 °C 9,3 °C 95 % 1017,4 hPa 0,0 mm 3,0 km/h (1 Bft) W-SW 238 ° 0 min 0,000 mm 0,0 UV-I 9 W/m² 8,5 °C 9,3 °C 4,8 km/h (1 Bft)
10.08.2017 19:09 9,3 °C 9,3 °C 95 % 1017,4 hPa 0,2 mm 4,5 km/h (1 Bft) W-NW 290 ° 0 min 0,000 mm 0,0 UV-I 9 W/m² 8,5 °C 9,3 °C 6,4 km/h (2 Bft)
10.08.2017 19:10 9,3 °C 9,3 °C 95 % 1017,3 hPa 0,0 mm 4,6 km/h (1 Bft) W 280 ° 0 min 0,000 mm 0,0 UV-I 9 W/m² 8,5 °C 9,1 °C 9,7 km/h (2 Bft)
10.08.2017 19:11 9,3 °C 9,3 °C 95 % 1017,3 hPa 0,0 mm 4,6 km/h (1 Bft) W-NW 290 ° 0 min 0,000 mm 0,0 UV-I 9 W/m² 8,5 °C 9,1 °C 9,7 km/h (2 Bft)
10.08.2017 19:12 9,3 °C 9,3 °C 95 % 1017,2 hPa 0,2 mm 10,3 km/h (2 Bft) W-SW 244 ° 0 min 0,000 mm 0,0 UV-I 9 W/m² 8,5 °C 7,7 °C 16,1 km/h (3 Bft)
10.08.2017 19:13 9,2 °C 9,3 °C 95 % 1017,1 hPa 0,0 mm 7,3 km/h (2 Bft) W 259 ° 0 min 0,000 mm 0,0 UV-I 9 W/m² 8,4 °C 8,2 °C 14,5 km/h (3 Bft)
10.08.2017 19:14 9,3 °C 9,3 °C 95 % 1017,0 hPa 0,0 mm 6,9 km/h (2 Bft) W 267 ° 0 min 0,000 mm 0,0 UV-I 9 W/m² 8,5 °C 8,4 °C 12,9 km/h (3 Bft)
10.08.2017 19:15 9,3 °C 9,3 °C 95 % 1017,1 hPa 0,0 mm 5,5 km/h (1 Bft) W-SW 252 ° 0 min 0,000 mm 0,0 UV-I 9 W/m² 8,5 °C 8,8 °C 8,0 km/h (2 Bft)
10.08.2017 19:16 9,3 °C 9,3 °C 95 % 1017,2 hPa 0,2 mm 3,3 km/h (1 Bft) W-SW 249 ° 0 min 0,000 mm 0,0 UV-I 9 W/m² 8,5 °C 9,3 °C 6,4 km/h (2 Bft)
10.08.2017 19:17 9,2 °C 9,3 °C 95 % 1017,2 hPa 0,0 mm 1,0 km/h (0 Bft) W-SW 245 ° 0 min 0,000 mm 0,0 UV-I 9 W/m² 8,4 °C 9,2 °C 3,2 km/h (1 Bft)
10.08.2017 19:18 9,2 °C 9,2 °C 95 % 1017,3 hPa 0,0 mm 1,9 km/h (1 Bft) W-SW 257 ° 0 min 0,000 mm 0,0 UV-I 9 W/m² 8,4 °C 9,2 °C 3,2 km/h (1 Bft)
10.08.2017 19:19 9,2 °C 9,2 °C 95 % 1017,3 hPa 0,2 mm 1,0 km/h (0 Bft) W-SW 257 ° 0 min 0,000 mm 0,0 UV-I 11 W/m² 8,4 °C 9,2 °C 3,2 km/h (1 Bft)
10.08.2017 19:20 9,2 °C 9,2 °C 94 % 1017,3 hPa 0,0 mm 2,7 km/h (1 Bft) W-SW 246 ° 0 min 0,000 mm 0,0 UV-I 11 W/m² 8,3 °C 9,2 °C 4,8 km/h (1 Bft)
10.08.2017 19:21 9,2 °C 9,2 °C 94 % 1017,3 hPa 0,0 mm 1,4 km/h (1 Bft) W-SW 255 ° 0 min 0,000 mm 0,0 UV-I 11 W/m² 8,3 °C 9,2 °C 3,2 km/h (1 Bft)
10.08.2017 19:22 9,2 °C 9,2 °C 94 % 1017,3 hPa 0,2 mm 5,1 km/h (1 Bft) W 263 ° 0 min 0,000 mm 0,0 UV-I 11 W/m² 8,3 °C 8,8 °C 9,7 km/h (2 Bft)
10.08.2017 19:23 9,2 °C 9,2 °C 94 % 1017,3 hPa 0,0 mm 5,4 km/h (1 Bft) SW 236 ° 0 min 0,000 mm 0,0 UV-I 11 W/m² 8,3 °C 8,7 °C 11,3 km/h (2 Bft)
10.08.2017 19:24 9,2 °C 9,2 °C 94 % 1017,4 hPa 0,2 mm 6,1 km/h (2 Bft) W-NW 298 ° 0 min 0,000 mm 0,0 UV-I 11 W/m² 8,3 °C 8,5 °C 12,9 km/h (3 Bft)
10.08.2017 19:25 9,2 °C 9,2 °C 94 % 1017,3 hPa 0,0 mm 6,8 km/h (2 Bft) SW 234 ° 0 min 0,000 mm 0,0 UV-I 9 W/m² 8,3 °C 8,3 °C 9,7 km/h (2 Bft)
10.08.2017 19:26 9,2 °C 9,2 °C 94 % 1017,3 hPa 0,0 mm 4,8 km/h (1 Bft) W-SW 250 ° 0 min 0,000 mm 0,0 UV-I 9 W/m² 8,3 °C 8,9 °C 8,0 km/h (2 Bft)
10.08.2017 19:27 9,2 °C 9,2 °C 94 % 1017,3 hPa 0,0 mm 2,1 km/h (1 Bft) W-SW 251 ° 0 min 0,000 mm 0,0 UV-I 9 W/m² 8,3 °C 9,2 °C 3,2 km/h (1 Bft)
10.08.2017 19:28 9,2 °C 9,3 °C 94 % 1017,3 hPa 0,2 mm 2,1 km/h (1 Bft) W-SW 251 ° 0 min 0,000 mm 0,0 UV-I 9 W/m² 8,3 °C 9,2 °C 3,2 km/h (1 Bft)
10.08.2017 19:29 9,2 °C 9,2 °C 94 % 1017,3 hPa 0,0 mm 0,5 km/h (0 Bft) W-SW 249 ° 0 min 0,000 mm 0,0 UV-I 9 W/m² 8,3 °C 9,2 °C 1,6 km/h (1 Bft)
10.08.2017 19:30 9,2 °C 9,2 °C 94 % 1017,3 hPa 0,0 mm 2,1 km/h (1 Bft) W-SW 257 ° 0 min 0,000 mm 0,0 UV-I 9 W/m² 8,3 °C 9,2 °C 4,8 km/h (1 Bft)
10.08.2017 19:31 9,2 °C 9,2 °C 94 % 1017,3 hPa 0,0 mm 2,3 km/h (1 Bft) W-SW 256 ° 0 min 0,000 mm 0,0 UV-I 7 W/m² 8,3 °C 9,2 °C 4,8 km/h (1 Bft)
10.08.2017 19:32 9,2 °C 9,2 °C 94 % 1017,4 hPa 0,2 mm 1,8 km/h (1 Bft) W-SW 257 ° 0 min 0,000 mm 0,0 UV-I 7 W/m² 8,3 °C 9,2 °C 4,8 km/h (1 Bft)
10.08.2017 19:33 9,2 °C 9,2 °C 94 % 1017,3 hPa 0,0 mm 0,9 km/h (0 Bft) W-SW 257 ° 0 min 0,000 mm 0,0 UV-I 7 W/m² 8,3 °C 9,2 °C 1,6 km/h (1 Bft)
10.08.2017 19:34 9,2 °C 9,2 °C 94 % 1017,4 hPa 0,0 mm 3,4 km/h (1 Bft) S 181 ° 0 min 0,000 mm 0,0 UV-I 7 W/m² 8,3 °C 9,2 °C 6,4 km/h (2 Bft)
10.08.2017 19:35 9,2 °C 9,2 °C 94 % 1017,4 hPa 0,0 mm 1,7 km/h (1 Bft) W-SW 250 ° 0 min 0,000 mm 0,0 UV-I 7 W/m² 8,3 °C 9,2 °C 4,8 km/h (1 Bft)
10.08.2017 19:36 9,2 °C 9,3 °C 94 % 1017,3 hPa 0,0 mm 3,8 km/h (1 Bft) S-SW 192 ° 0 min 0,000 mm 0,0 UV-I 7 W/m² 8,3 °C 9,2 °C 6,4 km/h (2 Bft)
10.08.2017 19:37 9,2 °C 9,3 °C 94 % 1017,3 hPa 0,2 mm 2,2 km/h (1 Bft) S-SW 197 ° 0 min 0,000 mm 0,0 UV-I 7 W/m² 8,3 °C 9,2 °C 8,0 km/h (2 Bft)
10.08.2017 19:38 9,2 °C 9,2 °C 94 % 1017,3 hPa 0,0 mm 5,3 km/h (1 Bft) S 187 ° 0 min 0,000 mm 0,0 UV-I 7 W/m² 8,3 °C 8,8 °C 11,3 km/h (2 Bft)
10.08.2017 19:39 9,2 °C 9,2 °C 94 % 1017,3 hPa 0,0 mm 2,2 km/h (1 Bft) S 187 ° 0 min 0,000 mm 0,0 UV-I 7 W/m² 8,3 °C 9,2 °C 3,2 km/h (1 Bft)
10.08.2017 19:40 9,2 °C 9,3 °C 94 % 1017,3 hPa 0,0 mm 1,7 km/h (1 Bft) S 169 ° 0 min 0,000 mm 0,0 UV-I 7 W/m² 8,3 °C 9,2 °C 6,4 km/h (2 Bft)
10.08.2017 19:41 9,2 °C 9,2 °C 94 % 1017,4 hPa 0,0 mm 4,5 km/h (1 Bft) SW 226 ° 0 min 0,000 mm 0,0 UV-I 7 W/m² 8,3 °C 9,2 °C 8,0 km/h (2 Bft)
10.08.2017 19:42 9,2 °C 9,2 °C 94 % 1017,4 hPa 0,0 mm 3,2 km/h (1 Bft) W-SW 238 ° 0 min 0,000 mm 0,0 UV-I 7 W/m² 8,3 °C 9,2 °C 6,4 km/h (2 Bft)
10.08.2017 19:43 9,2 °C 9,2 °C 94 % 1017,4 hPa 0,2 mm 2,4 km/h (1 Bft) S-SW 194 ° 0 min 0,000 mm 0,0 UV-I 7 W/m² 8,3 °C 9,2 °C 3,2 km/h (1 Bft)
10.08.2017 19:44 9,2 °C 9,2 °C 94 % 1017,5 hPa 0,0 mm 1,0 km/h (0 Bft) S-SW 194 ° 0 min 0,000 mm 0,0 UV-I 7 W/m² 8,3 °C 9,2 °C 3,2 km/h (1 Bft)
10.08.2017 19:45 9,2 °C 9,2 °C 94 % 1017,5 hPa 0,0 mm 0,9 km/h (0 Bft) SW 219 ° 0 min 0,000 mm 0,0 UV-I 7 W/m² 8,3 °C 9,2 °C 4,8 km/h (1 Bft)
10.08.2017 19:46 9,2 °C 9,2 °C 94 % 1017,5 hPa 0,0 mm 1,2 km/h (1 Bft) S-SW 207 ° 0 min 0,000 mm 0,0 UV-I 7 W/m² 8,3 °C 9,2 °C 3,2 km/h (1 Bft)
10.08.2017 19:47 9,2 °C 9,2 °C 94 % 1017,5 hPa 0,0 mm 2,4 km/h (1 Bft) SW 217 ° 0 min 0,000 mm 0,0 UV-I 7 W/m² 8,3 °C 9,2 °C 4,8 km/h (1 Bft)
10.08.2017 19:48 9,2 °C 9,2 °C 94 % 1017,5 hPa 0,0 mm 1,9 km/h (1 Bft) S-SW 198 ° 0 min 0,000 mm 0,0 UV-I 5 W/m² 8,3 °C 9,2 °C 3,2 km/h (1 Bft)
10.08.2017 19:49 9,2 °C 9,2 °C 94 % 1017,5 hPa 0,0 mm 2,1 km/h (1 Bft) W 259 ° 0 min 0,000 mm 0,0 UV-I 5 W/m² 8,3 °C 9,2 °C 4,8 km/h (1 Bft)
10.08.2017 19:50 9,2 °C 9,2 °C 94 % 1017,5 hPa 0,2 mm 1,1 km/h (1 Bft) W-SW 258 ° 0 min 0,000 mm 0,0 UV-I 5 W/m² 8,3 °C 9,2 °C 3,2 km/h (1 Bft)
10.08.2017 19:51 9,2 °C 9,3 °C 94 % 1017,5 hPa 0,0 mm 1,1 km/h (1 Bft) S-SW 200 ° 0 min 0,000 mm 0,0 UV-I 5 W/m² 8,3 °C 9,2 °C 3,2 km/h (1 Bft)
10.08.2017 19:52 9,2 °C 9,3 °C 94 % 1017,4 hPa 0,0 mm 1,5 km/h (1 Bft) S-SW 200 ° 0 min 0,000 mm 0,0 UV-I 5 W/m² 8,3 °C 9,2 °C 3,2 km/h (1 Bft)
10.08.2017 19:53 9,3 °C 9,3 °C 94 % 1017,5 hPa 0,0 mm 0,4 km/h (0 Bft) S-SW 200 ° 0 min 0,000 mm 0,0 UV-I 5 W/m² 8,4 °C 9,3 °C 1,6 km/h (1 Bft)
10.08.2017 19:54 9,3 °C 9,3 °C 94 % 1017,4 hPa 0,0 mm 2,1 km/h (1 Bft) S-SW 200 ° 0 min 0,000 mm 0,0 UV-I 5 W/m² 8,4 °C 9,3 °C 3,2 km/h (1 Bft)
10.08.2017 19:55 9,3 °C 9,3 °C 94 % 1017,4 hPa 0,0 mm 2,2 km/h (1 Bft) SW 229 ° 0 min 0,000 mm 0,0 UV-I 5 W/m² 8,4 °C 9,3 °C 4,8 km/h (1 Bft)
10.08.2017 19:56 9,3 °C 9,3 °C 94 % 1017,4 hPa 0,0 mm 2,5 km/h (1 Bft) SW 229 ° 0 min 0,000 mm 0,0 UV-I 5 W/m² 8,4 °C 9,3 °C 3,2 km/h (1 Bft)
10.08.2017 19:57 9,3 °C 9,3 °C 94 % 1017,5 hPa 0,0 mm 1,5 km/h (1 Bft) SW 229 ° 0 min 0,000 mm 0,0 UV-I 0 W/m² 8,4 °C 9,3 °C 3,2 km/h (1 Bft)
10.08.2017 19:58 9,3 °C 9,3 °C 94 % 1017,4 hPa 0,0 mm 1,5 km/h (1 Bft) S-SW 202 ° 0 min 0,000 mm 0,0 UV-I 0 W/m² 8,4 °C 9,3 °C 6,4 km/h (2 Bft)
10.08.2017 19:59 9,3 °C 9,3 °C 94 % 1017,5 hPa 0,2 mm 1,1 km/h (1 Bft) S-SW 202 ° 0 min 0,000 mm 0,0 UV-I 0 W/m² 8,4 °C 9,3 °C 4,8 km/h (1 Bft)
10.08.2017 20:00 9,3 °C 9,3 °C 94 % 1017,4 hPa 0,0 mm 2,7 km/h (1 Bft) W 280 ° 0 min 0,000 mm 0,0 UV-I 0 W/m² 8,4 °C 9,3 °C 6,4 km/h (2 Bft)
10.08.2017 20:01 9,3 °C 9,3 °C 94 % 1017,5 hPa 0,0 mm 2,9 km/h (1 Bft) W-NW 282 ° 0 min 0,000 mm 0,0 UV-I 0 W/m² 8,4 °C 9,3 °C 6,4 km/h (2 Bft)
10.08.2017 20:02 9,3 °C 9,3 °C 94 % 1017,4 hPa 0,0 mm 0,5 km/h (0 Bft) W-NW 282 ° 0 min 0,000 mm 0,0 UV-I 0 W/m² 8,4 °C 9,3 °C 1,6 km/h (1 Bft)
10.08.2017 20:03 9,3 °C 9,3 °C 94 % 1017,4 hPa 0,0 mm 3,8 km/h (1 Bft) S 184 ° 0 min 0,000 mm 0,0 UV-I 0 W/m² 8,4 °C 9,3 °C 8,0 km/h (2 Bft)
10.08.2017 20:04 9,3 °C 9,3 °C 94 % 1017,4 hPa 0,0 mm 1,4 km/h (1 Bft) S-SW 194 ° 0 min 0,000 mm 0,0 UV-I 0 W/m² 8,4 °C 9,3 °C 3,2 km/h (1 Bft)
10.08.2017 20:05 9,3 °C 9,4 °C 94 % 1017,4 hPa 0,0 mm 2,6 km/h (1 Bft) SW 234 ° 0 min 0,000 mm 0,0 UV-I 0 W/m² 8,4 °C 9,3 °C 4,8 km/h (1 Bft)
10.08.2017 20:06 9,3 °C 9,3 °C 94 % 1017,4 hPa 0,0 mm 1,4 km/h (1 Bft) SW 234 ° 0 min 0,000 mm 0,0 UV-I 0 W/m² 8,4 °C 9,3 °C 3,2 km/h (1 Bft)
10.08.2017 20:07 9,4 °C 9,4 °C 94 % 1017,3 hPa 0,0 mm 2,5 km/h (1 Bft) S-SW 201 ° 0 min 0,000 mm 0,0 UV-I 0 W/m² 8,5 °C 9,4 °C 4,8 km/h (1 Bft)
10.08.2017 20:08 9,3 °C 9,4 °C 94 % 1017,3 hPa 0,0 mm 1,3 km/h (1 Bft) S-SW 201 ° 0 min 0,000 mm 0,0 UV-I 0 W/m² 8,4 °C 9,3 °C 1,6 km/h (1 Bft)
10.08.2017 20:09 9,4 °C 9,4 °C 94 % 1017,3 hPa 0,2 mm 1,3 km/h (1 Bft) S-SW 202 ° 0 min 0,000 mm 0,0 UV-I 0 W/m² 8,5 °C 9,4 °C 3,2 km/h (1 Bft)
10.08.2017 20:10 9,4 °C 9,4 °C 94 % 1017,3 hPa 0,0 mm 3,0 km/h (1 Bft) W 275 ° 0 min 0,000 mm 0,0 UV-I 0 W/m² 8,5 °C 9,4 °C 4,8 km/h (1 Bft)
10.08.2017 20:11 9,4 °C 9,4 °C 94 % 1017,3 hPa 0,0 mm 3,0 km/h (1 Bft) W 265 ° 0 min 0,000 mm 0,0 UV-I 0 W/m² 8,5 °C 9,4 °C 4,8 km/h (1 Bft)
10.08.2017 20:12 9,4 °C 9,4 °C 94 % 1017,3 hPa 0,0 mm 3,9 km/h (1 Bft) W 265 ° 0 min 0,000 mm 0,0 UV-I 0 W/m² 8,5 °C 9,4 °C 4,8 km/h (1 Bft)
10.08.2017 20:13 9,4 °C 9,4 °C 94 % 1017,3 hPa 0,2 mm 2,5 km/h (1 Bft) W 265 ° 0 min 0,000 mm 0,0 UV-I 0 W/m² 8,5 °C 9,4 °C 4,8 km/h (1 Bft)
10.08.2017 20:14 9,4 °C 9,4 °C 94 % 1017,3 hPa 0,0 mm 1,7 km/h (1 Bft) W 265 ° 0 min 0,000 mm 0,0 UV-I 0 W/m² 8,5 °C 9,4 °C 3,2 km/h (1 Bft)
10.08.2017 20:15 9,4 °C 9,4 °C 94 % 1017,4 hPa 0,0 mm 0,7 km/h (0 Bft) SW 223 ° 0 min 0,000 mm 0,0 UV-I 0 W/m² 8,5 °C 9,4 °C 3,2 km/h (1 Bft)
10.08.2017 20:16 9,3 °C 9,4 °C 94 % 1017,4 hPa 0,2 mm 3,0 km/h (1 Bft) SW 219 ° 0 min 0,000 mm 0,0 UV-I 0 W/m² 8,4 °C 9,3 °C 4,8 km/h (1 Bft)
10.08.2017 20:17 9,3 °C 9,3 °C 94 % 1017,3 hPa 0,0 mm 2,7 km/h (1 Bft) SW 235 ° 0 min 0,000 mm 0,0 UV-I 0 W/m² 8,4 °C 9,3 °C 4,8 km/h (1 Bft)
10.08.2017 20:18 9,3 °C 9,3 °C 94 % 1017,4 hPa 0,0 mm 0,1 km/h (0 Bft) SW 235 ° 0 min 0,000 mm 0,0 UV-I 0 W/m² 8,4 °C 9,3 °C 1,6 km/h (1 Bft)
10.08.2017 20:19 9,3 °C 9,3 °C 94 % 1017,4 hPa 0,0 mm 1,0 km/h (0 Bft) W-SW 248 ° 0 min 0,000 mm 0,0 UV-I 0 W/m² 8,4 °C 9,3 °C 4,8 km/h (1 Bft)
10.08.2017 20:20 9,3 °C 9,3 °C 94 % 1017,4 hPa 0,2 mm 1,3 km/h (1 Bft) SW 230 ° 0 min 0,000 mm 0,0 UV-I 0 W/m² 8,4 °C 9,3 °C 3,2 km/h (1 Bft)
10.08.2017 20:21 9,3 °C 9,3 °C 94 % 1017,4 hPa 0,0 mm 3,6 km/h (1 Bft) SW 232 ° 0 min 0,000 mm 0,0 UV-I 0 W/m² 8,4 °C 9,3 °C 8,0 km/h (2 Bft)
10.08.2017 20:22 9,3 °C 9,3 °C 94 % 1017,5 hPa 0,0 mm 0,9 km/h (0 Bft) SW 232 ° 0 min 0,000 mm 0,0 UV-I 0 W/m² 8,4 °C 9,3 °C 1,6 km/h (1 Bft)
10.08.2017 20:23 9,3 °C 9,3 °C 94 % 1017,4 hPa 0,0 mm 1,1 km/h (1 Bft) W-SW 242 ° 0 min 0,000 mm 0,0 UV-I 0 W/m² 8,4 °C 9,3 °C 4,8 km/h (1 Bft)
10.08.2017 20:24 9,3 °C 9,3 °C 94 % 1017,5 hPa 0,2 mm 4,3 km/h (1 Bft) SW 229 ° 0 min 0,000 mm 0,0 UV-I 0 W/m² 8,4 °C 9,3 °C 6,4 km/h (2 Bft)
10.08.2017 20:25 9,3 °C 9,3 °C 94 % 1017,5 hPa 0,0 mm 2,7 km/h (1 Bft) SW 223 ° 0 min 0,000 mm 0,0 UV-I 0 W/m² 8,4 °C 9,3 °C 6,4 km/h (2 Bft)
10.08.2017 20:26 9,3 °C 9,3 °C 94 % 1017,5 hPa 0,0 mm 1,3 km/h (1 Bft) SW 223 ° 0 min 0,000 mm 0,0 UV-I 0 W/m² 8,4 °C 9,3 °C 3,2 km/h (1 Bft)
10.08.2017 20:27 9,3 °C 9,3 °C 94 % 1017,5 hPa 0,0 mm 1,0 km/h (0 Bft) SW 223 ° 0 min 0,000 mm 0,0 UV-I 0 W/m² 8,4 °C 9,3 °C 4,8 km/h (1 Bft)
10.08.2017 20:28 9,3 °C 9,3 °C 94 % 1017,5 hPa 0,2 mm 2,3 km/h (1 Bft) SW 229 ° 0 min 0,000 mm 0,0 UV-I 0 W/m² 8,4 °C 9,3 °C 3,2 km/h (1 Bft)
10.08.2017 20:29 9,3 °C 9,3 °C 94 % 1017,5 hPa 0,0 mm 1,1 km/h (1 Bft) SW 224 ° 0 min 0,000 mm 0,0 UV-I 0 W/m² 8,4 °C 9,3 °C 6,4 km/h (2 Bft)
10.08.2017 20:30 9,3 °C 9,3 °C 94 % 1017,5 hPa 0,0 mm 5,7 km/h (1 Bft) SW 217 ° 0 min 0,000 mm 0,0 UV-I 0 W/m² 8,4 °C 8,8 °C 12,9 km/h (3 Bft)
10.08.2017 20:31 9,3 °C 9,3 °C 94 % 1017,5 hPa 0,0 mm 2,0 km/h (1 Bft) W 262 ° 0 min 0,000 mm 0,0 UV-I 0 W/m² 8,4 °C 9,3 °C 3,2 km/h (1 Bft)
10.08.2017 20:32 9,3 °C 9,3 °C 94 % 1017,5 hPa 0,2 mm 1,0 km/h (0 Bft) S-SW 211 ° 0 min 0,000 mm 0,0 UV-I 0 W/m² 8,4 °C 9,3 °C 6,4 km/h (2 Bft)
10.08.2017 20:33 9,3 °C 9,3 °C 94 % 1017,5 hPa 0,0 mm 4,2 km/h (1 Bft) S-SW 194 ° 0 min 0,000 mm 0,0 UV-I 0 W/m² 8,4 °C 9,3 °C 8,0 km/h (2 Bft)
10.08.2017 20:34 9,3 °C 9,3 °C 94 % 1017,4 hPa 0,0 mm 3,6 km/h (1 Bft) W-NW 285 ° 0 min 0,000 mm 0,0 UV-I 0 W/m² 8,4 °C 9,3 °C 6,4 km/h (2 Bft)
10.08.2017 20:35 9,3 °C 9,3 °C 94 % 1017,4 hPa 0,0 mm 2,8 km/h (1 Bft) W 269 ° 0 min 0,000 mm 0,0 UV-I 0 W/m² 8,4 °C 9,3 °C 3,2 km/h (1 Bft)
10.08.2017 20:36 9,3 °C 9,3 °C 94 % 1017,3 hPa 0,2 mm 4,1 km/h (1 Bft) W-SW 255 ° 0 min 0,000 mm 0,0 UV-I 0 W/m² 8,4 °C 9,3 °C 6,4 km/h (2 Bft)
10.08.2017 20:37 9,3 °C 9,3 °C 94 % 1017,3 hPa 0,0 mm 2,8 km/h (1 Bft) W-SW 241 ° 0 min 0,000 mm 0,0 UV-I 0 W/m² 8,4 °C 9,3 °C 4,8 km/h (1 Bft)
10.08.2017 20:38 9,3 °C 9,3 °C 94 % 1017,3 hPa 0,0 mm 3,9 km/h (1 Bft) W-SW 243 ° 0 min 0,000 mm 0,0 UV-I 0 W/m² 8,4 °C 9,3 °C 6,4 km/h (2 Bft)
10.08.2017 20:39 9,3 °C 9,3 °C 94 % 1017,4 hPa 0,2 mm 1,8 km/h (1 Bft) W-SW 243 ° 0 min 0,000 mm 0,0 UV-I 0 W/m² 8,4 °C 9,3 °C 3,2 km/h (1 Bft)
10.08.2017 20:40 9,3 °C 9,3 °C 94 % 1017,4 hPa 0,0 mm 2,3 km/h (1 Bft) SW 226 ° 0 min 0,000 mm 0,0 UV-I 0 W/m² 8,4 °C 9,3 °C 4,8 km/h (1 Bft)
10.08.2017 20:41 9,3 °C 9,3 °C 94 % 1017,4 hPa 0,0 mm 4,4 km/h (1 Bft) SW 230 ° 0 min 0,000 mm 0,0 UV-I 0 W/m² 8,4 °C 9,3 °C 6,4 km/h (2 Bft)
10.08.2017 20:42 9,3 °C 9,3 °C 94 % 1017,4 hPa 0,0 mm 2,6 km/h (1 Bft) SW 232 ° 0 min 0,000 mm 0,0 UV-I 0 W/m² 8,4 °C 9,3 °C 3,2 km/h (1 Bft)
10.08.2017 20:43 9,3 °C 9,3 °C 94 % 1017,3 hPa 0,2 mm 2,1 km/h (1 Bft) SW 233 ° 0 min 0,000 mm 0,0 UV-I 0 W/m² 8,4 °C 9,3 °C 4,8 km/h (1 Bft)
10.08.2017 20:44 9,3 °C 9,3 °C 94 % 1017,2 hPa 0,0 mm 3,8 km/h (1 Bft) S 175 ° 0 min 0,000 mm 0,0 UV-I 0 W/m² 8,4 °C 9,3 °C 6,4 km/h (2 Bft)
10.08.2017 20:45 9,3 °C 9,3 °C 94 % 1017,2 hPa 0,0 mm 2,5 km/h (1 Bft) SW 236 ° 0 min 0,000 mm 0,0 UV-I 0 W/m² 8,4 °C 9,3 °C 4,8 km/h (1 Bft)
10.08.2017 20:46 9,3 °C 9,3 °C 94 % 1017,2 hPa 0,0 mm 1,9 km/h (1 Bft) S-SW 209 ° 0 min 0,000 mm 0,0 UV-I 0 W/m² 8,4 °C 9,3 °C 4,8 km/h (1 Bft)
10.08.2017 20:47 9,3 °C 9,3 °C 94 % 1017,2 hPa 0,2 mm 1,1 km/h (1 Bft) S-SW 209 ° 0 min 0,000 mm 0,0 UV-I 0 W/m² 8,4 °C 9,3 °C 1,6 km/h (1 Bft)
10.08.2017 20:48 9,3 °C 9,3 °C 94 % 1017,3 hPa 0,0 mm 0,5 km/h (0 Bft) S-SW 209 ° 0 min 0,000 mm 0,0 UV-I 0 W/m² 8,4 °C 9,3 °C 3,2 km/h (1 Bft)
10.08.2017 20:49 9,3 °C 9,3 °C 94 % 1017,3 hPa 0,0 mm 1,7 km/h (1 Bft) S-SW 209 ° 0 min 0,000 mm 0,0 UV-I 0 W/m² 8,4 °C 9,3 °C 3,2 km/h (1 Bft)
10.08.2017 20:50 9,3 °C 9,3 °C 94 % 1017,3 hPa 0,0 mm 1,3 km/h (1 Bft) S-SW 209 ° 0 min 0,000 mm 0,0 UV-I 0 W/m² 8,4 °C 9,3 °C 3,2 km/h (1 Bft)
10.08.2017 20:51 9,3 °C 9,3 °C 94 % 1017,2 hPa 0,2 mm 0,6 km/h (0 Bft) SW 227 ° 0 min 0,000 mm 0,0 UV-I 0 W/m² 8,4 °C 9,3 °C 3,2 km/h (1 Bft)
10.08.2017 20:52 9,3 °C 9,3 °C 94 % 1017,2 hPa 0,0 mm 2,3 km/h (1 Bft) S-SW 194 ° 0 min 0,000 mm 0,0 UV-I 0 W/m² 8,4 °C 9,3 °C 4,8 km/h (1 Bft)
10.08.2017 20:53 9,3 °C 9,3 °C 94 % 1017,2 hPa 0,0 mm 1,9 km/h (1 Bft) S-SW 194 ° 0 min 0,000 mm 0,0 UV-I 0 W/m² 8,4 °C 9,3 °C 3,2 km/h (1 Bft)
10.08.2017 20:54 9,3 °C 9,3 °C 94 % 1017,2 hPa 0,0 mm 2,2 km/h (1 Bft) S-SW 204 ° 0 min 0,000 mm 0,0 UV-I 0 W/m² 8,4 °C 9,3 °C 3,2 km/h (1 Bft)
10.08.2017 20:55 9,3 °C 9,3 °C 94 % 1017,1 hPa 0,2 mm 3,4 km/h (1 Bft) W-SW 244 ° 0 min 0,000 mm 0,0 UV-I 0 W/m² 8,4 °C 9,3 °C 6,4 km/h (2 Bft)
10.08.2017 20:56 9,3 °C 9,3 °C 94 % 1017,1 hPa 0,0 mm 1,7 km/h (1 Bft) SW 218 ° 0 min 0,000 mm 0,0 UV-I 0 W/m² 8,4 °C 9,3 °C 3,2 km/h (1 Bft)
10.08.2017 20:57 9,3 °C 9,3 °C 94 % 1017,0 hPa 0,0 mm 2,6 km/h (1 Bft) W-SW 252 ° 0 min 0,000 mm 0,0 UV-I 0 W/m² 8,4 °C 9,3 °C 4,8 km/h (1 Bft)
10.08.2017 20:58 9,3 °C 9,3 °C 94 % 1017,0 hPa 0,0 mm 0,8 km/h (0 Bft) W-SW 250 ° 0 min 0,000 mm 0,0 UV-I 0 W/m² 8,4 °C 9,3 °C 3,2 km/h (1 Bft)
10.08.2017 20:59 9,3 °C 9,3 °C 94 % 1017,0 hPa 0,0 mm 1,1 km/h (1 Bft) SW 229 ° 0 min 0,000 mm 0,0 UV-I 0 W/m² 8,4 °C 9,3 °C 1,6 km/h (1 Bft)
10.08.2017 21:00 9,2 °C 9,3 °C 94 % 1017,0 hPa 0,2 mm 1,3 km/h (1 Bft) SW 228 ° 0 min 0,000 mm 0,0 UV-I 0 W/m² 8,3 °C 9,2 °C 3,2 km/h (1 Bft)
10.08.2017 21:01 9,3 °C 9,3 °C 94 % 1017,0 hPa 0,0 mm 0,1 km/h (0 Bft) SW 228 ° 0 min 0,000 mm 0,0 UV-I 0 W/m² 8,4 °C 9,3 °C 1,6 km/h (1 Bft)
10.08.2017 21:02 9,3 °C 9,3 °C 94 % 1017,1 hPa 0,0 mm 2,3 km/h (1 Bft) S-SW 209 ° 0 min 0,000 mm 0,0 UV-I 0 W/m² 8,4 °C 9,3 °C 3,2 km/h (1 Bft)
10.08.2017 21:03 9,3 °C 9,3 °C 94 % 1017,1 hPa 0,0 mm 0,6 km/h (0 Bft) S-SW 209 ° 0 min 0,000 mm 0,0 UV-I 0 W/m² 8,4 °C 9,3 °C 1,6 km/h (1 Bft)
10.08.2017 21:04 9,3 °C 9,3 °C 94 % 1017,0 hPa 0,0 mm 0,0 km/h (0 Bft) S-SW 209 ° 0 min 0,000 mm 0,0 UV-I 0 W/m² 8,4 °C 9,3 °C 0,0 km/h (0 Bft)
10.08.2017 21:05 9,2 °C 9,3 °C 94 % 1017,0 hPa 0,0 mm 0,0 km/h (0 Bft) S-SW 209 ° 0 min 0,000 mm 0,0 UV-I 0 W/m² 8,3 °C 9,2 °C 0,0 km/h (0 Bft)
10.08.2017 21:06 9,2 °C 9,2 °C 94 % 1017,1 hPa 0,2 mm 0,0 km/h (0 Bft) S-SW 209 ° 0 min 0,000 mm 0,0 UV-I 0 W/m² 8,3 °C 9,2 °C 0,0 km/h (0 Bft)
10.08.2017 21:07 9,2 °C 9,2 °C 94 % 1017,2 hPa 0,0 mm 0,0 km/h (0 Bft) S-SW 209 ° 0 min 0,000 mm 0,0 UV-I 0 W/m² 8,3 °C 9,2 °C 0,0 km/h (0 Bft)
10.08.2017 21:08 9,2 °C 9,2 °C 94 % 1017,2 hPa 0,0 mm 0,0 km/h (0 Bft) S-SW 209 ° 0 min 0,000 mm 0,0 UV-I 0 W/m² 8,3 °C 9,2 °C 0,0 km/h (0 Bft)
10.08.2017 21:09 9,2 °C 9,2 °C 94 % 1017,2 hPa 0,0 mm 0,0 km/h (0 Bft) S-SW 209 ° 0 min 0,000 mm 0,0 UV-I 0 W/m² 8,3 °C 9,2 °C 0,0 km/h (0 Bft)
10.08.2017 21:10 9,1 °C 9,2 °C 94 % 1017,2 hPa 0,2 mm 0,0 km/h (0 Bft) S-SW 209 ° 0 min 0,000 mm 0,0 UV-I 0 W/m² 8,2 °C 9,1 °C 0,0 km/h (0 Bft)
10.08.2017 21:11 9,1 °C 9,2 °C 94 % 1017,2 hPa 0,0 mm 0,7 km/h (0 Bft) S-SW 209 ° 0 min 0,000 mm 0,0 UV-I 0 W/m² 8,2 °C 9,1 °C 1,6 km/h (1 Bft)
10.08.2017 21:12 9,1 °C 9,2 °C 94 % 1017,2 hPa 0,0 mm 0,0 km/h (0 Bft) S-SW 209 ° 0 min 0,000 mm 0,0 UV-I 0 W/m² 8,2 °C 9,1 °C 0,0 km/h (0 Bft)
10.08.2017 21:13 9,1 °C 9,2 °C 95 % 1017,1 hPa 0,0 mm 0,0 km/h (0 Bft) S-SW 209 ° 0 min 0,000 mm 0,0 UV-I 0 W/m² 8,3 °C 9,1 °C 0,0 km/h (0 Bft)
10.08.2017 21:14 9,1 °C 9,1 °C 95 % 1017,1 hPa 0,0 mm 0,0 km/h (0 Bft) S-SW 209 ° 0 min 0,000 mm 0,0 UV-I 0 W/m² 8,3 °C 9,1 °C 0,0 km/h (0 Bft)
10.08.2017 21:15 9,1 °C 9,2 °C 95 % 1017,1 hPa 0,0 mm 1,1 km/h (1 Bft) S-SW 209 ° 0 min 0,000 mm 0,0 UV-I 0 W/m² 8,3 °C 9,1 °C 1,6 km/h (1 Bft)
10.08.2017 21:16 9,1 °C 9,1 °C 95 % 1017,0 hPa 0,0 mm 0,1 km/h (0 Bft) S-SW 209 ° 0 min 0,000 mm 0,0 UV-I 0 W/m² 8,3 °C 9,1 °C 1,6 km/h (1 Bft)
10.08.2017 21:17 9,1 °C 9,1 °C 95 % 1017,0 hPa 0,2 mm 0,0 km/h (0 Bft) S-SW 209 ° 0 min 0,000 mm 0,0 UV-I 0 W/m² 8,3 °C 9,1 °C 0,0 km/h (0 Bft)
10.08.2017 21:18 9,1 °C 9,1 °C 95 % 1017,0 hPa 0,0 mm 0,0 km/h (0 Bft) S-SW 209 ° 0 min 0,000 mm 0,0 UV-I 0 W/m² 8,3 °C 9,1 °C 0,0 km/h (0 Bft)
10.08.2017 21:19 9,1 °C 9,1 °C 95 % 1017,0 hPa 0,0 mm 0,0 km/h (0 Bft) S-SW 209 ° 0 min 0,000 mm 0,0 UV-I 0 W/m² 8,3 °C 9,1 °C 0,0 km/h (0 Bft)
10.08.2017 21:20 9,1 °C 9,1 °C 95 % 1017,0 hPa 0,0 mm 0,0 km/h (0 Bft) S-SW 209 ° 0 min 0,000 mm 0,0 UV-I 0 W/m² 8,3 °C 9,1 °C 0,0 km/h (0 Bft)
10.08.2017 21:21 9,1 °C 9,1 °C 95 % 1017,0 hPa 0,0 mm 0,4 km/h (0 Bft) S-SW 209 ° 0 min 0,000 mm 0,0 UV-I 0 W/m² 8,3 °C 9,1 °C 1,6 km/h (1 Bft)
10.08.2017 21:22 9,1 °C 9,2 °C 95 % 1017,0 hPa 0,2 mm 1,1 km/h (1 Bft) S-SW 209 ° 0 min 0,000 mm 0,0 UV-I 0 W/m² 8,3 °C 9,1 °C 1,6 km/h (1 Bft)
10.08.2017 21:23 9,1 °C 9,2 °C 95 % 1016,9 hPa 0,0 mm 0,1 km/h (0 Bft) S-SW 209 ° 0 min 0,000 mm 0,0 UV-I 0 W/m² 8,3 °C 9,1 °C 1,6 km/h (1 Bft)
10.08.2017 21:24 9,2 °C 9,2 °C 95 % 1016,9 hPa 0,0 mm 0,0 km/h (0 Bft) S-SW 209 ° 0 min 0,000 mm 0,0 UV-I 0 W/m² 8,4 °C 9,2 °C 0,0 km/h (0 Bft)
10.08.2017 21:25 9,2 °C 9,2 °C 95 % 1016,9 hPa 0,0 mm 1,9 km/h (1 Bft) S-SW 209 ° 0 min 0,000 mm 0,0 UV-I 0 W/m² 8,4 °C 9,2 °C 4,8 km/h (1 Bft)
10.08.2017 21:26 9,1 °C 9,2 °C 95 % 1017,0 hPa 0,0 mm 4,4 km/h (1 Bft) W 268 ° 0 min 0,000 mm 0,0 UV-I 0 W/m² 8,3 °C 9,1 °C 4,8 km/h (1 Bft)
10.08.2017 21:27 9,2 °C 9,2 °C 95 % 1017,0 hPa 0,2 mm 3,5 km/h (1 Bft) W 268 ° 0 min 0,000 mm 0,0 UV-I 0 W/m² 8,4 °C 9,2 °C 6,4 km/h (2 Bft)
10.08.2017 21:28 9,1 °C 9,2 °C 95 % 1017,1 hPa 0,0 mm 2,2 km/h (1 Bft) W-SW 243 ° 0 min 0,000 mm 0,0 UV-I 0 W/m² 8,3 °C 9,1 °C 3,2 km/h (1 Bft)
10.08.2017 21:29 9,1 °C 9,1 °C 95 % 1017,1 hPa 0,0 mm 2,2 km/h (1 Bft) W-SW 239 ° 0 min 0,000 mm 0,0 UV-I 0 W/m² 8,3 °C 9,1 °C 4,8 km/h (1 Bft)
10.08.2017 21:30 9,1 °C 9,2 °C 95 % 1017,0 hPa 0,0 mm 2,1 km/h (1 Bft) W-SW 239 ° 0 min 0,000 mm 0,0 UV-I 0 W/m² 8,3 °C 9,1 °C 4,8 km/h (1 Bft)
10.08.2017 21:31 9,1 °C 9,2 °C 95 % 1017,1 hPa 0,0 mm 0,2 km/h (0 Bft) W-SW 239 ° 0 min 0,000 mm 0,0 UV-I 0 W/m² 8,3 °C 9,1 °C 1,6 km/h (1 Bft)
10.08.2017 21:32 9,1 °C 9,2 °C 95 % 1017,0 hPa 0,0 mm 1,2 km/h (1 Bft) W-SW 239 ° 0 min 0,000 mm 0,0 UV-I 0 W/m² 8,3 °C 9,1 °C 3,2 km/h (1 Bft)
10.08.2017 21:33 9,2 °C 9,2 °C 95 % 1017,0 hPa 0,0 mm 2,2 km/h (1 Bft) W-SW 239 ° 0 min 0,000 mm 0,0 UV-I 0 W/m² 8,4 °C 9,2 °C 3,2 km/h (1 Bft)
10.08.2017 21:34 9,2 °C 9,2 °C 95 % 1017,0 hPa 0,0 mm 1,9 km/h (1 Bft) W-SW 239 ° 0 min 0,000 mm 0,0 UV-I 0 W/m² 8,4 °C 9,2 °C 3,2 km/h (1 Bft)
10.08.2017 21:35 9,2 °C 9,2 °C 95 % 1017,0 hPa 0,0 mm 1,7 km/h (1 Bft) W-SW 239 ° 0 min 0,000 mm 0,0 UV-I 0 W/m² 8,4 °C 9,2 °C 3,2 km/h (1 Bft)
10.08.2017 21:36 9,2 °C 9,2 °C 95 % 1017,0 hPa 0,0 mm 0,9 km/h (0 Bft) W-SW 239 ° 0 min 0,000 mm 0,0 UV-I 0 W/m² 8,4 °C 9,2 °C 1,6 km/h (1 Bft)
10.08.2017 21:37 9,2 °C 9,2 °C 95 % 1017,0 hPa 0,0 mm 1,0 km/h (0 Bft) W-SW 239 ° 0 min 0,000 mm 0,0 UV-I 0 W/m² 8,4 °C 9,2 °C 1,6 km/h (1 Bft)
10.08.2017 21:38 9,2 °C 9,2 °C 95 % 1017,0 hPa 0,0 mm 0,1 km/h (0 Bft) W-SW 239 ° 0 min 0,000 mm 0,0 UV-I 0 W/m² 8,4 °C 9,2 °C 1,6 km/h (1 Bft)
10.08.2017 21:39 9,2 °C 9,2 °C 95 % 1017,0 hPa 0,0 mm 0,0 km/h (0 Bft) W-SW 239 ° 0 min 0,000 mm 0,0 UV-I 0 W/m² 8,4 °C 9,2 °C 0,0 km/h (0 Bft)
10.08.2017 21:40 9,2 °C 9,2 °C 95 % 1017,0 hPa 0,0 mm 0,0 km/h (0 Bft) W-SW 239 ° 0 min 0,000 mm 0,0 UV-I 0 W/m² 8,4 °C 9,2 °C 0,0 km/h (0 Bft)
10.08.2017 21:41 9,2 °C 9,2 °C 95 % 1017,1 hPa 0,0 mm 0,0 km/h (0 Bft) W-SW 239 ° 0 min 0,000 mm 0,0 UV-I 0 W/m² 8,4 °C 9,2 °C 0,0 km/h (0 Bft)
10.08.2017 21:42 9,2 °C 9,2 °C 95 % 1017,1 hPa 0,0 mm 0,0 km/h (0 Bft) W-SW 239 ° 0 min 0,000 mm 0,0 UV-I 0 W/m² 8,4 °C 9,2 °C 0,0 km/h (0 Bft)
10.08.2017 21:43 9,2 °C 9,2 °C 96 % 1017,1 hPa 0,0 mm 0,0 km/h (0 Bft) W-SW 239 ° 0 min 0,000 mm 0,0 UV-I 0 W/m² 8,6 °C 9,2 °C 0,0 km/h (0 Bft)
10.08.2017 21:44 9,2 °C 9,2 °C 95 % 1017,1 hPa 0,0 mm 0,0 km/h (0 Bft) W-SW 239 ° 0 min 0,000 mm 0,0 UV-I 0 W/m² 8,4 °C 9,2 °C 0,0 km/h (0 Bft)
10.08.2017 21:45 9,2 °C 9,2 °C 95 % 1017,2 hPa 0,0 mm 0,0 km/h (0 Bft) W-SW 239 ° 0 min 0,000 mm 0,0 UV-I 0 W/m² 8,4 °C 9,2 °C 0,0 km/h (0 Bft)
10.08.2017 21:46 9,2 °C 9,2 °C 95 % 1017,2 hPa 0,2 mm 0,0 km/h (0 Bft) W-SW 239 ° 0 min 0,000 mm 0,0 UV-I 0 W/m² 8,4 °C 9,2 °C 0,0 km/h (0 Bft)
10.08.2017 21:47 9,2 °C 9,2 °C 95 % 1017,2 hPa 0,0 mm 0,0 km/h (0 Bft) W-SW 239 ° 0 min 0,000 mm 0,0 UV-I 0 W/m² 8,4 °C 9,2 °C 0,0 km/h (0 Bft)
10.08.2017 21:48 9,2 °C 9,2 °C 95 % 1017,2 hPa 0,0 mm 0,0 km/h (0 Bft) W-SW 239 ° 0 min 0,000 mm 0,0 UV-I 0 W/m² 8,4 °C 9,2 °C 0,0 km/h (0 Bft)
10.08.2017 21:49 9,1 °C 9,2 °C 95 % 1017,3 hPa 0,0 mm 0,0 km/h (0 Bft) W-SW 239 ° 0 min 0,000 mm 0,0 UV-I 0 W/m² 8,3 °C 9,1 °C 0,0 km/h (0 Bft)
10.08.2017 21:50 9,2 °C 9,2 °C 95 % 1017,3 hPa 0,0 mm 0,0 km/h (0 Bft) W-SW 239 ° 0 min 0,000 mm 0,0 UV-I 0 W/m² 8,4 °C 9,2 °C 0,0 km/h (0 Bft)
10.08.2017 21:51 9,2 °C 9,2 °C 95 % 1017,3 hPa 0,0 mm 0,0 km/h (0 Bft) W-SW 239 ° 0 min 0,000 mm 0,0 UV-I 0 W/m² 8,4 °C 9,2 °C 0,0 km/h (0 Bft)
10.08.2017 21:52 9,2 °C 9,2 °C 95 % 1017,2 hPa 0,0 mm 0,0 km/h (0 Bft) W-SW 239 ° 0 min 0,000 mm 0,0 UV-I 0 W/m² 8,4 °C 9,2 °C 0,0 km/h (0 Bft)
10.08.2017 21:53 9,2 °C 9,2 °C 95 % 1017,1 hPa 0,0 mm 0,0 km/h (0 Bft) W-SW 239 ° 0 min 0,000 mm 0,0 UV-I 0 W/m² 8,4 °C 9,2 °C 0,0 km/h (0 Bft)
10.08.2017 21:54 9,2 °C 9,2 °C 96 % 1017,2 hPa 0,0 mm 0,0 km/h (0 Bft) W-SW 239 ° 0 min 0,000 mm 0,0 UV-I 0 W/m² 8,6 °C 9,2 °C 0,0 km/h (0 Bft)
10.08.2017 21:55 9,2 °C 9,2 °C 96 % 1017,2 hPa 0,0 mm 0,0 km/h (0 Bft) W-SW 239 ° 0 min 0,000 mm 0,0 UV-I 0 W/m² 8,6 °C 9,2 °C 0,0 km/h (0 Bft)
10.08.2017 21:56 9,2 °C 9,2 °C 96 % 1017,2 hPa 0,0 mm 0,0 km/h (0 Bft) W-SW 239 ° 0 min 0,000 mm 0,0 UV-I 0 W/m² 8,6 °C 9,2 °C 0,0 km/h (0 Bft)
10.08.2017 21:57 9,2 °C 9,2 °C 96 % 1017,3 hPa 0,0 mm 0,0 km/h (0 Bft) W-SW 239 ° 0 min 0,000 mm 0,0 UV-I 0 W/m² 8,6 °C 9,2 °C 0,0 km/h (0 Bft)
10.08.2017 21:58 9,2 °C 9,2 °C 96 % 1017,3 hPa 0,0 mm 0,0 km/h (0 Bft) W-SW 239 ° 0 min 0,000 mm 0,0 UV-I 0 W/m² 8,6 °C 9,2 °C 0,0 km/h (0 Bft)
10.08.2017 21:59 9,2 °C 9,2 °C 96 % 1017,3 hPa 0,0 mm 0,0 km/h (0 Bft) W-SW 239 ° 0 min 0,000 mm 0,0 UV-I 0 W/m² 8,6 °C 9,2 °C 0,0 km/h (0 Bft)
10.08.2017 22:00 9,2 °C 9,2 °C 96 % 1017,3 hPa 0,0 mm 0,0 km/h (0 Bft) W-SW 239 ° 0 min 0,000 mm 0,0 UV-I 0 W/m² 8,6 °C 9,2 °C 0,0 km/h (0 Bft)
10.08.2017 22:01 9,2 °C 9,2 °C 96 % 1017,2 hPa 0,0 mm 0,0 km/h (0 Bft) W-SW 239 ° 0 min 0,000 mm 0,0 UV-I 0 W/m² 8,6 °C 9,2 °C 0,0 km/h (0 Bft)
10.08.2017 22:02 9,2 °C 9,2 °C 96 % 1017,3 hPa 0,0 mm 0,0 km/h (0 Bft) W-SW 239 ° 0 min 0,000 mm 0,0 UV-I 0 W/m² 8,6 °C 9,2 °C 0,0 km/h (0 Bft)
10.08.2017 22:03 9,2 °C 9,2 °C 96 % 1017,2 hPa 0,0 mm 0,0 km/h (0 Bft) W-SW 239 ° 0 min 0,000 mm 0,0 UV-I 0 W/m² 8,6 °C 9,2 °C 0,0 km/h (0 Bft)
10.08.2017 22:04 9,2 °C 9,2 °C 96 % 1017,3 hPa 0,0 mm 0,0 km/h (0 Bft) W-SW 239 ° 0 min 0,000 mm 0,0 UV-I 0 W/m² 8,6 °C 9,2 °C 0,0 km/h (0 Bft)
10.08.2017 22:05 9,2 °C 9,2 °C 96 % 1017,3 hPa 0,0 mm 0,0 km/h (0 Bft) W-SW 239 ° 0 min 0,000 mm 0,0 UV-I 0 W/m² 8,6 °C 9,2 °C 0,0 km/h (0 Bft)
10.08.2017 22:06 9,2 °C 9,2 °C 96 % 1017,3 hPa 0,0 mm 0,0 km/h (0 Bft) W-SW 239 ° 0 min 0,000 mm 0,0 UV-I 0 W/m² 8,6 °C 9,2 °C 0,0 km/h (0 Bft)
10.08.2017 22:07 9,2 °C 9,2 °C 96 % 1017,4 hPa 0,0 mm 0,0 km/h (0 Bft) W-SW 239 ° 0 min 0,000 mm 0,0 UV-I 0 W/m² 8,6 °C 9,2 °C 0,0 km/h (0 Bft)
10.08.2017 22:08 9,2 °C 9,2 °C 96 % 1017,3 hPa 0,0 mm 0,0 km/h (0 Bft) W-SW 239 ° 0 min 0,000 mm 0,0 UV-I 0 W/m² 8,6 °C 9,2 °C 0,0 km/h (0 Bft)
10.08.2017 22:09 9,2 °C 9,2 °C 96 % 1017,3 hPa 0,0 mm 0,0 km/h (0 Bft) W-SW 239 ° 0 min 0,000 mm 0,0 UV-I 0 W/m² 8,6 °C 9,2 °C 0,0 km/h (0 Bft)
10.08.2017 22:10 9,2 °C 9,2 °C 96 % 1017,3 hPa 0,0 mm 0,0 km/h (0 Bft) W-SW 239 ° 0 min 0,000 mm 0,0 UV-I 0 W/m² 8,6 °C 9,2 °C 0,0 km/h (0 Bft)
10.08.2017 22:11 9,2 °C 9,2 °C 96 % 1017,2 hPa 0,0 mm 0,0 km/h (0 Bft) W-SW 239 ° 0 min 0,000 mm 0,0 UV-I 0 W/m² 8,6 °C 9,2 °C 0,0 km/h (0 Bft)
10.08.2017 22:12 9,2 °C 9,2 °C 96 % 1017,2 hPa 0,0 mm 0,0 km/h (0 Bft) W-SW 239 ° 0 min 0,000 mm 0,0 UV-I 0 W/m² 8,6 °C 9,2 °C 0,0 km/h (0 Bft)
10.08.2017 22:13 9,2 °C 9,2 °C 96 % 1017,2 hPa 0,0 mm 0,0 km/h (0 Bft) W-SW 239 ° 0 min 0,000 mm 0,0 UV-I 0 W/m² 8,6 °C 9,2 °C 0,0 km/h (0 Bft)
10.08.2017 22:14 9,2 °C 9,2 °C 96 % 1017,2 hPa 0,0 mm 0,0 km/h (0 Bft) W-SW 239 ° 0 min 0,000 mm 0,0 UV-I 0 W/m² 8,6 °C 9,2 °C 0,0 km/h (0 Bft)
10.08.2017 22:15 9,2 °C 9,2 °C 96 % 1017,2 hPa 0,0 mm 0,0 km/h (0 Bft) W-SW 239 ° 0 min 0,000 mm 0,0 UV-I 0 W/m² 8,6 °C 9,2 °C 0,0 km/h (0 Bft)
10.08.2017 22:16 9,2 °C 9,2 °C 96 % 1017,1 hPa 0,0 mm 0,0 km/h (0 Bft) W-SW 239 ° 0 min 0,000 mm 0,0 UV-I 0 W/m² 8,6 °C 9,2 °C 0,0 km/h (0 Bft)
10.08.2017 22:17 9,2 °C 9,3 °C 96 % 1017,1 hPa 0,0 mm 0,0 km/h (0 Bft) W-SW 239 ° 0 min 0,000 mm 0,0 UV-I 0 W/m² 8,6 °C 9,2 °C 0,0 km/h (0 Bft)
10.08.2017 22:18 9,3 °C 9,3 °C 96 % 1017,1 hPa 0,0 mm 0,0 km/h (0 Bft) W-SW 239 ° 0 min 0,000 mm 0,0 UV-I 0 W/m² 8,7 °C 9,3 °C 0,0 km/h (0 Bft)
10.08.2017 22:19 9,2 °C 9,3 °C 96 % 1017,1 hPa 0,0 mm 0,0 km/h (0 Bft) W-SW 239 ° 0 min 0,000 mm 0,0 UV-I 0 W/m² 8,6 °C 9,2 °C 0,0 km/h (0 Bft)
10.08.2017 22:20 9,3 °C 9,3 °C 96 % 1017,2 hPa 0,0 mm 0,0 km/h (0 Bft) W-SW 239 ° 0 min 0,000 mm 0,0 UV-I 0 W/m² 8,7 °C 9,3 °C 0,0 km/h (0 Bft)
10.08.2017 22:21 9,3 °C 9,3 °C 96 % 1017,3 hPa 0,0 mm 1,1 km/h (1 Bft) W-SW 239 ° 0 min 0,000 mm 0,0 UV-I 0 W/m² 8,7 °C 9,3 °C 3,2 km/h (1 Bft)
10.08.2017 22:22 9,3 °C 9,3 °C 96 % 1017,4 hPa 0,0 mm 0,5 km/h (0 Bft) W-SW 239 ° 0 min 0,000 mm 0,0 UV-I 0 W/m² 8,7 °C 9,3 °C 1,6 km/h (1 Bft)
10.08.2017 22:23 9,3 °C 9,3 °C 96 % 1017,5 hPa 0,0 mm 0,4 km/h (0 Bft) W-SW 239 ° 0 min 0,000 mm 0,0 UV-I 0 W/m² 8,7 °C 9,3 °C 1,6 km/h (1 Bft)
10.08.2017 22:24 9,3 °C 9,3 °C 96 % 1017,5 hPa 0,0 mm 0,0 km/h (0 Bft) W-SW 239 ° 0 min 0,000 mm 0,0 UV-I 0 W/m² 8,7 °C 9,3 °C 0,0 km/h (0 Bft)
10.08.2017 22:25 9,3 °C 9,3 °C 96 % 1017,5 hPa 0,0 mm 0,1 km/h (0 Bft) W-SW 239 ° 0 min 0,000 mm 0,0 UV-I 0 W/m² 8,7 °C 9,3 °C 1,6 km/h (1 Bft)
10.08.2017 22:26 9,3 °C 9,3 °C 96 % 1017,5 hPa 0,0 mm 0,0 km/h (0 Bft) W-SW 239 ° 0 min 0,000 mm 0,0 UV-I 0 W/m² 8,7 °C 9,3 °C 0,0 km/h (0 Bft)
10.08.2017 22:27 9,3 °C 9,3 °C 96 % 1017,4 hPa 0,0 mm 0,0 km/h (0 Bft) W-SW 239 ° 0 min 0,000 mm 0,0 UV-I 0 W/m² 8,7 °C 9,3 °C 0,0 km/h (0 Bft)
10.08.2017 22:28 9,3 °C 9,3 °C 96 % 1017,3 hPa 0,0 mm 0,0 km/h (0 Bft) W-SW 239 ° 0 min 0,000 mm 0,0 UV-I 0 W/m² 8,7 °C 9,3 °C 0,0 km/h (0 Bft)
10.08.2017 22:29 9,3 °C 9,3 °C 96 % 1017,2 hPa 0,0 mm 0,0 km/h (0 Bft) W-SW 239 ° 0 min 0,000 mm 0,0 UV-I 0 W/m² 8,7 °C 9,3 °C 0,0 km/h (0 Bft)
10.08.2017 22:30 9,3 °C 9,3 °C 96 % 1017,2 hPa 0,0 mm 0,0 km/h (0 Bft) W-SW 239 ° 0 min 0,000 mm 0,0 UV-I 0 W/m² 8,7 °C 9,3 °C 0,0 km/h (0 Bft)
10.08.2017 22:31 9,3 °C 9,3 °C 96 % 1017,1 hPa 0,0 mm 0,0 km/h (0 Bft) W-SW 239 ° 0 min 0,000 mm 0,0 UV-I 0 W/m² 8,7 °C 9,3 °C 0,0 km/h (0 Bft)
10.08.2017 22:32 9,3 °C 9,3 °C 96 % 1017,1 hPa 0,0 mm 0,0 km/h (0 Bft) W-SW 239 ° 0 min 0,000 mm 0,0 UV-I 0 W/m² 8,7 °C 9,3 °C 0,0 km/h (0 Bft)
10.08.2017 22:33 9,3 °C 9,3 °C 96 % 1017,1 hPa 0,0 mm 0,0 km/h (0 Bft) W-SW 239 ° 0 min 0,000 mm 0,0 UV-I 0 W/m² 8,7 °C 9,3 °C 0,0 km/h (0 Bft)
10.08.2017 22:34 9,3 °C 9,3 °C 96 % 1017,1 hPa 0,0 mm 1,1 km/h (1 Bft) W-SW 239 ° 0 min 0,000 mm 0,0 UV-I 0 W/m² 8,7 °C 9,3 °C 3,2 km/h (1 Bft)
10.08.2017 22:35 9,3 °C 9,3 °C 96 % 1017,1 hPa 0,0 mm 0,9 km/h (0 Bft) W-SW 239 ° 0 min 0,000 mm 0,0 UV-I 0 W/m² 8,7 °C 9,3 °C 1,6 km/h (1 Bft)
10.08.2017 22:36 9,3 °C 9,3 °C 96 % 1017,2 hPa 0,0 mm 1,7 km/h (1 Bft) W-SW 239 ° 0 min 0,000 mm 0,0 UV-I 0 W/m² 8,7 °C 9,3 °C 3,2 km/h (1 Bft)
10.08.2017 22:37 9,3 °C 9,3 °C 96 % 1017,2 hPa 0,0 mm 2,2 km/h (1 Bft) W-SW 239 ° 0 min 0,000 mm 0,0 UV-I 0 W/m² 8,7 °C 9,3 °C 3,2 km/h (1 Bft)
10.08.2017 22:38 9,3 °C 9,3 °C 96 % 1017,2 hPa 0,0 mm 1,9 km/h (1 Bft) W-SW 239 ° 0 min 0,000 mm 0,0 UV-I 0 W/m² 8,7 °C 9,3 °C 3,2 km/h (1 Bft)
10.08.2017 22:39 9,3 °C 9,3 °C 96 % 1017,2 hPa 0,0 mm 0,3 km/h (0 Bft) W-SW 239 ° 0 min 0,000 mm 0,0 UV-I 0 W/m² 8,7 °C 9,3 °C 1,6 km/h (1 Bft)
10.08.2017 22:40 9,2 °C 9,3 °C 96 % 1017,2 hPa 0,0 mm 0,0 km/h (0 Bft) W-SW 239 ° 0 min 0,000 mm 0,0 UV-I 0 W/m² 8,6 °C 9,2 °C 0,0 km/h (0 Bft)
10.08.2017 22:41 9,2 °C 9,3 °C 96 % 1017,2 hPa 0,0 mm 0,0 km/h (0 Bft) W-SW 239 ° 0 min 0,000 mm 0,0 UV-I 0 W/m² 8,6 °C 9,2 °C 0,0 km/h (0 Bft)
10.08.2017 22:42 9,3 °C 9,3 °C 96 % 1017,2 hPa 0,0 mm 0,0 km/h (0 Bft) W-SW 239 ° 0 min 0,000 mm 0,0 UV-I 0 W/m² 8,7 °C 9,3 °C 0,0 km/h (0 Bft)
10.08.2017 22:43 9,3 °C 9,3 °C 96 % 1017,1 hPa 0,0 mm 0,3 km/h (0 Bft) W-SW 239 ° 0 min 0,000 mm 0,0 UV-I 0 W/m² 8,7 °C 9,3 °C 1,6 km/h (1 Bft)
10.08.2017 22:44 9,3 °C 9,3 °C 96 % 1017,1 hPa 0,0 mm 0,0 km/h (0 Bft) W-SW 239 ° 0 min 0,000 mm 0,0 UV-I 0 W/m² 8,7 °C 9,3 °C 0,0 km/h (0 Bft)
10.08.2017 22:45 9,3 °C 9,3 °C 96 % 1017,1 hPa 0,0 mm 0,0 km/h (0 Bft) W-SW 239 ° 0 min 0,000 mm 0,0 UV-I 0 W/m² 8,7 °C 9,3 °C 0,0 km/h (0 Bft)
10.08.2017 22:46 9,3 °C 9,3 °C 96 % 1017,0 hPa 0,0 mm 1,0 km/h (0 Bft) W-SW 239 ° 0 min 0,000 mm 0,0 UV-I 0 W/m² 8,7 °C 9,3 °C 3,2 km/h (1 Bft)
10.08.2017 22:47 9,3 °C 9,3 °C 96 % 1017,1 hPa 0,0 mm 1,6 km/h (1 Bft) W-SW 239 ° 0 min 0,000 mm 0,0 UV-I 0 W/m² 8,7 °C 9,3 °C 3,2 km/h (1 Bft)
10.08.2017 22:48 9,2 °C 9,3 °C 96 % 1017,1 hPa 0,0 mm 1,3 km/h (1 Bft) W-SW 239 ° 0 min 0,000 mm 0,0 UV-I 0 W/m² 8,6 °C 9,2 °C 1,6 km/h (1 Bft)
10.08.2017 22:49 9,2 °C 9,2 °C 96 % 1017,1 hPa 0,0 mm 1,1 km/h (1 Bft) W-SW 239 ° 0 min 0,000 mm 0,0 UV-I 0 W/m² 8,6 °C 9,2 °C 1,6 km/h (1 Bft)
10.08.2017 22:50 9,2 °C 9,2 °C 96 % 1017,2 hPa 0,0 mm 0,3 km/h (0 Bft) W-SW 239 ° 0 min 0,000 mm 0,0 UV-I 0 W/m² 8,6 °C 9,2 °C 1,6 km/h (1 Bft)
10.08.2017 22:51 9,2 °C 9,2 °C 96 % 1017,2 hPa 0,0 mm 0,9 km/h (0 Bft) W-SW 239 ° 0 min 0,000 mm 0,0 UV-I 0 W/m² 8,6 °C 9,2 °C 3,2 km/h (1 Bft)
10.08.2017 22:52 9,2 °C 9,2 °C 96 % 1017,2 hPa 0,0 mm 0,3 km/h (0 Bft) W-SW 239 ° 0 min 0,000 mm 0,0 UV-I 0 W/m² 8,6 °C 9,2 °C 1,6 km/h (1 Bft)
10.08.2017 22:53 9,3 °C 9,3 °C 96 % 1017,3 hPa 0,0 mm 0,0 km/h (0 Bft) W-SW 239 ° 0 min 0,000 mm 0,0 UV-I 0 W/m² 8,7 °C 9,3 °C 0,0 km/h (0 Bft)
10.08.2017 22:54 9,3 °C 9,3 °C 96 % 1017,3 hPa 0,0 mm 0,0 km/h (0 Bft) W-SW 239 ° 0 min 0,000 mm 0,0 UV-I 0 W/m² 8,7 °C 9,3 °C 0,0 km/h (0 Bft)
10.08.2017 22:55 9,3 °C 9,3 °C 96 % 1017,3 hPa 0,0 mm 0,0 km/h (0 Bft) W-SW 239 ° 0 min 0,000 mm 0,0 UV-I 0 W/m² 8,7 °C 9,3 °C 0,0 km/h (0 Bft)
10.08.2017 22:56 9,3 °C 9,3 °C 96 % 1017,2 hPa 0,0 mm 0,0 km/h (0 Bft) W-SW 239 ° 0 min 0,000 mm 0,0 UV-I 0 W/m² 8,7 °C 9,3 °C 0,0 km/h (0 Bft)
10.08.2017 22:57 9,3 °C 9,3 °C 96 % 1017,2 hPa 0,0 mm 0,0 km/h (0 Bft) W-SW 239 ° 0 min 0,000 mm 0,0 UV-I 0 W/m² 8,7 °C 9,3 °C 0,0 km/h (0 Bft)
10.08.2017 22:58 9,3 °C 9,3 °C 96 % 1017,2 hPa 0,0 mm 0,0 km/h (0 Bft) W-SW 239 ° 0 min 0,000 mm 0,0 UV-I 0 W/m² 8,7 °C 9,3 °C 0,0 km/h (0 Bft)
10.08.2017 22:59 9,3 °C 9,3 °C 96 % 1017,1 hPa 0,0 mm 0,0 km/h (0 Bft) W-SW 239 ° 0 min 0,000 mm 0,0 UV-I 0 W/m² 8,7 °C 9,3 °C 0,0 km/h (0 Bft)
10.08.2017 23:00 9,3 °C 9,4 °C 96 % 1017,1 hPa 0,0 mm 0,0 km/h (0 Bft) W-SW 239 ° 0 min 0,000 mm 0,0 UV-I 0 W/m² 8,7 °C 9,3 °C 0,0 km/h (0 Bft)
10.08.2017 23:01 9,3 °C 9,4 °C 96 % 1017,1 hPa 0,0 mm 0,0 km/h (0 Bft) W-SW 239 ° 0 min 0,000 mm 0,0 UV-I 0 W/m² 8,7 °C 9,3 °C 0,0 km/h (0 Bft)
10.08.2017 23:02 9,4 °C 9,4 °C 96 % 1017,0 hPa 0,0 mm 0,0 km/h (0 Bft) W-SW 239 ° 0 min 0,000 mm 0,0 UV-I 0 W/m² 8,8 °C 9,4 °C 0,0 km/h (0 Bft)
10.08.2017 23:03 9,4 °C 9,4 °C 96 % 1017,1 hPa 0,0 mm 0,0 km/h (0 Bft) W-SW 239 ° 0 min 0,000 mm 0,0 UV-I 0 W/m² 8,8 °C 9,4 °C 0,0 km/h (0 Bft)
10.08.2017 23:04 9,4 °C 9,4 °C 96 % 1017,0 hPa 0,0 mm 0,0 km/h (0 Bft) W-SW 239 ° 0 min 0,000 mm 0,0 UV-I 0 W/m² 8,8 °C 9,4 °C 0,0 km/h (0 Bft)
10.08.2017 23:05 9,4 °C 9,4 °C 96 % 1017,0 hPa 0,0 mm 0,0 km/h (0 Bft) W-SW 239 ° 0 min 0,000 mm 0,0 UV-I 0 W/m² 8,8 °C 9,4 °C 0,0 km/h (0 Bft)
10.08.2017 23:06 9,4 °C 9,4 °C 96 % 1017,1 hPa 0,0 mm 0,0 km/h (0 Bft) W-SW 239 ° 0 min 0,000 mm 0,0 UV-I 0 W/m² 8,8 °C 9,4 °C 0,0 km/h (0 Bft)
10.08.2017 23:07 9,3 °C 9,4 °C 96 % 1017,1 hPa 0,0 mm 0,0 km/h (0 Bft) W-SW 239 ° 0 min 0,000 mm 0,0 UV-I 0 W/m² 8,7 °C 9,3 °C 0,0 km/h (0 Bft)
10.08.2017 23:08 9,3 °C 9,4 °C 96 % 1017,1 hPa 0,0 mm 0,0 km/h (0 Bft) W-SW 239 ° 0 min 0,000 mm 0,0 UV-I 0 W/m² 8,7 °C 9,3 °C 0,0 km/h (0 Bft)
10.08.2017 23:09 9,3 °C 9,3 °C 96 % 1017,2 hPa 0,0 mm 0,0 km/h (0 Bft) W-SW 239 ° 0 min 0,000 mm 0,0 UV-I 0 W/m² 8,7 °C 9,3 °C 0,0 km/h (0 Bft)
10.08.2017 23:10 9,3 °C 9,3 °C 96 % 1017,2 hPa 0,0 mm 0,0 km/h (0 Bft) W-SW 239 ° 0 min 0,000 mm 0,0 UV-I 0 W/m² 8,7 °C 9,3 °C 0,0 km/h (0 Bft)
10.08.2017 23:11 9,3 °C 9,4 °C 96 % 1017,2 hPa 0,0 mm 0,0 km/h (0 Bft) W-SW 239 ° 0 min 0,000 mm 0,0 UV-I 0 W/m² 8,7 °C 9,3 °C 0,0 km/h (0 Bft)
10.08.2017 23:12 9,3 °C 9,3 °C 96 % 1017,2 hPa 0,0 mm 0,0 km/h (0 Bft) W-SW 239 ° 0 min 0,000 mm 0,0 UV-I 0 W/m² 8,7 °C 9,3 °C 0,0 km/h (0 Bft)
10.08.2017 23:13 9,3 °C 9,3 °C 96 % 1017,2 hPa 0,0 mm 0,0 km/h (0 Bft) W-SW 239 ° 0 min 0,000 mm 0,0 UV-I 0 W/m² 8,7 °C 9,3 °C 0,0 km/h (0 Bft)
10.08.2017 23:14 9,3 °C 9,3 °C 96 % 1017,1 hPa 0,0 mm 0,0 km/h (0 Bft) W-SW 239 ° 0 min 0,000 mm 0,0 UV-I 0 W/m² 8,7 °C 9,3 °C 0,0 km/h (0 Bft)
10.08.2017 23:15 9,3 °C 9,3 °C 96 % 1017,2 hPa 0,0 mm 0,0 km/h (0 Bft) W-SW 239 ° 0 min 0,000 mm 0,0 UV-I 0 W/m² 8,7 °C 9,3 °C 0,0 km/h (0 Bft)
10.08.2017 23:16 9,3 °C 9,3 °C 96 % 1017,2 hPa 0,0 mm 0,0 km/h (0 Bft) W-SW 239 ° 0 min 0,000 mm 0,0 UV-I 0 W/m² 8,7 °C 9,3 °C 0,0 km/h (0 Bft)
10.08.2017 23:17 9,3 °C 9,3 °C 96 % 1017,2 hPa 0,0 mm 0,0 km/h (0 Bft) W-SW 239 ° 0 min 0,000 mm 0,0 UV-I 0 W/m² 8,7 °C 9,3 °C 0,0 km/h (0 Bft)
10.08.2017 23:18 9,3 °C 9,4 °C 96 % 1017,2 hPa 0,0 mm 0,0 km/h (0 Bft) W-SW 239 ° 0 min 0,000 mm 0,0 UV-I 0 W/m² 8,7 °C 9,3 °C 0,0 km/h (0 Bft)
10.08.2017 23:19 9,4 °C 9,4 °C 96 % 1017,2 hPa 0,0 mm 0,0 km/h (0 Bft) W-SW 239 ° 0 min 0,000 mm 0,0 UV-I 0 W/m² 8,8 °C 9,4 °C 0,0 km/h (0 Bft)
10.08.2017 23:20 9,4 °C 9,4 °C 96 % 1017,2 hPa 0,0 mm 0,0 km/h (0 Bft) W-SW 239 ° 0 min 0,000 mm 0,0 UV-I 0 W/m² 8,8 °C 9,4 °C 0,0 km/h (0 Bft)
10.08.2017 23:21 9,4 °C 9,4 °C 96 % 1017,2 hPa 0,0 mm 0,0 km/h (0 Bft) W-SW 239 ° 0 min 0,000 mm 0,0 UV-I 0 W/m² 8,8 °C 9,4 °C 0,0 km/h (0 Bft)
10.08.2017 23:22 9,3 °C 9,4 °C 96 % 1017,2 hPa 0,0 mm 0,0 km/h (0 Bft) W-SW 239 ° 0 min 0,000 mm 0,0 UV-I 0 W/m² 8,7 °C 9,3 °C 0,0 km/h (0 Bft)
10.08.2017 23:23 9,3 °C 9,4 °C 96 % 1017,2 hPa 0,0 mm 0,0 km/h (0 Bft) W-SW 239 ° 0 min 0,000 mm 0,0 UV-I 0 W/m² 8,7 °C 9,3 °C 0,0 km/h (0 Bft)
10.08.2017 23:24 9,3 °C 9,3 °C 96 % 1017,2 hPa 0,0 mm 0,0 km/h (0 Bft) W-SW 239 ° 0 min 0,000 mm 0,0 UV-I 0 W/m² 8,7 °C 9,3 °C 0,0 km/h (0 Bft)
10.08.2017 23:25 9,3 °C 9,3 °C 96 % 1017,2 hPa 0,0 mm 0,0 km/h (0 Bft) W-SW 239 ° 0 min 0,000 mm 0,0 UV-I 0 W/m² 8,7 °C 9,3 °C 0,0 km/h (0 Bft)
10.08.2017 23:26 9,3 °C 9,3 °C 96 % 1017,2 hPa 0,0 mm 0,0 km/h (0 Bft) W-SW 239 ° 0 min 0,000 mm 0,0 UV-I 0 W/m² 8,7 °C 9,3 °C 0,0 km/h (0 Bft)
10.08.2017 23:27 9,3 °C 9,3 °C 96 % 1017,2 hPa 0,0 mm 0,0 km/h (0 Bft) W-SW 239 ° 0 min 0,000 mm 0,0 UV-I 0 W/m² 8,7 °C 9,3 °C 0,0 km/h (0 Bft)
10.08.2017 23:28 9,3 °C 9,3 °C 96 % 1017,2 hPa 0,0 mm 0,0 km/h (0 Bft) W-SW 239 ° 0 min 0,000 mm 0,0 UV-I 0 W/m² 8,7 °C 9,3 °C 0,0 km/h (0 Bft)
10.08.2017 23:29 9,3 °C 9,3 °C 96 % 1017,1 hPa 0,0 mm 0,0 km/h (0 Bft) W-SW 239 ° 0 min 0,000 mm 0,0 UV-I 0 W/m² 8,7 °C 9,3 °C 0,0 km/h (0 Bft)
10.08.2017 23:30 9,3 °C 9,3 °C 96 % 1017,1 hPa 0,0 mm 0,0 km/h (0 Bft) W-SW 239 ° 0 min 0,000 mm 0,0 UV-I 0 W/m² 8,7 °C 9,3 °C 0,0 km/h (0 Bft)
10.08.2017 23:31 9,3 °C 9,3 °C 96 % 1017,1 hPa 0,0 mm 0,0 km/h (0 Bft) W-SW 239 ° 0 min 0,000 mm 0,0 UV-I 0 W/m² 8,7 °C 9,3 °C 0,0 km/h (0 Bft)
10.08.2017 23:32 9,3 °C 9,3 °C 96 % 1017,1 hPa 0,0 mm 0,0 km/h (0 Bft) W-SW 239 ° 0 min 0,000 mm 0,0 UV-I 0 W/m² 8,7 °C 9,3 °C 0,0 km/h (0 Bft)
10.08.2017 23:33 9,4 °C 9,4 °C 96 % 1017,1 hPa 0,0 mm 0,0 km/h (0 Bft) W-SW 239 ° 0 min 0,000 mm 0,0 UV-I 0 W/m² 8,8 °C 9,4 °C 0,0 km/h (0 Bft)
10.08.2017 23:34 9,4 °C 9,4 °C 96 % 1017,1 hPa 0,0 mm 0,0 km/h (0 Bft) W-SW 239 ° 0 min 0,000 mm 0,0 UV-I 0 W/m² 8,8 °C 9,4 °C 0,0 km/h (0 Bft)
10.08.2017 23:35 9,4 °C 9,4 °C 96 % 1017,2 hPa 0,0 mm 0,0 km/h (0 Bft) W-SW 239 ° 0 min 0,000 mm 0,0 UV-I 0 W/m² 8,8 °C 9,4 °C 0,0 km/h (0 Bft)
10.08.2017 23:36 9,3 °C 9,4 °C 96 % 1017,2 hPa 0,0 mm 0,0 km/h (0 Bft) W-SW 239 ° 0 min 0,000 mm 0,0 UV-I 0 W/m² 8,7 °C 9,3 °C 0,0 km/h (0 Bft)
10.08.2017 23:37 9,4 °C 9,4 °C 96 % 1017,2 hPa 0,0 mm 0,0 km/h (0 Bft) W-SW 239 ° 0 min 0,000 mm 0,0 UV-I 0 W/m² 8,8 °C 9,4 °C 0,0 km/h (0 Bft)
10.08.2017 23:38 9,3 °C 9,4 °C 96 % 1017,2 hPa 0,0 mm 0,0 km/h (0 Bft) W-SW 239 ° 0 min 0,000 mm 0,0 UV-I 0 W/m² 8,7 °C 9,3 °C 0,0 km/h (0 Bft)
10.08.2017 23:39 9,3 °C 9,3 °C 96 % 1017,3 hPa 0,0 mm 0,0 km/h (0 Bft) W-SW 239 ° 0 min 0,000 mm 0,0 UV-I 0 W/m² 8,7 °C 9,3 °C 0,0 km/h (0 Bft)
10.08.2017 23:40 9,3 °C 9,3 °C 96 % 1017,3 hPa 0,0 mm 0,0 km/h (0 Bft) W-SW 239 ° 0 min 0,000 mm 0,0 UV-I 0 W/m² 8,7 °C 9,3 °C 0,0 km/h (0 Bft)
10.08.2017 23:41 9,3 °C 9,3 °C 96 % 1017,3 hPa 0,0 mm 0,1 km/h (0 Bft) W-SW 239 ° 0 min 0,000 mm 0,0 UV-I 0 W/m² 8,7 °C 9,3 °C 1,6 km/h (1 Bft)
10.08.2017 23:42 9,3 °C 9,4 °C 96 % 1017,3 hPa 0,0 mm 1,7 km/h (1 Bft) W-SW 239 ° 0 min 0,000 mm 0,0 UV-I 0 W/m² 8,7 °C 9,3 °C 3,2 km/h (1 Bft)
10.08.2017 23:43 9,3 °C 9,4 °C 96 % 1017,2 hPa 0,0 mm 1,1 km/h (1 Bft) W-SW 239 ° 0 min 0,000 mm 0,0 UV-I 0 W/m² 8,7 °C 9,3 °C 3,2 km/h (1 Bft)
10.08.2017 23:44 9,3 °C 9,4 °C 96 % 1017,3 hPa 0,0 mm 0,1 km/h (0 Bft) W-SW 239 ° 0 min 0,000 mm 0,0 UV-I 0 W/m² 8,7 °C 9,3 °C 1,6 km/h (1 Bft)
10.08.2017 23:45 9,4 °C 9,4 °C 96 % 1017,3 hPa 0,0 mm 0,0 km/h (0 Bft) W-SW 239 ° 0 min 0,000 mm 0,0 UV-I 0 W/m² 8,8 °C 9,4 °C 0,0 km/h (0 Bft)
10.08.2017 23:46 9,4 °C 9,4 °C 96 % 1017,3 hPa 0,0 mm 1,3 km/h (1 Bft) W-SW 238 ° 0 min 0,000 mm 0,0 UV-I 0 W/m² 8,8 °C 9,4 °C 4,8 km/h (1 Bft)
10.08.2017 23:47 9,4 °C 9,4 °C 96 % 1017,2 hPa 0,0 mm 1,6 km/h (1 Bft) W-SW 251 ° 0 min 0,000 mm 0,0 UV-I 0 W/m² 8,8 °C 9,4 °C 3,2 km/h (1 Bft)
10.08.2017 23:48 9,4 °C 9,4 °C 96 % 1017,2 hPa 0,0 mm 4,1 km/h (1 Bft) S-SW 196 ° 0 min 0,000 mm 0,0 UV-I 0 W/m² 8,8 °C 9,4 °C 6,4 km/h (2 Bft)
10.08.2017 23:49 9,4 °C 9,4 °C 96 % 1017,2 hPa 0,0 mm 3,5 km/h (1 Bft) S-SW 198 ° 0 min 0,000 mm 0,0 UV-I 0 W/m² 8,8 °C 9,4 °C 6,4 km/h (2 Bft)
10.08.2017 23:50 9,4 °C 9,4 °C 96 % 1017,1 hPa 0,0 mm 0,9 km/h (0 Bft) S-SW 198 ° 0 min 0,000 mm 0,0 UV-I 0 W/m² 8,8 °C 9,4 °C 4,8 km/h (1 Bft)
10.08.2017 23:51 9,4 °C 9,4 °C 96 % 1017,1 hPa 0,0 mm 0,0 km/h (0 Bft) S-SW 198 ° 0 min 0,000 mm 0,0 UV-I 0 W/m² 8,8 °C 9,4 °C 0,0 km/h (0 Bft)
10.08.2017 23:52 9,4 °C 9,4 °C 96 % 1017,1 hPa 0,0 mm 0,1 km/h (0 Bft) S-SW 198 ° 0 min 0,000 mm 0,0 UV-I 0 W/m² 8,8 °C 9,4 °C 1,6 km/h (1 Bft)
10.08.2017 23:53 9,4 °C 9,4 °C 96 % 1017,2 hPa 0,0 mm 1,0 km/h (0 Bft) S-SW 198 ° 0 min 0,000 mm 0,0 UV-I 0 W/m² 8,8 °C 9,4 °C 3,2 km/h (1 Bft)
10.08.2017 23:54 9,4 °C 9,4 °C 96 % 1017,1 hPa 0,0 mm 2,1 km/h (1 Bft) S-SW 198 ° 0 min 0,000 mm 0,0 UV-I 0 W/m² 8,8 °C 9,4 °C 3,2 km/h (1 Bft)
10.08.2017 23:55 9,4 °C 9,4 °C 96 % 1017,2 hPa 0,0 mm 2,3 km/h (1 Bft) S-SW 193 ° 0 min 0,000 mm 0,0 UV-I 0 W/m² 8,8 °C 9,4 °C 3,2 km/h (1 Bft)
10.08.2017 23:56 9,4 °C 9,5 °C 96 % 1017,2 hPa 0,0 mm 1,3 km/h (1 Bft) S-SW 193 ° 0 min 0,000 mm 0,0 UV-I 0 W/m² 8,8 °C 9,4 °C 3,2 km/h (1 Bft)
10.08.2017 23:57 9,5 °C 9,5 °C 96 % 1017,2 hPa 0,0 mm 1,5 km/h (1 Bft) S-SW 193 ° 0 min 0,000 mm 0,0 UV-I 0 W/m² 8,9 °C 9,5 °C 3,2 km/h (1 Bft)
10.08.2017 23:58 9,4 °C 9,5 °C 96 % 1017,2 hPa 0,0 mm 0,1 km/h (0 Bft) S-SW 193 ° 0 min 0,000 mm 0,0 UV-I 0 W/m² 8,8 °C 9,4 °C 1,6 km/h (1 Bft)
10.08.2017 23:59 9,4 °C 9,4 °C 96 % 1017,3 hPa 0,0 mm 0,0 km/h (0 Bft) S-SW 193 ° 0 min 0,000 mm 0,0 UV-I 0 W/m² 8,8 °C 9,4 °C 0,0 km/h (0 Bft)
_ Min-Zeit 21:49 21:29 10:59 00:57 - 23:59 - - - - - - 21:12 17:26 23:59
Minimum _ 9,1 °C 9,1 °C 90 % 1013,3 hPa - 0,0 km/h (0 Bft) - - - - - - 8,2 °C 7,2 °C 0,0 km/h (0 Bft)
_ Max-Zeit 02:13 02:16 23:59 18:16 21:46 14:56 - - 23:59 15:01 15:02 15:02 02:13 02:13 17:12
Maximum _ 16,1 °C 16,1 °C 96 % 1017,8 hPa 0,2 mm 21,2 km/h
W (4 Bft)
- - 0 min 0,076 mm 1,8 UV-I 213 W/m² 15,1 °C 16,1 °C 33,8 km/h
W (5 Bft)
Durchschnitt _ 12,9 °C 12,9 °C 93 % 1015,5 hPa #17,4 mm 4,3 km/h (1 Bft) W - #0 min. #0,457 mm 0,8 UV-I 34 W/m² 11,9 °C 12,8 °C 7,3 km/h (2 Bft)